# Wetter Temperatur Luftdruck Luftfeuchtigkeit Sichtweite Windgeschwindigkeit Windrichtung Zeit
1 Clouds 36 998 53 9000 1 0 07:18 14.07.2020
2 Clouds 37 998 63 9000 1 0 06:31 14.07.2020
3 Clouds 34 997 67 9000 1.5 150 05:58 14.07.2020
4 Clouds 34 997 70 10000 0.87 66 04:55 14.07.2020
5 Clouds 34 996 66 10000 1.5 80 04:35 14.07.2020
6 Clouds 34 996 66 10000 1.5 80 03:34 14.07.2020
7 Clouds 33 996 67 10000 1.5 120 02:41 14.07.2020
8 Clouds 35 996 59 10000 2.6 40 01:52 14.07.2020
9 Clouds 35 996 63 10000 2.6 130 01:24 14.07.2020
10 Clouds 35 996 63 10000 2.6 130 00:47 14.07.2020
11 Clouds 35 995 59 10000 4.6 350 00:27 14.07.2020
12 Clouds 35 995 50 10000 3.6 350 23:40 13.07.2020
13 Clouds 35 995 50 10000 3.6 350 23:20 13.07.2020
14 Clouds 35 995 50 10000 3.6 340 22:59 13.07.2020
15 Clouds 35 995 59 10000 4.1 340 22:40 13.07.2020
16 Clouds 35 995 59 10000 4.1 340 22:20 13.07.2020
17 Clouds 35 995 67 10000 5.1 350 21:56 13.07.2020
18 Clouds 35 995 67 10000 5.1 350 21:38 13.07.2020
19 Clouds 35 995 67 10000 5.1 350 21:19 13.07.2020
20 Clouds 35 995 67 10000 4.6 350 20:56 13.07.2020
21 Clouds 35 995 71 10000 4.6 350 20:37 13.07.2020
22 Clouds 35 995 71 10000 4.6 350 20:19 13.07.2020
23 Clouds 36 994 71 10000 4.1 340 19:43 13.07.2020
24 Clouds 36 994 71 10000 4.1 10 19:25 13.07.2020
25 Clouds 36 994 71 10000 3.6 10 18:57 13.07.2020
26 Clouds 36 994 71 8000 4.1 10 18:39 13.07.2020
27 Clouds 36 994 71 8000 4.1 10 18:20 13.07.2020
28 Clouds 36 994 63 6000 4.1 10 17:56 13.07.2020
29 Clouds 36 993 63 6000 4.1 350 17:37 13.07.2020
30 Clouds 36 993 63 6000 4.1 350 17:19 13.07.2020
31 Clouds 37 993 63 6000 4.1 10 16:55 13.07.2020
32 Clouds 38 993 53 6000 4.6 10 16:36 13.07.2020
33 Clouds 38 993 53 6000 4.6 10 16:18 13.07.2020
34 Clouds 39 993 51 6000 4.6 20 15:41 13.07.2020
35 Clouds 39 993 51 6000 4.6 20 15:21 13.07.2020
36 Clouds 40 993 51 6000 4.6 20 14:59 13.07.2020
37 Clouds 39 993 51 6000 4.6 20 14:39 13.07.2020
38 Clouds 40 993 37 9000 4.6 30 14:21 13.07.2020
39 Clouds 39 994 45 9000 5.1 10 13:56 13.07.2020
40 Clouds 39 994 42 9000 6.2 10 13:38 13.07.2020
41 Clouds 40 994 42 9000 6.2 10 13:20 13.07.2020
42 Clouds 41 994 28 9000 4.1 30 12:44 13.07.2020
43 Clouds 41 994 28 9000 4.1 30 12:25 13.07.2020
44 Clouds 41 994 26 8000 4.1 40 11:59 13.07.2020
45 Clouds 41 995 20 8000 4.1 40 11:39 13.07.2020
46 Clouds 41 995 20 8000 4.1 40 11:21 13.07.2020
47 Clouds 40 995 28 6000 4.6 40 10:40 13.07.2020
48 Clouds 40 995 28 6000 4.6 40 10:20 13.07.2020
49 Clouds 39 995 48 7000 3.6 60 09:44 13.07.2020
50 Clouds 39 995 48 7000 3.6 60 09:26 13.07.2020
51 Clouds 39 995 40 7000 3.6 40 08:54 13.07.2020
52 Clouds 39 995 50 7000 3.6 10 08:35 13.07.2020
53 Clouds 37 995 56 7000 4.1 10 07:52 13.07.2020
54 Clouds 37 995 56 7000 3.6 20 07:20 13.07.2020
55 Clouds 37 995 56 7000 3.1 10 06:45 13.07.2020
56 Clouds 35 995 56 7000 3.1 10 06:24 13.07.2020
57 Clouds 34 994 84 10000 0.5 340 04:57 13.07.2020
58 Clouds 34 993 67 10000 1 90 02:42 13.07.2020
59 Clouds 35 993 56 10000 2.1 360 01:40 13.07.2020
60 Clear 35 993 56 10000 2.1 360 01:20 13.07.2020
61 Clear 34 993 63 10000 2.6 360 00:40 13.07.2020
62 Clear 35 993 63 10000 2.6 360 00:20 13.07.2020
63 Clear 35 993 63 10000 2.1 350 23:41 12.07.2020
64 Clear 35 994 59 10000 3.1 360 23:23 12.07.2020
65 Clear 35 994 56 10000 1 350 22:56 12.07.2020
66 Clear 36 994 50 10000 2.1 340 22:37 12.07.2020
67 Clear 36 994 50 10000 2.1 340 22:18 12.07.2020
68 Clear 36 994 50 10000 2.1 340 21:56 12.07.2020
69 Clear 36 994 50 10000 2.1 340 21:38 12.07.2020
70 Clear 37 994 53 10000 3.1 360 21:19 12.07.2020
71 Clear 37 994 53 10000 3.6 10 20:42 12.07.2020
72 Clear 37 994 53 10000 3.6 10 20:42 12.07.2020
73 Clouds 37 994 53 10000 3.6 10 20:20 12.07.2020
74 Clouds 36 994 53 10000 4.6 360 19:59 12.07.2020
75 Clouds 36 994 60 10000 4.6 360 19:39 12.07.2020
76 Clouds 36 994 60 10000 4.6 360 19:20 12.07.2020
77 Clouds 36 993 60 10000 4.6 360 18:54 12.07.2020
78 Clouds 36 993 60 10000 5.1 360 18:36 12.07.2020
79 Clouds 37 993 53 10000 3.1 20 18:18 12.07.2020
80 Clouds 37 993 53 10000 3.1 20 17:38 12.07.2020
81 Clouds 38 993 53 10000 3.1 20 17:20 12.07.2020
82 Clouds 38 993 60 10000 3.6 360 16:48 12.07.2020
83 Clouds 39 993 50 10000 3.1 10 16:22 12.07.2020
84 Clouds 41 993 38 10000 3.1 20 15:50 12.07.2020
85 Clear 41 993 28 10000 3.6 70 15:31 12.07.2020
86 Clear 41 993 28 10000 3.6 70 14:58 12.07.2020
87 Clear 41 993 28 10000 3.6 70 14:40 12.07.2020
88 Clear 41 993 28 10000 3.6 70 14:40 12.07.2020
89 Clouds 42 994 30 10000 3.1 90 14:22 12.07.2020
90 Clouds 42 994 32 10000 3.6 60 13:40 12.07.2020
91 Clouds 42 994 32 10000 3.6 60 13:21 12.07.2020
92 Clouds 41 994 36 10000 3.6 40 12:57 12.07.2020
93 Clouds 41 994 36 10000 3.6 40 12:57 12.07.2020
94 Clouds 41 995 34 10000 3.6 50 12:38 12.07.2020
95 Clouds 41 995 34 10000 3.6 50 12:38 12.07.2020
96 Clouds 41 995 34 10000 3.6 50 12:18 12.07.2020
97 Clouds 41 995 23 10000 2.6 80 11:44 12.07.2020
98 Clouds 40 995 40 10000 3.1 20 11:21 12.07.2020
99 Clouds 41 995 34 10000 4.1 0 10:45 12.07.2020
100 Clouds 41 995 34 10000 3.6 130 10:23 12.07.2020
101 Clouds 41 995 38 10000 4.1 140 09:59 12.07.2020
102 Clouds 40 995 38 10000 4.1 140 09:40 12.07.2020
103 Clear 40 995 42 10000 4.6 140 09:21 12.07.2020
104 Clear 40 995 38 10000 4.6 130 08:55 12.07.2020
105 Clear 40 995 35 10000 4.6 130 08:37 12.07.2020
106 Clouds 39 995 35 10000 4.6 130 08:18 12.07.2020
107 Clouds 38 995 42 10000 1.5 90 07:45 12.07.2020
108 Clouds 38 995 42 10000 1.5 90 07:22 12.07.2020
109 Clouds 37 995 50 10000 1 0 06:52 12.07.2020
110 Clouds 36 995 53 10000 0.5 0 06:22 12.07.2020
111 Clouds 33 994 63 10000 2.1 20 05:44 12.07.2020
112 Clouds 33 994 66 10000 2.1 340 04:57 12.07.2020
113 Clouds 33 994 70 10000 1.5 340 04:28 12.07.2020
114 Clouds 33 994 66 10000 0.5 0 03:40 12.07.2020
115 Clouds 33 993 70 10000 0.5 0 03:19 12.07.2020
116 Clouds 34 993 63 10000 3.6 10 01:50 12.07.2020
117 Clouds 34 993 63 10000 2.1 360 00:54 12.07.2020
118 Clouds 35 993 63 10000 3.1 10 00:24 12.07.2020
119 Clouds 35 994 71 10000 2.1 10 23:58 11.07.2020
120 Clouds 35 994 71 10000 2.1 10 23:39 11.07.2020
121 Clouds 34 994 79 10000 2.6 10 23:20 11.07.2020
122 Clouds 35 994 79 6000 3.1 20 22:56 11.07.2020
123 Clouds 34 994 84 6000 2.1 360 22:37 11.07.2020
124 Clouds 34 994 84 6000 2.1 360 22:37 11.07.2020
125 Clouds 35 994 79 6000 2.1 10 22:18 11.07.2020
126 Clouds 35 994 79 6000 2.1 10 21:42 11.07.2020
127 Clouds 35 995 75 7000 1.5 20 21:23 11.07.2020
128 Clouds 35 995 79 7000 1 0 20:59 11.07.2020
129 Clouds 35 995 79 7000 2.6 10 20:39 11.07.2020
130 Clouds 35 995 79 7000 2.6 10 20:39 11.07.2020
131 Clouds 35 995 79 7000 2.6 10 20:21 11.07.2020
132 Clouds 35 995 79 7000 2.1 20 19:58 11.07.2020
133 Clouds 35 995 75 7000 2.6 30 19:40 11.07.2020
134 Clouds 35 995 75 7000 2.6 30 19:21 11.07.2020
135 Clouds 36 994 71 8000 3.1 10 18:56 11.07.2020
136 Clouds 37 994 50 8000 2.6 50 18:37 11.07.2020
137 Clouds 37 994 50 8000 2.6 50 18:19 11.07.2020
138 Clouds 37 994 50 8000 2.6 50 17:43 11.07.2020
139 Clouds 39 994 35 9000 2.1 90 17:22 11.07.2020
140 Clouds 40 994 37 9000 2.6 110 16:59 11.07.2020
141 Clouds 40 994 37 9000 2.6 110 16:39 11.07.2020
142 Clouds 41 994 29 10000 4.1 110 16:20 11.07.2020
143 Clouds 41 994 33 10000 3.6 60 15:57 11.07.2020
144 Clouds 42 994 32 10000 3.1 100 15:37 11.07.2020
145 Clouds 42 994 32 10000 3.1 100 15:19 11.07.2020
146 Clouds 42 994 32 10000 3.1 100 14:47 11.07.2020
147 Clouds 43 994 22 10000 5.1 110 14:24 11.07.2020
148 Clouds 43 994 22 10000 5.1 110 13:58 11.07.2020
149 Clouds 43 995 18 10000 5.7 120 13:40 11.07.2020
150 Clouds 43 995 18 10000 5.7 120 13:21 11.07.2020
151 Clouds 43 995 17 10000 5.7 120 12:45 11.07.2020
152 Clouds 43 995 17 10000 5.7 120 12:45 11.07.2020
153 Clouds 43 995 17 10000 5.7 120 12:23 11.07.2020
154 Clouds 43 995 17 10000 5.7 120 12:23 11.07.2020
155 Clouds 42 995 23 10000 6.2 130 11:59 11.07.2020
156 Clouds 42 996 26 10000 5.7 120 11:41 11.07.2020
157 Clear 42 996 26 10000 5.7 120 11:20 11.07.2020
158 Clear 41 996 24 10000 5.1 120 10:46 11.07.2020
159 Clear 41 996 30 10000 5.7 110 10:28 11.07.2020
160 Clear 41 996 30 10000 5.7 110 09:59 11.07.2020
161 Clear 41 997 21 10000 5.1 100 09:37 11.07.2020
162 Clear 41 997 21 10000 5.1 100 09:19 11.07.2020
163 Clear 39 997 45 10000 5.7 110 08:43 11.07.2020
164 Clear 39 997 42 10000 5.1 100 08:25 11.07.2020
165 Clear 39 996 42 10000 3.1 70 07:55 11.07.2020
166 Clear 38 996 50 10000 2.6 50 07:36 11.07.2020
167 Clear 38 996 50 10000 2.6 50 07:18 11.07.2020
168 Clear 35 997 59 10000 3.1 20 06:25 11.07.2020
169 Clear 35 996 71 10000 3.6 10 05:54 11.07.2020
170 Clear 34 996 75 9000 2.6 340 05:19 11.07.2020
171 Clear 33 996 75 9000 2.6 340 04:39 11.07.2020
172 Clear 33 996 75 9000 3.1 340 04:19 11.07.2020
173 Clear 33 995 59 10000 2.6 270 02:53 11.07.2020
174 Clear 34 994 53 10000 4.1 310 01:57 11.07.2020
175 Clear 35 994 63 10000 1 120 01:21 11.07.2020
176 Clear 35 994 63 10000 1 120 00:55 11.07.2020
177 Clear 35 994 59 10000 3.1 140 00:36 11.07.2020
178 Clear 35 994 59 10000 3.1 140 00:18 11.07.2020
179 Clear 35 995 63 10000 3.1 140 23:44 10.07.2020
180 Clear 35 995 63 10000 2.6 140 23:26 10.07.2020
181 Clear 35 995 63 10000 2.6 140 22:55 10.07.2020
182 Clear 35 995 67 10000 2.6 140 22:36 10.07.2020
183 Clear 35 996 75 10000 2.1 150 22:18 10.07.2020
184 Clear 36 996 71 10000 2.1 120 21:38 10.07.2020
185 Clear 36 996 71 10000 2.1 120 21:20 10.07.2020
186 Clear 36 996 71 10000 2.6 100 20:55 10.07.2020
187 Clear 36 996 63 10000 2.1 110 20:36 10.07.2020
188 Clouds 36 996 63 10000 2.1 110 20:18 10.07.2020
189 Clouds 36 996 71 10000 2.1 120 19:43 10.07.2020
190 Clouds 36 996 71 10000 2.1 120 19:22 10.07.2020
191 Clouds 36 995 79 10000 2.6 100 18:58 10.07.2020
192 Clouds 36 995 79 10000 2.6 100 18:58 10.07.2020
193 Clouds 36 995 67 10000 3.1 100 18:37 10.07.2020
194 Clouds 36 995 67 10000 3.1 100 18:18 10.07.2020
195 Clouds 37 995 67 10000 3.1 100 17:43 10.07.2020
196 Clouds 37 995 60 10000 3.6 90 17:24 10.07.2020
197 Clouds 39 995 48 10000 3.6 90 16:57 10.07.2020
198 Clouds 40 994 45 10000 4.1 120 16:39 10.07.2020
199 Clouds 40 994 45 10000 4.1 120 16:18 10.07.2020
200 Clouds 41 994 40 10000 3.1 110 15:44 10.07.2020
201 Clouds 42 994 38 10000 4.6 120 15:21 10.07.2020
202 Clouds 42 994 38 10000 4.6 120 14:54 10.07.2020
203 Clouds 43 994 22 10000 4.6 120 14:36 10.07.2020
204 Clouds 44 994 22 10000 4.6 120 14:18 10.07.2020
205 Clouds 44 994 32 10000 6.2 120 13:54 10.07.2020
206 Clouds 44 994 36 10000 6.2 110 13:36 10.07.2020
207 Clear 44 995 30 10000 4.6 110 13:18 10.07.2020
208 Clear 44 995 30 10000 4.6 110 12:42 10.07.2020
209 Clear 44 995 30 10000 4.6 110 12:23 10.07.2020
210 Clear 44 995 21 10000 3.1 150 11:58 10.07.2020
211 Clear 44 996 11 10000 3.1 220 11:38 10.07.2020
212 Clear 44 996 11 10000 3.1 220 11:18 10.07.2020
213 Clear 44 996 13 10000 4.1 220 10:41 10.07.2020
214 Clear 43 997 16 10000 4.6 200 10:21 10.07.2020
215 Clear 44 997 16 10000 4.6 200 09:56 10.07.2020
216 Clear 43 997 18 10000 5.1 200 09:36 10.07.2020
217 Clear 43 997 18 10000 5.1 200 09:18 10.07.2020
218 Clear 41 997 25 10000 4.6 190 08:54 10.07.2020
219 Clear 41 997 32 10000 3.6 200 08:36 10.07.2020
220 Clear 41 997 32 10000 3.6 200 08:18 10.07.2020
221 Clear 38 997 42 10000 4.1 210 07:41 10.07.2020
222 Clear 39 997 40 10000 4.1 200 07:20 10.07.2020
223 Clear 36 997 67 9000 3.1 190 06:45 10.07.2020
224 Clear 35 997 75 8000 4.1 170 05:54 10.07.2020
225 Clear 34 996 75 6000 3.1 180 04:32 10.07.2020
226 Clear 33 996 89 7000 2.6 140 03:31 10.07.2020
227 Clear 33 996 89 8000 2.6 130 02:49 10.07.2020
228 Clouds 34 995 89 9000 1.5 150 01:47 10.07.2020
229 Clouds 34 995 84 9000 1 130 00:45 10.07.2020
230 Clouds 33 995 84 9000 1 130 00:18 10.07.2020
231 Clouds 33 996 84 9000 1 0 23:45 09.07.2020
232 Clouds 33 996 84 9000 0.5 0 23:21 09.07.2020
233 Clouds 34 996 84 9000 1 0 22:58 09.07.2020
234 Clouds 34 996 84 9000 1.5 130 22:39 09.07.2020
235 Clouds 34 996 84 9000 1.5 130 22:21 09.07.2020
236 Clouds 34 996 84 9000 1.5 90 21:56 09.07.2020
237 Clouds 34 996 79 10000 1.5 100 21:37 09.07.2020
238 Clear 34 996 79 10000 1.5 100 21:37 09.07.2020
239 Clear 35 996 79 10000 1.5 100 21:18 09.07.2020
240 Clear 35 996 71 10000 1.5 80 20:42 09.07.2020
241 Clear 35 996 75 10000 2.1 130 20:24 09.07.2020
242 Clear 36 996 71 10000 2.6 130 19:56 09.07.2020
243 Clear 36 996 71 10000 2.1 130 19:38 09.07.2020
244 Clear 36 996 71 10000 2.1 130 19:20 09.07.2020
245 Clear 36 996 67 10000 3.1 130 18:42 09.07.2020
246 Clear 37 996 67 10000 3.1 130 18:20 09.07.2020
247 Clear 37 996 56 10000 3.6 130 17:55 09.07.2020
248 Clear 38 996 53 10000 3.1 110 17:37 09.07.2020
249 Clouds 38 996 53 10000 3.1 110 17:18 09.07.2020
250 Clouds 38 996 53 10000 3.1 110 16:54 09.07.2020
251 Clouds 39 996 50 10000 3.1 100 16:36 09.07.2020
252 Clouds 39 996 50 10000 3.1 100 16:18 09.07.2020
253 Clouds 40 996 50 10000 3.1 100 15:45 09.07.2020
254 Clouds 40 996 45 10000 4.1 100 15:27 09.07.2020
255 Clouds 40 996 45 10000 3.6 80 14:59 09.07.2020
256 Clouds 40 996 45 10000 3.6 80 14:41 09.07.2020
257 Clouds 40 996 45 10000 3.6 80 14:41 09.07.2020
258 Clouds 40 996 40 9000 3.6 50 14:22 09.07.2020
259 Clouds 40 996 40 9000 3.6 50 13:58 09.07.2020
260 Clouds 40 997 45 9000 3.6 60 13:39 09.07.2020
261 Clouds 40 997 45 9000 3.6 60 13:20 09.07.2020
262 Clouds 40 997 51 9000 4.6 100 12:43 09.07.2020
263 Clear 41 997 45 9000 4.1 80 12:24 09.07.2020
264 Clear 41 998 43 9000 4.1 60 11:59 09.07.2020
265 Clear 41 998 43 9000 4.1 60 11:41 09.07.2020
266 Clear 41 998 38 9000 4.1 40 11:23 09.07.2020
267 Clear 40 998 43 9000 4.1 20 10:58 09.07.2020
268 Clear 40 998 43 9000 4.1 20 10:40 09.07.2020
269 Clear 40 998 43 9000 4.1 20 10:40 09.07.2020
270 Clear 40 998 43 9000 4.1 20 10:22 09.07.2020
271 Clear 39 998 43 9000 3.1 350 09:44 09.07.2020
272 Clear 39 998 43 9000 3.1 350 09:24 09.07.2020
273 Clear 40 998 42 9000 3.1 350 08:56 09.07.2020
274 Clear 40 998 30 10000 1.5 0 08:37 09.07.2020
275 Clear 40 998 30 10000 1.5 0 08:18 09.07.2020
276 Clear 38 998 42 10000 3.6 150 07:45 09.07.2020
277 Clear 37 998 45 10000 2.6 130 07:22 09.07.2020
278 Clear 35 998 60 10000 1 0 06:41 09.07.2020
279 Clear 35 998 60 10000 1 0 06:19 09.07.2020
280 Clear 33 997 66 10000 1.5 130 04:29 09.07.2020
281 Clear 33 997 75 9000 3.1 90 03:25 09.07.2020
282 Clouds 33 996 70 9000 3.6 80 02:18 09.07.2020
283 Clouds 32 996 89 7000 3.6 70 01:32 09.07.2020
284 Clouds 33 996 84 7000 3.6 60 00:46 09.07.2020
285 Clouds 33 996 79 7000 2.6 50 00:23 09.07.2020
286 Clouds 33 997 75 7000 2.1 60 23:46 08.07.2020
287 Clouds 33 997 75 7000 2.6 40 23:27 08.07.2020
288 Clouds 33 997 70 7000 2.6 50 22:57 08.07.2020
289 Clouds 33 997 70 7000 2.6 50 22:38 08.07.2020
290 Clouds 33 997 79 7000 2.1 20 22:20 08.07.2020
291 Clouds 34 997 79 7000 2.1 20 21:57 08.07.2020
292 Clouds 34 998 84 7000 2.1 20 21:38 08.07.2020
293 Clouds 34 998 84 7000 2.1 20 21:20 08.07.2020
294 Clear 34 998 84 7000 2.1 20 20:43 08.07.2020
295 Clear 34 997 71 6000 1.5 360 20:25 08.07.2020
296 Clear 34 997 71 6000 1.5 360 19:58 08.07.2020
297 Haze 34 997 71 5000 1.5 30 19:39 08.07.2020
298 Haze 34 997 71 5000 1.5 30 19:21 08.07.2020
299 Clear 35 997 71 7000 2.1 90 18:55 08.07.2020
300 Clear 35 997 67 6000 2.6 80 18:36 08.07.2020
301 Clear 35 997 67 6000 2.6 80 18:18 08.07.2020
302 Clear 36 997 59 6000 3.1 50 17:54 08.07.2020
303 Clear 37 997 53 7000 3.1 60 17:36 08.07.2020
304 Clear 36 997 53 7000 3.1 60 17:18 08.07.2020
305 Clear 37 996 56 6000 3.1 60 16:38 08.07.2020
306 Clear 38 996 56 6000 3.1 60 16:19 08.07.2020
307 Clear 38 996 56 6000 3.1 60 15:58 08.07.2020
308 Clear 37 997 67 7000 5.1 90 15:39 08.07.2020
309 Clear 37 997 67 7000 5.1 90 15:19 08.07.2020
310 Clear 37 997 67 7000 5.1 90 14:44 08.07.2020
311 Clear 38 997 67 7000 4.1 80 14:25 08.07.2020
312 Clear 38 997 63 7000 4.6 70 13:58 08.07.2020
313 Clear 38 997 63 7000 4.6 70 13:40 08.07.2020
314 Clear 38 997 63 7000 4.6 70 13:40 08.07.2020
315 Clear 39 997 53 10000 4.1 90 13:18 08.07.2020
316 Clear 40 997 48 10000 3.6 100 12:41 08.07.2020
317 Clear 41 997 48 10000 3.6 100 12:20 08.07.2020
318 Clear 40 997 48 10000 3.6 100 11:56 08.07.2020
319 Clear 41 997 48 10000 2.6 90 11:37 08.07.2020
320 Clear 40 997 48 10000 2.6 90 11:19 08.07.2020
321 Clear 40 997 54 10000 2.6 80 10:43 08.07.2020
322 Clear 40 998 57 10000 2.6 100 10:24 08.07.2020
323 Clear 38 998 56 10000 2.6 80 09:46 08.07.2020
324 Clear 38 998 45 10000 3.1 110 09:25 08.07.2020
325 Clear 38 998 45 10000 3.1 110 08:56 08.07.2020
326 Clear 38 998 45 10000 3.1 110 08:38 08.07.2020
327 Clouds 37 998 56 10000 4.1 90 08:19 08.07.2020
328 Clouds 37 997 50 10000 3.1 110 07:42 08.07.2020
329 Clouds 37 997 50 10000 3.1 110 07:19 08.07.2020
330 Clouds 35 997 53 10000 3.1 90 06:45 08.07.2020
331 Clouds 35 997 60 10000 1 0 06:25 08.07.2020
332 Clouds 33 997 67 8000 1 0 05:45 08.07.2020
333 Clouds 33 996 66 8000 2.62 87 04:50 08.07.2020
334 Clouds 33 996 66 10000 1.9 138 03:39 08.07.2020
335 Clouds 33 995 59 10000 2.1 150 02:19 08.07.2020
336 Clouds 33 995 59 10000 1 150 01:38 08.07.2020
337 Clouds 34 995 63 10000 1 130 00:51 08.07.2020
338 Clear 35 995 63 10000 1.5 120 00:20 08.07.2020
339 Clear 35 995 63 10000 1.5 140 23:44 07.07.2020
340 Clear 36 996 53 10000 2.1 100 23:22 07.07.2020
341 Clear 36 996 53 10000 2.1 100 22:57 07.07.2020
342 Clear 36 996 53 10000 2.1 100 22:57 07.07.2020
343 Clear 36 996 53 10000 2.1 100 22:38 07.07.2020
344 Clear 36 996 53 10000 2.1 100 22:20 07.07.2020
345 Clear 36 996 56 10000 2.1 110 21:56 07.07.2020
346 Clear 36 996 47 10000 2.1 120 21:38 07.07.2020
347 Clear 36 996 47 10000 2.1 120 21:38 07.07.2020
348 Clear 36 996 47 10000 2.1 120 21:18 07.07.2020
349 Clear 37 996 41 10000 1.5 80 20:42 07.07.2020
350 Clear 36 996 39 10000 1.5 70 20:23 07.07.2020
351 Clear 37 996 37 10000 1.5 40 19:58 07.07.2020
352 Clear 37 995 35 10000 2.1 90 19:39 07.07.2020
353 Clear 37 995 35 10000 2.1 90 19:19 07.07.2020
354 Clear 37 995 42 10000 2.1 70 18:55 07.07.2020
355 Clear 37 995 42 10000 2.6 80 18:37 07.07.2020
356 Clear 37 995 42 10000 2.6 80 18:18 07.07.2020
357 Clear 37 995 42 10000 3.1 80 17:44 07.07.2020
358 Clear 38 995 35 10000 3.6 70 17:23 07.07.2020
359 Clear 39 995 33 10000 3.6 80 16:59 07.07.2020
360 Clear 39 995 33 10000 3.6 80 16:40 07.07.2020
361 Clear 40 995 28 10000 3.6 80 16:22 07.07.2020
362 Clear 40 995 28 10000 3.6 80 15:55 07.07.2020
363 Clear 41 995 33 10000 4.1 100 15:37 07.07.2020
364 Clear 41 995 33 10000 4.1 100 15:18 07.07.2020
365 Clear 40 995 33 10000 4.1 100 14:42 07.07.2020
366 Clear 41 995 30 10000 4.6 110 14:42 07.07.2020
367 Clear 41 995 30 10000 4.6 110 14:24 07.07.2020
368 Clear 41 995 35 10000 4.6 100 13:43 07.07.2020
369 Clear 41 995 36 10000 4.1 80 13:20 07.07.2020
370 Clear 40 996 38 10000 4.6 80 12:56 07.07.2020
371 Clear 40 996 48 10000 4.6 110 12:37 07.07.2020
372 Clear 39 996 48 10000 4.6 110 12:18 07.07.2020
373 Clear 39 996 51 10000 4.6 80 11:43 07.07.2020
374 Clear 38 996 63 10000 6.2 100 11:22 07.07.2020
375 Clear 39 996 57 10000 5.7 80 10:58 07.07.2020
376 Clear 41 996 45 10000 6.2 80 10:39 07.07.2020
377 Clear 41 996 45 10000 6.2 80 10:20 07.07.2020
378 Clear 44 996 13 10000 1.5 0 09:43 07.07.2020
379 Clear 44 996 18 10000 3.1 200 09:21 07.07.2020
380 Clear 42 996 25 10000 3.1 230 08:57 07.07.2020
381 Clear 41 996 33 10000 3.1 190 08:39 07.07.2020
382 Clear 40 996 33 10000 3.1 190 08:19 07.07.2020
383 Clear 38 996 44 10000 3.1 210 07:38 07.07.2020
384 Clear 38 996 44 10000 3.1 210 07:19 07.07.2020
385 Clear 36 995 59 9000 3.1 200 06:45 07.07.2020
386 Clear 34 995 59 9000 2.6 200 06:26 07.07.2020
387 Clear 33 995 59 9000 2.6 200 05:43 07.07.2020
388 Clear 34 994 66 8000 1 0 04:52 07.07.2020
389 Clear 33 994 66 10000 1 0 03:49 07.07.2020
390 Clear 33 994 70 10000 2.6 200 03:30 07.07.2020
391 Clear 34 993 59 10000 1 0 01:55 07.07.2020
392 Clear 33 993 75 10000 1 130 01:19 07.07.2020
393 Clear 33 993 70 10000 0.5 0 00:41 07.07.2020
394 Clear 33 993 70 10000 0.5 0 00:21 07.07.2020
395 Clear 34 994 70 10000 0.5 0 23:44 06.07.2020
396 Clear 34 994 70 10000 2.1 140 23:25 06.07.2020
397 Clear 34 994 75 10000 1.5 130 22:59 06.07.2020
398 Clear 34 994 75 10000 1.5 130 22:39 06.07.2020
399 Clear 34 995 70 10000 1.5 130 22:19 06.07.2020
400 Clear 34 995 70 10000 1.5 130 21:56 06.07.2020
401 Clear 35 995 67 10000 1.5 10 21:37 06.07.2020
402 Clear 35 995 67 10000 1.5 10 21:18 06.07.2020
403 Clear 35 995 67 10000 1.5 10 20:41 06.07.2020
404 Clouds 35 994 63 10000 1.5 20 20:22 06.07.2020
405 Clouds 35 994 63 10000 1.5 40 19:59 06.07.2020
406 Clouds 35 994 63 10000 2.1 40 19:41 06.07.2020
407 Clouds 35 994 63 10000 2.1 40 19:23 06.07.2020
408 Clouds 36 994 63 10000 2.1 80 18:58 06.07.2020
409 Clouds 36 994 56 10000 2.6 100 18:40 06.07.2020
410 Clouds 37 994 56 10000 2.6 100 18:22 06.07.2020
411 Clouds 37 993 56 10000 2.1 100 17:56 06.07.2020
412 Clouds 38 993 53 10000 2.6 90 17:37 06.07.2020
413 Clouds 38 993 53 10000 2.6 90 17:19 06.07.2020
414 Clouds 39 993 47 10000 2.6 60 16:43 06.07.2020
415 Clouds 40 993 42 10000 3.1 30 16:23 06.07.2020
416 Clouds 41 993 38 10000 4.1 40 15:55 06.07.2020
417 Clouds 42 993 30 10000 3.6 30 15:37 06.07.2020
418 Clouds 42 993 30 10000 3.6 30 15:37 06.07.2020
419 Clouds 42 993 30 10000 3.6 30 15:18 06.07.2020
420 Clouds 42 993 30 10000 3.6 30 14:41 06.07.2020
421 Clouds 42 993 26 10000 4.6 50 14:23 06.07.2020
422 Clouds 44 993 28 10000 3.6 70 13:59 06.07.2020
423 Clouds 45 993 27 10000 5.1 90 13:40 06.07.2020
424 Clouds 45 993 27 10000 5.1 90 13:21 06.07.2020
425 Clouds 46 993 10 10000 5.1 30 12:44 06.07.2020
426 Clear 45 993 27 10000 3.6 100 12:20 06.07.2020
427 Clear 46 993 22 10000 2.6 40 11:59 06.07.2020
428 Clear 46 993 8 10000 2.6 340 11:40 06.07.2020
429 Clear 46 993 8 10000 2.6 340 11:22 06.07.2020
430 Clear 47 993 8 10000 3.1 340 10:58 06.07.2020
431 Clear 47 994 8 10000 3.1 300 10:39 06.07.2020
432 Clear 46 994 8 10000 3.1 300 10:18 06.07.2020
433 Clear 46 994 7 10000 3.1 290 09:45 06.07.2020
434 Clear 46 994 8 10000 2.6 280 09:22 06.07.2020
435 Clear 44 994 8 10000 3.1 270 08:58 06.07.2020
436 Clear 45 994 8 10000 3.1 270 08:39 06.07.2020
437 Clear 43 994 9 10000 3.1 250 08:20 06.07.2020
438 Clear 42 994 10 10000 3.6 250 07:47 06.07.2020
439 Clouds 42 993 11 10000 3.6 250 07:29 06.07.2020
440 Clouds 40 993 11 10000 2.6 250 06:45 06.07.2020
441 Clouds 39 993 11 10000 2.6 250 06:27 06.07.2020
442 Clouds 36 993 14 10000 2.6 250 05:44 06.07.2020
443 Clouds 36 993 13 10000 3.6 250 05:22 06.07.2020
444 Clouds 36 992 15 10000 4.1 230 03:52 06.07.2020
445 Clouds 36 992 23 10000 2.6 220 02:25 06.07.2020
446 Clouds 36 992 26 10000 4.6 210 01:44 06.07.2020
447 Clouds 35 992 39 10000 4.1 200 00:39 06.07.2020
448 Clouds 35 992 39 10000 4.1 200 00:21 06.07.2020
449 Clouds 36 992 44 10000 3.6 200 23:45 05.07.2020
450 Clouds 36 992 44 10000 3.1 200 23:27 05.07.2020
451 Clouds 36 993 42 10000 3.6 190 22:59 05.07.2020
452 Clouds 36 993 42 10000 3.6 190 22:41 05.07.2020
453 Clouds 36 993 42 10000 3.6 190 22:41 05.07.2020
454 Clouds 36 993 39 10000 3.1 170 22:20 05.07.2020
455 Clouds 36 993 44 10000 2.6 150 21:58 05.07.2020
456 Clouds 36 993 47 10000 2.6 150 21:40 05.07.2020
457 Clouds 36 993 47 10000 2.6 150 21:40 05.07.2020
458 Clear 36 993 47 10000 2.6 150 21:19 05.07.2020
459 Clear 36 993 47 10000 2.6 140 20:58 05.07.2020
460 Clear 36 993 47 10000 2.6 140 20:58 05.07.2020
461 Clear 36 993 53 10000 2.1 140 20:39 05.07.2020
462 Clouds 36 993 53 10000 2.1 140 20:21 05.07.2020
463 Clouds 36 993 59 10000 3.6 130 19:55 05.07.2020
464 Clouds 37 993 60 10000 3.1 130 19:36 05.07.2020
465 Clouds 37 993 60 10000 3.1 130 19:18 05.07.2020
466 Clouds 38 992 53 10000 2.6 110 18:41 05.07.2020
467 Clouds 39 992 53 10000 2.6 110 18:21 05.07.2020
468 Clouds 41 992 47 10000 3.6 70 17:56 05.07.2020
469 Clouds 44 992 7 10000 5.1 330 17:37 05.07.2020
470 Clouds 44 992 7 10000 5.1 330 17:18 05.07.2020
471 Clouds 46 992 18 10000 6.2 330 16:43 05.07.2020
472 Clouds 46 992 6 10000 5.1 320 16:24 05.07.2020
473 Clouds 47 992 6 10000 6.2 310 15:55 05.07.2020
474 Clouds 47 992 6 10000 6.2 300 15:37 05.07.2020
475 Clouds 47 992 6 10000 6.2 300 15:18 05.07.2020
476 Clouds 47 992 6 10000 5.7 310 14:41 05.07.2020
477 Clouds 47 992 6 10000 5.7 310 14:22 05.07.2020
478 Clouds 47 992 6 10000 5.7 310 13:42 05.07.2020
479 Clouds 47 992 6 10000 5.7 300 13:24 05.07.2020
480 Clouds 47 992 7 10000 6.2 300 12:56 05.07.2020
481 Clouds 47 993 8 10000 5.7 300 12:38 05.07.2020
482 Clouds 47 993 8 10000 5.7 300 12:19 05.07.2020
483 Clouds 46 993 8 10000 6.7 310 11:40 05.07.2020
484 Clouds 46 993 7 10000 5.7 320 11:21 05.07.2020
485 Clouds 46 993 8 10000 5.1 330 10:59 05.07.2020
486 Clouds 46 994 12 10000 4.1 300 10:40 05.07.2020
487 Clouds 45 994 12 10000 4.1 300 10:19 05.07.2020
488 Clouds 45 994 12 10000 4.1 300 09:56 05.07.2020
489 Clouds 45 994 13 10000 4.6 300 09:37 05.07.2020
490 Clear 44 994 13 10000 4.6 300 09:19 05.07.2020
491 Clear 43 994 14 10000 4.6 310 08:46 05.07.2020
492 Clouds 42 994 16 10000 4.6 300 08:27 05.07.2020
493 Clouds 41 994 17 10000 4.6 290 07:48 05.07.2020
494 Clouds 41 994 18 10000 4.6 290 07:29 05.07.2020
495 Clouds 39 994 20 10000 3.1 290 06:51 05.07.2020
496 Clouds 35 994 29 10000 2.6 260 05:41 05.07.2020
497 Clouds 34 993 36 10000 2.1 280 03:32 05.07.2020
498 Clouds 34 993 36 10000 2.1 280 02:43 05.07.2020
499 Clouds 35 993 32 10000 1.5 270 02:25 05.07.2020
500 Clouds 36 993 27 10000 2.1 280 01:33 05.07.2020
501 Clouds 36 994 24 10000 2.1 270 00:59 05.07.2020
502 Clouds 36 994 17 10000 2.6 300 00:40 05.07.2020
503 Clouds 36 994 17 10000 2.6 300 00:20 05.07.2020
504 Clouds 37 994 17 10000 2.1 300 23:47 04.07.2020
505 Clouds 37 994 17 10000 2.6 310 23:28 04.07.2020
506 Clouds 36 995 17 10000 2.6 310 22:57 04.07.2020
507 Clouds 36 995 17 10000 3.1 330 22:37 04.07.2020
508 Clouds 36 995 17 10000 3.1 330 22:19 04.07.2020
509 Clouds 37 995 16 10000 3.6 330 21:42 04.07.2020
510 Clouds 37 995 18 10000 3.6 340 21:23 04.07.2020
511 Clouds 38 995 16 10000 5.1 330 20:58 04.07.2020
512 Clouds 38 996 16 10000 5.7 330 20:39 04.07.2020
513 Clear 38 996 16 10000 5.7 330 20:19 04.07.2020
514 Clear 38 995 17 10000 6.2 330 19:45 04.07.2020
515 Clear 38 995 18 10000 5.7 330 19:22 04.07.2020
516 Clear 39 995 18 10000 5.7 330 18:55 04.07.2020
517 Clear 39 995 17 10000 5.7 340 18:37 04.07.2020
518 Clear 40 995 16 10000 7.7 340 18:19 04.07.2020
519 Clear 41 995 17 10000 6.7 340 17:42 04.07.2020
520 Clear 41 995 17 10000 6.7 340 17:23 04.07.2020
521 Clear 43 995 13 10000 8.2 340 16:57 04.07.2020
522 Clear 43 994 12 10000 9.8 340 16:38 04.07.2020
523 Clear 43 994 12 10000 9.8 340 16:19 04.07.2020
524 Clear 43 994 12 10000 9.8 340 16:19 04.07.2020
525 Clear 44 994 12 10000 9.8 340 15:46 04.07.2020
526 Clear 43 994 14 10000 9.8 340 15:27 04.07.2020
527 Clear 43 994 14 10000 9.8 340 14:59 04.07.2020
528 Clear 44 995 15 10000 9.8 350 14:38 04.07.2020
529 Clouds 44 995 15 10000 9.8 350 14:19 04.07.2020
530 Clouds 45 995 13 10000 9.8 350 13:58 04.07.2020
531 Clouds 44 995 12 10000 9.8 350 13:39 04.07.2020
532 Clouds 45 995 12 10000 9.8 350 13:18 04.07.2020
533 Clouds 44 996 21 10000 8.7 350 12:42 04.07.2020
534 Clouds 44 996 21 10000 8.7 350 12:21 04.07.2020
535 Clouds 44 996 18 10000 9.8 350 11:54 04.07.2020
536 Clouds 44 996 15 10000 9.8 340 11:36 04.07.2020
537 Clouds 44 996 15 10000 9.8 340 11:18 04.07.2020
538 Clouds 45 996 14 10000 9.8 340 10:41 04.07.2020
539 Clouds 44 997 16 10000 8.7 340 10:21 04.07.2020
540 Clouds 43 997 19 10000 8.7 350 09:58 04.07.2020
541 Clouds 43 997 19 10000 8.7 350 09:58 04.07.2020
542 Clouds 43 997 18 10000 8.7 340 09:37 04.07.2020
543 Clouds 43 997 18 10000 8.7 340 09:19 04.07.2020
544 Clouds 42 997 23 10000 7.7 340 08:46 04.07.2020
545 Clear 41 997 24 10000 7.7 330 08:27 04.07.2020
546 Clear 39 997 29 10000 8.2 340 07:46 04.07.2020
547 Clear 39 997 29 10000 8.2 340 07:28 04.07.2020
548 Clear 38 997 31 10000 7.7 330 06:55 04.07.2020
549 Clear 37 997 31 10000 5.7 330 06:22 04.07.2020
550 Clear 35 997 37 10000 5.1 320 05:35 04.07.2020
551 Clear 35 997 37 10000 4.1 320 04:44 04.07.2020
552 Clear 35 996 37 10000 5.1 310 03:18 04.07.2020
553 Clear 35 996 34 10000 5.1 310 02:23 04.07.2020
554 Clear 35 996 30 10000 5.7 310 01:31 04.07.2020
555 Clear 36 996 30 10000 5.1 310 00:44 04.07.2020
556 Clear 36 996 30 10000 5.1 310 00:24 04.07.2020
557 Clear 35 996 30 10000 4.6 310 23:40 03.07.2020
558 Clear 35 997 30 10000 5.1 310 23:19 03.07.2020
559 Clear 36 997 27 10000 5.1 320 22:58 03.07.2020
560 Clear 36 997 27 10000 5.1 320 22:39 03.07.2020
561 Clear 36 998 25 10000 4.1 320 22:20 03.07.2020
562 Clear 36 998 25 10000 4.1 320 21:41 03.07.2020
563 Clear 36 998 25 10000 4.6 320 21:20 03.07.2020
564 Clear 37 998 25 10000 4.6 320 20:55 03.07.2020
565 Clear 37 998 25 10000 4.6 320 20:55 03.07.2020
566 Clear 37 998 27 10000 5.1 330 20:37 03.07.2020
567 Clear 37 998 27 10000 5.1 330 20:19 03.07.2020
568 Clear 37 997 44 10000 4.6 340 19:41 03.07.2020
569 Clear 37 997 44 10000 4.6 340 19:19 03.07.2020
570 Clear 37 997 44 10000 4.6 340 18:56 03.07.2020
571 Clear 37 997 56 10000 3.6 340 18:38 03.07.2020
572 Clear 37 997 60 8000 4.1 350 18:19 03.07.2020
573 Clear 37 997 60 8000 4.1 350 17:42 03.07.2020
574 Clear 37 997 56 8000 4.6 10 17:22 03.07.2020
575 Clear 38 997 53 9000 5.1 10 16:46 03.07.2020
576 Clear 38 997 45 10000 5.7 350 16:27 03.07.2020
577 Clear 39 997 47 10000 5.1 10 15:48 03.07.2020
578 Clear 39 997 33 10000 6.2 10 15:25 03.07.2020
579 Clear 39 997 33 10000 6.2 10 14:59 03.07.2020
580 Clear 40 998 28 10000 6.2 20 14:41 03.07.2020
581 Clear 40 998 28 10000 6.2 20 14:22 03.07.2020
582 Clear 40 998 28 10000 6.2 20 13:48 03.07.2020
583 Clear 41 998 21 10000 5.1 30 13:29 03.07.2020
584 Clear 42 998 30 10000 5.1 50 12:59 03.07.2020
585 Clear 42 998 21 10000 4.6 60 12:40 03.07.2020
586 Clear 42 998 21 10000 4.6 60 12:20 03.07.2020
587 Clear 42 998 25 10000 4.6 60 11:44 03.07.2020
588 Clear 42 999 25 10000 4.1 50 11:25 03.07.2020
589 Clear 42 999 22 10000 4.1 20 10:59 03.07.2020
590 Clear 42 999 22 10000 4.1 20 10:40 03.07.2020
591 Clear 42 999 20 10000 4.1 10 10:21 03.07.2020
592 Clear 41 1000 26 10000 2.6 10 09:57 03.07.2020
593 Clear 42 1000 26 10000 2.6 10 09:38 03.07.2020
594 Clear 40 1000 26 10000 2.6 10 09:18 03.07.2020
595 Clear 40 1000 40 10000 3.1 10 08:40 03.07.2020
596 Clear 38 999 45 10000 3.1 360 08:19 03.07.2020
597 Clear 37 999 50 10000 3.1 360 07:52 03.07.2020
598 Clear 36 999 60 10000 2.6 360 07:28 03.07.2020
599 Clear 37 999 56 10000 3.1 10 06:59 03.07.2020
600 Clear 35 999 63 10000 3.1 10 06:25 03.07.2020
601 Clear 35 999 63 10000 3.1 10 06:25 03.07.2020
602 Clear 33 998 79 10000 2.1 360 05:22 03.07.2020
603 Clear 32 998 84 10000 2.6 360 03:46 03.07.2020
604 Clear 32 998 84 10000 3.1 10 02:49 03.07.2020
605 Clear 32 997 84 10000 3.6 20 02:30 03.07.2020
606 Clouds 33 997 79 10000 5.1 350 01:30 03.07.2020
607 Clear 33 997 79 10000 5.1 350 00:56 03.07.2020
608 Clear 33 998 84 10000 5.1 350 00:37 03.07.2020
609 Clear 33 998 84 10000 5.1 350 23:52 02.07.2020
610 Clear 33 998 79 10000 4.6 10 23:21 02.07.2020
611 Clear 33 998 79 10000 5.1 360 22:59 02.07.2020
612 Clear 33 998 79 10000 5.1 360 22:40 02.07.2020
613 Clear 33 999 84 10000 4.6 360 22:21 02.07.2020
614 Clear 33 999 79 10000 4.6 360 21:57 02.07.2020
615 Clear 33 999 79 10000 4.6 360 21:39 02.07.2020
616 Clear 33 999 84 9000 4.6 350 21:19 02.07.2020
617 Clear 33 999 79 9000 4.6 360 20:57 02.07.2020
618 Clear 33 999 79 9000 4.1 360 20:39 02.07.2020
619 Clear 33 999 79 9000 4.1 360 20:18 02.07.2020
620 Clear 34 998 75 8000 3.6 10 19:42 02.07.2020
621 Clear 34 998 75 8000 3.6 10 19:23 02.07.2020
622 Clear 34 998 75 7000 3.1 10 18:58 02.07.2020
623 Clear 34 997 71 7000 2.6 20 18:40 02.07.2020
624 Clear 34 997 71 7000 2.6 20 18:21 02.07.2020
625 Clear 35 997 67 7000 3.1 40 17:54 02.07.2020
626 Clear 35 997 67 7000 3.6 40 17:36 02.07.2020
627 Clear 35 997 67 7000 3.6 40 17:18 02.07.2020
628 Clear 35 997 67 6000 3.1 60 16:41 02.07.2020
629 Clear 36 997 63 7000 4.1 70 16:20 02.07.2020
630 Clear 36 997 63 7000 4.6 60 15:56 02.07.2020
631 Clear 36 997 63 7000 4.6 60 15:56 02.07.2020
632 Clear 36 997 63 7000 4.6 70 15:37 02.07.2020
633 Clear 36 997 63 7000 4.6 70 15:18 02.07.2020
634 Clear 36 997 63 7000 4.6 70 14:44 02.07.2020
635 Clear 37 997 60 8000 5.1 80 14:22 02.07.2020
636 Clear 36 997 63 8000 5.1 70 13:57 02.07.2020
637 Clear 36 998 63 8000 6.2 60 13:38 02.07.2020
638 Clear 36 998 63 8000 6.2 60 13:18 02.07.2020
639 Clear 37 998 63 9000 7.2 60 12:41 02.07.2020
640 Clear 36 998 63 9000 7.2 60 12:22 02.07.2020
641 Clear 36 998 63 9000 7.2 60 11:59 02.07.2020
642 Clear 36 998 63 9000 7.2 60 11:40 02.07.2020
643 Clear 36 998 63 9000 7.2 60 11:22 02.07.2020
644 Clear 36 998 63 9000 8.2 60 10:43 02.07.2020
645 Clear 36 999 67 9000 7.2 50 10:25 02.07.2020
646 Clear 36 999 67 9000 7.2 50 09:55 02.07.2020
647 Clear 36 999 63 9000 6.7 50 09:36 02.07.2020
648 Clear 36 999 63 9000 6.7 50 09:18 02.07.2020
649 Clear 36 999 60 9000 6.7 50 08:42 02.07.2020
650 Clear 36 999 60 9000 6.2 60 08:21 02.07.2020
651 Clear 36 999 60 9000 5.7 50 07:43 02.07.2020
652 Clear 35 998 63 9000 5.7 40 07:23 02.07.2020
653 Clear 35 998 63 9000 5.1 40 06:53 02.07.2020
654 Clear 34 998 79 10000 4.1 50 06:34 02.07.2020
655 Clear 33 998 79 10000 4.1 50 05:50 02.07.2020
656 Clear 33 998 84 10000 3.1 50 05:19 02.07.2020
657 Clouds 31 997 84 10000 2.6 50 03:35 02.07.2020
658 Clouds 31 996 89 8000 2.6 40 01:53 02.07.2020
659 Clouds 31 997 89 8000 3.1 50 00:45 02.07.2020
660 Clear 32 997 79 7000 2.6 50 00:21 02.07.2020
661 Clear 32 997 84 7000 2.6 10 23:45 01.07.2020
662 Clear 32 997 75 7000 2.1 10 23:26 01.07.2020
663 Clear 32 998 75 7000 1.5 20 22:55 01.07.2020
664 Clear 32 998 75 7000 1.5 30 22:37 01.07.2020
665 Clear 32 998 75 7000 1.5 30 22:19 01.07.2020
666 Clear 32 998 75 8000 2.6 40 21:58 01.07.2020
667 Clear 32 998 75 8000 2.6 40 21:39 01.07.2020
668 Clear 32 998 70 10000 2.1 30 21:20 01.07.2020
669 Clear 32 998 70 10000 2.1 30 20:46 01.07.2020
670 Clear 33 998 70 10000 2.1 10 20:28 01.07.2020
671 Clear 33 997 63 10000 2.6 40 19:58 01.07.2020
672 Clear 33 997 59 10000 2.6 40 19:40 01.07.2020
673 Clear 33 997 59 10000 2.6 40 19:20 01.07.2020
674 Clear 33 997 55 10000 2.1 20 18:56 01.07.2020
675 Clear 34 997 49 10000 2.6 40 18:38 01.07.2020
676 Clear 34 997 49 10000 2.6 40 18:20 01.07.2020
677 Clear 34 997 49 10000 2.6 40 17:41 01.07.2020
678 Clear 35 996 53 10000 3.6 40 17:41 01.07.2020
679 Clouds 35 996 53 10000 3.6 40 17:21 01.07.2020
680 Clouds 36 996 53 10000 3.6 40 16:57 01.07.2020
681 Clouds 36 996 53 10000 3.6 40 16:39 01.07.2020
682 Clouds 37 997 37 10000 4.1 40 16:20 01.07.2020
683 Clouds 37 997 37 10000 4.1 40 15:42 01.07.2020
684 Clouds 39 997 26 10000 4.1 10 15:23 01.07.2020
685 Clouds 39 997 26 10000 4.1 10 14:58 01.07.2020
686 Clouds 39 997 26 10000 4.1 10 14:38 01.07.2020
687 Clear 39 997 26 10000 3.6 10 14:19 01.07.2020
688 Clear 40 998 27 10000 2.6 50 13:40 01.07.2020
689 Clear 40 998 27 10000 2.6 50 13:22 01.07.2020
690 Rain 39 998 27 10000 3.1 50 12:59 01.07.2020
691 Rain 39 998 29 10000 3.6 50 12:41 01.07.2020
692 Rain 38 998 29 10000 3.6 50 12:22 01.07.2020
693 Clear 39 998 22 10000 4.1 70 11:58 01.07.2020
694 Clear 38 998 39 10000 3.6 70 11:39 01.07.2020
695 Clear 38 998 39 10000 3.6 70 11:20 01.07.2020
696 Clear 38 998 42 10000 4.1 100 10:43 01.07.2020
697 Clear 39 998 35 10000 4.1 90 10:23 01.07.2020
698 Clear 40 998 24 10000 2.6 80 09:59 01.07.2020
699 Clear 40 998 24 10000 2.6 80 09:38 01.07.2020
700 Clear 39 998 24 10000 3.1 80 09:20 01.07.2020
701 Clear 39 998 24 10000 3.1 80 09:20 01.07.2020
702 Clear 39 999 37 10000 3.1 90 08:56 01.07.2020
703 Clear 38 998 25 10000 2.6 90 08:38 01.07.2020
704 Clear 38 998 25 10000 2.6 90 08:18 01.07.2020
705 Clear 37 998 25 10000 2.6 110 07:40 01.07.2020
706 Clear 37 998 25 10000 2.6 110 07:21 01.07.2020
707 Clear 36 998 27 10000 2.1 90 06:50 01.07.2020
708 Clear 36 998 23 10000 1 100 06:28 01.07.2020
709 Clear 32 997 30 10000 0.81 132 05:28 01.07.2020
710 Clear 31 996 51 10000 0.88 112 03:48 01.07.2020
711 Clear 32 996 52 10000 1.47 82 03:28 01.07.2020
712 Clear 31 996 52 10000 1.47 82 02:41 01.07.2020
713 Clear 31 996 49 10000 1.5 220 01:49 01.07.2020
714 Clear 32 996 43 10000 1 0 00:45 01.07.2020
715 Clear 33 996 43 10000 1 0 00:25 01.07.2020
716 Clear 33 996 44 10000 0.5 0 23:42 30.06.2020
717 Clear 32 996 49 10000 1.5 150 23:23 30.06.2020
718 Clear 32 996 62 10000 1 130 22:59 30.06.2020
719 Clear 32 996 62 10000 1 130 22:40 30.06.2020
720 Clear 32 997 55 10000 1 140 22:18 30.06.2020
721 Clear 33 997 59 10000 0.5 20 21:41 30.06.2020
722 Clear 33 997 59 10000 0.5 20 21:41 30.06.2020
723 Clear 33 997 59 10000 0.5 350 21:19 30.06.2020
724 Clear 33 997 59 10000 0.5 350 21:19 30.06.2020
725 Clear 34 997 55 10000 2.1 10 20:55 30.06.2020
726 Clear 34 997 59 10000 1.5 20 20:37 30.06.2020
727 Clear 35 997 56 10000 2.1 30 20:19 30.06.2020
728 Clear 35 997 56 10000 2.1 40 19:42 30.06.2020
729 Clear 35 997 56 10000 2.1 40 19:19 30.06.2020
730 Clear 35 997 56 10000 2.1 40 19:19 30.06.2020
731 Clear 36 996 53 10000 2.6 70 18:46 30.06.2020
732 Clear 36 996 53 10000 2.6 70 18:21 30.06.2020
733 Clear 36 996 53 10000 2.1 80 17:59 30.06.2020
734 Clear 37 996 39 10000 2.6 100 17:38 30.06.2020
735 Clear 37 996 39 10000 2.6 100 17:19 30.06.2020
736 Clear 39 996 33 10000 3.1 100 16:43 30.06.2020
737 Clear 39 996 31 10000 3.1 100 16:24 30.06.2020
738 Clear 39 996 29 10000 4.1 90 15:59 30.06.2020
739 Clear 40 996 27 10000 4.6 100 15:40 30.06.2020
740 Clear 40 996 27 10000 4.6 100 15:22 30.06.2020
741 Clear 40 996 27 10000 4.6 100 14:56 30.06.2020
742 Clear 40 996 29 10000 5.1 90 14:38 30.06.2020
743 Clear 40 996 29 10000 5.1 90 14:18 30.06.2020
744 Clear 41 996 21 10000 4.6 90 13:40 30.06.2020
745 Clear 41 996 21 10000 4.6 90 13:20 30.06.2020
746 Clear 41 997 18 10000 5.1 100 12:58 30.06.2020
747 Clear 41 997 16 10000 4.1 70 12:40 30.06.2020
748 Clear 41 997 16 10000 4.1 70 12:21 30.06.2020
749 Clear 41 997 15 10000 3.6 70 11:58 30.06.2020
750 Clear 40 997 31 10000 3.6 80 11:39 30.06.2020
751 Clear 40 997 31 10000 3.6 80 11:19 30.06.2020
752 Clear 41 997 38 10000 4.1 80 10:58 30.06.2020
753 Clouds 37 998 42 10000 2.1 50 16:39 28.06.2020
754 Clouds 37 998 42 10000 2.1 50 16:39 28.06.2020
755 Clouds 37 998 42 10000 2.1 50 16:20 28.06.2020
756 Clouds 37 998 39 10000 2.6 70 15:56 28.06.2020
757 Clouds 38 998 39 10000 2.6 70 15:37 28.06.2020
758 Clouds 38 998 44 10000 3.1 90 15:18 28.06.2020
759 Clouds 38 998 44 10000 3.1 90 14:44 28.06.2020
760 Clouds 38 998 44 10000 4.1 90 14:25 28.06.2020
761 Clouds 39 998 42 10000 4.1 90 13:58 28.06.2020
762 Clouds 39 998 39 10000 3.1 80 13:37 28.06.2020
763 Clouds 40 998 39 10000 3.1 80 13:19 28.06.2020
764 Clouds 41 998 39 10000 4.6 100 12:56 28.06.2020
765 Clouds 41 999 28 10000 5.1 40 12:37 28.06.2020
766 Clouds 41 999 28 10000 5.1 40 12:18 28.06.2020
767 Clouds 43 999 23 10000 5.1 30 11:55 28.06.2020
768 Clouds 43 999 14 10000 5.7 10 11:37 28.06.2020
769 Clouds 43 999 14 10000 5.7 10 11:19 28.06.2020
770 Clouds 43 1000 16 10000 6.2 360 10:41 28.06.2020
771 Clouds 42 1000 16 10000 6.2 360 10:23 28.06.2020
772 Clouds 42 1000 17 10000 5.7 360 09:57 28.06.2020
773 Clouds 42 1000 17 10000 5.1 350 09:39 28.06.2020
774 Clouds 42 1000 17 10000 5.1 350 09:20 28.06.2020
775 Clouds 42 1000 15 10000 4.1 330 08:42 28.06.2020
776 Clouds 41 1000 18 10000 4.6 330 08:22 28.06.2020
777 Clouds 39 999 21 10000 5.1 310 07:40 28.06.2020
778 Clouds 39 999 21 10000 5.1 310 07:20 28.06.2020
779 Clouds 36 999 27 10000 4.6 310 06:34 28.06.2020
780 Clouds 35 999 28 10000 4.1 310 05:54 28.06.2020
781 Clouds 35 999 28 10000 4.6 300 05:24 28.06.2020
782 Clouds 32 998 43 10000 1.5 270 03:18 28.06.2020
783 Clouds 31 998 43 10000 1.5 250 02:28 28.06.2020
784 Clouds 31 997 43 10000 1 0 01:46 28.06.2020
785 Clouds 31 997 49 10000 1 0 01:22 28.06.2020
786 Clouds 31 998 58 10000 0.5 0 00:42 28.06.2020
787 Clouds 31 998 58 10000 0.5 0 00:21 28.06.2020
788 Clouds 31 998 66 10000 0.5 0 23:40 27.06.2020
789 Clouds 31 998 62 10000 1 0 23:21 27.06.2020
790 Clouds 31 998 66 10000 1 0 22:54 27.06.2020
791 Clouds 32 999 66 10000 1.5 350 22:36 27.06.2020
792 Clouds 32 999 66 10000 1.5 350 22:18 27.06.2020
793 Clouds 33 999 59 10000 3.1 350 21:42 27.06.2020
794 Clouds 33 999 59 10000 3.1 350 21:20 27.06.2020
795 Clouds 34 999 59 10000 3.1 350 20:56 27.06.2020
796 Clouds 34 999 63 10000 3.1 350 20:37 27.06.2020
797 Clouds 34 999 63 10000 3.1 350 20:18 27.06.2020
798 Clouds 33 999 70 10000 4.6 350 19:38 27.06.2020
799 Clouds 34 999 70 10000 4.6 350 19:19 27.06.2020
800 Clouds 34 999 70 10000 4.1 360 18:59 27.06.2020
801 Clouds 34 998 70 10000 4.1 10 18:40 27.06.2020
802 Clouds 34 998 70 10000 4.1 10 18:20 27.06.2020
803 Clouds 36 998 59 10000 5.7 350 17:41 27.06.2020
804 Clouds 36 998 59 10000 5.7 350 17:21 27.06.2020
805 Clouds 37 998 59 10000 5.7 350 16:59 27.06.2020
806 Clouds 37 998 59 10000 5.7 10 16:39 27.06.2020
807 Clouds 37 998 59 10000 5.7 10 16:20 27.06.2020
808 Clouds 38 998 59 10000 5.7 10 15:45 27.06.2020
809 Clouds 38 998 50 10000 6.2 360 15:24 27.06.2020
810 Clouds 38 998 50 10000 6.2 360 14:59 27.06.2020
811 Clouds 38 998 50 10000 6.2 360 14:39 27.06.2020
812 Clouds 38 998 50 10000 5.7 10 14:20 27.06.2020
813 Clouds 38 998 44 10000 5.7 10 13:54 27.06.2020
814 Clouds 38 998 42 10000 6.2 10 13:36 27.06.2020
815 Clouds 38 998 42 10000 6.2 10 13:18 27.06.2020
816 Clouds 40 999 37 10000 4.6 10 12:41 27.06.2020
817 Clouds 40 999 37 10000 4.6 10 12:22 27.06.2020
818 Clouds 40 999 35 10000 4.6 20 11:59 27.06.2020
819 Clouds 40 999 35 10000 4.6 20 11:40 27.06.2020
820 Clouds 41 999 28 10000 7.2 360 11:21 27.06.2020
821 Clouds 42 999 20 10000 7.2 350 10:41 27.06.2020
822 Clouds 42 1000 19 10000 7.2 350 10:19 27.06.2020
823 Clouds 42 1000 19 10000 6.7 340 09:58 27.06.2020
824 Clouds 42 1000 19 10000 6.7 340 09:39 27.06.2020
825 Clouds 42 1000 18 10000 6.7 330 09:20 27.06.2020
826 Clouds 40 1000 20 10000 5.7 330 08:44 27.06.2020
827 Clouds 39 1000 27 10000 4.1 320 08:23 27.06.2020
828 Clouds 38 1000 29 10000 4.1 330 07:48 27.06.2020
829 Clouds 37 1000 32 10000 4.6 300 07:25 27.06.2020
830 Clouds 36 1000 34 10000 4.6 310 06:51 27.06.2020
831 Clouds 34 1000 34 10000 3.1 310 06:33 27.06.2020
832 Clouds 31 999 51 10000 2.1 140 04:44 27.06.2020
833 Clouds 30 999 48 10000 5.48 326 04:18 27.06.2020
834 Clouds 31 998 36 10000 3.1 280 03:43 27.06.2020
835 Clouds 31 998 55 10000 1 360 02:42 27.06.2020
836 Clouds 31 998 48 10000 1.5 80 02:22 27.06.2020
837 Clouds 32 997 32 10000 2.1 310 01:28 27.06.2020
838 Clouds 31 997 46 10000 2.1 10 00:47 27.06.2020
839 Clouds 32 998 55 10000 4.6 330 23:47 26.06.2020
840 Clouds 32 998 55 10000 4.6 330 23:27 26.06.2020
841 Clouds 32 998 52 10000 4.6 340 22:58 26.06.2020
842 Clouds 32 998 52 10000 4.6 340 22:39 26.06.2020
843 Clouds 32 998 46 10000 5.1 330 22:21 26.06.2020
844 Clouds 33 998 46 10000 5.7 340 21:58 26.06.2020
845 Clouds 33 998 46 10000 5.7 340 21:39 26.06.2020
846 Clouds 33 998 46 10000 5.7 340 21:21 26.06.2020
847 Clouds 33 998 46 10000 5.7 340 21:21 26.06.2020
848 Clouds 33 998 46 10000 6.2 330 20:57 26.06.2020
849 Clouds 33 998 44 10000 7.2 330 20:37 26.06.2020
850 Clouds 34 998 44 10000 7.2 330 20:18 26.06.2020
851 Clouds 34 998 44 10000 7.2 330 19:40 26.06.2020
852 Clouds 34 998 44 10000 7.2 330 19:20 26.06.2020
853 Clouds 34 998 44 10000 8.2 340 18:42 26.06.2020
854 Clouds 35 998 44 10000 8.2 340 18:23 26.06.2020
855 Clouds 35 998 47 10000 7.7 340 17:46 26.06.2020
856 Clouds 36 997 41 10000 9.3 340 17:28 26.06.2020
857 Clouds 36 997 47 10000 9.8 350 16:59 26.06.2020
858 Clouds 36 997 47 10000 9.8 350 16:41 26.06.2020
859 Clear 37 997 50 10000 8.7 350 16:22 26.06.2020
860 Clear 38 997 50 10000 8.2 360 15:41 26.06.2020
861 Clouds 38 997 50 10000 9.3 350 15:21 26.06.2020
862 Clouds 38 997 50 10000 9.3 350 14:58 26.06.2020
863 Clouds 38 997 50 10000 9.3 350 14:39 26.06.2020
864 Clouds 38 997 50 10000 9.3 350 14:21 26.06.2020
865 Clouds 39 998 45 10000 9.3 350 13:45 26.06.2020
866 Clouds 39 998 45 10000 7.7 10 13:24 26.06.2020
867 Clouds 42 998 26 10000 8.7 350 12:56 26.06.2020
868 Clouds 42 998 23 10000 8.7 350 12:38 26.06.2020
869 Clouds 42 998 23 10000 8.7 350 12:19 26.06.2020
870 Clouds 42 999 22 10000 8.2 350 11:56 26.06.2020
871 Clouds 41 999 25 10000 8.7 350 11:38 26.06.2020
872 Clouds 41 999 25 10000 8.7 350 11:19 26.06.2020
873 Clouds 42 999 28 10000 8.7 350 10:56 26.06.2020
874 Clouds 41 1000 26 10000 8.2 350 10:37 26.06.2020
875 Clouds 41 1000 26 10000 8.2 350 10:37 26.06.2020
876 Clouds 41 1000 26 10000 8.2 350 10:18 26.06.2020
877 Clouds 41 1000 26 10000 8.2 350 09:42 26.06.2020
878 Clear 41 1000 23 10000 6.2 320 09:22 26.06.2020
879 Clear 40 1000 24 10000 4.6 320 08:48 26.06.2020
880 Clear 39 1000 26 10000 5.1 320 08:27 26.06.2020
881 Clear 38 1000 26 10000 5.1 320 07:48 26.06.2020
882 Clear 37 1000 31 10000 5.1 310 07:24 26.06.2020
883 Clear 36 1000 32 10000 5.1 310 06:54 26.06.2020
884 Clear 35 1000 34 10000 5.1 310 06:33 26.06.2020
885 Clear 33 1000 36 10000 4.1 300 05:57 26.06.2020
886 Clear 34 999 36 10000 4.6 310 05:30 26.06.2020
887 Clear 32 998 36 10000 3.6 310 02:41 26.06.2020
888 Clear 33 998 38 10000 2.6 310 02:21 26.06.2020
889 Clear 33 998 34 10000 3.1 310 00:56 26.06.2020
890 Clear 33 998 34 10000 3.1 310 00:38 26.06.2020
891 Clear 33 999 32 10000 2.6 300 23:48 25.06.2020
892 Clear 33 999 32 10000 3.6 290 23:23 25.06.2020
893 Clear 33 999 36 10000 2.6 310 22:59 25.06.2020
894 Clear 33 999 36 10000 2.6 310 22:40 25.06.2020
895 Clear 33 999 38 10000 3.6 310 22:20 25.06.2020
896 Clear 33 999 36 10000 3.1 320 21:58 25.06.2020
897 Clear 33 999 36 10000 3.1 320 21:40 25.06.2020
898 Clear 34 999 39 10000 3.1 310 21:21 25.06.2020
899 Clear 34 999 44 10000 3.1 320 20:59 25.06.2020
900 Clear 34 999 44 10000 3.1 320 20:41 25.06.2020
901 Clear 33 999 70 10000 2.6 350 20:22 25.06.2020
902 Clear 33 999 66 10000 3.6 360 19:56 25.06.2020
903 Clear 33 999 66 10000 3.6 360 19:37 25.06.2020
904 Clear 34 999 59 10000 3.6 340 19:18 25.06.2020
905 Clear 35 999 59 10000 4.1 360 18:40 25.06.2020
906 Clear 34 999 59 10000 4.1 360 18:21 25.06.2020
907 Clear 34 999 59 10000 5.1 340 17:45 25.06.2020
908 Clear 34 999 56 10000 5.7 360 17:20 25.06.2020
909 Clear 35 999 50 10000 5.1 360 16:59 25.06.2020
910 Clear 36 999 50 10000 5.1 360 16:40 25.06.2020
911 Clear 36 999 47 10000 5.1 360 16:19 25.06.2020
912 Clear 37 999 35 10000 4.6 10 15:44 25.06.2020
913 Clear 37 998 39 10000 6.7 10 15:26 25.06.2020
914 Clear 37 998 39 10000 6.7 10 14:56 25.06.2020
915 Clear 38 999 27 10000 6.2 10 14:37 25.06.2020
916 Clear 38 999 27 10000 6.2 10 14:19 25.06.2020
917 Clear 39 999 18 10000 5.7 10 13:55 25.06.2020
918 Clear 40 999 20 10000 4.6 40 13:36 25.06.2020
919 Clear 40 999 20 10000 4.6 40 13:18 25.06.2020
920 Clear 39 999 24 10000 4.1 100 12:42 25.06.2020
921 Clear 40 999 24 10000 4.1 100 12:20 25.06.2020
922 Clear 41 1000 21 10000 3.6 70 11:43 25.06.2020
923 Clear 41 1000 13 10000 3.6 10 11:25 25.06.2020
924 Clear 40 1000 15 10000 2.6 70 10:57 25.06.2020
925 Clear 40 1000 15 10000 2.6 70 10:39 25.06.2020
926 Clear 40 1001 13 10000 2.6 10 10:20 25.06.2020
927 Clear 39 1001 16 10000 2.1 20 09:41 25.06.2020
928 Clear 39 1001 14 10000 3.6 10 09:22 25.06.2020
929 Clear 38 1001 13 10000 2.6 350 08:47 25.06.2020
930 Clouds 38 1001 14 10000 2.1 20 08:20 25.06.2020
931 Clouds 37 1001 18 10000 3.1 360 07:46 25.06.2020
932 Clouds 38 1001 18 10000 3.1 360 07:27 25.06.2020
933 Clouds 37 1001 18 10000 2.1 350 06:53 25.06.2020
934 Clouds 33 1000 22 10000 1.5 320 06:27 25.06.2020
935 Clouds 33 1000 22 10000 1.5 320 05:51 25.06.2020
936 Clouds 30 1000 45 10000 2.6 340 04:29 25.06.2020
937 Clouds 30 1000 62 10000 2.1 350 03:34 25.06.2020
938 Clouds 30 1000 66 10000 2.1 340 02:42 25.06.2020
939 Clear 30 999 55 10000 1.5 350 01:59 25.06.2020
940 Clear 30 999 43 10000 1.5 350 01:26 25.06.2020
941 Clear 31 1000 33 10000 2.1 360 00:44 25.06.2020
942 Clear 32 1000 33 10000 2.1 360 00:21 25.06.2020
943 Clear 31 1000 40 10000 1 350 23:44 24.06.2020
944 Clear 31 1000 43 10000 1.5 340 23:26 24.06.2020
945 Clear 31 1000 43 10000 2.1 340 22:59 24.06.2020
946 Clear 32 1000 41 10000 2.1 340 22:41 24.06.2020
947 Clear 32 1000 41 10000 2.1 340 22:20 24.06.2020
948 Clear 32 1001 41 10000 2.6 330 21:56 24.06.2020
949 Clear 32 1001 41 10000 1.5 340 21:37 24.06.2020
950 Clear 32 1001 41 10000 1.5 340 21:18 24.06.2020
951 Clear 32 1001 43 10000 1 360 20:58 24.06.2020
952 Clear 32 1001 49 10000 1 360 20:39 24.06.2020
953 Clear 32 1001 49 10000 1 360 20:20 24.06.2020
954 Clear 33 1001 46 10000 1.5 10 19:57 24.06.2020
955 Clear 33 1001 49 10000 1.5 20 19:37 24.06.2020
956 Clear 33 1001 49 10000 1.5 20 19:18 24.06.2020
957 Clear 34 1000 49 10000 2.6 360 18:57 24.06.2020
958 Clear 34 1000 46 10000 2.1 10 18:38 24.06.2020
959 Clear 33 1000 46 10000 2.1 10 18:20 24.06.2020
960 Clear 34 1000 44 10000 3.1 40 17:44 24.06.2020
961 Clear 34 1000 41 10000 3.6 40 17:21 24.06.2020
962 Clear 35 1000 39 10000 3.1 30 16:59 24.06.2020
963 Clear 35 1000 39 10000 3.1 30 16:41 24.06.2020
964 Clear 36 1000 36 10000 4.1 40 16:22 24.06.2020
965 Clear 37 1000 32 10000 4.1 40 15:59 24.06.2020
966 Clear 37 1000 30 10000 3.6 20 15:39 24.06.2020
967 Clear 38 1000 30 10000 3.6 20 15:20 24.06.2020
968 Clear 37 1000 20 10000 4.1 10 14:54 24.06.2020
969 Clear 38 1000 20 10000 4.1 360 14:36 24.06.2020
970 Clear 38 1000 20 10000 4.1 360 14:18 24.06.2020
971 Clear 37 1000 23 10000 3.6 360 13:42 24.06.2020
972 Clear 38 1001 30 10000 4.6 30 13:21 24.06.2020
973 Clear 37 1001 35 10000 5.7 30 12:43 24.06.2020
974 Clear 37 1001 35 10000 5.7 30 12:21 24.06.2020
975 Clear 37 1001 32 10000 5.7 40 11:58 24.06.2020
976 Clear 36 1001 50 10000 5.7 40 11:39 24.06.2020
977 Clear 35 1001 50 10000 5.7 40 11:21 24.06.2020
978 Clear 36 1001 50 10000 5.7 40 10:45 24.06.2020
979 Clear 36 1001 50 10000 5.1 20 10:19 24.06.2020
980 Clear 37 1001 44 10000 4.6 10 09:46 24.06.2020
981 Clear 34 1001 47 10000 4.1 10 09:26 24.06.2020
982 Clear 35 1001 41 10000 4.1 360 08:59 24.06.2020
983 Clear 35 1002 37 10000 3.6 350 08:40 24.06.2020
984 Clouds 35 1002 37 10000 3.6 350 08:18 24.06.2020
985 Clouds 35 1001 36 10000 3.6 330 07:46 24.06.2020
986 Clouds 35 1001 36 10000 3.6 330 07:25 24.06.2020
987 Clouds 33 1001 49 10000 3.1 330 06:45 24.06.2020
988 Clear 32 1001 49 10000 3.1 330 06:24 24.06.2020
989 Clear 31 1000 62 10000 2.6 290 05:39 24.06.2020
990 Clear 29 1000 51 10000 2.6 280 04:38 24.06.2020
991 Clear 29 1000 51 10000 1.5 270 03:38 24.06.2020
992 Clear 28 1000 55 10000 1 0 02:54 24.06.2020
993 Clouds 28 1000 70 10000 0.5 0 02:21 24.06.2020
994 Clouds 30 999 58 10000 1.5 70 00:52 24.06.2020
995 Clouds 30 999 55 10000 2.1 50 00:33 24.06.2020
996 Clouds 31 999 46 10000 1.5 240 23:49 23.06.2020
997 Clouds 31 999 38 10000 2.1 240 23:22 23.06.2020
998 Clouds 30 999 48 10000 1 0 22:59 23.06.2020
999 Clouds 30 1000 62 10000 1.5 340 22:41 23.06.2020
1000 Clouds 29 1000 62 10000 1.5 340 22:18 23.06.2020
1001 Clouds 29 1000 62 10000 1.5 340 22:18 23.06.2020
1002 Clouds 30 1000 74 10000 1.5 360 21:54 23.06.2020
1003 Clear 30 1000 74 10000 2.1 10 21:36 23.06.2020
1004 Clear 30 1000 74 10000 2.1 10 21:18 23.06.2020
1005 Clear 31 1000 74 10000 2.1 360 20:54 23.06.2020
1006 Clear 31 1000 70 10000 2.6 350 20:36 23.06.2020
1007 Clouds 32 1000 74 10000 4.1 360 20:18 23.06.2020
1008 Clouds 32 1000 70 10000 4.6 350 19:41 23.06.2020
1009 Clouds 32 1000 70 10000 4.6 350 19:23 23.06.2020
1010 Clouds 32 1000 66 9000 5.7 350 18:38 23.06.2020
1011 Clouds 33 1000 66 9000 5.7 360 18:18 23.06.2020
1012 Clouds 33 999 63 9000 6.7 360 17:42 23.06.2020
1013 Clear 33 999 63 9000 6.7 360 17:24 23.06.2020
1014 Clear 34 999 63 9000 6.7 10 16:57 23.06.2020
1015 Clear 36 999 56 10000 6.2 360 16:38 23.06.2020
1016 Clear 36 999 56 10000 6.2 360 16:38 23.06.2020
1017 Clear 36 999 56 10000 6.2 360 16:20 23.06.2020
1018 Clear 37 999 53 10000 6.7 360 15:57 23.06.2020
1019 Clear 37 998 50 10000 6.7 360 15:39 23.06.2020
1020 Clear 37 998 50 10000 6.7 360 15:18 23.06.2020
1021 Clear 38 999 39 10000 7.2 10 14:43 23.06.2020
1022 Clear 38 999 39 10000 7.2 10 14:20 23.06.2020
1023 Clear 40 999 24 10000 7.2 10 13:57 23.06.2020
1024 Clear 40 999 24 10000 7.2 10 13:57 23.06.2020
1025 Clear 41 999 23 10000 7.7 360 13:39 23.06.2020
1026 Clear 41 999 21 10000 8.2 360 13:20 23.06.2020
1027 Clear 40 999 23 10000 8.2 360 12:44 23.06.2020
1028 Clear 40 999 23 10000 8.2 360 12:23 23.06.2020
1029 Clear 40 999 20 10000 8.2 350 11:58 23.06.2020
1030 Clear 40 1000 19 10000 7.2 340 11:40 23.06.2020
1031 Clear 40 1000 19 10000 7.2 340 11:19 23.06.2020
1032 Clear 40 1000 19 10000 6.7 350 10:56 23.06.2020
1033 Clear 40 1000 19 10000 6.7 330 10:38 23.06.2020
1034 Clear 40 1000 19 10000 6.7 330 10:20 23.06.2020
1035 Clear 39 1000 26 10000 5.7 320 09:42 23.06.2020
1036 Clear 39 1000 26 10000 5.7 320 09:20 23.06.2020
1037 Clear 38 1000 26 10000 5.1 320 08:58 23.06.2020
1038 Clear 38 1000 27 10000 5.1 320 08:39 23.06.2020
1039 Clear 38 1000 27 10000 5.1 320 08:20 23.06.2020
1040 Clear 37 1000 27 10000 5.7 310 07:40 23.06.2020
1041 Clear 36 1000 28 10000 5.1 300 07:22 23.06.2020
1042 Clear 35 1000 30 10000 5.1 300 06:49 23.06.2020
1043 Clear 34 1000 30 10000 5.1 300 06:31 23.06.2020
1044 Clear 31 1000 40 10000 3.1 270 05:42 23.06.2020
1045 Clear 32 999 38 10000 3.1 280 03:55 23.06.2020
1046 Clear 32 998 35 10000 4.1 290 02:57 23.06.2020
1047 Clear 32 998 40 10000 3.1 280 02:38 23.06.2020
1048 Clear 32 998 40 10000 3.1 280 02:20 23.06.2020
1049 Clear 32 998 40 10000 4.6 280 01:43 23.06.2020
1050 Clear 32 998 40 10000 4.6 280 01:19 23.06.2020
1051 Clear 32 998 33 10000 3.6 280 00:24 23.06.2020
1052 Clear 32 998 31 10000 3.1 270 23:57 22.06.2020
1053 Clear 32 999 33 10000 3.1 270 23:39 22.06.2020
1054 Clear 32 999 33 10000 3.1 270 23:19 22.06.2020
1055 Clear 33 999 32 10000 3.6 280 22:57 22.06.2020
1056 Clear 33 999 28 10000 4.1 300 22:39 22.06.2020
1057 Clear 33 999 28 10000 4.1 300 22:20 22.06.2020
1058 Clear 33 999 26 10000 5.1 300 21:57 22.06.2020
1059 Clear 33 1000 26 10000 5.7 310 21:38 22.06.2020
1060 Clear 33 1000 26 10000 5.7 310 21:20 22.06.2020
1061 Clear 34 1000 24 10000 6.7 310 20:42 22.06.2020
1062 Clear 34 1000 24 10000 6.7 310 20:42 22.06.2020
1063 Clear 34 1000 24 10000 6.7 310 20:24 22.06.2020
1064 Clear 34 1000 24 10000 6.2 320 19:57 22.06.2020
1065 Clear 34 999 24 10000 6.2 320 19:37 22.06.2020
1066 Clear 34 999 24 10000 6.2 320 19:18 22.06.2020
1067 Clear 35 999 24 10000 7.2 320 18:41 22.06.2020
1068 Clear 35 999 24 10000 7.2 320 18:23 22.06.2020
1069 Clear 35 999 23 10000 7.7 320 17:57 22.06.2020
1070 Clear 35 999 23 10000 7.2 320 17:38 22.06.2020
1071 Clear 36 999 23 10000 7.2 320 17:20 22.06.2020
1072 Clear 37 999 22 10000 7.7 320 16:56 22.06.2020
1073 Clear 37 998 21 10000 8.2 320 16:38 22.06.2020
1074 Clear 38 998 21 10000 7.7 310 16:18 22.06.2020
1075 Clear 38 999 18 10000 9.3 330 15:44 22.06.2020
1076 Clear 38 999 18 10000 9.3 330 15:25 22.06.2020
1077 Clear 39 999 18 10000 9.3 320 14:57 22.06.2020
1078 Clear 39 999 17 10000 9.8 310 14:37 22.06.2020
1079 Clear 40 999 17 10000 9.8 310 14:18 22.06.2020
1080 Clear 40 999 17 10000 8.7 320 13:40 22.06.2020
1081 Clear 40 999 17 10000 8.7 320 13:22 22.06.2020
1082 Clear 40 999 19 10000 10.3 330 12:59 22.06.2020
1083 Clear 40 999 19 10000 10.3 330 12:59 22.06.2020
1084 Clear 40 1000 19 10000 9.3 320 12:40 22.06.2020
1085 Clear 40 1000 19 10000 9.3 320 12:40 22.06.2020
1086 Clear 40 1000 19 10000 9.3 320 12:22 22.06.2020
1087 Clear 40 1000 19 10000 9.8 320 11:38 22.06.2020
1088 Clear 40 1000 19 10000 9.8 320 11:19 22.06.2020
1089 Clear 40 1000 19 10000 10.3 330 10:57 22.06.2020
1090 Clear 40 1001 16 10000 9.8 330 10:38 22.06.2020
1091 Clear 39 1001 16 10000 9.8 330 10:19 22.06.2020
1092 Clear 39 1001 16 10000 9.8 330 10:19 22.06.2020
1093 Clear 39 1001 19 10000 8.7 330 09:57 22.06.2020
1094 Clear 39 1001 18 10000 7.7 310 09:39 22.06.2020
1095 Clear 38 1001 26 10000 7.7 330 09:19 22.06.2020
1096 Clear 38 1001 26 10000 7.7 330 08:56 22.06.2020
1097 Clear 38 1001 29 10000 7.2 320 08:38 22.06.2020
1098 Clear 38 1001 29 10000 7.2 320 08:19 22.06.2020
1099 Clear 36 1001 29 10000 5.1 320 07:46 22.06.2020
1100 Clear 36 1001 29 10000 5.1 320 07:25 22.06.2020
1101 Clear 34 1001 36 10000 6.2 310 06:39 22.06.2020
1102 Clear 34 1001 36 10000 6.2 310 06:20 22.06.2020
1103 Clear 32 1001 43 10000 5.1 310 05:42 22.06.2020
1104 Clear 31 1000 46 10000 5.1 310 03:47 22.06.2020
1105 Clear 32 999 38 10000 5.7 310 01:53 22.06.2020
1106 Clear 32 999 34 10000 4.6 310 00:58 22.06.2020
1107 Clear 32 1000 32 10000 5.1 310 00:29 22.06.2020
1108 Clear 33 1000 24 10000 4.6 310 23:57 21.06.2020
1109 Clear 33 1000 24 10000 4.6 310 23:38 21.06.2020
1110 Clear 33 1000 24 10000 4.6 310 23:20 21.06.2020
1111 Clear 33 1000 26 10000 4.6 310 22:56 21.06.2020
1112 Clear 33 1000 26 10000 5.7 310 22:36 21.06.2020
1113 Clear 33 1000 26 10000 5.7 310 22:18 21.06.2020
1114 Clear 34 1000 28 10000 5.1 320 21:55 21.06.2020
1115 Clear 34 1001 28 10000 5.1 310 21:37 21.06.2020
1116 Clouds 34 1001 28 10000 4.6 310 21:18 21.06.2020
1117 Clouds 34 1001 28 10000 4.6 310 20:54 21.06.2020
1118 Clouds 34 1000 28 10000 4.6 320 20:36 21.06.2020
1119 Clouds 34 1000 28 10000 4.6 320 20:18 21.06.2020
1120 Clouds 34 1000 23 10000 5.1 330 19:41 21.06.2020
1121 Clouds 35 1000 23 10000 5.1 330 19:20 21.06.2020
1122 Clouds 35 1000 23 10000 4.6 320 18:56 21.06.2020
1123 Clouds 35 1000 28 10000 6.2 340 18:38 21.06.2020
1124 Clouds 35 1000 28 10000 6.2 340 18:19 21.06.2020
1125 Clouds 37 999 25 10000 7.7 340 17:41 21.06.2020
1126 Clouds 37 999 25 10000 7.7 340 17:22 21.06.2020
1127 Clouds 38 999 25 10000 7.7 340 16:57 21.06.2020
1128 Clouds 38 999 26 10000 8.7 340 16:39 21.06.2020
1129 Clouds 39 999 26 10000 8.7 340 16:21 21.06.2020
1130 Clouds 40 999 23 10000 8.7 340 15:41 21.06.2020
1131 Clouds 40 999 23 10000 8.7 340 15:41 21.06.2020
1132 Clouds 40 999 23 10000 8.7 340 15:23 21.06.2020
1133 Clouds 41 999 23 10000 8.2 340 14:59 21.06.2020
1134 Clouds 41 999 20 10000 8.7 340 14:37 21.06.2020
1135 Clouds 41 999 20 10000 8.7 340 14:19 21.06.2020
1136 Clouds 42 999 20 10000 7.7 350 13:55 21.06.2020
1137 Clouds 42 999 22 10000 8.2 350 13:37 21.06.2020
1138 Clear 42 999 22 10000 8.2 350 13:18 21.06.2020
1139 Clear 42 999 22 10000 8.2 330 12:43 21.06.2020
1140 Clear 42 999 22 10000 8.2 330 12:24 21.06.2020
1141 Clear 42 1000 20 10000 8.2 330 11:43 21.06.2020
1142 Clear 42 1000 20 10000 8.2 330 11:43 21.06.2020
1143 Clear 42 1000 20 10000 8.2 330 11:25 21.06.2020
1144 Clear 41 1000 23 10000 7.2 330 10:59 21.06.2020
1145 Clear 41 1000 28 10000 5.7 310 10:41 21.06.2020
1146 Clear 40 1000 28 10000 5.7 310 10:22 21.06.2020
1147 Clear 40 1000 29 10000 5.1 310 09:58 21.06.2020
1148 Clear 39 1000 29 10000 5.1 300 09:36 21.06.2020
1149 Clear 37 1000 29 10000 4.6 300 09:18 21.06.2020
1150 Clear 36 1000 29 10000 4.6 300 08:54 21.06.2020
1151 Clear 35 1000 34 10000 4.1 320 08:36 21.06.2020
1152 Clear 35 1000 34 10000 4.1 320 08:18 21.06.2020
1153 Clear 35 1000 37 10000 4.1 340 07:40 21.06.2020
1154 Clear 35 1000 39 10000 4.1 340 07:21 21.06.2020
1155 Clear 35 1000 39 10000 3.1 320 06:48 21.06.2020
1156 Clear 31 1000 44 10000 3.1 310 05:59 21.06.2020
1157 Clear 31 999 46 10000 3.6 310 04:50 21.06.2020
1158 Clear 30 998 55 10000 1.5 260 03:20 21.06.2020
1159 Clear 30 998 55 10000 3.1 270 02:53 21.06.2020
1160 Clear 30 998 58 10000 2.6 260 01:48 21.06.2020
1161 Clear 31 999 46 10000 2.1 240 01:21 21.06.2020
1162 Clear 31 999 46 10000 2.1 240 00:55 21.06.2020
1163 Clear 31 999 43 10000 1.5 260 00:36 21.06.2020
1164 Clear 31 999 38 10000 2.1 250 00:18 21.06.2020
1165 Clear 31 999 40 10000 2.1 270 23:41 20.06.2020
1166 Clear 31 999 41 10000 1.5 260 23:21 20.06.2020
1167 Clear 31 999 41 10000 1.5 260 22:55 20.06.2020
1168 Clear 30 999 55 10000 1.5 0 22:37 20.06.2020
1169 Clear 30 999 55 10000 1.5 0 22:18 20.06.2020
1170 Clear 30 999 55 10000 1.5 0 22:18 20.06.2020
1171 Clear 31 1000 55 10000 1 0 21:55 20.06.2020
1172 Clear 31 1000 58 10000 4.03 309 21:37 20.06.2020
1173 Clear 32 1000 55 10000 1 40 21:19 20.06.2020
1174 Clear 32 1000 55 10000 1 40 20:55 20.06.2020
1175 Clear 32 1000 55 10000 1.5 20 20:37 20.06.2020
1176 Clear 32 1000 55 10000 1.5 20 20:19 20.06.2020
1177 Clear 32 999 62 10000 1.5 360 19:42 20.06.2020
1178 Clear 32 999 62 10000 1.5 360 19:22 20.06.2020
1179 Clear 33 999 59 10000 1.5 10 18:43 20.06.2020
1180 Clear 33 999 59 10000 1.5 10 18:21 20.06.2020
1181 Clear 34 999 55 10000 2.1 10 17:59 20.06.2020
1182 Clear 34 999 55 10000 2.1 360 17:41 20.06.2020
1183 Clear 34 999 55 10000 2.1 360 17:21 20.06.2020
1184 Clear 34 998 66 10000 3.6 360 16:58 20.06.2020
1185 Clear 35 998 59 10000 4.1 40 16:38 20.06.2020
1186 Clear 34 998 59 10000 4.1 40 16:18 20.06.2020
1187 Clear 35 998 56 10000 4.1 70 15:42 20.06.2020
1188 Clear 35 998 56 10000 4.1 70 15:18 20.06.2020
1189 Clear 36 998 56 10000 4.6 50 14:56 20.06.2020
1190 Clear 36 999 53 10000 5.1 60 14:38 20.06.2020
1191 Clear 36 999 50 10000 4.6 50 14:18 20.06.2020
1192 Clear 36 999 50 10000 4.6 50 13:41 20.06.2020
1193 Clear 36 999 50 10000 5.1 50 13:19 20.06.2020
1194 Clear 36 999 50 10000 5.1 50 12:55 20.06.2020
1195 Clear 36 999 50 10000 5.7 60 12:36 20.06.2020
1196 Clear 36 999 47 10000 6.2 40 12:18 20.06.2020
1197 Clear 36 999 50 10000 5.1 40 11:38 20.06.2020
1198 Clear 35 999 50 10000 5.1 40 11:20 20.06.2020
1199 Clear 37 1000 39 10000 4.6 30 10:57 20.06.2020
1200 Clear 38 1000 35 10000 4.6 10 10:38 20.06.2020
1201 Clear 38 1000 35 10000 4.1 10 10:18 20.06.2020
1202 Clear 38 1000 32 10000 4.6 10 09:40 20.06.2020
1203 Clear 37 1000 32 10000 4.6 10 09:22 20.06.2020
1204 Clear 38 1000 22 10000 4.6 330 08:56 20.06.2020
1205 Clear 38 1000 21 10000 4.1 310 08:38 20.06.2020
1206 Clear 36 1000 23 10000 4.6 320 08:20 20.06.2020
1207 Clear 35 1000 26 10000 4.1 320 07:44 20.06.2020
1208 Clear 35 1000 26 10000 4.1 320 07:25 20.06.2020
1209 Clear 32 999 38 10000 3.6 330 06:24 20.06.2020
1210 Clear 30 999 38 10000 2.6 320 05:59 20.06.2020
1211 Clear 29 999 48 10000 3.1 330 05:40 20.06.2020
1212 Clouds 28 998 51 10000 0.5 0 03:22 20.06.2020
1213 Clear 28 998 48 10000 1 0 01:53 20.06.2020
1214 Clear 28 998 51 10000 0.5 0 01:35 20.06.2020
1215 Clear 30 998 40 10000 1 200 00:40 20.06.2020
1216 Clear 30 998 43 10000 2.1 200 00:19 20.06.2020
1217 Clear 30 998 49 10000 1.5 220 23:40 19.06.2020
1218 Clear 31 998 55 10000 1 0 23:19 19.06.2020
1219 Clear 30 998 55 10000 1 0 22:54 19.06.2020
1220 Clear 29 998 62 10000 1.5 120 22:36 19.06.2020
1221 Clear 29 998 62 10000 1.5 120 22:18 19.06.2020
1222 Clear 30 998 62 10000 1 0 21:40 19.06.2020
1223 Clear 30 998 62 10000 1 0 21:19 19.06.2020
1224 Clear 31 998 58 10000 1.5 30 20:59 19.06.2020
1225 Clear 31 998 58 10000 1.5 30 20:59 19.06.2020
1226 Clear 32 998 55 10000 1.5 10 20:40 19.06.2020
1227 Clear 32 998 55 10000 1.5 20 20:22 19.06.2020
1228 Clear 32 998 55 10000 1.5 20 19:59 19.06.2020
1229 Clear 32 998 55 10000 2.6 350 19:41 19.06.2020
1230 Clear 32 998 55 10000 2.6 350 19:23 19.06.2020
1231 Clear 33 998 62 10000 3.1 10 18:58 19.06.2020
1232 Clear 33 998 59 10000 4.1 350 18:38 19.06.2020
1233 Clear 34 998 63 10000 4.6 350 18:20 19.06.2020
1234 Clear 34 997 63 10000 5.7 360 17:42 19.06.2020
1235 Clear 34 997 63 10000 5.7 360 17:23 19.06.2020
1236 Clear 35 997 63 10000 6.2 360 16:57 19.06.2020
1237 Clear 36 997 56 10000 6.2 350 16:38 19.06.2020
1238 Clear 36 997 56 10000 6.2 350 16:20 19.06.2020
1239 Clear 37 997 53 10000 6.7 360 15:44 19.06.2020
1240 Clear 37 997 53 10000 6.7 360 15:25 19.06.2020
1241 Clear 38 997 50 10000 6.7 360 14:57 19.06.2020
1242 Clear 38 997 44 10000 7.2 360 14:39 19.06.2020
1243 Clear 38 997 44 10000 7.2 360 14:21 19.06.2020
1244 Clear 38 997 42 10000 7.2 360 13:57 19.06.2020
1245 Clear 38 997 42 10000 7.2 360 13:57 19.06.2020
1246 Clear 39 998 39 10000 6.7 360 13:39 19.06.2020
1247 Clear 39 998 35 10000 7.2 360 13:19 19.06.2020
1248 Clear 39 998 33 10000 7.7 360 12:43 19.06.2020
1249 Clear 39 998 33 10000 8.2 360 12:20 19.06.2020
1250 Clear 39 998 31 10000 8.2 340 11:40 19.06.2020
1251 Clear 40 999 27 10000 7.2 350 11:19 19.06.2020
1252 Clear 39 999 27 10000 7.2 350 10:59 19.06.2020
1253 Clear 39 999 27 10000 7.2 10 10:41 19.06.2020
1254 Clear 39 999 27 10000 7.2 10 10:41 19.06.2020
1255 Clear 39 999 27 10000 7.2 10 10:41 19.06.2020
1256 Clear 40 999 27 10000 7.2 10 10:20 19.06.2020
1257 Clear 41 999 18 10000 7.7 340 09:44 19.06.2020
1258 Clear 41 999 18 10000 7.7 340 09:25 19.06.2020
1259 Clear 40 999 19 10000 5.7 320 08:58 19.06.2020
1260 Clear 40 999 21 10000 6.2 320 08:38 19.06.2020
1261 Clouds 39 999 22 10000 5.7 320 08:20 19.06.2020
1262 Clouds 37 999 29 10000 6.2 310 07:41 19.06.2020
1263 Clouds 37 999 29 10000 6.2 310 07:21 19.06.2020
1264 Clouds 36 999 30 10000 6.7 310 06:45 19.06.2020
1265 Clear 33 998 32 10000 5.1 300 06:21 19.06.2020
1266 Clear 33 998 38 10000 2.6 270 04:59 19.06.2020
1267 Clear 32 997 36 10000 2.6 270 03:31 19.06.2020
1268 Clear 33 996 32 10000 2.6 270 01:45 19.06.2020
1269 Clear 33 996 28 10000 3.1 290 00:43 19.06.2020
1270 Clear 33 996 28 10000 3.1 290 00:22 19.06.2020
1271 Clear 33 996 26 10000 4.6 300 23:56 18.06.2020
1272 Clear 33 996 26 10000 4.6 300 23:37 18.06.2020
1273 Clear 33 997 24 10000 4.1 310 23:19 18.06.2020
1274 Clear 34 997 22 10000 4.1 310 22:39 18.06.2020
1275 Clear 34 997 22 10000 4.1 310 22:20 18.06.2020
1276 Clear 34 997 18 10000 6.2 330 21:56 18.06.2020
1277 Clear 34 997 18 10000 6.2 330 21:36 18.06.2020
1278 Clear 35 997 18 10000 6.2 330 21:18 18.06.2020
1279 Clear 35 997 17 10000 6.2 330 20:40 18.06.2020
1280 Clear 35 997 17 10000 6.2 330 20:20 18.06.2020
1281 Clear 36 997 17 10000 6.2 330 19:56 18.06.2020
1282 Clear 36 997 16 10000 6.7 330 19:38 18.06.2020
1283 Clear 36 997 16 10000 6.7 330 19:19 18.06.2020
1284 Clear 36 997 18 10000 7.7 340 18:38 18.06.2020
1285 Clear 37 997 15 10000 9.3 340 18:19 18.06.2020
1286 Clear 38 997 12 10000 9.3 330 17:46 18.06.2020
1287 Clear 38 997 12 10000 9.3 330 17:26 18.06.2020
1288 Clear 39 996 12 10000 9.8 330 16:59 18.06.2020
1289 Clear 39 996 12 10000 9.8 320 16:41 18.06.2020
1290 Clear 40 996 12 10000 9.8 320 16:23 18.06.2020
1291 Clear 40 996 12 10000 10.3 320 15:57 18.06.2020
1292 Clear 40 996 12 10000 10.8 330 15:39 18.06.2020
1293 Clear 40 996 12 10000 10.8 330 15:20 18.06.2020
1294 Clear 41 996 12 10000 10.8 320 14:56 18.06.2020
1295 Clear 41 996 13 10000 10.3 330 14:37 18.06.2020
1296 Clear 41 996 13 10000 10.3 330 14:19 18.06.2020
1297 Clear 41 996 14 10000 11.3 330 13:47 18.06.2020
1298 Clear 41 996 14 10000 11.3 330 13:28 18.06.2020
1299 Clear 42 996 12 10000 11.8 330 12:57 18.06.2020
1300 Clear 42 996 13 10000 10.8 330 12:39 18.06.2020
1301 Clear 42 996 13 10000 10.8 330 12:20 18.06.2020
1302 Clear 42 996 12 10000 10.8 330 11:57 18.06.2020
1303 Clear 42 997 12 10000 11.3 330 11:37 18.06.2020
1304 Clear 42 997 12 10000 11.3 330 11:18 18.06.2020
1305 Clear 41 997 11 10000 9.8 330 10:39 18.06.2020
1306 Clear 41 997 11 10000 9.8 330 10:18 18.06.2020
1307 Clear 41 997 13 10000 10.3 330 09:45 18.06.2020
1308 Clear 41 997 13 10000 10.3 330 09:27 18.06.2020
1309 Clear 40 997 15 10000 8.2 320 08:57 18.06.2020
1310 Clear 39 997 18 10000 7.7 310 08:36 18.06.2020
1311 Clear 39 997 18 10000 7.7 310 08:18 18.06.2020
1312 Clear 37 998 29 10000 6.2 310 07:44 18.06.2020
1313 Clear 37 998 29 10000 6.2 310 07:23 18.06.2020
1314 Clear 35 998 39 10000 6.7 310 06:37 18.06.2020
1315 Clear 33 997 38 10000 6.2 300 04:27 18.06.2020
1316 Clear 33 997 41 10000 5.7 310 03:31 18.06.2020
1317 Clouds 34 996 32 10000 5.7 300 01:43 18.06.2020
1318 Clouds 34 996 28 10000 5.7 310 01:20 18.06.2020
1319 Clouds 34 996 25 10000 5.1 310 00:49 18.06.2020
1320 Clouds 34 996 25 10000 5.1 310 00:26 18.06.2020
1321 Clouds 34 996 25 10000 5.1 310 23:54 17.06.2020
1322 Clouds 35 997 20 10000 4.6 310 23:36 17.06.2020
1323 Clouds 35 997 22 10000 4.6 310 23:18 17.06.2020
1324 Clouds 35 997 22 10000 4.6 310 22:54 17.06.2020
1325 Clouds 35 997 18 10000 4.1 320 22:36 17.06.2020
1326 Clouds 35 997 20 10000 5.1 330 22:18 17.06.2020
1327 Clouds 36 997 17 10000 6.2 330 21:40 17.06.2020
1328 Clouds 36 997 18 10000 6.7 330 21:20 17.06.2020
1329 Clouds 36 997 18 10000 6.7 330 20:55 17.06.2020
1330 Clouds 36 997 18 10000 6.7 330 20:37 17.06.2020
1331 Clouds 37 997 18 10000 6.2 330 20:18 17.06.2020
1332 Clouds 37 996 18 10000 6.2 330 19:42 17.06.2020
1333 Clouds 37 996 18 10000 6.2 330 19:21 17.06.2020
1334 Clouds 37 996 18 10000 6.2 330 19:21 17.06.2020
1335 Clouds 38 996 18 10000 6.2 320 18:56 17.06.2020
1336 Clouds 38 996 18 10000 7.2 320 18:37 17.06.2020
1337 Clouds 38 996 18 10000 7.2 320 18:19 17.06.2020
1338 Clouds 39 996 15 10000 7.2 330 17:42 17.06.2020
1339 Clear 40 996 15 10000 7.2 330 17:21 17.06.2020
1340 Clear 41 995 14 10000 8.7 330 16:56 17.06.2020
1341 Clear 41 995 17 10000 9.8 340 16:38 17.06.2020
1342 Clouds 42 995 15 9000 9.8 340 16:19 17.06.2020
1343 Clouds 42 995 16 8000 10.3 340 15:40 17.06.2020
1344 Clouds 42 995 16 8000 10.3 340 15:21 17.06.2020
1345 Clouds 43 995 16 8000 10.3 340 14:59 17.06.2020
1346 Clouds 44 995 14 9000 10.8 340 14:40 17.06.2020
1347 Clouds 44 995 14 9000 10.8 340 14:20 17.06.2020
1348 Clouds 44 995 14 9000 10.8 340 13:58 17.06.2020
1349 Clouds 44 995 13 10000 9.8 340 13:40 17.06.2020
1350 Clear 44 995 13 10000 9.8 340 13:21 17.06.2020
1351 Clear 45 995 13 10000 10.8 340 12:55 17.06.2020
1352 Clear 45 995 13 10000 9.8 330 12:36 17.06.2020
1353 Clear 45 996 14 10000 9.8 340 12:18 17.06.2020
1354 Clear 45 996 15 10000 10.3 340 11:44 17.06.2020
1355 Clear 45 996 15 10000 10.3 340 11:24 17.06.2020
1356 Clear 44 996 15 10000 8.2 330 10:39 17.06.2020
1357 Clear 44 996 15 10000 8.2 330 10:20 17.06.2020
1358 Clear 44 996 15 10000 7.7 320 09:59 17.06.2020
1359 Clear 43 996 15 10000 8.2 330 09:41 17.06.2020
1360 Clear 42 996 17 10000 7.7 320 09:21 17.06.2020
1361 Clear 42 996 17 10000 7.7 320 08:56 17.06.2020
1362 Clear 42 996 19 10000 7.2 310 08:38 17.06.2020
1363 Clouds 41 996 19 10000 7.2 310 08:18 17.06.2020
1364 Clouds 40 996 23 10000 7.7 310 07:43 17.06.2020
1365 Clouds 40 996 23 10000 7.7 310 07:21 17.06.2020
1366 Clouds 38 996 24 10000 7.2 310 06:56 17.06.2020
1367 Clouds 38 996 25 10000 6.7 310 06:37 17.06.2020
1368 Clouds 36 996 27 10000 6.7 310 06:19 17.06.2020
1369 Clouds 36 995 27 10000 6.7 310 05:18 17.06.2020
1370 Clouds 35 995 25 10000 5.7 300 03:28 17.06.2020
1371 Clear 36 995 19 10000 5.7 300 01:52 17.06.2020
1372 Clear 37 995 15 10000 4.1 300 00:46 17.06.2020
1373 Clear 37 995 15 10000 4.1 300 00:23 17.06.2020
1374 Clear 38 996 15 10000 4.6 290 23:56 16.06.2020
1375 Clear 38 996 13 10000 5.1 300 23:37 16.06.2020
1376 Clear 38 996 13 10000 5.7 300 23:19 16.06.2020
1377 Clear 38 996 13 10000 5.7 300 22:55 16.06.2020
1378 Clear 38 997 13 10000 6.7 300 22:37 16.06.2020
1379 Clear 38 997 13 10000 6.7 300 22:18 16.06.2020
1380 Clear 37 997 13 10000 5.1 310 21:47 16.06.2020
1381 Clear 37 997 13 10000 5.1 310 21:24 16.06.2020
1382 Clear 39 997 12 10000 6.7 300 20:57 16.06.2020
1383 Clear 39 997 11 10000 5.7 290 20:39 16.06.2020
1384 Clear 40 997 12 10000 6.2 300 20:19 16.06.2020
1385 Clear 40 997 12 10000 6.2 300 20:19 16.06.2020
1386 Clear 40 997 12 10000 6.2 300 19:57 16.06.2020
1387 Clear 40 997 12 10000 6.7 300 19:39 16.06.2020
1388 Clear 40 997 12 10000 6.7 300 19:21 16.06.2020
1389 Clear 41 997 10 10000 6.7 300 18:54 16.06.2020
1390 Clear 41 997 9 10000 6.7 300 18:36 16.06.2020
1391 Clear 41 997 9 10000 6.7 300 18:18 16.06.2020
1392 Clear 42 997 8 10000 6.7 310 17:54 16.06.2020
1393 Clear 42 996 8 10000 6.7 310 17:36 16.06.2020
1394 Clear 43 996 8 10000 7.7 310 17:18 16.06.2020
1395 Clear 44 996 8 10000 7.2 320 16:42 16.06.2020
1396 Clear 44 996 8 10000 7.2 320 16:20 16.06.2020
1397 Clear 44 996 8 10000 7.2 320 15:58 16.06.2020
1398 Clear 45 996 7 10000 8.7 320 15:39 16.06.2020
1399 Clear 45 996 7 10000 8.7 320 15:21 16.06.2020
1400 Clear 46 996 7 10000 7.7 320 14:57 16.06.2020
1401 Clear 46 997 7 10000 9.3 330 14:38 16.06.2020
1402 Clear 46 997 7 10000 9.3 330 14:20 16.06.2020
1403 Clear 47 997 6 10000 9.3 330 13:46 16.06.2020
1404 Clear 47 997 6 10000 9.3 330 13:26 16.06.2020
1405 Clear 47 997 7 10000 8.7 330 12:55 16.06.2020
1406 Clear 46 997 7 10000 8.2 320 12:37 16.06.2020
1407 Clear 46 997 7 10000 8.2 320 12:18 16.06.2020
1408 Clear 46 998 8 10000 7.7 330 11:42 16.06.2020
1409 Clear 46 998 8 10000 7.7 330 11:23 16.06.2020
1410 Clear 46 998 9 10000 7.7 320 10:59 16.06.2020
1411 Clear 45 998 9 10000 7.2 320 10:41 16.06.2020
1412 Clouds 45 998 9 10000 7.2 320 10:20 16.06.2020
1413 Clouds 44 999 12 10000 7.2 320 09:48 16.06.2020
1414 Clouds 44 999 12 10000 7.2 320 09:26 16.06.2020
1415 Clouds 43 999 17 10000 6.2 320 08:59 16.06.2020
1416 Clouds 42 999 17 10000 6.7 320 08:41 16.06.2020
1417 Clouds 41 999 19 10000 5.1 310 08:22 16.06.2020
1418 Clouds 40 999 20 10000 5.7 310 07:45 16.06.2020
1419 Clouds 40 999 20 10000 5.7 310 07:26 16.06.2020
1420 Clouds 38 999 25 10000 5.7 310 06:47 16.06.2020
1421 Clouds 37 998 24 10000 5.1 310 06:19 16.06.2020
1422 Clouds 36 998 25 10000 4.6 310 05:32 16.06.2020
1423 Clouds 34 998 26 10000 5.1 300 04:27 16.06.2020
1424 Clouds 34 998 23 10000 6.2 310 02:56 16.06.2020
1425 Clouds 35 998 23 10000 6.2 310 01:52 16.06.2020
1426 Clouds 35 998 20 10000 5.1 310 01:20 16.06.2020
1427 Clouds 35 998 20 10000 6.2 310 00:40 16.06.2020
1428 Clouds 34 999 23 10000 5.7 310 00:19 16.06.2020
1429 Clouds 35 999 22 10000 5.1 310 23:41 15.06.2020
1430 Clouds 35 999 22 10000 4.6 310 23:22 15.06.2020
1431 Clouds 35 999 22 10000 4.6 310 22:55 15.06.2020
1432 Clouds 35 1000 20 10000 4.6 310 22:36 15.06.2020
1433 Clouds 35 1000 22 10000 5.1 310 22:18 15.06.2020
1434 Clouds 36 1000 22 10000 5.1 310 21:55 15.06.2020
1435 Clouds 36 1000 19 10000 4.6 320 21:36 15.06.2020
1436 Clouds 36 1000 19 10000 4.6 320 21:36 15.06.2020
1437 Clear 36 1000 17 10000 5.1 320 21:18 15.06.2020
1438 Clear 36 1000 17 10000 5.1 320 21:18 15.06.2020
1439 Clear 36 1000 17 10000 5.1 320 20:54 15.06.2020
1440 Clear 36 1000 17 10000 5.1 310 20:36 15.06.2020
1441 Clear 37 1000 15 10000 5.7 310 20:18 15.06.2020
1442 Clear 38 1000 14 10000 5.7 310 19:41 15.06.2020
1443 Clear 38 1000 13 10000 5.7 310 19:22 15.06.2020
1444 Clear 38 1000 13 10000 5.7 310 18:59 15.06.2020
1445 Clear 39 999 12 10000 6.2 310 18:41 15.06.2020
1446 Clear 39 999 12 10000 6.2 310 18:21 15.06.2020
1447 Clear 39 999 12 10000 6.2 310 18:21 15.06.2020
1448 Clear 40 999 12 10000 5.7 320 17:58 15.06.2020
1449 Clear 40 999 11 10000 4.6 320 17:40 15.06.2020
1450 Clear 40 999 11 10000 4.6 320 17:40 15.06.2020
1451 Clear 41 999 12 10000 6.2 330 17:20 15.06.2020
1452 Clear 42 999 12 10000 6.2 330 16:57 15.06.2020
1453 Clear 42 999 13 10000 7.7 340 16:39 15.06.2020
1454 Clear 43 999 12 10000 9.3 340 16:18 15.06.2020
1455 Clear 44 999 11 10000 9.3 340 15:41 15.06.2020
1456 Clear 44 999 12 10000 9.3 340 15:21 15.06.2020
1457 Clear 44 999 12 10000 9.3 340 14:59 15.06.2020
1458 Clear 44 999 13 10000 10.3 340 14:40 15.06.2020
1459 Clear 44 1000 12 10000 8.7 340 14:20 15.06.2020
1460 Clear 44 1000 12 10000 8.7 340 13:57 15.06.2020
1461 Clear 44 1000 14 10000 9.3 350 13:38 15.06.2020
1462 Clear 44 1000 13 10000 9.8 350 13:18 15.06.2020
1463 Clear 44 1000 12 10000 9.8 340 12:43 15.06.2020
1464 Clear 44 1000 12 10000 9.8 340 12:22 15.06.2020
1465 Clear 45 1000 12 10000 9.8 340 11:58 15.06.2020
1466 Clear 45 1001 14 10000 8.7 350 11:40 15.06.2020
1467 Clear 44 1001 16 10000 7.2 340 11:22 15.06.2020
1468 Clear 44 1001 15 10000 7.7 330 10:42 15.06.2020
1469 Clear 43 1001 16 10000 6.2 320 10:22 15.06.2020
1470 Clear 42 1002 17 10000 6.7 330 09:45 15.06.2020
1471 Clear 42 1002 17 10000 6.7 330 09:23 15.06.2020
1472 Clear 41 1002 19 10000 6.7 330 08:55 15.06.2020
1473 Clear 41 1002 23 10000 5.1 320 08:36 15.06.2020
1474 Clouds 39 1002 27 10000 5.1 310 08:18 15.06.2020
1475 Clouds 38 1002 31 10000 6.2 310 07:41 15.06.2020
1476 Clouds 37 1002 31 10000 6.2 310 07:20 15.06.2020
1477 Clouds 34 1002 39 10000 6.2 310 06:30 15.06.2020
1478 Clouds 34 1001 36 10000 6.2 310 05:51 15.06.2020
1479 Clouds 33 1001 38 10000 5.7 310 05:31 15.06.2020
1480 Clouds 32 1001 41 10000 5.7 310 04:23 15.06.2020
1481 Clouds 32 1000 41 10000 6.2 310 03:49 15.06.2020
1482 Clear 32 1000 41 10000 6.2 310 03:27 15.06.2020
1483 Clear 32 1000 38 10000 6.2 310 02:33 15.06.2020
1484 Clear 32 1000 41 10000 5.1 310 01:49 15.06.2020
1485 Clear 32 1000 41 10000 5.1 310 01:29 15.06.2020
1486 Clear 32 1000 38 10000 5.7 310 00:45 15.06.2020
1487 Clear 32 1000 38 10000 5.7 310 00:25 15.06.2020
1488 Clear 32 1001 36 10000 5.1 310 23:59 14.06.2020
1489 Clear 32 1001 36 10000 5.1 310 23:41 14.06.2020
1490 Clear 32 1001 36 10000 5.1 310 23:23 14.06.2020
1491 Clear 32 1001 38 10000 4.6 310 22:58 14.06.2020
1492 Clear 32 1002 38 10000 4.1 310 22:38 14.06.2020
1493 Clear 32 1002 38 10000 4.1 320 22:18 14.06.2020
1494 Clear 32 1002 38 10000 4.1 320 21:57 14.06.2020
1495 Clear 32 1002 36 10000 5.7 320 21:38 14.06.2020
1496 Clear 32 1002 36 10000 5.7 320 21:19 14.06.2020
1497 Clear 32 1002 36 10000 5.7 320 21:19 14.06.2020
1498 Clear 33 1002 34 10000 5.7 320 20:57 14.06.2020
1499 Clear 33 1002 30 10000 5.7 320 20:38 14.06.2020
1500 Clear 33 1002 28 10000 5.1 320 20:19 14.06.2020
1501 Clear 33 1002 28 10000 5.1 320 19:56 14.06.2020
1502 Clear 34 1002 28 10000 6.2 310 19:37 14.06.2020
1503 Clear 35 1001 25 10000 5.7 310 19:19 14.06.2020
1504 Clear 35 1001 25 10000 5.7 310 18:56 14.06.2020
1505 Clear 36 1001 19 10000 5.7 310 18:37 14.06.2020
1506 Clear 36 1001 19 10000 5.7 310 18:19 14.06.2020
1507 Clear 37 1001 17 10000 6.2 310 18:19 14.06.2020
1508 Clear 37 1001 17 10000 6.2 310 17:55 14.06.2020
1509 Clear 37 1000 17 10000 7.7 310 17:37 14.06.2020
1510 Clear 38 1000 14 10000 7.2 320 17:19 14.06.2020
1511 Clear 39 1000 14 10000 7.2 320 16:40 14.06.2020
1512 Clear 40 1000 13 10000 7.2 320 16:20 14.06.2020
1513 Clear 40 1000 13 10000 7.2 320 15:58 14.06.2020
1514 Clear 40 1000 13 10000 7.2 320 15:58 14.06.2020
1515 Clear 41 1000 13 10000 8.7 330 15:40 14.06.2020
1516 Clear 41 1000 11 10000 8.7 330 15:18 14.06.2020
1517 Clear 42 1000 11 10000 8.7 330 14:58 14.06.2020
1518 Clear 42 1000 11 10000 8.7 330 14:58 14.06.2020
1519 Clear 42 1000 12 10000 9.8 340 14:40 14.06.2020
1520 Clouds 42 1000 12 10000 9.8 340 14:19 14.06.2020
1521 Clouds 42 1000 16 10000 11.8 340 13:42 14.06.2020
1522 Clouds 42 1000 16 10000 11.8 340 13:22 14.06.2020
1523 Clouds 42 1001 14 10000 11.8 340 12:59 14.06.2020
1524 Clouds 42 1001 13 10000 11.3 340 12:41 14.06.2020
1525 Clouds 42 1001 13 10000 11.3 340 12:23 14.06.2020
1526 Clouds 42 1001 14 10000 11.8 340 11:59 14.06.2020
1527 Clouds 41 1001 15 10000 11.3 340 11:40 14.06.2020
1528 Clouds 41 1001 15 10000 11.3 340 11:22 14.06.2020
1529 Clouds 41 1002 16 10000 10.8 340 11:00 14.06.2020
1530 Clouds 40 1002 17 10000 11.3 340 10:40 14.06.2020
1531 Clouds 40 1002 19 10000 11.8 340 10:18 14.06.2020
1532 Clouds 40 1002 19 10000 12.3 340 09:44 14.06.2020
1533 Clear 40 1002 19 10000 12.3 340 09:24 14.06.2020
1534 Clear 39 1002 22 10000 11.8 340 08:43 14.06.2020
1535 Clouds 38 1002 22 10000 11.8 340 08:22 14.06.2020
1536 Clouds 38 1002 22 10000 11.8 330 07:56 14.06.2020
1537 Clouds 37 1002 25 10000 9.8 330 07:35 14.06.2020
1538 Clouds 36 1001 25 10000 9.8 330 06:59 14.06.2020
1539 Clouds 34 1001 28 10000 9.3 330 05:56 14.06.2020
1540 Clouds 34 1001 26 10000 8.7 330 05:34 14.06.2020
1541 Clear 33 1000 28 10000 9.8 330 04:41 14.06.2020
1542 Clear 33 1000 28 10000 9.3 330 03:55 14.06.2020
1543 Clear 32 1000 32 10000 8.2 330 02:43 14.06.2020
1544 Clear 32 1000 32 10000 8.2 330 02:23 14.06.2020
1545 Clear 32 999 36 10000 7.2 330 01:31 14.06.2020
1546 Clear 32 999 38 10000 7.2 330 00:49 14.06.2020
1547 Clear 32 999 38 10000 7.2 330 00:29 14.06.2020
1548 Clear 33 999 34 10000 6.2 330 23:49 13.06.2020
1549 Clear 33 1000 32 10000 6.7 330 23:31 13.06.2020
1550 Clear 33 1000 26 10000 6.7 320 22:59 13.06.2020
1551 Clear 33 1000 24 10000 6.7 330 22:38 13.06.2020
1552 Clear 33 1000 24 10000 7.2 330 22:20 13.06.2020
1553 Clear 33 1000 24 10000 7.2 330 21:58 13.06.2020
1554 Clear 34 1000 26 10000 6.2 320 21:40 13.06.2020
1555 Clear 34 1000 26 10000 6.2 320 21:21 13.06.2020
1556 Clear 34 1000 26 10000 6.2 320 20:54 13.06.2020
1557 Clear 34 1000 26 10000 5.7 320 20:36 13.06.2020
1558 Clear 34 1000 28 10000 5.7 320 20:18 13.06.2020
1559 Clear 34 1000 26 10000 5.7 320 19:39 13.06.2020
1560 Clear 35 1000 23 10000 6.7 320 19:20 13.06.2020
1561 Clear 35 1000 23 10000 6.7 320 18:58 13.06.2020
1562 Clear 36 999 19 10000 6.2 320 18:40 13.06.2020
1563 Clear 37 999 18 10000 7.2 310 18:20 13.06.2020
1564 Clear 37 999 18 10000 7.2 310 18:20 13.06.2020
1565 Clear 37 999 18 10000 7.2 310 17:57 13.06.2020
1566 Clear 38 998 15 10000 6.7 320 17:38 13.06.2020
1567 Clear 38 998 15 10000 6.7 320 17:20 13.06.2020
1568 Clear 39 998 13 10000 7.7 320 16:54 13.06.2020
1569 Clear 40 998 12 10000 7.2 320 16:36 13.06.2020
1570 Clear 40 998 12 10000 10.8 330 16:18 13.06.2020
1571 Clear 40 998 12 10000 11.3 340 15:42 13.06.2020
1572 Clear 40 998 12 10000 11.3 340 15:21 13.06.2020
1573 Clear 41 998 12 10000 11.3 340 14:44 13.06.2020
1574 Clouds 41 998 12 10000 11.3 340 14:24 13.06.2020
1575 Clouds 41 998 15 10000 11.3 340 13:57 13.06.2020
1576 Clouds 41 999 16 10000 11.8 340 13:38 13.06.2020
1577 Clouds 41 999 16 10000 11.8 340 13:19 13.06.2020
1578 Clouds 42 999 16 10000 12.3 340 12:43 13.06.2020
1579 Clouds 42 999 16 10000 12.3 340 12:25 13.06.2020
1580 Clouds 41 999 16 10000 13.4 340 11:57 13.06.2020
1581 Clouds 42 999 15 10000 12.9 340 11:37 13.06.2020
1582 Clouds 42 999 15 10000 12.9 340 11:19 13.06.2020
1583 Clouds 41 999 17 10000 12.9 340 10:54 13.06.2020
1584 Clouds 41 1000 16 10000 12.9 340 10:36 13.06.2020
1585 Clouds 41 1000 18 10000 11.3 340 10:18 13.06.2020
1586 Clouds 41 1000 21 10000 9.8 340 09:42 13.06.2020
1587 Clouds 41 1000 21 10000 9.8 340 09:20 13.06.2020
1588 Clouds 40 1000 21 10000 10.8 340 08:46 13.06.2020
1589 Clear 40 1000 21 10000 10.8 340 08:27 13.06.2020
1590 Clear 38 1000 25 10000 8.7 330 07:45 13.06.2020
1591 Clear 38 1000 25 10000 8.7 330 07:27 13.06.2020
1592 Clear 37 1000 27 10000 8.7 330 06:47 13.06.2020
1593 Clear 35 1000 27 10000 8.7 330 06:27 13.06.2020
1594 Clear 35 999 28 10000 6.7 320 05:36 13.06.2020
1595 Clear 34 998 36 10000 6.2 320 04:55 13.06.2020
1596 Clear 34 998 34 10000 6.2 310 03:46 13.06.2020
1597 Clear 34 998 39 10000 6.2 310 02:53 13.06.2020
1598 Clear 34 998 39 10000 5.7 300 02:24 13.06.2020
1599 Clear 34 998 32 10000 5.1 310 01:26 13.06.2020
1600 Clear 34 998 30 10000 6.2 310 00:58 13.06.2020
1601 Clear 35 998 32 10000 5.1 310 00:38 13.06.2020
1602 Clear 35 998 29 10000 5.1 310 00:19 13.06.2020
1603 Clear 35 998 29 10000 5.1 310 23:40 12.06.2020
1604 Clear 35 999 29 10000 5.1 310 23:18 12.06.2020
1605 Clear 35 999 29 10000 5.1 310 22:55 12.06.2020
1606 Clear 35 999 27 10000 4.6 310 22:37 12.06.2020
1607 Clear 35 999 27 10000 4.6 310 22:37 12.06.2020
1608 Clear 36 999 27 10000 4.6 320 22:18 12.06.2020
1609 Clear 36 999 27 10000 4.6 310 21:44 12.06.2020
1610 Clear 36 999 21 10000 4.1 310 21:24 12.06.2020
1611 Clear 36 999 21 10000 4.1 310 20:57 12.06.2020
1612 Clear 36 999 19 10000 4.1 320 20:38 12.06.2020
1613 Clear 37 999 19 10000 4.1 320 20:20 12.06.2020
1614 Clear 38 999 17 10000 3.6 320 19:44 12.06.2020
1615 Clear 38 999 17 10000 3.6 320 19:22 12.06.2020
1616 Clear 39 998 16 10000 5.7 310 18:59 12.06.2020
1617 Clear 39 998 15 10000 5.1 310 18:37 12.06.2020
1618 Clear 41 998 14 10000 4.1 310 18:18 12.06.2020
1619 Clear 41 998 13 10000 4.6 320 17:44 12.06.2020
1620 Clear 41 998 13 10000 4.6 320 17:26 12.06.2020
1621 Clear 43 997 10 10000 4.6 330 16:47 12.06.2020
1622 Clear 43 997 10 10000 4.6 330 16:24 12.06.2020
1623 Clear 44 997 15 10000 5.7 350 15:56 12.06.2020
1624 Clear 44 997 15 10000 4.6 360 15:37 12.06.2020
1625 Clear 44 997 16 10000 5.7 360 15:18 12.06.2020
1626 Clear 45 998 14 10000 5.1 360 14:41 12.06.2020
1627 Clear 45 998 14 10000 5.1 360 14:22 12.06.2020
1628 Clear 46 998 10 10000 6.2 360 13:56 12.06.2020
1629 Clear 46 998 7 10000 4.6 330 13:38 12.06.2020
1630 Clear 46 998 8 10000 4.1 320 13:18 12.06.2020
1631 Clear 46 999 8 10000 4.6 310 12:40 12.06.2020
1632 Clear 46 999 8 10000 4.6 310 12:19 12.06.2020
1633 Clear 46 999 8 10000 5.1 300 11:45 12.06.2020
1634 Clear 46 999 8 10000 5.1 300 11:23 12.06.2020
1635 Clear 46 999 8 10000 5.1 300 11:23 12.06.2020
1636 Clear 45 1000 8 10000 5.1 320 10:57 12.06.2020
1637 Clear 45 1000 9 10000 4.6 300 10:39 12.06.2020
1638 Clear 45 1000 9 10000 4.6 300 10:21 12.06.2020
1639 Clear 44 1000 11 10000 2.6 260 09:44 12.06.2020
1640 Clear 42 1000 15 10000 2.6 270 09:20 12.06.2020
1641 Clear 42 1000 18 10000 2.6 250 08:42 12.06.2020
1642 Clear 41 1000 18 10000 2.6 250 08:23 12.06.2020
1643 Clear 39 1000 27 10000 3.1 240 07:43 12.06.2020
1644 Clear 38 1000 27 10000 3.1 240 07:24 12.06.2020
1645 Clear 36 1000 39 10000 2.6 230 06:44 12.06.2020
1646 Clear 34 1000 39 10000 2.6 230 06:23 12.06.2020
1647 Clear 33 1000 59 9000 2.6 220 05:50 12.06.2020
1648 Clear 32 1000 59 9000 2.6 220 05:25 12.06.2020
1649 Clear 30 999 79 7000 2.1 220 03:56 12.06.2020
1650 Clear 30 999 79 8000 3.1 200 02:43 12.06.2020
1651 Clear 31 999 74 8000 2.1 210 01:51 12.06.2020
1652 Clear 31 998 70 10000 2.6 210 01:21 12.06.2020
1653 Clear 32 998 70 10000 3.1 180 00:41 12.06.2020
1654 Clear 32 998 70 10000 3.1 180 00:22 12.06.2020
1655 Clear 32 999 66 10000 2.6 150 23:58 11.06.2020
1656 Clear 32 999 66 10000 2.6 150 23:39 11.06.2020
1657 Clear 32 999 70 10000 3.1 140 23:20 11.06.2020
1658 Clear 32 999 70 10000 3.1 140 22:56 11.06.2020
1659 Clear 33 999 70 10000 3.6 140 22:38 11.06.2020
1660 Clear 33 999 70 10000 3.6 140 22:38 11.06.2020
1661 Clear 32 1000 66 10000 2.1 150 22:19 11.06.2020
1662 Clear 32 1000 63 10000 2.1 160 21:43 11.06.2020
1663 Clear 33 1000 59 10000 2.1 130 21:21 11.06.2020
1664 Clear 33 1000 59 10000 2.1 130 20:59 11.06.2020
1665 Clear 33 1000 59 10000 1.5 160 20:41 11.06.2020
1666 Clear 33 1000 59 10000 1.5 160 20:21 11.06.2020
1667 Clear 34 1000 66 10000 1.5 120 19:44 11.06.2020
1668 Clear 34 1000 66 10000 1.5 120 19:23 11.06.2020
1669 Clear 34 1000 66 10000 1.5 120 19:23 11.06.2020
1670 Clear 35 999 66 10000 2.1 120 18:57 11.06.2020
1671 Clear 35 999 66 10000 2.1 120 18:57 11.06.2020
1672 Clear 35 999 59 10000 1 0 18:39 11.06.2020
1673 Clear 36 999 56 9000 2.1 90 18:20 11.06.2020
1674 Clear 36 999 56 9000 2.1 90 17:56 11.06.2020
1675 Clear 36 999 53 9000 2.6 80 17:37 11.06.2020
1676 Clear 37 999 53 9000 2.6 80 17:19 11.06.2020
1677 Clear 39 999 44 9000 3.1 50 16:45 11.06.2020
1678 Clear 39 999 39 9000 3.6 30 16:27 11.06.2020
1679 Clear 40 999 37 9000 3.6 50 15:59 11.06.2020
1680 Clear 41 999 29 9000 4.1 30 15:40 11.06.2020
1681 Clear 41 999 29 9000 4.1 30 15:22 11.06.2020
1682 Clear 42 1000 34 10000 3.6 60 14:46 11.06.2020
1683 Clear 42 1000 34 10000 3.6 60 14:22 11.06.2020
1684 Clear 41 1000 26 10000 3.6 40 13:58 11.06.2020
1685 Clear 42 1000 19 10000 4.6 30 13:39 11.06.2020
1686 Clear 42 1000 19 10000 4.6 30 13:21 11.06.2020
1687 Clear 43 1000 36 10000 4.6 60 12:59 11.06.2020
1688 Clear 42 1000 32 10000 4.1 90 12:39 11.06.2020
1689 Clear 43 1000 32 10000 4.1 90 12:20 11.06.2020
1690 Clear 43 1001 32 10000 5.1 90 11:58 11.06.2020
1691 Clear 44 1001 18 10000 4.1 40 11:40 11.06.2020
1692 Clear 44 1001 18 10000 4.1 40 11:21 11.06.2020
1693 Clear 45 1001 18 10000 4.1 40 11:21 11.06.2020
1694 Clear 43 1001 15 10000 4.1 360 10:57 11.06.2020
1695 Clear 44 1001 11 10000 3.6 360 10:38 11.06.2020
1696 Clear 44 1001 11 10000 3.6 360 10:18 11.06.2020
1697 Clear 43 1001 13 10000 1.5 0 09:42 11.06.2020
1698 Clear 42 1001 18 10000 1.5 230 09:23 11.06.2020
1699 Clear 40 1001 26 10000 2.1 230 08:44 11.06.2020
1700 Clear 41 1001 26 10000 2.1 230 08:20 11.06.2020
1701 Clear 39 1001 28 10000 2.1 260 07:57 11.06.2020
1702 Clear 39 1001 28 10000 2.1 260 07:57 11.06.2020
1703 Clear 38 1001 37 10000 2.1 240 07:39 11.06.2020
1704 Clear 37 1001 37 10000 2.1 240 07:20 11.06.2020
1705 Clear 33 1001 44 10000 2.6 180 06:28 11.06.2020
1706 Clear 32 1001 49 10000 2.1 220 05:36 11.06.2020
1707 Clear 30 1000 55 10000 2.1 220 03:50 11.06.2020
1708 Clear 30 1000 58 10000 2.6 180 03:23 11.06.2020
1709 Clear 31 1000 62 10000 1 0 02:32 11.06.2020
1710 Clear 31 1000 66 10000 1 0 01:50 11.06.2020
1711 Clear 31 1000 66 10000 1 0 01:24 11.06.2020
1712 Clear 30 1001 70 10000 1.5 330 00:50 11.06.2020
1713 Clear 31 1001 70 10000 1.5 330 00:27 11.06.2020
1714 Clear 31 1001 74 10000 2.6 340 23:47 10.06.2020
1715 Clear 31 1001 70 10000 2.6 340 23:47 10.06.2020
1716 Clear 31 1001 74 10000 2.6 340 23:27 10.06.2020
1717 Clear 31 1001 70 10000 2.1 340 22:57 10.06.2020
1718 Clear 31 1001 70 10000 1.5 350 22:38 10.06.2020
1719 Clear 31 1001 70 10000 1.5 350 22:19 10.06.2020
1720 Clear 31 1001 66 10000 1 90 21:58 10.06.2020
1721 Clear 32 1002 66 10000 2.1 340 21:39 10.06.2020
1722 Clear 32 1002 66 10000 2.1 340 21:18 10.06.2020
1723 Clear 32 1002 59 10000 1 0 20:57 10.06.2020
1724 Clear 32 1002 62 10000 1 80 20:39 10.06.2020
1725 Clear 32 1002 62 10000 1 0 20:21 10.06.2020
1726 Clear 33 1001 59 10000 1.5 70 19:41 10.06.2020
1727 Clear 33 1002 63 10000 1.5 30 19:20 10.06.2020
1728 Clear 33 1002 63 10000 1.5 30 18:59 10.06.2020
1729 Clear 33 1001 59 10000 2.1 40 18:41 10.06.2020
1730 Clear 33 1001 63 10000 3.1 50 18:20 10.06.2020
1731 Clear 33 1001 63 10000 3.1 50 17:56 10.06.2020
1732 Clear 34 1001 59 10000 3.6 40 17:37 10.06.2020
1733 Clear 34 1001 59 10000 3.6 40 17:19 10.06.2020
1734 Clear 34 1001 63 10000 3.6 20 16:57 10.06.2020
1735 Clear 35 1001 59 10000 3.6 40 16:39 10.06.2020
1736 Clear 35 1001 59 10000 3.6 40 16:20 10.06.2020
1737 Clear 36 1001 50 10000 3.6 30 15:41 10.06.2020
1738 Clear 37 1001 50 10000 3.6 30 15:22 10.06.2020
1739 Clear 38 1001 42 10000 3.6 40 14:59 10.06.2020
1740 Clear 38 1002 39 10000 3.6 30 14:40 10.06.2020
1741 Clear 38 1002 39 10000 3.6 30 14:40 10.06.2020
1742 Clear 38 1002 39 10000 3.6 30 14:21 10.06.2020
1743 Clear 39 1002 29 10000 3.6 100 13:41 10.06.2020
1744 Clear 39 1002 29 10000 3.6 100 13:22 10.06.2020
1745 Clear 39 1002 29 10000 3.6 90 12:55 10.06.2020
1746 Clear 39 1002 29 10000 3.6 90 12:37 10.06.2020
1747 Clear 39 1002 29 10000 3.6 90 12:18 10.06.2020
1748 Clear 39 1003 29 10000 3.1 90 11:42 10.06.2020
1749 Clear 39 1003 29 10000 3.1 90 11:20 10.06.2020
1750 Clear 39 1003 31 10000 3.6 80 10:58 10.06.2020
1751 Clear 39 1003 29 10000 2.6 80 10:40 10.06.2020
1752 Clear 39 1003 18 10000 3.1 80 10:21 10.06.2020
1753 Clear 39 1003 18 10000 3.1 90 09:44 10.06.2020
1754 Clear 39 1003 18 10000 3.1 90 09:25 10.06.2020
1755 Clear 38 1003 24 10000 2.1 80 08:58 10.06.2020
1756 Clear 38 1003 32 10000 2.1 130 08:39 10.06.2020
1757 Clear 36 1003 30 10000 0.5 0 08:20 10.06.2020
1758 Clear 35 1003 39 10000 1.5 160 07:41 10.06.2020
1759 Clear 35 1003 39 10000 1.5 160 07:23 10.06.2020
1760 Clear 34 1002 49 10000 2.1 130 06:48 10.06.2020
1761 Clear 31 1002 49 10000 2.1 130 06:25 10.06.2020
1762 Clear 30 1002 49 10000 1.5 120 05:58 10.06.2020
1763 Clear 30 1002 48 10000 1.5 160 05:29 10.06.2020
1764 Clear 30 1002 58 10000 2.6 130 04:46 10.06.2020
1765 Clear 29 1001 58 10000 2.1 190 04:28 10.06.2020
1766 Clear 29 1001 54 10000 0.5 0 02:24 10.06.2020
1767 Clear 30 1001 51 10000 0.5 0 01:39 10.06.2020
1768 Clear 30 1001 48 10000 1.5 330 00:41 10.06.2020
1769 Clear 30 1001 48 10000 1.5 330 00:23 10.06.2020
1770 Clear 30 1001 52 10000 1.5 320 23:58 09.06.2020
1771 Clear 31 1001 58 10000 2.1 340 23:39 09.06.2020
1772 Clear 31 1001 58 10000 2.1 340 23:21 09.06.2020
1773 Clear 31 1002 66 10000 2.1 330 22:56 09.06.2020
1774 Clear 31 1002 66 10000 3.1 340 22:38 09.06.2020
1775 Clear 31 1002 66 10000 3.1 340 22:20 09.06.2020
1776 Clear 31 1002 70 10000 1.5 350 21:56 09.06.2020
1777 Clear 31 1002 66 10000 1.5 360 21:38 09.06.2020
1778 Clear 31 1002 66 10000 1.5 360 21:38 09.06.2020
1779 Clear 32 1002 66 10000 1.5 360 21:20 09.06.2020
1780 Clear 32 1002 59 10000 3.1 350 20:57 09.06.2020
1781 Clear 32 1002 59 10000 4.6 350 20:38 09.06.2020
1782 Clear 32 1002 59 10000 4.6 350 20:19 09.06.2020
1783 Clear 32 1002 59 10000 4.1 350 19:57 09.06.2020
1784 Clear 33 1002 62 10000 3.6 350 19:38 09.06.2020
1785 Clear 33 1002 62 10000 3.6 350 19:20 09.06.2020
1786 Clear 33 1002 59 10000 4.6 350 18:56 09.06.2020
1787 Clear 33 1001 59 10000 5.1 350 18:37 09.06.2020
1788 Clear 33 1001 63 10000 5.1 360 18:18 09.06.2020
1789 Clear 34 1001 63 10000 5.1 360 17:54 09.06.2020
1790 Clear 34 1001 59 10000 6.2 10 17:36 09.06.2020
1791 Clear 34 1001 59 10000 6.2 10 17:18 09.06.2020
1792 Clear 36 1001 44 10000 6.7 360 16:42 09.06.2020
1793 Clear 36 1001 44 10000 6.7 360 16:22 09.06.2020
1794 Clear 36 1001 50 10000 5.7 20 15:55 09.06.2020
1795 Clear 36 1001 53 10000 5.7 10 15:37 09.06.2020
1796 Clear 36 1001 53 10000 5.7 10 15:18 09.06.2020
1797 Clear 36 1002 56 10000 5.1 10 14:40 09.06.2020
1798 Clear 36 1002 56 10000 5.1 10 14:20 09.06.2020
1799 Clear 36 1002 59 10000 4.1 10 13:58 09.06.2020
1800 Clear 36 1002 53 10000 4.1 20 13:39 09.06.2020
1801 Clear 37 1002 50 10000 3.6 30 13:20 09.06.2020
1802 Clear 36 1002 50 10000 4.6 30 12:43 09.06.2020
1803 Clear 36 1002 50 10000 4.6 30 12:21 09.06.2020
1804 Clear 39 1002 37 10000 5.1 40 11:59 09.06.2020
1805 Clear 38 1003 35 10000 5.1 20 11:40 09.06.2020
1806 Clear 38 1003 35 10000 5.1 20 11:20 09.06.2020
1807 Clear 38 1003 35 10000 5.1 20 10:58 09.06.2020
1808 Clear 39 1003 27 10000 5.7 20 10:40 09.06.2020
1809 Clear 39 1003 27 10000 5.7 20 10:21 09.06.2020
1810 Clear 39 1003 26 10000 5.7 10 09:44 09.06.2020
1811 Clear 38 1003 29 10000 4.1 20 09:24 09.06.2020
1812 Clear 39 1003 26 10000 4.1 360 08:56 09.06.2020
1813 Clear 39 1002 22 10000 2.6 330 08:38 09.06.2020
1814 Clear 38 1002 22 10000 2.6 330 08:19 09.06.2020
1815 Clear 37 1002 27 10000 4.6 330 07:38 09.06.2020
1816 Clear 37 1002 27 10000 4.6 330 07:19 09.06.2020
1817 Clear 36 1002 26 10000 4.1 330 06:53 09.06.2020
1818 Clear 34 1002 28 10000 3.6 320 06:34 09.06.2020
1819 Clear 32 1001 28 10000 2.6 310 05:34 09.06.2020
1820 Clear 30 1000 38 10000 0.5 0 03:21 09.06.2020
1821 Clear 30 1000 30 10000 1 0 01:43 09.06.2020
1822 Clear 31 1000 29 10000 1 0 01:19 09.06.2020
1823 Clear 32 1000 25 10000 2.1 10 00:50 09.06.2020
1824 Clear 32 1000 25 10000 2.1 10 00:26 09.06.2020
1825 Clear 32 1000 24 10000 1 0 23:59 08.06.2020
1826 Clear 32 1000 21 10000 0.5 0 23:39 08.06.2020
1827 Clear 32 1000 21 10000 0.5 0 23:19 08.06.2020
1828 Clear 32 1000 22 10000 1 0 22:42 08.06.2020
1829 Clear 33 1001 21 10000 1.5 20 22:23 08.06.2020
1830 Clear 33 1001 21 10000 1.5 10 21:59 08.06.2020
1831 Clear 34 1000 16 10000 2.6 330 21:41 08.06.2020
1832 Clear 34 1000 16 10000 2.6 330 21:22 08.06.2020
1833 Clear 35 1000 14 10000 3.1 340 20:57 08.06.2020
1834 Clear 36 1000 13 10000 2.6 310 20:39 08.06.2020
1835 Clear 36 1000 13 10000 2.6 310 20:20 08.06.2020
1836 Clear 37 1000 11 10000 4.6 310 19:59 08.06.2020
1837 Clear 37 1000 11 10000 4.1 310 19:41 08.06.2020
1838 Clear 37 1000 9 10000 4.1 320 19:20 08.06.2020
1839 Clear 39 1000 8 10000 4.6 320 18:41 08.06.2020
1840 Clear 38 1000 8 10000 4.6 320 18:19 08.06.2020
1841 Clear 39 1000 9 10000 4.6 320 17:57 08.06.2020
1842 Clear 39 999 8 10000 6.2 310 17:39 08.06.2020
1843 Clear 40 999 8 10000 6.2 310 17:19 08.06.2020
1844 Clear 41 999 18 10000 5.7 310 16:46 08.06.2020
1845 Clear 42 999 14 10000 5.1 310 16:25 08.06.2020
1846 Clear 43 999 6 10000 7.2 310 15:59 08.06.2020
1847 Clear 43 999 6 10000 7.2 310 15:41 08.06.2020
1848 Clear 43 999 6 10000 7.2 310 15:21 08.06.2020
1849 Clear 43 999 5 10000 6.7 320 14:56 08.06.2020
1850 Clear 43 999 5 10000 8.2 330 14:38 08.06.2020
1851 Clear 43 999 5 10000 8.2 330 14:18 08.06.2020
1852 Clear 43 999 5 10000 9.3 330 13:42 08.06.2020
1853 Clear 43 999 5 10000 9.3 330 13:21 08.06.2020
1854 Clear 44 1000 12 10000 9.3 330 12:42 08.06.2020
1855 Clear 44 1000 12 10000 9.3 330 12:19 08.06.2020
1856 Clear 44 1000 12 10000 8.7 330 11:58 08.06.2020
1857 Clear 44 1000 8 10000 6.2 320 11:39 08.06.2020
1858 Clear 44 1000 8 10000 6.2 320 11:20 08.06.2020
1859 Clear 43 1000 7 10000 6.7 330 10:56 08.06.2020
1860 Clear 43 1001 8 10000 7.7 330 10:37 08.06.2020
1861 Clear 43 1001 8 10000 7.7 330 10:19 08.06.2020
1862 Clear 42 1000 10 10000 6.7 330 09:46 08.06.2020
1863 Clear 42 1001 10 10000 7.2 330 09:23 08.06.2020
1864 Clear 41 1001 12 10000 6.2 330 08:50 08.06.2020
1865 Clear 40 1001 14 10000 6.7 330 08:24 08.06.2020
1866 Clear 39 1001 18 10000 6.7 330 07:56 08.06.2020
1867 Clear 39 1001 18 10000 6.7 330 07:56 08.06.2020
1868 Clear 39 1000 18 10000 7.2 330 07:38 08.06.2020
1869 Clear 38 1000 19 10000 5.1 320 07:19 08.06.2020
1870 Clear 36 1000 25 10000 5.1 320 06:39 08.06.2020
1871 Clear 33 1000 30 10000 5.7 310 05:55 08.06.2020
1872 Clear 33 1000 36 10000 4.6 310 04:59 08.06.2020
1873 Clear 33 999 32 10000 4.6 300 03:24 08.06.2020
1874 Clear 34 999 28 10000 5.1 310 02:26 08.06.2020
1875 Clear 34 999 26 10000 5.7 310 01:43 08.06.2020
1876 Clear 35 999 22 10000 5.7 310 00:57 08.06.2020
1877 Clear 35 999 17 10000 5.1 310 00:25 08.06.2020
1878 Clear 36 999 10 10000 6.2 320 23:39 07.06.2020
1879 Clear 36 999 10 10000 6.2 320 23:19 07.06.2020
1880 Clear 36 1000 9 10000 6.2 320 22:57 07.06.2020
1881 Clear 36 1000 10 10000 6.7 330 22:37 07.06.2020
1882 Clear 37 1000 10 10000 6.7 330 22:18 07.06.2020
1883 Clear 36 1000 10 10000 6.7 330 21:58 07.06.2020
1884 Clear 37 1000 10 10000 6.2 330 21:36 07.06.2020
1885 Clear 37 1000 10 10000 6.2 330 21:18 07.06.2020
1886 Clear 37 1000 10 10000 5.7 320 20:39 07.06.2020
1887 Clear 36 1000 10 10000 5.7 320 20:21 07.06.2020
1888 Clear 36 1000 12 10000 4.1 320 19:57 07.06.2020
1889 Clear 36 1000 13 10000 4.6 330 19:39 07.06.2020
1890 Clear 37 1000 15 10000 4.1 320 19:20 07.06.2020
1891 Clear 37 1000 15 10000 4.1 320 18:59 07.06.2020
1892 Clear 37 1000 12 10000 6.2 320 18:38 07.06.2020
1893 Clear 37 1000 12 10000 6.2 320 18:20 07.06.2020
1894 Clear 38 1000 11 10000 5.7 320 17:57 07.06.2020
1895 Clear 39 1000 10 10000 5.7 330 17:38 07.06.2020
1896 Clear 39 1000 10 10000 5.7 330 17:20 07.06.2020
1897 Clear 41 999 8 10000 8.2 330 16:43 07.06.2020
1898 Clear 41 999 8 10000 8.2 330 16:21 07.06.2020
1899 Clear 42 999 9 10000 9.3 330 15:44 07.06.2020
1900 Clear 42 999 9 10000 9.3 330 15:44 07.06.2020
1901 Clear 42 999 9 10000 10.3 330 15:22 07.06.2020
1902 Clear 43 999 11 10000 11.8 340 14:41 07.06.2020
1903 Clear 43 999 11 10000 11.8 340 14:41 07.06.2020
1904 Clear 43 999 11 10000 11.8 340 14:22 07.06.2020
1905 Clear 43 999 13 10000 12.3 340 13:55 07.06.2020
1906 Clear 43 1000 12 10000 11.8 340 13:24 07.06.2020
1907 Clear 43 1000 12 10000 11.8 340 12:59 07.06.2020
1908 Clear 44 1000 11 10000 11.8 340 12:40 07.06.2020
1909 Clear 44 1000 10 10000 12.9 340 12:22 07.06.2020
1910 Clear 44 1000 10 10000 12.9 340 12:22 07.06.2020
1911 Clear 44 1000 10 10000 12.9 340 11:55 07.06.2020
1912 Clear 44 1000 10 10000 12.9 340 11:37 07.06.2020
1913 Clear 44 1000 10 10000 12.9 340 11:19 07.06.2020
1914 Clear 44 1000 10 10000 12.9 340 11:19 07.06.2020
1915 Clear 43 1000 11 10000 12.9 340 10:54 07.06.2020
1916 Clear 43 1000 11 10000 12.3 340 10:36 07.06.2020
1917 Clear 43 1000 11 10000 12.3 340 10:18 07.06.2020
1918 Clear 43 1000 12 10000 12.3 340 09:41 07.06.2020
1919 Clear 42 1000 12 10000 12.3 340 09:21 07.06.2020
1920 Clear 42 1001 15 10000 9.8 330 08:59 07.06.2020
1921 Clear 42 1001 17 10000 8.2 330 08:40 07.06.2020
1922 Clear 41 1001 17 10000 8.2 330 08:22 07.06.2020
1923 Clear 39 1000 24 10000 7.2 320 07:41 07.06.2020
1924 Clear 39 1000 24 10000 7.2 320 07:41 07.06.2020
1925 Clear 39 1000 24 10000 7.2 320 07:41 07.06.2020
1926 Clear 37 1000 25 10000 5.7 320 06:56 07.06.2020
1927 Clear 35 1000 30 10000 6.2 320 05:57 07.06.2020
1928 Clear 34 999 28 10000 6.2 320 04:22 07.06.2020
1929 Clear 35 999 23 10000 6.7 320 03:48 07.06.2020
1930 Clear 35 999 23 10000 6.7 320 03:48 07.06.2020
1931 Clear 34 999 28 10000 5.1 320 02:19 07.06.2020
1932 Clear 34 998 25 10000 6.7 320 01:26 07.06.2020
1933 Clear 34 999 30 10000 6.7 310 00:59 07.06.2020
1934 Clear 35 999 25 10000 5.7 320 00:39 07.06.2020
1935 Clear 35 999 25 10000 5.7 320 00:18 07.06.2020
1936 Clear 35 999 25 10000 5.7 320 23:38 06.06.2020
1937 Clear 35 999 25 10000 5.7 320 23:20 06.06.2020
1938 Clear 35 999 25 10000 6.2 320 22:58 06.06.2020
1939 Clear 36 999 22 10000 6.7 320 22:39 06.06.2020
1940 Clear 36 999 22 10000 6.7 320 22:20 06.06.2020
1941 Clear 36 1000 22 10000 5.1 320 21:56 06.06.2020
1942 Clear 36 1000 21 10000 6.2 320 21:38 06.06.2020
1943 Clear 36 1000 21 10000 6.2 320 21:19 06.06.2020
1944 Clear 36 1000 19 10000 6.2 320 20:40 06.06.2020
1945 Clear 36 1000 19 10000 6.2 320 20:20 06.06.2020
1946 Clear 37 1000 20 10000 7.2 320 19:58 06.06.2020
1947 Clear 37 1000 20 10000 6.2 320 19:40 06.06.2020
1948 Clear 37 1000 20 10000 6.2 320 19:21 06.06.2020
1949 Clear 38 1000 20 10000 7.7 330 18:56 06.06.2020
1950 Clear 38 999 20 10000 7.2 330 18:37 06.06.2020
1951 Clear 39 999 19 10000 6.7 330 18:18 06.06.2020
1952 Clear 39 999 18 10000 8.2 330 17:43 06.06.2020
1953 Clear 40 999 18 10000 8.2 330 17:20 06.06.2020
1954 Clear 40 999 19 10000 9.3 340 16:56 06.06.2020
1955 Clear 40 999 20 10000 9.8 340 16:38 06.06.2020
1956 Clear 40 999 20 10000 9.8 340 16:20 06.06.2020
1957 Clear 41 999 20 10000 9.8 340 15:44 06.06.2020
1958 Clear 42 999 19 10000 10.8 340 15:20 06.06.2020
1959 Clear 43 999 17 10000 10.3 340 14:58 06.06.2020
1960 Clear 43 999 15 10000 10.3 340 14:38 06.06.2020
1961 Clear 43 999 15 10000 10.3 340 14:19 06.06.2020
1962 Clear 43 999 17 10000 9.8 340 13:47 06.06.2020
1963 Clear 43 1000 24 10000 8.2 350 13:19 06.06.2020
1964 Clear 43 1000 24 10000 8.2 350 12:57 06.06.2020
1965 Clear 43 1000 24 10000 8.2 350 12:57 06.06.2020
1966 Clear 42 1000 26 10000 8.2 350 12:39 06.06.2020
1967 Clear 42 1000 26 10000 8.2 350 12:19 06.06.2020
1968 Clear 42 1000 25 10000 8.7 350 11:55 06.06.2020
1969 Clear 42 1000 26 10000 8.2 350 11:37 06.06.2020
1970 Clear 42 1000 26 10000 8.2 350 11:18 06.06.2020
1971 Clear 44 1000 18 10000 8.7 340 10:56 06.06.2020
1972 Clear 44 1001 17 10000 8.7 340 10:38 06.06.2020
1973 Clear 44 1001 17 10000 8.7 340 10:19 06.06.2020
1974 Clear 42 1001 18 10000 7.7 330 09:43 06.06.2020
1975 Clear 42 1001 18 10000 7.7 330 09:24 06.06.2020
1976 Clear 41 1001 22 10000 6.7 330 08:48 06.06.2020
1977 Clear 41 1001 23 10000 6.2 320 08:25 06.06.2020
1978 Clear 39 1001 26 10000 6.7 320 07:57 06.06.2020
1979 Clear 39 1001 27 10000 5.7 310 07:38 06.06.2020
1980 Clear 37 1001 32 10000 6.2 310 07:20 06.06.2020
1981 Clear 36 1001 37 10000 6.7 310 06:44 06.06.2020
1982 Clear 35 1001 37 10000 6.7 310 06:26 06.06.2020
1983 Clear 35 1001 41 10000 6.2 310 05:41 06.06.2020
1984 Clear 33 1000 41 10000 5.1 310 04:51 06.06.2020
1985 Clear 33 1000 41 10000 6.2 310 03:46 06.06.2020
1986 Clear 33 1000 36 10000 6.2 310 02:36 06.06.2020
1987 Clear 34 999 36 10000 6.7 310 01:23 06.06.2020
1988 Clear 34 1000 36 10000 6.7 310 00:58 06.06.2020
1989 Clear 35 1000 34 10000 6.7 310 00:40 06.06.2020
1990 Clear 34 1000 34 10000 6.7 310 00:21 06.06.2020
1991 Clear 35 1000 34 10000 7.2 310 23:40 05.06.2020
1992 Clear 35 1000 34 10000 7.2 310 23:20 05.06.2020
1993 Clear 35 1000 34 10000 7.2 310 23:20 05.06.2020
1994 Clear 35 1001 34 10000 6.2 310 22:57 05.06.2020
1995 Clear 35 1001 32 10000 5.7 310 22:38 05.06.2020
1996 Clear 35 1001 32 10000 5.7 310 22:20 05.06.2020
1997 Clear 35 1001 29 10000 6.2 310 21:54 05.06.2020
1998 Clear 35 1001 29 10000 5.7 310 21:36 05.06.2020
1999 Clear 35 1001 29 10000 5.7 310 21:18 05.06.2020
2000 Clear 35 1001 25 10000 5.1 310 20:44 05.06.2020
2001 Clear 36 1001 25 10000 5.1 310 20:22 05.06.2020
2002 Clear 36 1001 27 10000 5.1 320 19:44 05.06.2020
2003 Clear 36 1001 27 10000 5.1 320 19:24 05.06.2020
2004 Clear 37 1001 24 10000 5.1 320 18:59 05.06.2020
2005 Clear 37 1000 22 10000 5.7 310 18:39 05.06.2020
2006 Clear 37 1000 22 10000 5.7 310 18:20 05.06.2020
2007 Clear 38 1000 20 10000 7.2 320 17:58 05.06.2020
2008 Clear 38 1000 20 10000 6.2 320 17:40 05.06.2020
2009 Clear 38 1000 20 10000 6.2 320 17:20 05.06.2020
2010 Clear 40 1000 18 9000 8.7 330 16:43 05.06.2020
2011 Clear 40 1000 18 9000 8.7 330 16:24 05.06.2020
2012 Clear 41 1000 18 9000 8.7 330 15:58 05.06.2020
2013 Clear 41 1000 17 8000 7.7 330 15:38 05.06.2020
2014 Clear 41 1000 17 8000 7.7 330 15:20 05.06.2020
2015 Clear 42 1000 18 8000 8.2 320 14:56 05.06.2020
2016 Clear 42 1000 16 8000 7.7 330 14:38 05.06.2020
2017 Clear 42 1000 16 8000 7.7 330 14:19 05.06.2020
2018 Clear 42 1001 18 8000 7.7 320 13:44 05.06.2020
2019 Clear 42 1001 18 10000 8.2 320 13:26 05.06.2020
2020 Clear 43 1001 17 10000 8.7 320 12:55 05.06.2020
2021 Clear 43 1001 16 10000 9.8 330 12:37 05.06.2020
2022 Clear 43 1001 16 10000 9.8 330 12:18 05.06.2020
2023 Clear 43 1001 18 9000 9.8 320 11:42 05.06.2020
2024 Clear 43 1001 18 9000 9.8 320 11:23 05.06.2020
2025 Clear 42 1002 17 8000 8.2 320 10:57 05.06.2020
2026 Clear 42 1002 18 7000 7.7 320 10:38 05.06.2020
2027 Clear 42 1002 18 7000 7.7 320 10:19 05.06.2020
2028 Clear 42 1002 20 7000 8.7 320 09:56 05.06.2020
2029 Clear 41 1002 20 8000 10.3 310 09:37 05.06.2020
2030 Clear 41 1002 20 8000 10.3 310 09:37 05.06.2020
2031 Clear 41 1002 20 8000 10.3 310 09:18 05.06.2020
2032 Clear 40 1002 23 9000 7.7 320 08:56 05.06.2020
2033 Clear 40 1002 24 10000 7.2 320 08:38 05.06.2020
2034 Clear 40 1002 24 10000 7.2 320 08:38 05.06.2020
2035 Clear 40 1002 24 10000 7.2 320 08:18 05.06.2020
2036 Clear 38 1002 31 10000 7.2 310 07:43 05.06.2020
2037 Clear 38 1002 31 10000 7.2 310 07:23 05.06.2020
2038 Clear 36 1002 37 10000 7.2 310 06:36 05.06.2020
2039 Clear 35 1002 39 10000 6.2 310 05:22 05.06.2020
2040 Clear 34 1001 36 10000 6.2 310 04:27 05.06.2020
2041 Rain 34 1001 41 10000 7.7 310 03:20 05.06.2020
2042 Clear 34 1000 39 10000 6.7 310 02:26 05.06.2020
2043 Clouds 35 1000 37 10000 6.7 310 01:56 05.06.2020
2044 Clouds 35 1001 34 10000 5.7 310 01:30 05.06.2020
2045 Clear 36 1001 32 10000 7.2 300 00:43 05.06.2020
2046 Clear 36 1001 32 10000 7.2 300 00:21 05.06.2020
2047 Clear 36 1001 32 10000 6.2 300 23:47 04.06.2020
2048 Clear 37 1001 29 10000 6.2 310 23:28 04.06.2020
2049 Clear 37 1001 25 10000 6.7 310 22:56 04.06.2020
2050 Clear 37 1001 27 10000 5.7 310 22:37 04.06.2020
2051 Clear 37 1001 27 10000 5.7 310 22:18 04.06.2020
2052 Clear 37 1001 26 10000 6.2 300 21:56 04.06.2020
2053 Clear 37 1002 22 10000 5.1 310 21:38 04.06.2020
2054 Clear 38 1002 22 10000 5.1 310 21:19 04.06.2020
2055 Clear 38 1002 22 10000 5.7 310 20:55 04.06.2020
2056 Clear 38 1001 17 10000 5.1 310 20:36 04.06.2020
2057 Clear 39 1001 15 10000 4.6 310 20:18 04.06.2020
2058 Clear 40 1001 14 10000 4.6 310 19:40 04.06.2020
2059 Clear 40 1001 14 10000 4.6 310 19:21 04.06.2020
2060 Clear 41 1001 13 10000 5.1 310 18:56 04.06.2020
2061 Clear 42 1001 12 10000 4.6 310 18:38 04.06.2020
2062 Clear 42 1001 10 10000 5.1 320 18:20 04.06.2020
2063 Clear 43 1000 10 10000 6.7 330 17:42 04.06.2020
2064 Clear 43 1000 10 10000 6.7 330 17:21 04.06.2020
2065 Clear 44 1000 10 10000 6.2 320 16:57 04.06.2020
2066 Clear 44 1000 10 10000 6.7 330 16:39 04.06.2020
2067 Clear 45 1000 10 10000 6.7 330 16:18 04.06.2020
2068 Clear 45 1000 12 10000 8.2 340 15:43 04.06.2020
2069 Clear 46 1000 13 10000 8.7 340 15:24 04.06.2020
2070 Clear 46 1000 10 10000 8.7 340 14:41 04.06.2020
2071 Clear 46 1000 10 10000 8.7 340 14:22 04.06.2020
2072 Clear 47 1000 11 10000 8.7 340 13:57 04.06.2020
2073 Clear 47 1001 10 10000 8.7 340 13:39 04.06.2020
2074 Clear 47 1001 10 10000 8.2 340 13:20 04.06.2020
2075 Clear 47 1001 10 10000 8.2 340 12:58 04.06.2020
2076 Clear 47 1001 10 10000 8.2 340 12:58 04.06.2020
2077 Clear 47 1001 11 10000 7.2 340 12:40 04.06.2020
2078 Clear 47 1001 11 10000 7.2 340 12:21 04.06.2020
2079 Clear 46 1001 12 10000 5.7 320 11:54 04.06.2020
2080 Clear 46 1001 13 10000 5.7 320 11:36 04.06.2020
2081 Clear 46 1001 13 10000 5.7 320 11:18 04.06.2020
2082 Clear 45 1002 13 10000 6.2 310 10:39 04.06.2020
2083 Clear 45 1002 13 10000 6.2 310 10:21 04.06.2020
2084 Clear 44 1002 14 10000 5.7 310 09:56 04.06.2020
2085 Clear 43 1002 16 10000 5.7 300 09:37 04.06.2020
2086 Clear 43 1002 16 10000 5.7 300 09:18 04.06.2020
2087 Clear 42 1002 17 10000 5.1 280 08:38 04.06.2020
2088 Clear 42 1002 17 10000 5.1 280 08:20 04.06.2020
2089 Clear 40 1002 23 10000 4.1 270 07:32 04.06.2020
2090 Clear 37 1002 41 10000 3.1 260 06:57 04.06.2020
2091 Clear 37 1002 41 10000 3.1 260 06:39 04.06.2020
2092 Clear 34 1002 41 10000 2.6 270 06:18 04.06.2020
2093 Clear 35 1002 30 10000 3.6 280 05:32 04.06.2020
2094 Clear 33 1001 28 10000 2.1 270 03:37 04.06.2020
2095 Clear 33 1001 26 10000 2.6 250 02:21 04.06.2020
2096 Clear 34 1001 23 10000 1.5 240 01:22 04.06.2020
2097 Clear 34 1001 24 10000 1 0 01:00 04.06.2020
2098 Clear 34 1001 28 10000 1.5 310 00:18 04.06.2020
2099 Clear 34 1001 41 10000 1.5 340 23:38 03.06.2020
2100 Clear 34 1001 41 10000 1.5 340 23:19 03.06.2020
2101 Clear 34 1001 50 10000 2.6 340 22:54 03.06.2020
2102 Clear 34 1002 59 10000 1.5 340 22:36 03.06.2020
2103 Clear 34 1002 59 10000 1.5 340 22:18 03.06.2020
2104 Clear 35 1002 59 10000 1.5 10 21:55 03.06.2020
2105 Clear 36 1002 53 10000 1.5 360 21:36 03.06.2020
2106 Clear 36 1002 53 10000 1.5 360 21:18 03.06.2020
2107 Clear 34 1001 63 10000 4.44 356 20:41 03.06.2020
2108 Clear 36 1001 63 10000 4.16 355 20:21 03.06.2020
2109 Clear 36 1001 59 10000 2.1 130 19:57 03.06.2020
2110 Clear 37 1001 47 10000 1 50 19:38 03.06.2020
2111 Clear 38 1001 47 10000 1 50 19:20 03.06.2020
2112 Clear 37 1001 50 10000 1 60 18:57 03.06.2020
2113 Clear 37 1001 50 10000 1.5 40 18:39 03.06.2020
2114 Clear 38 1001 50 10000 1.5 360 18:19 03.06.2020
2115 Clear 39 1001 50 10000 1.5 360 17:44 03.06.2020
2116 Clear 39 1001 47 10000 2.6 20 17:23 03.06.2020
2117 Clear 40 1001 47 10000 3.1 20 16:58 03.06.2020
2118 Clear 41 1000 45 10000 4.1 10 16:39 03.06.2020
2119 Clear 41 1000 45 10000 4.1 10 16:19 03.06.2020
2120 Clear 41 1000 45 10000 3.6 20 15:54 03.06.2020
2121 Clear 42 1000 43 10000 3.6 10 15:36 03.06.2020
2122 Clear 42 1000 43 10000 3.6 10 15:18 03.06.2020
2123 Clear 43 1000 38 10000 6.7 20 14:42 03.06.2020
2124 Clear 43 1000 38 10000 6.7 20 14:22 03.06.2020
2125 Clear 46 1001 13 10000 5.1 300 13:40 03.06.2020
2126 Clear 47 1001 12 10000 5.7 310 13:20 03.06.2020
2127 Clear 46 1001 13 10000 5.1 300 13:20 03.06.2020
2128 Clear 47 1001 12 10000 5.7 310 12:54 03.06.2020
2129 Clear 46 1001 13 10000 6.2 300 12:36 03.06.2020
2130 Clear 46 1001 13 10000 6.2 300 12:36 03.06.2020
2131 Clear 46 1002 13 10000 5.7 300 12:18 03.06.2020
2132 Clear 45 1002 13 10000 6.2 300 11:41 03.06.2020
2133 Clear 45 1002 13 10000 6.2 300 11:23 03.06.2020
2134 Clear 45 1002 14 10000 5.7 280 10:43 03.06.2020
2135 Clear 45 1002 14 10000 5.7 280 10:24 03.06.2020
2136 Clear 45 1003 14 10000 5.1 270 09:47 03.06.2020
2137 Clear 45 1003 14 10000 4.1 270 09:23 03.06.2020
2138 Clear 44 1003 17 10000 4.6 270 08:59 03.06.2020
2139 Clear 43 1003 17 10000 3.6 260 08:41 03.06.2020
2140 Clear 42 1003 17 10000 3.6 260 08:21 03.06.2020
2141 Clear 42 1003 19 10000 3.6 0 07:44 03.06.2020
2142 Clear 40 1003 23 10000 2.6 240 07:23 03.06.2020
2143 Clear 39 1003 23 10000 2.6 240 06:54 03.06.2020
2144 Clear 37 1002 29 10000 2.6 220 06:33 03.06.2020
2145 Clear 34 1002 49 10000 2.1 230 05:49 03.06.2020
2146 Clear 34 1002 49 10000 2.1 230 05:23 03.06.2020
2147 Clear 33 1001 52 10000 2.1 210 03:52 03.06.2020
2148 Clear 33 1001 49 10000 2.6 240 03:24 03.06.2020
2149 Clear 32 1001 55 10000 2.6 220 02:24 03.06.2020
2150 Clear 32 1001 55 10000 2.1 200 00:56 03.06.2020
2151 Clear 32 1002 55 10000 2.6 210 00:37 03.06.2020
2152 Clear 32 1002 55 10000 2.6 210 00:18 03.06.2020
2153 Clear 33 1002 44 10000 1 0 23:38 02.06.2020
2154 Clear 33 1002 44 10000 1 0 23:20 02.06.2020
2155 Clear 32 1002 52 10000 1 0 22:39 02.06.2020
2156 Clear 32 1002 52 10000 1 0 22:19 02.06.2020
2157 Clear 32 1003 59 10000 2.57 44 21:57 02.06.2020
2158 Clear 32 1003 59 10000 1 360 21:39 02.06.2020
2159 Clear 32 1003 59 10000 1 360 21:20 02.06.2020
2160 Clear 33 1003 55 10000 1 20 20:58 02.06.2020
2161 Clear 33 1003 55 10000 2.1 30 20:40 02.06.2020
2162 Clear 33 1003 55 10000 2.1 30 20:21 02.06.2020
2163 Clear 34 1002 56 10000 2.6 30 19:45 02.06.2020
2164 Clear 34 1002 56 10000 2.6 30 19:26 02.06.2020
2165 Clear 34 1002 56 10000 2.6 30 19:26 02.06.2020
2166 Clear 34 1002 56 10000 2.1 30 18:58 02.06.2020
2167 Clear 34 1002 56 10000 2.1 30 18:58 02.06.2020
2168 Clear 34 1002 59 10000 2.1 40 18:40 02.06.2020
2169 Clear 34 1002 59 10000 2.1 40 18:20 02.06.2020
2170 Clear 34 1002 59 8000 2.6 40 17:57 02.06.2020
2171 Clear 34 1001 63 7000 3.6 40 17:39 02.06.2020
2172 Clear 34 1001 63 7000 3.6 40 17:20 02.06.2020
2173 Clear 35 1001 59 7000 4.1 30 16:55 02.06.2020
2174 Clear 35 1001 59 6000 4.6 20 16:37 02.06.2020
2175 Clear 35 1001 59 6000 4.6 20 16:19 02.06.2020
2176 Clear 35 1001 59 6000 4.6 20 16:19 02.06.2020
2177 Clear 36 1001 56 6000 4.6 40 15:40 02.06.2020
2178 Clear 36 1001 56 6000 4.6 40 15:20 02.06.2020
2179 Clear 36 1001 67 6000 5.1 20 14:47 02.06.2020
2180 Clear 37 1002 53 6000 6.2 20 14:28 02.06.2020
2181 Clear 38 1002 56 6000 6.2 20 13:57 02.06.2020
2182 Clear 40 1002 36 9000 4.6 70 13:37 02.06.2020
2183 Clear 40 1002 36 9000 4.6 70 13:18 02.06.2020
2184 Clear 45 1002 8 10000 3.6 300 12:56 02.06.2020
2185 Clear 45 1002 8 10000 2.6 260 12:38 02.06.2020
2186 Clear 45 1002 8 10000 2.6 260 12:19 02.06.2020
2187 Clear 46 1003 9 10000 3.1 240 11:41 02.06.2020
2188 Clear 46 1003 9 10000 3.1 240 11:23 02.06.2020
2189 Clear 44 1003 13 10000 3.1 0 10:59 02.06.2020
2190 Clear 43 1004 17 10000 3.1 230 10:41 02.06.2020
2191 Clear 43 1004 17 10000 3.1 230 10:21 02.06.2020
2192 Clear 41 1004 28 10000 3.6 240 09:43 02.06.2020
2193 Clear 40 1004 31 10000 4.1 230 09:21 02.06.2020
2194 Clear 39 1004 45 10000 4.1 220 08:55 02.06.2020
2195 Clear 38 1004 44 10000 3.6 200 08:29 02.06.2020
2196 Clear 36 1004 53 10000 3.1 170 07:58 02.06.2020
2197 Clear 36 1004 56 10000 3.1 140 07:38 02.06.2020
2198 Clear 36 1004 56 10000 3.1 140 07:18 02.06.2020
2199 Clear 35 1003 56 10000 1.5 0 06:39 02.06.2020
2200 Clear 32 1004 70 10000 2.1 220 05:38 02.06.2020
2201 Clear 31 1003 74 10000 1.5 220 04:41 02.06.2020
2202 Clear 31 1003 89 10000 2.1 120 03:19 02.06.2020
2203 Clear 31 1002 84 10000 1.5 70 02:18 02.06.2020
2204 Clear 31 1002 79 10000 1.5 110 00:51 02.06.2020
2205 Clear 31 1002 74 10000 1 0 00:22 02.06.2020
2206 Clear 31 1003 79 10000 2.6 10 23:39 01.06.2020
2207 Clear 31 1003 79 10000 2.6 10 23:20 01.06.2020
2208 Clear 32 1003 75 10000 2.1 360 22:58 01.06.2020
2209 Clear 32 1003 70 10000 2.1 360 22:39 01.06.2020
2210 Clear 32 1003 70 10000 2.1 360 22:19 01.06.2020
2211 Clear 32 1004 70 10000 2.6 20 21:54 01.06.2020
2212 Clear 32 1004 75 10000 3.6 10 21:36 01.06.2020
2213 Clear 32 1004 75 10000 3.6 10 21:18 01.06.2020
2214 Clear 33 1004 75 10000 3.1 360 20:42 01.06.2020
2215 Clear 34 1003 75 10000 2.6 20 20:21 01.06.2020
2216 Clear 34 1003 75 10000 2.6 20 19:59 01.06.2020
2217 Clear 34 1003 67 10000 2.1 20 19:41 01.06.2020
2218 Clear 35 1002 63 10000 3.1 10 19:20 01.06.2020
2219 Clear 35 1002 63 10000 3.1 10 18:58 01.06.2020
2220 Clear 35 1002 59 10000 2.6 10 18:39 01.06.2020
2221 Clear 36 1002 59 10000 1 0 18:19 01.06.2020
2222 Clear 36 1002 59 10000 1 0 17:54 01.06.2020
2223 Clear 37 1002 56 10000 2.6 100 17:36 01.06.2020
2224 Clear 37 1002 56 10000 2.6 100 17:18 01.06.2020
2225 Clear 40 1001 37 10000 2.6 100 16:39 01.06.2020
2226 Clear 40 1001 37 10000 2.6 100 16:20 01.06.2020
2227 Clear 41 1001 35 10000 2.6 100 15:55 01.06.2020
2228 Clear 41 1001 35 10000 2.6 90 15:36 01.06.2020
2229 Clear 42 1001 35 10000 2.6 90 15:18 01.06.2020
2230 Clear 42 1001 35 10000 3.1 90 14:55 01.06.2020
2231 Clear 40 1002 40 10000 4.1 100 14:36 01.06.2020
2232 Clear 41 1002 40 10000 4.1 100 14:18 01.06.2020
2233 Clear 42 1002 38 10000 4.6 80 13:41 01.06.2020
2234 Clear 40 1002 38 10000 4.6 80 13:21 01.06.2020
2235 Clear 42 1003 36 10000 2.6 0 12:58 01.06.2020
2236 Clear 43 1003 17 10000 2.6 0 12:39 01.06.2020
2237 Clear 43 1003 17 10000 2.6 0 12:21 01.06.2020
2238 Clear 43 1003 18 10000 2.6 0 11:56 01.06.2020
2239 Clear 42 1004 20 10000 2.6 0 11:36 01.06.2020
2240 Clear 42 1004 20 10000 2.1 0 11:18 01.06.2020
2241 Clear 41 1004 23 10000 2.6 220 10:39 01.06.2020
2242 Clear 40 1004 23 10000 2.6 220 10:20 01.06.2020
2243 Clear 40 1004 24 10000 2.6 0 09:57 01.06.2020
2244 Clear 39 1004 26 10000 2.6 230 09:39 01.06.2020
2245 Clear 38 1004 26 10000 2.6 230 09:20 01.06.2020
2246 Clear 36 1005 30 10000 2.6 230 08:51 01.06.2020
2247 Clear 36 1005 32 10000 3.1 230 08:28 01.06.2020
2248 Clear 34 1005 44 10000 3.6 210 07:46 01.06.2020
2249 Clear 34 1005 44 10000 3.6 210 07:28 01.06.2020
2250 Clear 32 1005 55 10000 3.6 210 06:59 01.06.2020
2251 Clear 32 1005 62 10000 3.6 220 06:33 01.06.2020
2252 Clear 30 1005 66 10000 3.1 210 05:53 01.06.2020
2253 Clear 30 1003 66 10000 1.5 220 04:31 01.06.2020
2254 Clear 30 1003 70 10000 1.5 260 03:48 01.06.2020
2255 Clear 29 1003 70 10000 1.5 260 03:24 01.06.2020
2256 Clear 30 1003 66 10000 2.6 250 02:19 01.06.2020
2257 Clear 30 1003 66 10000 2.1 250 01:34 01.06.2020
2258 Clear 30 1003 66 10000 1.5 260 00:58 01.06.2020
2259 Clear 30 1003 66 10000 2.1 130 00:40 01.06.2020
2260 Clear 30 1003 66 10000 2.1 130 00:21 01.06.2020
2261 Clear 30 1003 62 10000 1.5 320 23:56 31.05.2020
2262 Clear 31 1003 55 10000 2.6 320 23:38 31.05.2020
2263 Clear 31 1003 55 10000 2.6 320 23:20 31.05.2020
2264 Clear 31 1004 59 10000 1.5 340 22:44 31.05.2020
2265 Clear 31 1004 59 10000 1.5 340 22:26 31.05.2020
2266 Clear 31 1004 59 10000 2.6 340 21:58 31.05.2020
2267 Clear 32 1004 59 10000 3.1 340 21:40 31.05.2020
2268 Clear 32 1004 59 10000 3.1 340 21:22 31.05.2020
2269 Clear 32 1004 55 10000 4.6 340 20:57 31.05.2020
2270 Clear 32 1004 75 10000 4.6 360 20:38 31.05.2020
2271 Clear 32 1004 75 10000 4.6 360 20:19 31.05.2020
2272 Clear 33 1004 66 10000 4.6 10 19:54 31.05.2020
2273 Clear 33 1003 66 10000 4.1 20 19:36 31.05.2020
2274 Clear 33 1003 79 10000 3.1 20 19:18 31.05.2020
2275 Clear 33 1003 79 10000 3.6 10 18:43 31.05.2020
2276 Clear 33 1003 79 10000 3.6 10 18:25 31.05.2020
2277 Clear 33 1002 70 10000 4.6 360 17:45 31.05.2020
2278 Clear 33 1002 70 10000 4.6 360 17:25 31.05.2020
2279 Clear 34 1002 63 10000 4.6 350 16:58 31.05.2020
2280 Clear 34 1002 63 10000 4.6 350 16:58 31.05.2020
2281 Clear 35 1002 67 10000 4.1 20 16:38 31.05.2020
2282 Clear 35 1002 67 10000 4.1 20 16:18 31.05.2020
2283 Clear 35 1002 63 10000 4.1 10 15:39 31.05.2020
2284 Clear 35 1002 63 10000 4.1 10 15:21 31.05.2020
2285 Clear 39 1002 40 10000 2.6 60 14:47 31.05.2020
2286 Clear 39 1002 40 10000 2.6 60 14:22 31.05.2020
2287 Clear 39 1002 45 10000 2.6 90 13:56 31.05.2020
2288 Clear 39 1003 50 10000 3.1 100 13:38 31.05.2020
2289 Clear 39 1003 50 10000 3.1 100 13:20 31.05.2020
2290 Clear 39 1003 50 10000 4.6 120 12:57 31.05.2020
2291 Clear 40 1003 45 10000 5.1 90 12:37 31.05.2020
2292 Clear 40 1003 45 10000 5.1 90 12:19 31.05.2020
2293 Clear 40 1003 45 10000 5.1 110 11:48 31.05.2020
2294 Clear 41 1004 26 10000 3.6 320 11:23 31.05.2020
2295 Clear 41 1004 28 10000 3.1 330 10:57 31.05.2020
2296 Clear 40 1004 28 10000 2.6 0 10:39 31.05.2020
2297 Clear 40 1004 28 10000 2.6 0 10:19 31.05.2020
2298 Clear 39 1005 33 10000 2.6 240 09:42 31.05.2020
2299 Clear 38 1005 33 10000 2.6 240 09:23 31.05.2020
2300 Clear 38 1005 35 10000 1.5 0 08:58 31.05.2020
2301 Clear 37 1005 39 10000 3.1 330 08:37 31.05.2020
2302 Clear 37 1005 39 10000 3.1 330 08:19 31.05.2020
2303 Clear 36 1005 44 10000 2.6 350 07:43 31.05.2020
2304 Clear 36 1005 44 10000 2.6 350 07:21 31.05.2020
2305 Clear 35 1005 47 10000 1.5 360 06:54 31.05.2020
2306 Clear 34 1005 49 10000 1.5 340 06:32 31.05.2020
2307 Clear 31 1004 62 10000 1.5 260 05:44 31.05.2020
2308 Clear 30 1003 66 9000 2.1 290 04:31 31.05.2020
2309 Clear 30 1003 66 9000 2.6 290 03:49 31.05.2020
2310 Clear 30 1003 79 10000 2.1 240 02:59 31.05.2020
2311 Clear 30 1003 70 10000 2.6 320 01:50 31.05.2020
2312 Clear 30 1003 74 9000 1.5 330 01:27 31.05.2020
2313 Clear 31 1003 70 9000 2.1 230 00:31 31.05.2020
2314 Clouds 31 1003 84 9000 1.5 120 23:59 30.05.2020
2315 Clouds 31 1004 84 9000 1 0 23:39 30.05.2020
2316 Clouds 31 1004 84 9000 1 0 23:21 30.05.2020
2317 Clouds 31 1004 84 9000 2.1 10 22:41 30.05.2020
2318 Clouds 31 1004 84 9000 2.1 10 22:23 30.05.2020
2319 Clouds 31 1004 79 9000 2.6 330 21:56 30.05.2020
2320 Clouds 32 1004 75 10000 3.1 350 21:38 30.05.2020
2321 Clouds 32 1004 79 10000 2.6 10 21:20 30.05.2020
2322 Clouds 32 1004 79 10000 2.6 10 20:56 30.05.2020
2323 Clouds 32 1004 79 10000 3.1 10 20:38 30.05.2020
2324 Clear 32 1004 79 10000 3.1 10 20:20 30.05.2020
2325 Clear 32 1003 70 10000 2.1 30 19:43 30.05.2020
2326 Clear 33 1003 70 10000 2.1 30 19:22 30.05.2020
2327 Clear 33 1003 66 10000 2.6 30 18:46 30.05.2020
2328 Clear 33 1003 66 10000 2.6 30 18:25 30.05.2020
2329 Clear 33 1003 66 10000 2.6 30 18:25 30.05.2020
2330 Clear 34 1003 70 10000 2.1 50 17:56 30.05.2020
2331 Clear 34 1002 63 10000 3.6 70 17:38 30.05.2020
2332 Clear 34 1002 63 10000 3.6 70 17:19 30.05.2020
2333 Clear 35 1002 56 10000 3.6 30 16:43 30.05.2020
2334 Clear 35 1002 56 10000 3.6 30 16:23 30.05.2020
2335 Clear 37 1002 50 10000 4.1 50 15:56 30.05.2020
2336 Clear 37 1001 44 10000 3.1 50 15:37 30.05.2020
2337 Clear 39 1001 50 10000 3.6 60 15:19 30.05.2020
2338 Clear 40 1002 24 10000 4.1 30 14:42 30.05.2020
2339 Clear 40 1002 24 10000 4.1 30 14:20 30.05.2020
2340 Clear 42 1002 22 10000 2.6 40 13:41 30.05.2020
2341 Clear 42 1002 22 10000 2.6 40 13:18 30.05.2020
2342 Clear 41 1002 26 10000 4.1 80 12:40 30.05.2020
2343 Clear 41 1002 26 10000 4.1 80 12:20 30.05.2020
2344 Clear 41 1003 33 10000 3.1 60 11:55 30.05.2020
2345 Clear 42 1003 21 10000 2.1 10 11:37 30.05.2020
2346 Clear 41 1003 16 10000 3.1 10 11:19 30.05.2020
2347 Clear 41 1003 17 10000 3.1 330 10:39 30.05.2020
2348 Clear 41 1003 17 10000 3.1 330 10:20 30.05.2020
2349 Clear 40 1004 20 10000 2.1 320 09:46 30.05.2020
2350 Clear 40 1004 20 10000 2.1 320 09:28 30.05.2020
2351 Clear 39 1004 27 10000 3.6 250 08:46 30.05.2020
2352 Clear 38 1004 27 10000 3.6 250 08:28 30.05.2020
2353 Clear 38 1003 32 10000 4.6 250 07:44 30.05.2020
2354 Clear 37 1003 32 10000 4.6 250 07:20 30.05.2020
2355 Clear 34 1003 46 9000 2.6 200 06:33 30.05.2020
2356 Clear 32 1003 52 9000 2.6 210 05:58 30.05.2020
2357 Clear 32 1003 58 9000 2.1 120 05:34 30.05.2020
2358 Clear 30 1002 74 10000 2.1 230 03:39 30.05.2020
2359 Clear 30 1002 74 10000 1.5 150 02:30 30.05.2020
2360 Clear 30 1001 79 10000 1 140 01:45 30.05.2020
2361 Clear 30 1001 66 10000 0.5 0 00:38 30.05.2020
2362 Clear 30 1001 66 10000 0.5 0 00:18 30.05.2020
2363 Clear 31 1002 66 10000 0.5 0 23:42 29.05.2020
2364 Clear 31 1002 66 10000 0.5 0 23:21 29.05.2020
2365 Clear 31 1002 62 10000 1 100 22:58 29.05.2020
2366 Clear 31 1002 66 10000 1.11 59 22:40 29.05.2020
2367 Clear 32 1002 66 10000 0.5 0 22:19 29.05.2020
2368 Clear 32 1002 66 10000 0.5 0 21:58 29.05.2020
2369 Clear 32 1002 62 10000 0.5 0 21:36 29.05.2020
2370 Clear 32 1002 62 10000 0.5 0 21:18 29.05.2020
2371 Clear 32 1002 62 10000 1.5 10 20:44 29.05.2020
2372 Clear 32 1002 62 10000 1.5 10 20:20 29.05.2020
2373 Clear 33 1002 59 10000 2.1 360 19:58 29.05.2020
2374 Clear 33 1002 52 10000 2.6 10 19:38 29.05.2020
2375 Clear 33 1002 52 10000 2.6 10 19:19 29.05.2020
2376 Clear 34 1002 49 10000 2.6 360 18:46 29.05.2020
2377 Clear 34 1002 49 10000 2.6 360 18:19 29.05.2020
2378 Clear 34 1002 49 10000 2.6 360 17:56 29.05.2020
2379 Clear 34 1002 49 10000 2.6 360 17:56 29.05.2020
2380 Clear 34 1002 49 10000 3.1 360 17:37 29.05.2020
2381 Clear 34 1002 49 10000 3.1 360 17:19 29.05.2020
2382 Clear 34 1002 49 10000 3.1 360 17:19 29.05.2020
2383 Clear 36 1001 37 10000 3.6 360 16:42 29.05.2020
2384 Clear 36 1001 37 10000 3.6 360 16:23 29.05.2020
2385 Clear 37 1001 25 10000 4.1 360 15:56 29.05.2020
2386 Clear 38 1001 32 10000 3.6 20 15:38 29.05.2020
2387 Clear 38 1001 33 10000 4.6 20 15:19 29.05.2020
2388 Clear 38 1001 29 10000 5.1 10 14:40 29.05.2020
2389 Clear 39 1001 29 10000 5.1 10 14:22 29.05.2020
2390 Clear 39 1002 29 10000 4.1 20 13:44 29.05.2020
2391 Clear 40 1002 29 10000 4.1 20 13:25 29.05.2020
2392 Clear 39 1002 29 10000 3.6 30 12:59 29.05.2020
2393 Clear 40 1002 29 10000 3.1 40 12:41 29.05.2020
2394 Clear 40 1002 29 10000 3.1 40 12:22 29.05.2020
2395 Clear 39 1003 39 10000 3.1 100 11:45 29.05.2020
2396 Clear 39 1003 39 10000 3.1 100 11:26 29.05.2020
2397 Clear 39 1003 37 10000 3.1 110 10:57 29.05.2020
2398 Clear 39 1003 42 10000 3.6 110 10:37 29.05.2020
2399 Clear 39 1003 42 10000 3.6 110 10:18 29.05.2020
2400 Clear 39 1003 42 10000 3.6 110 10:18 29.05.2020
2401 Clear 38 1004 44 10000 3.1 100 09:43 29.05.2020
2402 Clear 37 1004 47 10000 4.6 100 09:20 29.05.2020
2403 Clear 37 1004 47 10000 4.6 100 09:20 29.05.2020
2404 Clear 38 1004 24 10000 3.1 340 08:48 29.05.2020
2405 Clear 38 1004 24 10000 3.1 340 08:26 29.05.2020
2406 Clear 37 1004 24 10000 3.1 320 07:59 29.05.2020
2407 Clear 38 1004 25 10000 2.1 300 07:39 29.05.2020
2408 Clear 37 1004 25 10000 2.1 300 07:21 29.05.2020
2409 Clear 36 1003 41 10000 1 0 06:46 29.05.2020
2410 Clear 31 1003 46 10000 3.1 290 06:27 29.05.2020
2411 Clear 33 1003 43 10000 2.1 270 05:46 29.05.2020
2412 Clear 31 1001 52 10000 1.5 270 02:36 29.05.2020
2413 Clear 30 1002 70 10000 0.5 0 01:29 29.05.2020
2414 Clear 30 1002 74 10000 2.28 312 00:54 29.05.2020
2415 Clear 30 1002 74 10000 0.5 0 00:34 29.05.2020
2416 Clear 31 1002 79 10000 0.5 0 23:59 28.05.2020
2417 Clear 31 1003 84 10000 0.5 0 23:39 28.05.2020
2418 Clear 31 1003 79 10000 1.5 10 23:18 28.05.2020
2419 Clear 32 1003 79 10000 1 50 22:42 28.05.2020
2420 Clear 32 1003 79 10000 1 50 22:24 28.05.2020
2421 Clear 32 1004 74 10000 1.5 360 21:57 28.05.2020
2422 Clear 32 1004 79 10000 1.5 360 21:38 28.05.2020
2423 Clear 32 1004 79 10000 1.5 360 21:20 28.05.2020
2424 Clear 32 1004 75 10000 1.5 30 20:57 28.05.2020
2425 Clear 32 1004 75 10000 1.5 30 20:57 28.05.2020
2426 Clear 32 1004 79 10000 2.1 10 20:38 28.05.2020
2427 Clear 32 1004 66 10000 2.1 10 20:18 28.05.2020
2428 Clear 32 1004 66 10000 2.1 10 19:54 28.05.2020
2429 Clear 32 1004 66 10000 2.1 10 19:54 28.05.2020
2430 Clear 32 1003 66 10000 1 0 19:36 28.05.2020
2431 Clear 33 1003 59 10000 2.1 90 19:18 28.05.2020
2432 Clear 33 1003 70 10000 1 70 18:41 28.05.2020
2433 Clear 33 1003 70 10000 1 70 18:22 28.05.2020
2434 Clear 34 1002 70 9000 2.6 90 17:43 28.05.2020
2435 Clear 34 1002 70 9000 2.6 90 17:22 28.05.2020
2436 Clear 35 1002 63 10000 3.6 100 16:58 28.05.2020
2437 Clear 35 1002 63 10000 3.6 100 16:58 28.05.2020
2438 Clear 36 1002 53 10000 3.6 90 16:38 28.05.2020
2439 Clear 36 1002 56 10000 3.1 90 16:20 28.05.2020
2440 Clear 37 1002 56 10000 3.6 100 15:42 28.05.2020
2441 Clear 36 1002 56 10000 3.6 100 15:24 28.05.2020
2442 Clear 37 1002 53 10000 3.6 90 14:57 28.05.2020
2443 Clear 37 1002 47 10000 4.6 100 14:38 28.05.2020
2444 Clear 37 1002 47 10000 4.6 100 14:20 28.05.2020
2445 Clear 38 1003 41 10000 5.1 90 13:40 28.05.2020
2446 Clear 37 1003 41 10000 5.1 90 13:21 28.05.2020
2447 Clear 39 1003 27 10000 3.6 60 12:42 28.05.2020
2448 Clear 39 1003 27 10000 3.6 60 12:19 28.05.2020
2449 Clear 38 1004 33 10000 3.1 50 11:44 28.05.2020
2450 Clear 38 1004 33 10000 3.1 50 11:26 28.05.2020
2451 Clear 38 1004 35 10000 3.6 20 10:57 28.05.2020
2452 Clear 37 1004 39 10000 1.5 0 10:39 28.05.2020
2453 Clear 36 1005 42 10000 2.1 30 10:20 28.05.2020
2454 Clear 36 1005 39 10000 1.5 0 09:39 28.05.2020
2455 Clear 36 1005 39 10000 1.5 0 09:39 28.05.2020
2456 Clear 36 1005 39 10000 1.5 0 09:21 28.05.2020
2457 Clear 34 1005 44 10000 1.5 40 08:50 28.05.2020
2458 Clear 34 1006 44 10000 2.6 360 08:27 28.05.2020
2459 Clear 33 1006 49 10000 1 0 07:46 28.05.2020
2460 Clear 34 1006 49 10000 1 0 07:26 28.05.2020
2461 Clear 33 1006 55 10000 2.1 310 06:59 28.05.2020
2462 Clear 32 1006 70 10000 2.1 210 06:38 28.05.2020
2463 Clear 29 1005 74 10000 1.5 210 06:19 28.05.2020
2464 Clear 30 1005 74 10000 2.1 230 05:36 28.05.2020
2465 Clear 29 1005 79 10000 1.5 230 04:32 28.05.2020
2466 Clear 28 1005 79 10000 2.1 210 03:46 28.05.2020
2467 Clear 29 1004 83 10000 1 0 02:45 28.05.2020
2468 Clear 29 1004 83 10000 1 0 02:45 28.05.2020
2469 Clear 29 1004 79 10000 1.5 200 01:53 28.05.2020
2470 Clear 30 1004 74 10000 1 0 00:55 28.05.2020
2471 Clear 29 1005 79 10000 0.5 0 00:37 28.05.2020
2472 Clear 29 1005 74 10000 1 0 00:18 28.05.2020
2473 Clear 30 1005 74 10000 1 0 23:39 27.05.2020
2474 Clear 30 1005 74 10000 1 0 23:21 27.05.2020
2475 Clear 30 1006 74 10000 2.6 340 22:58 27.05.2020
2476 Clear 30 1006 74 10000 2.6 360 22:40 27.05.2020
2477 Clear 30 1006 74 10000 2.6 360 22:21 27.05.2020
2478 Clouds 30 1006 84 10000 3.1 10 21:42 27.05.2020
2479 Clouds 30 1006 84 10000 3.1 10 21:24 27.05.2020
2480 Clouds 30 1007 84 10000 4.1 360 20:59 27.05.2020
2481 Clear 30 1006 79 10000 4.1 350 20:41 27.05.2020
2482 Clear 30 1006 79 10000 4.1 350 20:21 27.05.2020
2483 Clear 31 1006 74 10000 4.1 350 19:57 27.05.2020
2484 Clear 31 1006 74 10000 3.1 360 19:39 27.05.2020
2485 Clear 31 1006 74 10000 3.6 10 19:19 27.05.2020
2486 Clear 31 1006 74 10000 4.1 10 18:40 27.05.2020
2487 Clear 31 1006 74 10000 4.1 10 18:19 27.05.2020
2488 Clear 31 1006 74 10000 4.1 10 17:56 27.05.2020
2489 Clear 32 1006 63 10000 3.6 30 17:37 27.05.2020
2490 Clear 32 1006 63 10000 3.6 30 17:18 27.05.2020
2491 Clear 33 1005 63 10000 3.1 30 16:54 27.05.2020
2492 Clear 34 1005 56 10000 3.1 30 16:36 27.05.2020
2493 Clear 35 1005 56 10000 3.1 50 16:18 27.05.2020
2494 Clear 36 1005 53 10000 3.1 50 15:40 27.05.2020
2495 Clear 35 1005 53 10000 3.1 50 15:21 27.05.2020
2496 Clear 36 1006 44 10000 3.6 80 14:44 27.05.2020
2497 Clear 36 1006 44 10000 3.6 80 14:22 27.05.2020
2498 Clear 37 1006 47 10000 3.6 90 13:55 27.05.2020
2499 Clear 37 1006 47 10000 3.6 110 13:36 27.05.2020
2500 Clear 37 1006 47 10000 3.6 80 13:18 27.05.2020
2501 Clear 37 1007 47 10000 4.6 100 12:40 27.05.2020
2502 Clear 37 1007 47 10000 4.6 100 12:22 27.05.2020
2503 Clear 36 1007 47 10000 3.6 100 11:40 27.05.2020
2504 Clear 36 1007 47 10000 3.6 100 11:22 27.05.2020
2505 Clear 36 1007 44 10000 4.6 100 10:58 27.05.2020
2506 Clear 36 1008 39 10000 3.1 110 10:39 27.05.2020
2507 Clear 36 1008 39 10000 3.1 110 10:39 27.05.2020
2508 Clear 36 1008 32 10000 2.1 20 10:20 27.05.2020
2509 Clear 38 1008 32 10000 1.5 0 09:41 27.05.2020
2510 Clear 36 1008 32 10000 1.5 0 09:22 27.05.2020
2511 Clear 36 1008 34 10000 1.5 0 08:58 27.05.2020
2512 Clear 36 1008 34 10000 2.1 300 08:38 27.05.2020
2513 Clear 36 1008 34 10000 2.1 300 08:19 27.05.2020
2514 Clear 35 1009 44 10000 2.6 270 07:50 27.05.2020
2515 Clear 34 1009 44 10000 2.6 270 07:32 27.05.2020
2516 Clear 33 1009 52 10000 2.1 260 06:52 27.05.2020
2517 Clear 31 1008 55 10000 2.1 270 06:24 27.05.2020
2518 Clear 29 1008 58 10000 2.6 250 05:49 27.05.2020
2519 Clear 30 1008 58 10000 2.1 280 05:22 27.05.2020
2520 Clear 28 1007 54 10000 2.1 300 02:36 27.05.2020
2521 Clear 28 1007 58 10000 2.1 290 02:18 27.05.2020
2522 Clear 28 1007 58 10000 3.1 290 01:30 27.05.2020
2523 Clear 29 1008 62 10000 2.1 230 00:47 27.05.2020
2524 Clear 29 1008 62 10000 2.1 230 00:20 27.05.2020
2525 Clear 29 1008 55 10000 1 0 23:57 26.05.2020
2526 Clear 29 1008 55 10000 2.1 300 23:38 26.05.2020
2527 Clear 29 1008 62 10000 3.1 340 23:20 26.05.2020
2528 Clear 29 1009 62 10000 3.1 340 22:41 26.05.2020
2529 Clear 29 1009 62 10000 3.1 340 22:22 26.05.2020
2530 Clear 29 1009 62 10000 4.1 340 21:59 26.05.2020
2531 Clear 30 1009 58 10000 4.6 330 21:40 26.05.2020
2532 Clear 30 1009 58 10000 4.6 330 21:40 26.05.2020
2533 Clear 30 1009 58 10000 4.6 330 21:21 26.05.2020
2534 Clear 30 1009 55 10000 4.6 330 20:57 26.05.2020
2535 Clear 30 1009 58 10000 4.1 330 20:39 26.05.2020
2536 Clear 30 1009 58 10000 4.1 330 20:19 26.05.2020
2537 Clear 31 1008 52 10000 5.7 340 19:40 26.05.2020
2538 Clear 32 1008 52 10000 5.7 340 19:20 26.05.2020
2539 Clear 32 1008 49 10000 5.7 350 18:57 26.05.2020
2540 Clear 32 1008 49 10000 5.7 350 18:39 26.05.2020
2541 Clear 33 1008 49 10000 5.7 350 18:20 26.05.2020
2542 Clear 32 1008 70 8000 5.7 20 17:39 26.05.2020
2543 Clear 33 1008 70 8000 5.7 20 17:21 26.05.2020
2544 Clear 34 1008 63 8000 5.1 10 16:48 26.05.2020
2545 Clear 34 1008 63 8000 5.1 10 16:23 26.05.2020
2546 Clear 34 1007 66 8000 5.1 10 15:58 26.05.2020
2547 Clear 35 1008 63 8000 5.7 360 15:39 26.05.2020
2548 Clear 35 1008 63 8000 5.7 360 15:19 26.05.2020
2549 Clear 35 1008 50 8000 6.7 10 14:44 26.05.2020
2550 Clear 35 1008 50 8000 6.7 10 14:25 26.05.2020
2551 Clear 36 1008 47 8000 6.2 360 13:57 26.05.2020
2552 Clear 36 1008 47 8000 6.7 360 13:39 26.05.2020
2553 Clear 36 1008 47 8000 6.7 360 13:21 26.05.2020
2554 Clear 38 1008 24 10000 5.1 350 12:44 26.05.2020
2555 Clear 38 1008 24 10000 5.1 350 12:22 26.05.2020
2556 Clear 39 1008 24 10000 5.7 350 11:59 26.05.2020
2557 Clear 39 1009 27 10000 5.7 360 11:40 26.05.2020
2558 Clear 38 1009 27 10000 5.7 360 11:19 26.05.2020
2559 Clear 38 1009 25 10000 5.1 350 10:44 26.05.2020
2560 Clear 38 1009 25 10000 5.1 330 10:19 26.05.2020
2561 Clear 38 1009 25 10000 5.1 330 09:54 26.05.2020
2562 Clear 38 1009 31 10000 3.1 300 09:36 26.05.2020
2563 Clear 35 1009 39 10000 2.6 300 09:18 26.05.2020
2564 Clear 35 1009 47 9000 3.6 320 08:39 26.05.2020
2565 Clear 34 1009 52 8000 3.1 310 08:21 26.05.2020
2566 Clear 33 1009 55 8000 3.6 320 07:41 26.05.2020
2567 Clear 33 1009 55 8000 3.6 320 07:22 26.05.2020
2568 Clear 32 1009 59 8000 3.6 310 06:49 26.05.2020
2569 Clear 31 1009 62 8000 3.6 310 06:23 26.05.2020
2570 Haze 30 1008 74 5000 3.6 320 05:41 26.05.2020
2571 Haze 29 1008 74 5000 3.1 320 04:59 26.05.2020
2572 Haze 28 1007 79 5000 1.5 360 04:41 26.05.2020
2573 Haze 28 1007 79 5000 1.5 360 04:22 26.05.2020
2574 Clear 29 1006 74 6000 1 0 03:28 26.05.2020
2575 Clear 29 1007 83 6000 1 0 02:34 26.05.2020
2576 Clear 29 1006 83 6000 2.1 150 01:42 26.05.2020
2577 Clear 30 1007 89 6000 2.6 130 00:39 26.05.2020
2578 Clear 30 1007 89 6000 2.6 130 00:20 26.05.2020
2579 Clear 30 1007 89 6000 3.1 130 23:58 25.05.2020
2580 Clear 30 1007 84 6000 3.6 110 23:38 25.05.2020
2581 Clear 30 1008 83 6000 2.6 90 23:19 25.05.2020
2582 Clear 30 1008 83 6000 2.6 90 22:56 25.05.2020
2583 Clear 30 1007 84 6000 1.5 50 22:37 25.05.2020
2584 Clear 30 1007 84 6000 1.5 50 22:19 25.05.2020
2585 Clear 30 1007 84 6000 1.5 50 22:19 25.05.2020
2586 Clear 30 1008 79 8000 3.1 70 21:58 25.05.2020
2587 Clear 30 1008 84 6000 3.1 360 21:37 25.05.2020
2588 Clear 30 1008 84 6000 3.6 10 21:18 25.05.2020
2589 Clear 30 1008 84 6000 3.6 10 20:57 25.05.2020
2590 Clear 30 1007 84 6000 4.1 10 20:38 25.05.2020
2591 Clear 30 1007 84 6000 4.1 10 20:19 25.05.2020
2592 Clear 30 1007 84 6000 4.1 10 19:42 25.05.2020
2593 Clear 31 1007 79 6000 4.6 10 19:20 25.05.2020
2594 Clear 31 1007 79 6000 4.6 10 18:58 25.05.2020
2595 Clear 31 1007 79 6000 4.6 10 18:40 25.05.2020
2596 Clear 31 1007 79 6000 4.6 10 18:21 25.05.2020
2597 Clear 32 1006 75 6000 5.1 10 17:44 25.05.2020
2598 Clear 32 1006 75 6000 5.1 10 17:25 25.05.2020
2599 Clear 32 1006 75 6000 4.6 10 16:59 25.05.2020
2600 Clear 33 1006 59 6000 4.6 10 16:40 25.05.2020
2601 Clear 34 1006 59 6000 4.6 10 16:22 25.05.2020
2602 Clear 34 1006 59 6000 4.1 20 15:55 25.05.2020
2603 Clear 34 1006 63 6000 5.1 10 15:36 25.05.2020
2604 Clear 35 1006 63 7000 4.6 360 15:18 25.05.2020
2605 Clear 36 1006 50 7000 3.6 40 14:42 25.05.2020
2606 Clear 36 1006 50 7000 3.6 40 14:23 25.05.2020
2607 Clear 36 1006 47 7000 3.1 60 13:56 25.05.2020
2608 Clear 36 1007 53 8000 3.6 70 13:37 25.05.2020
2609 Clear 36 1007 53 8000 3.6 70 13:37 25.05.2020
2610 Clear 36 1007 53 8000 3.6 70 13:37 25.05.2020
2611 Clear 36 1007 53 8000 3.6 70 13:19 25.05.2020
2612 Clear 37 1007 44 9000 3.6 70 12:40 25.05.2020
2613 Clear 37 1007 44 9000 3.6 70 12:21 25.05.2020
2614 Clear 37 1007 42 10000 3.6 100 11:58 25.05.2020
2615 Clear 37 1008 44 10000 3.6 110 11:38 25.05.2020
2616 Clear 37 1008 39 10000 4.1 120 11:18 25.05.2020
2617 Clear 36 1008 44 10000 5.1 120 10:43 25.05.2020
2618 Clear 36 1008 44 10000 5.1 120 10:21 25.05.2020
2619 Clear 36 1008 41 10000 4.6 120 09:57 25.05.2020
2620 Clear 36 1008 39 10000 5.7 120 09:38 25.05.2020
2621 Clear 36 1008 39 10000 5.7 120 09:19 25.05.2020
2622 Clear 35 1008 44 10000 4.1 120 08:57 25.05.2020
2623 Clear 35 1008 46 10000 4.6 120 08:36 25.05.2020
2624 Clear 35 1008 46 10000 4.6 120 08:36 25.05.2020
2625 Clear 35 1008 46 10000 4.6 120 08:36 25.05.2020
2626 Clear 34 1008 44 10000 5.1 110 08:18 25.05.2020
2627 Clear 33 1007 41 10000 5.1 130 07:42 25.05.2020
2628 Clear 35 1007 41 10000 5.1 130 07:20 25.05.2020
2629 Clear 34 1007 41 10000 5.1 130 06:49 25.05.2020
2630 Clear 32 1007 49 10000 4.1 130 06:31 25.05.2020
2631 Clear 29 1005 74 10000 2.1 150 03:47 25.05.2020
2632 Clear 29 1005 70 10000 2.6 170 03:22 25.05.2020
2633 Clear 30 1005 70 10000 2.1 160 02:45 25.05.2020
2634 Clear 30 1005 66 10000 2.1 110 01:46 25.05.2020
2635 Clear 30 1005 66 10000 2.1 110 01:28 25.05.2020
2636 Clear 29 1005 70 10000 2.71 116 00:37 25.05.2020
2637 Clear 29 1005 70 10000 3.4 117 00:18 25.05.2020
2638 Clear 30 1005 74 10000 0.5 0 23:43 24.05.2020
2639 Clear 30 1005 74 10000 0.5 0 23:23 24.05.2020
2640 Clear 31 1006 70 10000 1 0 22:59 24.05.2020
2641 Clear 31 1006 70 10000 1.5 70 22:41 24.05.2020
2642 Clear 31 1006 70 10000 1.5 70 22:19 24.05.2020
2643 Clear 31 1006 66 10000 1 0 21:56 24.05.2020
2644 Clear 31 1006 66 10000 1 0 21:56 24.05.2020
2645 Clear 31 1006 70 10000 1 50 21:38 24.05.2020
2646 Clear 31 1006 70 10000 1 50 21:19 24.05.2020
2647 Clear 31 1006 62 10000 2.1 80 20:43 24.05.2020
2648 Clear 31 1006 62 10000 2.1 80 20:22 24.05.2020
2649 Clear 32 1006 62 10000 1 0 19:59 24.05.2020
2650 Clear 32 1005 55 10000 2.6 80 19:41 24.05.2020
2651 Clear 32 1005 55 10000 2.6 80 19:19 24.05.2020
2652 Clear 32 1005 52 10000 2.1 70 18:56 24.05.2020
2653 Clear 32 1005 55 9000 2.6 80 18:37 24.05.2020
2654 Clear 33 1004 46 7000 2.6 110 18:19 24.05.2020
2655 Clear 34 1004 43 7000 3.1 110 17:41 24.05.2020
2656 Clear 34 1004 43 7000 3.1 110 17:21 24.05.2020
2657 Clear 34 1004 44 7000 3.1 110 16:57 24.05.2020
2658 Clear 35 1004 46 7000 4.1 110 16:38 24.05.2020
2659 Clear 35 1004 46 7000 4.1 110 16:20 24.05.2020
2660 Clear 35 1004 44 7000 4.1 100 15:57 24.05.2020
2661 Clear 35 1004 50 8000 4.1 100 15:38 24.05.2020
2662 Clear 35 1004 50 8000 4.1 100 15:38 24.05.2020
2663 Clear 36 1004 50 8000 4.1 100 15:19 24.05.2020
2664 Clear 36 1004 50 8000 4.1 100 15:19 24.05.2020
2665 Clear 38 1004 27 8000 4.6 110 14:46 24.05.2020
2666 Clear 38 1004 27 8000 4.6 110 14:24 24.05.2020
2667 Clear 38 1004 22 10000 4.1 120 13:59 24.05.2020
2668 Clear 38 1005 23 9000 4.1 100 13:41 24.05.2020
2669 Clear 38 1005 23 9000 4.1 100 13:22 24.05.2020
2670 Clear 37 1005 27 8000 4.6 110 12:59 24.05.2020
2671 Clear 37 1005 32 8000 5.1 100 12:40 24.05.2020
2672 Clear 38 1005 32 8000 5.1 100 12:22 24.05.2020
2673 Clear 37 1005 44 10000 4.6 100 11:59 24.05.2020
2674 Clear 37 1005 37 9000 4.6 110 11:41 24.05.2020
2675 Clear 37 1005 37 9000 4.6 110 11:41 24.05.2020
2676 Clear 37 1005 37 9000 4.6 110 11:41 24.05.2020
2677 Clear 37 1005 37 9000 4.6 110 11:41 24.05.2020
2678 Clear 37 1005 37 9000 4.6 110 11:22 24.05.2020
2679 Clear 39 1006 20 10000 3.1 150 10:58 24.05.2020
2680 Clear 39 1006 22 10000 3.1 190 10:39 24.05.2020
2681 Clear 39 1006 22 10000 3.1 190 10:21 24.05.2020
2682 Clear 36 1006 30 10000 3.1 190 09:41 24.05.2020
2683 Clear 36 1006 30 10000 3.1 190 09:19 24.05.2020
2684 Clear 35 1006 34 10000 2.1 220 08:57 24.05.2020
2685 Clear 35 1006 41 10000 2.1 240 08:39 24.05.2020
2686 Clear 34 1006 41 10000 2.1 240 08:21 24.05.2020
2687 Clear 33 1006 41 10000 1 0 07:51 24.05.2020
2688 Clear 34 1006 43 8000 2.1 220 07:26 24.05.2020
2689 Clear 32 1006 49 8000 3.6 200 06:57 24.05.2020
2690 Clear 31 1005 70 8000 4.6 180 06:36 24.05.2020
2691 Clear 30 1005 79 8000 3.6 150 05:20 24.05.2020
2692 Clear 28 1004 88 7000 1.5 140 03:42 24.05.2020
2693 Clear 29 1004 83 7000 2.1 160 02:46 24.05.2020
2694 Clear 29 1004 83 8000 1.5 120 01:50 24.05.2020
2695 Clear 29 1004 79 10000 1 10 00:41 24.05.2020
2696 Clear 29 1004 79 10000 1 10 00:22 24.05.2020
2697 Clear 29 1004 79 10000 1 10 00:22 24.05.2020
2698 Clear 30 1005 79 10000 1.5 10 23:46 23.05.2020
2699 Clear 29 1005 79 10000 1.5 10 23:25 23.05.2020
2700 Clear 30 1005 79 10000 2.1 350 22:59 23.05.2020
2701 Clear 30 1005 70 10000 1 0 22:39 23.05.2020
2702 Clear 30 1005 70 10000 1 0 22:20 23.05.2020
2703 Clear 30 1005 62 10000 2.6 30 21:58 23.05.2020
2704 Clear 31 1005 46 10000 1.5 250 21:40 23.05.2020
2705 Clear 31 1005 49 10000 1.5 220 21:20 23.05.2020
2706 Clear 31 1005 46 10000 1.5 250 21:20 23.05.2020
2707 Clear 31 1005 49 10000 1.5 220 20:59 23.05.2020
2708 Clear 31 1005 49 10000 1.5 220 20:59 23.05.2020
2709 Clear 31 1005 59 10000 2.1 210 20:38 23.05.2020
2710 Clear 31 1005 59 10000 2.1 210 20:19 23.05.2020
2711 Clear 31 1005 59 10000 0.5 0 19:55 23.05.2020
2712 Clear 31 1005 52 10000 0.63 88 19:37 23.05.2020
2713 Clear 32 1005 49 10000 1 0 19:18 23.05.2020
2714 Clear 32 1005 43 10000 2.1 40 18:40 23.05.2020
2715 Clear 32 1005 43 10000 2.1 40 18:22 23.05.2020
2716 Clear 33 1005 41 10000 2.6 20 17:57 23.05.2020
2717 Clear 33 1004 36 10000 2.6 20 17:39 23.05.2020
2718 Clear 34 1004 32 10000 3.1 40 17:19 23.05.2020
2719 Clear 35 1004 32 10000 3.1 40 16:57 23.05.2020
2720 Clear 35 1004 32 10000 3.1 50 16:39 23.05.2020
2721 Clear 35 1004 32 10000 3.1 50 16:20 23.05.2020
2722 Clear 37 1004 23 10000 4.6 20 15:43 23.05.2020
2723 Clear 37 1004 23 10000 4.6 20 15:24 23.05.2020
2724 Clear 37 1004 23 10000 4.6 20 15:24 23.05.2020
2725 Clear 38 1004 23 10000 3.6 40 14:59 23.05.2020
2726 Clear 38 1004 18 10000 3.6 30 14:41 23.05.2020
2727 Clear 38 1004 18 10000 3.6 30 14:22 23.05.2020
2728 Clear 39 1004 19 8000 4.1 50 13:42 23.05.2020
2729 Clear 39 1004 19 8000 4.1 50 13:19 23.05.2020
2730 Clear 39 1004 19 8000 4.1 50 13:19 23.05.2020
2731 Clear 39 1005 22 8000 4.1 70 12:57 23.05.2020
2732 Clear 39 1005 22 8000 4.1 70 12:57 23.05.2020
2733 Clear 39 1005 24 8000 4.6 90 12:39 23.05.2020
2734 Clear 38 1005 25 8000 4.1 90 12:19 23.05.2020
2735 Clear 38 1005 32 10000 4.6 100 11:43 23.05.2020
2736 Clear 38 1005 32 10000 4.6 100 11:22 23.05.2020
2737 Clear 38 1006 32 10000 3.6 90 10:58 23.05.2020
2738 Clear 37 1006 37 10000 3.6 100 10:39 23.05.2020
2739 Clear 37 1006 37 10000 3.6 100 10:20 23.05.2020
2740 Clear 38 1006 22 10000 2.6 80 09:59 23.05.2020
2741 Clear 38 1006 14 10000 1.5 0 09:41 23.05.2020
2742 Clear 38 1006 14 10000 1.5 0 09:22 23.05.2020
2743 Clear 36 1006 20 10000 1 0 08:44 23.05.2020
2744 Clear 35 1006 22 10000 2.6 220 08:20 23.05.2020
2745 Clear 36 1006 20 10000 1 0 08:20 23.05.2020
2746 Clear 35 1006 22 10000 2.6 220 07:59 23.05.2020
2747 Clear 34 1006 26 10000 1.5 240 07:39 23.05.2020
2748 Clear 34 1006 26 10000 1.5 240 07:21 23.05.2020
2749 Clear 33 1006 40 10000 2.6 140 06:40 23.05.2020
2750 Clear 29 1005 48 10000 1 0 05:51 23.05.2020
2751 Clear 28 1005 51 10000 0.5 0 03:51 23.05.2020
2752 Clear 29 1005 48 10000 1 140 03:21 23.05.2020
2753 Clear 30 1004 45 10000 1.9 30 02:28 23.05.2020
2754 Clear 29 1004 54 10000 1.5 350 01:28 23.05.2020
2755 Clear 30 1004 51 10000 1.5 360 00:49 23.05.2020
2756 Clear 30 1005 62 10000 1.5 360 00:30 23.05.2020
2757 Clear 30 1005 58 10000 1.5 330 23:59 22.05.2020
2758 Clear 30 1005 54 10000 1 20 23:40 22.05.2020
2759 Clear 30 1005 54 10000 1 20 23:20 22.05.2020
2760 Clear 31 1006 45 10000 2.1 330 22:57 22.05.2020
2761 Clear 30 1006 51 10000 1.5 340 22:38 22.05.2020
2762 Clear 30 1006 51 10000 0.5 0 22:18 22.05.2020
2763 Clear 31 1006 45 10000 1 0 21:45 22.05.2020
2764 Clear 31 1006 45 10000 1 0 21:22 22.05.2020
2765 Clear 32 1006 48 10000 1.5 160 20:55 22.05.2020
2766 Clear 32 1006 48 10000 0.5 0 20:36 22.05.2020
2767 Clear 32 1006 46 10000 1.5 20 20:18 22.05.2020
2768 Clear 32 1006 46 10000 2.1 10 19:43 22.05.2020
2769 Clear 32 1006 46 10000 2.1 10 19:24 22.05.2020
2770 Clear 32 1005 46 10000 2.6 10 18:40 22.05.2020
2771 Clear 33 1005 46 10000 2.6 10 18:21 22.05.2020
2772 Clear 33 1005 33 10000 3.1 10 17:59 22.05.2020
2773 Clear 34 1005 28 10000 3.1 360 17:39 22.05.2020
2774 Clear 35 1005 24 10000 2.6 40 17:19 22.05.2020
2775 Clear 35 1005 24 10000 2.6 40 16:55 22.05.2020
2776 Clear 36 1005 28 10000 2.6 30 16:37 22.05.2020
2777 Clear 36 1005 28 10000 2.6 30 16:18 22.05.2020
2778 Clear 37 1005 20 10000 3.6 60 15:41 22.05.2020
2779 Clear 37 1005 20 10000 3.6 60 15:21 22.05.2020
2780 Clear 38 1005 18 10000 3.6 50 14:45 22.05.2020
2781 Clear 37 1005 18 10000 3.6 50 14:25 22.05.2020
2782 Clear 38 1005 21 10000 4.6 70 13:50 22.05.2020
2783 Clear 39 1005 17 10000 3.6 50 13:22 22.05.2020
2784 Clear 38 1006 16 10000 4.1 10 12:59 22.05.2020
2785 Clear 38 1006 18 8000 3.6 10 12:39 22.05.2020
2786 Clear 38 1006 18 8000 3.6 10 12:21 22.05.2020
2787 Clear 37 1007 15 8000 3.6 10 11:44 22.05.2020
2788 Clear 37 1007 15 8000 3.6 10 11:22 22.05.2020
2789 Clear 37 1007 18 8000 3.1 360 10:57 22.05.2020
2790 Clear 37 1007 17 8000 3.1 360 10:38 22.05.2020
2791 Clear 36 1007 20 8000 2.1 0 10:19 22.05.2020
2792 Clear 36 1007 22 10000 1.5 0 09:47 22.05.2020
2793 Clear 34 1007 28 10000 2.6 80 09:21 22.05.2020
2794 Clear 34 1007 28 10000 2.6 80 08:58 22.05.2020
2795 Clear 34 1007 36 10000 2.6 110 08:39 22.05.2020
2796 Clear 34 1007 36 10000 2.6 110 08:39 22.05.2020
2797 Clear 34 1007 36 10000 2.6 110 08:18 22.05.2020
2798 Clear 33 1007 38 8000 4.1 80 07:52 22.05.2020
2799 Clear 33 1007 49 8000 4.1 70 07:23 22.05.2020
2800 Clear 31 1006 52 9000 2.6 20 06:48 22.05.2020
2801 Clear 31 1006 52 9000 2.6 20 06:29 22.05.2020
2802 Clear 29 1006 79 9000 1 0 05:37 22.05.2020
2803 Clear 29 1005 78 8000 2.6 10 04:49 22.05.2020
2804 Clear 28 1005 78 9000 1 0 03:51 22.05.2020
2805 Clear 28 1005 78 9000 1.5 360 03:32 22.05.2020
2806 Clear 29 1004 54 10000 2.1 350 02:23 22.05.2020
2807 Clear 29 1004 40 10000 0.5 0 01:42 22.05.2020
2808 Clear 29 1004 40 10000 0.5 0 01:20 22.05.2020
2809 Clear 30 1004 35 10000 1 0 00:33 22.05.2020
2810 Clear 31 1004 38 10000 2.1 250 23:57 21.05.2020
2811 Clear 30 1004 48 10000 1.5 160 23:39 21.05.2020
2812 Clear 31 1004 48 10000 1.5 160 23:20 21.05.2020
2813 Clear 31 1005 43 10000 1 0 22:57 21.05.2020
2814 Clear 31 1005 52 10000 1 160 22:37 21.05.2020
2815 Clear 31 1005 52 10000 1 160 22:18 21.05.2020
2816 Clear 32 1005 55 10000 2.1 130 21:47 21.05.2020
2817 Clear 32 1005 58 10000 2.1 140 21:27 21.05.2020
2818 Clear 32 1005 55 10000 1.5 150 20:57 21.05.2020
2819 Clear 32 1005 58 10000 1 0 20:38 21.05.2020
2820 Clear 33 1005 49 10000 2.1 60 20:20 21.05.2020
2821 Clear 32 1005 52 10000 2.1 100 19:39 21.05.2020
2822 Clear 32 1005 52 10000 2.1 100 19:19 21.05.2020
2823 Clear 33 1004 49 10000 2.1 100 18:56 21.05.2020
2824 Clear 33 1004 52 10000 2.6 130 18:36 21.05.2020
2825 Clear 33 1004 52 10000 2.6 130 18:18 21.05.2020
2826 Clear 34 1004 41 10000 2.1 120 17:43 21.05.2020
2827 Clear 34 1004 41 10000 2.1 120 17:25 21.05.2020
2828 Clear 36 1004 34 10000 4.1 120 16:48 21.05.2020
2829 Clear 36 1004 34 10000 4.1 120 16:27 21.05.2020
2830 Clear 36 1004 32 10000 4.6 130 15:58 21.05.2020
2831 Clear 37 1004 26 10000 3.6 120 15:39 21.05.2020
2832 Clear 37 1004 26 10000 3.6 120 15:20 21.05.2020
2833 Clear 38 1004 19 10000 4.6 110 14:41 21.05.2020
2834 Clear 38 1004 19 10000 4.6 110 14:22 21.05.2020
2835 Clear 37 1005 26 10000 5.1 120 13:43 21.05.2020
2836 Clear 37 1005 26 10000 5.1 120 13:23 21.05.2020
2837 Clear 37 1005 28 10000 5.7 120 12:59 21.05.2020
2838 Clear 37 1005 23 10000 5.1 120 12:38 21.05.2020
2839 Clear 38 1005 23 10000 5.1 120 12:19 21.05.2020
2840 Clear 38 1005 23 10000 5.1 120 12:19 21.05.2020
2841 Clear 36 1005 47 10000 4.6 100 11:56 21.05.2020
2842 Clear 37 1005 32 10000 5.1 120 11:37 21.05.2020
2843 Clear 36 1005 26 10000 5.7 120 11:19 21.05.2020
2844 Clear 36 1006 39 10000 4.6 120 10:43 21.05.2020
2845 Clear 36 1006 39 10000 4.6 120 10:23 21.05.2020
2846 Clear 35 1006 36 10000 4.6 110 09:57 21.05.2020
2847 Clear 35 1006 32 10000 4.6 110 09:39 21.05.2020
2848 Clear 36 1006 32 10000 4.6 110 09:21 21.05.2020
2849 Clear 37 1006 18 10000 3.1 80 08:50 21.05.2020
2850 Clear 36 1006 18 10000 3.1 80 08:31 21.05.2020
2851 Clear 35 1005 19 10000 3.6 120 07:54 21.05.2020
2852 Clear 34 1005 26 10000 2.6 140 07:36 21.05.2020
2853 Clear 32 1005 34 10000 3.1 160 07:18 21.05.2020
2854 Clear 32 1005 43 10000 3.6 160 06:26 21.05.2020
2855 Clear 31 1004 62 10000 2.6 140 05:49 21.05.2020
2856 Clear 29 1003 88 10000 1 0 03:22 21.05.2020
2857 Clear 29 1003 83 10000 1.5 80 02:57 21.05.2020
2858 Clouds 29 1003 88 10000 2.1 60 02:31 21.05.2020
2859 Clouds 30 1003 79 10000 1.5 70 01:49 21.05.2020
2860 Clouds 30 1003 74 10000 2.6 140 01:24 21.05.2020
2861 Clouds 30 1003 74 10000 2.6 140 00:53 21.05.2020
2862 Clouds 30 1003 66 10000 2.38 158 00:25 21.05.2020
2863 Clouds 30 1003 70 10000 0.5 0 23:47 20.05.2020
2864 Clouds 31 1003 66 10000 1 140 23:21 20.05.2020
2865 Clouds 31 1003 62 10000 2.85 143 22:59 20.05.2020
2866 Clouds 31 1004 62 10000 1 50 22:41 20.05.2020
2867 Clouds 31 1004 62 10000 1 50 22:23 20.05.2020
2868 Clouds 32 1004 52 10000 2.1 120 21:42 20.05.2020
2869 Clouds 33 1004 52 10000 2.1 120 21:23 20.05.2020
2870 Clouds 33 1004 52 10000 1.5 100 20:57 20.05.2020
2871 Clouds 33 1004 49 10000 1.5 50 20:38 20.05.2020
2872 Clouds 33 1004 49 10000 1.5 50 20:20 20.05.2020
2873 Clouds 33 1003 46 10000 2.6 150 19:41 20.05.2020
2874 Clouds 33 1003 46 10000 2.6 150 19:23 20.05.2020
2875 Clouds 33 1003 55 10000 2.1 120 18:57 20.05.2020
2876 Clouds 33 1003 52 10000 3.1 120 18:38 20.05.2020
2877 Clouds 33 1003 52 10000 3.1 120 18:20 20.05.2020
2878 Clouds 34 1003 46 10000 3.1 130 17:38 20.05.2020
2879 Clouds 34 1003 46 10000 3.1 130 17:19 20.05.2020
2880 Clouds 36 1002 41 10000 3.1 130 16:42 20.05.2020
2881 Clear 36 1002 41 10000 3.1 130 16:23 20.05.2020
2882 Clear 36 1002 36 10000 3.6 120 15:57 20.05.2020
2883 Clear 36 1002 34 10000 3.6 100 15:39 20.05.2020
2884 Clear 36 1002 34 10000 3.6 100 15:21 20.05.2020
2885 Clear 36 1002 36 10000 4.1 90 14:42 20.05.2020
2886 Clouds 36 1002 36 10000 4.1 90 14:20 20.05.2020
2887 Clouds 38 1003 31 10000 5.1 100 13:41 20.05.2020
2888 Clouds 38 1003 31 10000 5.1 100 13:20 20.05.2020
2889 Clouds 39 1003 22 10000 5.7 100 12:58 20.05.2020
2890 Clouds 40 1003 21 10000 4.6 90 12:37 20.05.2020
2891 Clouds 40 1003 21 10000 4.6 90 12:19 20.05.2020
2892 Clouds 39 1004 11 10000 2.6 0 11:36 20.05.2020
2893 Clouds 39 1004 12 10000 2.1 0 11:18 20.05.2020
2894 Clouds 39 1004 12 10000 2.1 0 11:18 20.05.2020
2895 Clouds 39 1004 13 10000 3.1 200 10:43 20.05.2020
2896 Clouds 39 1004 13 10000 3.1 200 10:20 20.05.2020
2897 Clouds 37 1005 19 10000 4.6 170 09:45 20.05.2020
2898 Clouds 37 1005 19 10000 4.6 170 09:21 20.05.2020
2899 Clouds 36 1005 22 10000 4.1 180 08:57 20.05.2020
2900 Clouds 37 1005 19 10000 4.6 160 08:39 20.05.2020
2901 Clouds 36 1005 19 10000 4.6 160 08:18 20.05.2020
2902 Clouds 35 1004 26 10000 4.1 180 07:46 20.05.2020
2903 Clouds 35 1004 26 10000 4.1 180 07:21 20.05.2020
2904 Clouds 35 1004 26 10000 4.1 180 07:21 20.05.2020
2905 Clouds 33 1004 29 10000 3.6 170 06:42 20.05.2020
2906 Clouds 29 1004 42 10000 1.5 200 05:24 20.05.2020
2907 Clouds 29 1004 42 10000 1.5 200 05:24 20.05.2020
2908 Clouds 28 1003 39 10000 1 220 04:33 20.05.2020
2909 Clear 28 1003 42 10000 0.5 170 03:51 20.05.2020
2910 Clouds 28 1003 45 10000 1 340 02:30 20.05.2020
2911 Clouds 29 1002 58 10000 1.5 350 01:29 20.05.2020
2912 Clouds 28 1003 58 10000 0.5 20 00:44 20.05.2020
2913 Clouds 28 1003 58 10000 0.5 20 00:24 20.05.2020
2914 Clouds 29 1004 58 10000 2.74 63 23:42 19.05.2020
2915 Clouds 29 1004 58 10000 2.66 63 23:19 19.05.2020
2916 Clouds 30 1004 62 10000 1 140 22:56 19.05.2020
2917 Clouds 30 1004 58 10000 1 130 22:38 19.05.2020
2918 Clouds 30 1004 58 10000 1 130 22:19 19.05.2020
2919 Clouds 30 1004 48 10000 0.5 0 21:58 19.05.2020
2920 Clouds 30 1004 51 10000 1.5 10 21:38 19.05.2020
2921 Clouds 30 1004 51 10000 1.5 10 21:38 19.05.2020
2922 Clouds 30 1004 51 10000 1.5 10 21:19 19.05.2020
2923 Clouds 30 1004 51 10000 1 10 20:57 19.05.2020
2924 Clouds 30 1004 51 10000 1.5 70 20:39 19.05.2020
2925 Clouds 31 1004 51 10000 1.5 70 20:20 19.05.2020
2926 Clouds 31 1004 43 10000 1.5 50 19:55 19.05.2020
2927 Clouds 31 1004 45 10000 1.5 50 19:36 19.05.2020
2928 Clouds 31 1004 52 10000 2.1 60 19:18 19.05.2020
2929 Clouds 31 1004 62 10000 3.1 60 18:40 19.05.2020
2930 Clouds 30 1004 62 10000 3.1 60 18:20 19.05.2020
2931 Clouds 30 1004 62 10000 3.1 60 18:20 19.05.2020
2932 Clouds 31 1004 66 9000 4.1 60 17:43 19.05.2020
2933 Clouds 31 1004 66 9000 4.1 60 17:21 19.05.2020
2934 Clouds 32 1004 62 9000 3.6 70 16:59 19.05.2020
2935 Clouds 32 1004 62 9000 3.6 70 16:59 19.05.2020
2936 Clouds 32 1004 66 9000 3.6 40 16:38 19.05.2020
2937 Clouds 32 1004 66 9000 3.6 40 16:19 19.05.2020
2938 Clouds 35 1004 28 10000 4.6 120 15:47 19.05.2020
2939 Clouds 35 1004 28 10000 4.6 120 15:22 19.05.2020
2940 Clouds 37 1004 22 10000 4.6 110 14:57 19.05.2020
2941 Clouds 37 1004 22 10000 5.1 130 14:39 19.05.2020
2942 Clouds 37 1004 22 10000 5.1 130 14:20 19.05.2020
2943 Clouds 38 1004 20 9000 5.1 120 13:57 19.05.2020
2944 Clouds 38 1004 18 10000 5.7 120 13:39 19.05.2020
2945 Clouds 38 1004 18 10000 5.7 120 13:20 19.05.2020
2946 Clouds 39 1005 22 10000 5.1 120 12:56 19.05.2020
2947 Clouds 39 1005 22 10000 4.6 100 12:37 19.05.2020
2948 Clouds 39 1005 22 10000 4.6 100 12:19 19.05.2020
2949 Clouds 39 1005 26 10000 4.6 80 11:43 19.05.2020
2950 Clouds 39 1005 26 10000 4.6 80 11:23 19.05.2020
2951 Clouds 39 1005 16 10000 2.1 30 10:59 19.05.2020
2952 Clouds 39 1006 14 10000 2.6 210 10:40 19.05.2020
2953 Clouds 39 1006 14 10000 2.6 210 10:22 19.05.2020
2954 Clouds 38 1006 17 10000 2.6 190 09:47 19.05.2020
2955 Clear 38 1006 17 10000 2.6 190 09:25 19.05.2020
2956 Clear 37 1007 15 10000 3.1 210 08:49 19.05.2020
2957 Clouds 36 1006 20 10000 2.1 220 08:26 19.05.2020
2958 Clouds 34 1006 24 10000 2.6 210 07:59 19.05.2020
2959 Clouds 33 1006 30 10000 3.1 190 07:41 19.05.2020
2960 Clouds 34 1006 30 10000 3.1 190 07:23 19.05.2020
2961 Clouds 32 1006 45 10000 2.1 210 06:41 19.05.2020
2962 Clouds 32 1006 45 10000 2.1 210 06:41 19.05.2020
2963 Clouds 30 1006 45 10000 2.1 210 06:19 19.05.2020
2964 Clouds 30 1005 45 10000 1.56 179 05:39 19.05.2020
2965 Clouds 27 1005 51 10000 1.5 210 04:54 19.05.2020
2966 Clear 28 1004 61 10000 0.5 0 02:59 19.05.2020
2967 Clouds 29 1004 39 10000 1 0 01:21 19.05.2020
2968 Clouds 29 1005 39 10000 1 20 00:41 19.05.2020
2969 Clouds 29 1005 39 10000 1 20 00:19 19.05.2020
2970 Clouds 29 1005 33 10000 2.69 91 23:40 18.05.2020
2971 Clouds 29 1005 33 10000 2.01 69 23:20 18.05.2020
2972 Clouds 29 1006 42 10000 0.5 0 22:59 18.05.2020
2973 Clouds 29 1006 42 10000 0.5 0 22:59 18.05.2020
2974 Clouds 29 1006 45 10000 2.01 69 22:39 18.05.2020
2975 Clouds 29 1006 45 10000 2.09 59 22:20 18.05.2020
2976 Clouds 29 1006 42 10000 0.5 0 21:43 18.05.2020
2977 Clear 29 1006 42 10000 0.5 0 21:22 18.05.2020
2978 Clear 30 1006 54 10000 2.85 40 20:58 18.05.2020
2979 Clear 31 1006 55 10000 1.5 110 20:38 18.05.2020
2980 Clear 31 1006 62 10000 2.1 90 20:20 18.05.2020
2981 Clear 31 1006 62 10000 2.1 90 19:56 18.05.2020
2982 Clear 31 1006 58 10000 1.5 120 19:38 18.05.2020
2983 Clear 31 1006 48 10000 2.1 90 19:18 18.05.2020
2984 Clear 31 1006 52 10000 2.1 60 18:44 18.05.2020
2985 Clear 31 1006 52 10000 2.1 60 18:22 18.05.2020
2986 Clear 32 1005 62 10000 3.6 30 17:39 18.05.2020
2987 Clear 33 1005 59 10000 4.6 20 17:18 18.05.2020
2988 Clear 33 1005 59 10000 4.6 20 17:18 18.05.2020
2989 Clear 33 1005 59 10000 4.6 20 16:56 18.05.2020
2990 Clouds 35 1005 36 10000 4.6 40 16:38 18.05.2020
2991 Clear 35 1005 36 10000 4.6 40 16:18 18.05.2020
2992 Clear 37 1005 18 10000 3.6 100 15:55 18.05.2020
2993 Clear 38 1005 21 10000 4.1 90 15:37 18.05.2020
2994 Clear 39 1005 21 10000 4.1 90 15:18 18.05.2020
2995 Clear 39 1006 21 10000 4.6 90 14:43 18.05.2020
2996 Clear 39 1006 21 10000 4.6 90 14:24 18.05.2020
2997 Clear 39 1006 22 10000 3.6 100 13:57 18.05.2020
2998 Clear 39 1006 22 10000 3.6 100 13:39 18.05.2020
2999 Clear 39 1006 22 10000 3.6 100 13:19 18.05.2020
3000 Clear 39 1006 14 10000 3.1 90 12:56 18.05.2020
3001 Clear 39 1007 21 10000 4.1 90 12:37 18.05.2020
3002 Clear 39 1007 21 10000 4.1 90 12:18 18.05.2020
3003 Clear 39 1007 21 10000 4.1 90 11:46 18.05.2020
3004 Clear 39 1007 21 10000 4.1 90 11:27 18.05.2020
3005 Clear 38 1007 19 10000 3.1 70 10:57 18.05.2020
3006 Clear 39 1008 11 10000 1 0 10:38 18.05.2020
3007 Clear 39 1008 11 10000 1 0 10:20 18.05.2020
3008 Clear 37 1008 12 10000 1.5 0 09:42 18.05.2020
3009 Clear 37 1008 12 10000 1.5 0 09:24 18.05.2020
3010 Clear 35 1008 16 10000 2.1 190 08:44 18.05.2020
3011 Clear 35 1008 16 10000 2.1 190 08:25 18.05.2020
3012 Clear 34 1008 17 10000 3.1 180 07:51 18.05.2020
3013 Clear 33 1008 24 10000 2.1 220 07:26 18.05.2020
3014 Clear 32 1008 35 10000 2.1 220 06:50 18.05.2020
3015 Clear 31 1008 35 10000 2.1 220 06:32 18.05.2020
3016 Clear 29 1007 37 10000 1.5 220 05:49 18.05.2020
3017 Clear 27 1006 44 10000 0.5 200 04:42 18.05.2020
3018 Clear 27 1006 47 10000 1 150 03:30 18.05.2020
3019 Clear 27 1005 51 10000 1 0 02:19 18.05.2020
3020 Clear 28 1006 48 10000 1 0 00:55 18.05.2020
3021 Clear 28 1006 51 10000 1.5 330 00:23 18.05.2020
3022 Clear 28 1006 54 10000 2.1 340 23:57 17.05.2020
3023 Clear 28 1006 58 10000 2.1 340 23:38 17.05.2020
3024 Clear 28 1006 58 10000 2.1 340 23:19 17.05.2020
3025 Clear 29 1006 54 10000 2.6 350 22:55 17.05.2020
3026 Clear 29 1007 54 10000 3.1 350 22:37 17.05.2020
3027 Clear 29 1007 54 10000 3.1 350 22:18 17.05.2020
3028 Clear 30 1007 51 10000 3.1 350 21:42 17.05.2020
3029 Clear 30 1007 51 10000 3.1 350 21:20 17.05.2020
3030 Clear 30 1007 54 10000 1.5 340 20:59 17.05.2020
3031 Clear 30 1007 51 10000 2.6 360 20:40 17.05.2020
3032 Clear 30 1007 51 10000 2.6 360 20:19 17.05.2020
3033 Clear 31 1007 51 10000 2.6 10 19:55 17.05.2020
3034 Clear 31 1008 48 10000 3.1 350 19:37 17.05.2020
3035 Clear 31 1008 48 10000 3.1 350 19:18 17.05.2020
3036 Clear 31 1007 48 10000 2.6 10 18:39 17.05.2020
3037 Clear 32 1007 52 10000 3.6 360 18:21 17.05.2020
3038 Clear 32 1007 52 10000 3.6 360 17:56 17.05.2020
3039 Clear 32 1007 43 10000 4.1 360 17:36 17.05.2020
3040 Clear 34 1007 38 10000 4.1 10 17:18 17.05.2020
3041 Clear 34 1007 43 10000 4.6 360 16:39 17.05.2020
3042 Clear 35 1007 43 10000 5.1 360 16:20 17.05.2020
3043 Clear 35 1007 43 10000 5.1 360 15:56 17.05.2020
3044 Clear 35 1007 32 10000 4.1 20 15:37 17.05.2020
3045 Clear 36 1007 30 10000 4.1 50 15:18 17.05.2020
3046 Clear 37 1007 29 10000 3.6 40 14:42 17.05.2020
3047 Clear 37 1007 29 10000 3.6 40 14:24 17.05.2020
3048 Clear 37 1007 29 10000 3.6 40 14:24 17.05.2020
3049 Clear 37 1007 16 10000 3.6 60 13:57 17.05.2020
3050 Clear 38 1007 14 10000 4.1 80 13:37 17.05.2020
3051 Clear 38 1008 12 10000 4.1 90 13:18 17.05.2020
3052 Clear 26 1007 54 10000 1 320 04:21 17.05.2020
3053 Clear 26 1006 61 10000 1.5 330 02:29 17.05.2020
3054 Clear 26 1006 61 10000 1.5 330 02:29 17.05.2020
3055 Clear 26 1006 65 10000 1 350 01:56 17.05.2020
3056 Clear 26 1006 65 10000 1.5 10 00:58 17.05.2020
3057 Clear 27 1006 61 10000 1.5 350 00:39 17.05.2020
3058 Clear 27 1006 61 10000 1.5 360 23:57 16.05.2020
3059 Clear 27 1007 57 10000 3.1 350 23:39 16.05.2020
3060 Clear 27 1007 57 10000 3.1 350 23:20 16.05.2020
3061 Clear 27 1007 57 10000 2.6 350 22:58 16.05.2020
3062 Clear 28 1007 58 10000 2.6 360 22:39 16.05.2020
3063 Clear 28 1007 58 10000 2.6 360 22:19 16.05.2020
3064 Clear 28 1008 65 10000 2.6 350 21:45 16.05.2020
3065 Clear 28 1008 65 10000 2.6 350 21:25 16.05.2020
3066 Clear 28 1008 61 10000 3.1 360 20:57 16.05.2020
3067 Clear 28 1008 61 10000 3.6 360 20:39 16.05.2020
3068 Clear 28 1008 61 10000 3.6 360 20:20 16.05.2020
3069 Clear 29 1008 54 10000 4.6 340 19:57 16.05.2020
3070 Clear 29 1008 54 10000 4.1 360 19:39 16.05.2020
3071 Clear 29 1007 58 10000 3.6 10 19:21 16.05.2020
3072 Clear 29 1008 54 10000 4.1 360 19:21 16.05.2020
3073 Clear 29 1007 54 10000 4.1 10 18:42 16.05.2020
3074 Clear 29 1007 54 10000 4.1 10 18:22 16.05.2020
3075 Clear 30 1007 42 10000 5.1 360 17:56 16.05.2020
3076 Clear 30 1007 42 10000 5.1 360 17:38 16.05.2020
3077 Clear 31 1007 33 10000 5.1 10 17:19 16.05.2020
3078 Clear 30 1007 42 10000 5.1 360 17:19 16.05.2020
3079 Clear 32 1007 31 10000 5.7 10 16:39 16.05.2020
3080 Clear 32 1007 31 10000 5.7 10 16:20 16.05.2020
3081 Clear 32 1007 38 10000 6.2 10 15:57 16.05.2020
3082 Clear 32 1006 38 10000 5.1 10 15:38 16.05.2020
3083 Clear 33 1006 38 10000 5.1 10 15:19 16.05.2020
3084 Clear 33 1006 38 10000 6.7 10 14:43 16.05.2020
3085 Clear 33 1007 46 10000 5.7 40 14:20 16.05.2020
3086 Clear 33 1007 46 10000 5.7 40 13:57 16.05.2020
3087 Clear 34 1007 21 10000 5.1 60 13:39 16.05.2020
3088 Clear 34 1007 21 10000 5.1 60 13:21 16.05.2020
3089 Clear 37 1007 14 10000 4.6 50 12:45 16.05.2020
3090 Clear 37 1007 14 10000 4.6 50 12:21 16.05.2020
3091 Clear 36 1007 10 10000 3.1 10 11:56 16.05.2020
3092 Clear 36 1007 14 10000 3.1 360 11:38 16.05.2020
3093 Clear 36 1007 14 10000 3.1 360 11:20 16.05.2020
3094 Clear 36 1008 12 10000 3.1 20 10:55 16.05.2020
3095 Clear 36 1008 21 10000 3.1 360 10:36 16.05.2020
3096 Clear 35 1008 15 10000 3.6 10 10:18 16.05.2020
3097 Clear 35 1008 20 10000 2.1 10 09:44 16.05.2020
3098 Clear 35 1008 20 10000 2.1 10 09:25 16.05.2020
3099 Clear 32 1008 30 10000 1.5 50 08:43 16.05.2020
3100 Clear 32 1008 30 10000 1.5 50 08:21 16.05.2020
3101 Clear 32 1008 36 10000 1.5 340 07:46 16.05.2020
3102 Clear 32 1008 36 10000 1.5 340 07:27 16.05.2020
3103 Clear 30 1008 49 10000 0.5 0 06:58 16.05.2020
3104 Clear 29 1008 62 8000 1 0 06:39 16.05.2020
3105 Clear 29 1008 62 8000 1 0 06:18 16.05.2020
3106 Clear 27 1007 88 6000 1 0 05:33 16.05.2020
3107 Clear 25 1006 88 8000 1.5 350 03:58 16.05.2020
3108 Clear 25 1006 88 7000 2.1 330 02:59 16.05.2020
3109 Clouds 25 1006 88 8000 2.1 340 02:21 16.05.2020
3110 Clouds 25 1006 88 8000 1.5 350 01:53 16.05.2020
3111 Clouds 26 1006 83 8000 2.6 360 01:27 16.05.2020
3112 Clouds 26 1006 88 7000 4.6 350 00:51 16.05.2020
3113 Clouds 25 1006 83 7000 1.5 350 00:22 16.05.2020
3114 Clouds 26 1006 88 7000 2.1 340 23:41 15.05.2020
3115 Clouds 26 1006 88 7000 2.1 340 23:20 15.05.2020
3116 Mist 26 1006 94 5000 1.5 340 22:59 15.05.2020
3117 Mist 26 1006 94 5000 2.1 340 22:40 15.05.2020
3118 Mist 26 1006 94 5000 2.1 340 22:19 15.05.2020
3119 Mist 27 1007 88 5000 2.6 10 21:40 15.05.2020
3120 Mist 27 1007 88 5000 2.6 10 21:22 15.05.2020
3121 Mist 27 1007 88 5000 4.1 10 20:59 15.05.2020
3122 Mist 27 1007 88 5000 4.1 10 20:59 15.05.2020
3123 Clouds 27 1007 88 6000 3.6 10 20:41 15.05.2020
3124 Clouds 27 1007 88 6000 3.6 10 20:23 15.05.2020
3125 Clouds 28 1006 83 8000 4.1 10 19:58 15.05.2020
3126 Clouds 28 1006 69 10000 4.1 360 19:40 15.05.2020
3127 Clouds 28 1006 69 10000 4.1 360 19:22 15.05.2020
3128 Clouds 29 1006 54 10000 4.1 350 18:46 15.05.2020
3129 Clouds 30 1006 54 10000 4.1 350 18:27 15.05.2020
3130 Clouds 31 1006 31 10000 3.6 20 17:41 15.05.2020
3131 Clouds 32 1006 31 10000 3.1 40 17:20 15.05.2020
3132 Clouds 32 1006 31 10000 3.1 40 16:58 15.05.2020
3133 Clouds 32 1006 27 10000 3.6 20 16:39 15.05.2020
3134 Clouds 32 1006 27 10000 3.6 20 16:20 15.05.2020
3135 Clouds 32 1006 29 10000 3.6 40 15:59 15.05.2020
3136 Clouds 33 1006 27 10000 4.1 40 15:39 15.05.2020
3137 Clouds 32 1006 27 10000 4.1 40 15:20 15.05.2020
3138 Clouds 32 1006 27 10000 4.1 40 15:20 15.05.2020
3139 Clouds 33 1006 26 10000 4.1 20 14:55 15.05.2020
3140 Clouds 33 1006 31 10000 4.6 40 14:36 15.05.2020
3141 Clouds 33 1006 29 10000 4.6 40 14:18 15.05.2020
3142 Clouds 33 1006 31 10000 4.6 40 14:18 15.05.2020
3143 Clouds 33 1006 33 10000 4.6 50 13:41 15.05.2020
3144 Clouds 33 1006 33 10000 4.6 50 13:20 15.05.2020
3145 Clouds 34 1007 21 10000 3.6 40 12:41 15.05.2020
3146 Clouds 35 1007 21 10000 3.6 40 12:21 15.05.2020
3147 Clouds 36 1007 14 10000 3.6 40 11:59 15.05.2020
3148 Clouds 36 1007 11 10000 3.1 20 11:40 15.05.2020
3149 Clouds 36 1007 11 10000 3.1 20 11:21 15.05.2020
3150 Clouds 36 1007 11 10000 3.1 20 11:21 15.05.2020
3151 Clouds 35 1007 12 10000 3.6 340 10:59 15.05.2020
3152 Clouds 35 1008 11 10000 4.1 360 10:40 15.05.2020
3153 Clouds 35 1008 11 10000 4.1 360 10:22 15.05.2020
3154 Clouds 33 1008 18 10000 4.1 360 09:59 15.05.2020
3155 Clouds 33 1008 12 10000 4.1 360 09:38 15.05.2020
3156 Clouds 32 1008 13 10000 4.1 350 09:19 15.05.2020
3157 Clouds 32 1008 13 10000 4.1 350 08:57 15.05.2020
3158 Clouds 32 1008 17 10000 3.1 350 08:37 15.05.2020
3159 Clouds 32 1008 17 10000 3.1 350 08:18 15.05.2020
3160 Clouds 30 1008 20 10000 3.1 340 07:44 15.05.2020
3161 Clouds 30 1008 20 10000 3.1 340 07:24 15.05.2020
3162 Clouds 30 1007 30 10000 2.1 350 06:52 15.05.2020
3163 Clouds 25 1007 47 10000 0.5 0 05:49 15.05.2020
3164 Clear 24 1006 53 10000 1 0 04:28 15.05.2020
3165 Clear 24 1006 50 10000 1.5 340 03:47 15.05.2020
3166 Clear 24 1005 44 10000 1.5 100 02:30 15.05.2020
3167 Clouds 25 1005 44 10000 1.59 354 01:21 15.05.2020
3168 Clouds 26 1005 32 10000 1.5 220 00:50 15.05.2020
3169 Clouds 26 1005 32 10000 1.5 220 00:30 15.05.2020
3170 Clouds 26 1006 44 10000 1.5 310 23:45 14.05.2020
3171 Clouds 26 1006 44 10000 1.5 310 23:24 14.05.2020
3172 Clouds 27 1006 51 10000 1.5 330 22:59 14.05.2020
3173 Clouds 27 1006 51 10000 2.1 330 22:40 14.05.2020
3174 Clouds 27 1006 57 10000 1.5 340 22:19 14.05.2020
3175 Clouds 27 1006 57 10000 1.5 340 21:57 14.05.2020
3176 Clouds 27 1006 61 10000 1.5 360 21:39 14.05.2020
3177 Clouds 27 1006 61 10000 1.5 360 21:19 14.05.2020
3178 Clouds 28 1006 57 10000 2.6 350 20:55 14.05.2020
3179 Clouds 28 1006 57 10000 2.6 350 20:55 14.05.2020
3180 Clouds 28 1007 54 10000 3.1 350 20:36 14.05.2020
3181 Clear 28 1007 54 10000 3.6 360 20:18 14.05.2020
3182 Clear 29 1007 54 10000 4.6 340 19:41 14.05.2020
3183 Clear 29 1007 54 10000 4.6 340 19:21 14.05.2020
3184 Clear 29 1006 58 10000 4.6 350 18:58 14.05.2020
3185 Clear 29 1006 54 10000 4.6 350 18:38 14.05.2020
3186 Clear 29 1006 54 10000 4.6 350 18:20 14.05.2020
3187 Clear 30 1006 58 10000 5.1 340 17:59 14.05.2020
3188 Clear 30 1006 58 10000 5.1 340 17:59 14.05.2020
3189 Clear 30 1006 48 10000 5.7 340 17:37 14.05.2020
3190 Clear 30 1006 48 10000 5.7 340 17:19 14.05.2020
3191 Clear 31 1006 43 10000 6.2 350 16:58 14.05.2020
3192 Clear 31 1005 40 10000 5.7 360 16:38 14.05.2020
3193 Clear 32 1005 40 10000 5.7 360 16:19 14.05.2020
3194 Clear 33 1005 38 10000 7.2 10 15:56 14.05.2020
3195 Clear 34 1005 41 10000 6.7 10 15:38 14.05.2020
3196 Clear 34 1005 41 10000 6.7 10 15:18 14.05.2020
3197 Clear 35 1005 36 10000 6.2 10 14:55 14.05.2020
3198 Clear 35 1005 32 10000 6.2 10 14:36 14.05.2020
3199 Clear 35 1005 30 10000 6.7 20 14:18 14.05.2020
3200 Clear 36 1005 25 10000 6.2 20 13:44 14.05.2020
3201 Clear 37 1006 20 10000 6.7 10 13:20 14.05.2020
3202 Clear 37 1006 20 10000 6.7 10 12:59 14.05.2020
3203 Clear 36 1006 20 10000 5.7 10 12:39 14.05.2020
3204 Clear 37 1006 20 10000 5.7 10 12:20 14.05.2020
3205 Clear 37 1006 16 10000 6.7 350 11:59 14.05.2020
3206 Clear 37 1006 16 10000 6.7 350 11:59 14.05.2020
3207 Clear 37 1006 14 10000 7.7 350 11:40 14.05.2020
3208 Clear 37 1006 14 10000 7.7 350 11:21 14.05.2020
3209 Clear 37 1006 12 10000 7.2 330 10:56 14.05.2020
3210 Clear 37 1006 13 10000 6.2 330 10:38 14.05.2020
3211 Clear 37 1006 13 10000 6.2 330 10:20 14.05.2020
3212 Clear 36 1007 15 10000 5.7 320 09:42 14.05.2020
3213 Clear 36 1007 15 10000 5.7 320 09:23 14.05.2020
3214 Clear 35 1007 19 10000 4.6 310 08:43 14.05.2020
3215 Clear 35 1007 19 10000 4.6 310 08:21 14.05.2020
3216 Clear 33 1007 24 10000 4.6 300 07:47 14.05.2020
3217 Clear 33 1007 24 10000 4.6 300 07:25 14.05.2020
3218 Clear 31 1006 24 10000 4.1 310 06:55 14.05.2020
3219 Clear 30 1006 27 10000 4.1 300 06:34 14.05.2020
3220 Clear 29 1006 32 10000 3.6 290 05:58 14.05.2020
3221 Clear 29 1006 32 10000 4.6 290 05:36 14.05.2020
3222 Clear 27 1005 34 10000 4.1 280 04:34 14.05.2020
3223 Clear 27 1005 39 10000 3.6 290 03:30 14.05.2020
3224 Clear 27 1005 42 10000 3.6 280 02:43 14.05.2020
3225 Clear 27 1005 42 10000 3.6 280 02:19 14.05.2020
3226 Clear 27 1005 44 10000 4.1 290 01:35 14.05.2020
3227 Clear 27 1005 34 10000 3.1 280 00:50 14.05.2020
3228 Clear 27 1005 34 10000 3.6 280 00:25 14.05.2020
3229 Clear 28 1006 35 10000 2.6 260 23:45 13.05.2020
3230 Clear 28 1006 35 10000 2.6 260 23:22 13.05.2020
3231 Clear 28 1006 32 10000 2.6 280 22:56 13.05.2020
3232 Clear 29 1006 28 10000 3.6 300 22:38 13.05.2020
3233 Clear 29 1006 28 10000 3.6 300 22:19 13.05.2020
3234 Clear 29 1006 27 10000 4.6 310 21:57 13.05.2020
3235 Clear 29 1007 27 10000 3.6 310 21:38 13.05.2020
3236 Clear 29 1007 27 10000 3.6 310 21:18 13.05.2020
3237 Clear 29 1007 25 10000 4.6 310 20:41 13.05.2020
3238 Clear 29 1007 25 10000 4.6 310 20:23 13.05.2020
3239 Clear 30 1007 19 10000 5.1 310 19:44 13.05.2020
3240 Clear 30 1007 19 10000 5.1 310 19:25 13.05.2020
3241 Clear 30 1007 19 10000 5.1 310 19:25 13.05.2020
3242 Clear 30 1006 18 10000 5.1 320 18:58 13.05.2020
3243 Clear 31 1006 15 10000 5.1 320 18:40 13.05.2020
3244 Clear 31 1006 15 10000 5.1 320 18:21 13.05.2020
3245 Clear 32 1006 13 10000 6.2 310 17:39 13.05.2020
3246 Clear 32 1006 13 10000 6.2 310 17:20 13.05.2020
3247 Clear 33 1005 13 10000 7.2 310 16:58 13.05.2020
3248 Clear 33 1005 13 10000 7.2 310 16:39 13.05.2020
3249 Clear 34 1005 13 10000 7.2 310 16:19 13.05.2020
3250 Clear 35 1006 13 10000 6.7 310 15:42 13.05.2020
3251 Clear 35 1006 13 10000 6.7 310 15:20 13.05.2020
3252 Clear 35 1006 11 10000 7.2 310 14:58 13.05.2020
3253 Clear 36 1006 11 10000 7.2 310 14:40 13.05.2020
3254 Clear 36 1006 11 10000 7.2 310 14:22 13.05.2020
3255 Clear 36 1006 11 10000 8.2 310 13:57 13.05.2020
3256 Clear 36 1007 11 10000 7.7 310 13:39 13.05.2020
3257 Clear 36 1007 11 10000 7.7 310 13:20 13.05.2020
3258 Clear 35 1007 11 10000 8.2 310 12:54 13.05.2020
3259 Clear 35 1007 11 10000 7.7 310 12:36 13.05.2020
3260 Clear 35 1008 14 10000 7.7 310 12:18 13.05.2020
3261 Clear 35 1008 14 10000 7.7 310 11:54 13.05.2020
3262 Clear 35 1008 14 10000 8.2 300 11:36 13.05.2020
3263 Clear 35 1008 15 10000 8.2 310 11:18 13.05.2020
3264 Clear 35 1008 15 10000 8.2 310 10:54 13.05.2020
3265 Clear 35 1009 20 10000 7.2 300 10:36 13.05.2020
3266 Clear 34 1009 23 10000 7.2 300 10:18 13.05.2020
3267 Clear 34 1009 23 10000 7.2 300 10:18 13.05.2020
3268 Clear 34 1009 24 10000 5.7 290 09:40 13.05.2020
3269 Clear 34 1009 24 10000 5.7 290 09:22 13.05.2020
3270 Clear 33 1009 26 10000 6.2 310 08:43 13.05.2020
3271 Clear 33 1009 26 10000 6.2 310 08:22 13.05.2020
3272 Clear 32 1009 31 10000 5.7 300 07:59 13.05.2020
3273 Clear 32 1009 33 10000 6.2 300 07:37 13.05.2020
3274 Clear 31 1009 33 10000 6.2 300 06:59 13.05.2020
3275 Clear 30 1009 35 10000 6.2 300 06:41 13.05.2020
3276 Clear 28 1009 35 10000 5.7 310 05:51 13.05.2020
3277 Clear 28 1008 35 10000 5.1 300 04:41 13.05.2020
3278 Clear 29 1007 25 10000 5.7 300 02:59 13.05.2020
3279 Clear 29 1007 22 10000 5.1 300 02:26 13.05.2020
3280 Clear 29 1007 20 10000 5.7 300 01:26 13.05.2020
3281 Clear 29 1008 22 10000 5.7 310 00:41 13.05.2020
3282 Clear 29 1008 22 10000 5.7 310 00:19 13.05.2020
3283 Clear 29 1008 25 10000 6.2 310 23:40 12.05.2020
3284 Clear 29 1008 25 10000 6.2 310 23:21 12.05.2020
3285 Clear 29 1008 27 10000 6.2 310 22:57 12.05.2020
3286 Clear 29 1008 28 10000 5.1 300 22:39 12.05.2020
3287 Clear 29 1008 28 10000 5.1 300 22:20 12.05.2020
3288 Clear 29 1009 28 10000 5.1 310 21:55 12.05.2020
3289 Clear 29 1009 30 10000 5.1 310 21:37 12.05.2020
3290 Clear 29 1009 30 10000 5.1 310 21:18 12.05.2020
3291 Clear 29 1009 30 10000 5.7 310 20:56 12.05.2020
3292 Clear 29 1009 28 10000 5.1 310 20:38 12.05.2020
3293 Clear 29 1009 28 10000 5.1 310 20:19 12.05.2020
3294 Clear 30 1009 22 10000 6.7 310 19:55 12.05.2020
3295 Clear 30 1009 22 10000 6.7 310 19:37 12.05.2020
3296 Clear 30 1009 22 10000 6.7 320 19:18 12.05.2020
3297 Clear 31 1009 21 10000 6.2 320 18:42 12.05.2020
3298 Clear 31 1009 21 10000 6.2 320 18:23 12.05.2020
3299 Clear 32 1008 19 10000 7.2 310 17:57 12.05.2020
3300 Clear 32 1008 18 10000 6.7 320 17:38 12.05.2020
3301 Clear 32 1008 18 10000 6.7 320 17:20 12.05.2020
3302 Clear 33 1008 17 10000 8.2 320 16:42 12.05.2020
3303 Clear 33 1008 17 10000 8.2 320 16:22 12.05.2020
3304 Clear 34 1008 16 10000 8.2 330 15:55 12.05.2020
3305 Clear 34 1008 15 10000 8.7 320 15:36 12.05.2020
3306 Clear 34 1008 15 10000 8.7 320 15:36 12.05.2020
3307 Clear 35 1008 15 10000 8.7 320 15:18 12.05.2020
3308 Clear 35 1008 15 10000 8.2 320 14:55 12.05.2020
3309 Clear 35 1008 15 10000 8.7 320 14:36 12.05.2020
3310 Clear 35 1008 15 10000 8.7 320 14:18 12.05.2020
3311 Clear 35 1008 15 10000 8.7 320 13:55 12.05.2020
3312 Clear 36 1008 16 10000 9.3 330 13:37 12.05.2020
3313 Clear 36 1008 16 10000 9.3 330 13:18 12.05.2020
3314 Clear 36 1009 15 10000 8.7 320 12:56 12.05.2020
3315 Clear 36 1010 15 10000 8.7 330 12:37 12.05.2020
3316 Clear 36 1010 15 10000 8.7 330 12:19 12.05.2020
3317 Clear 36 1010 15 10000 8.7 330 11:56 12.05.2020
3318 Clear 36 1010 15 10000 8.7 330 11:37 12.05.2020
3319 Clear 36 1010 15 10000 12.3 340 11:19 12.05.2020
3320 Clear 36 1010 15 10000 12.3 340 10:55 12.05.2020
3321 Clear 36 1010 15 10000 12.3 340 10:37 12.05.2020
3322 Clear 35 1010 15 10000 8.2 330 10:18 12.05.2020
3323 Clear 35 1010 15 10000 8.2 330 09:55 12.05.2020
3324 Clear 35 1010 19 10000 7.7 340 09:37 12.05.2020
3325 Clear 35 1010 19 10000 7.7 340 09:19 12.05.2020
3326 Clear 34 1010 26 10000 8.2 340 08:39 12.05.2020
3327 Clear 34 1010 26 10000 8.2 340 08:21 12.05.2020
3328 Clear 33 1010 24 10000 7.7 330 07:45 12.05.2020
3329 Clear 32 1010 24 10000 7.7 330 07:27 12.05.2020
3330 Clear 32 1010 25 10000 6.2 330 06:56 12.05.2020
3331 Clear 31 1010 29 10000 6.7 330 06:37 12.05.2020
3332 Clear 30 1010 29 10000 6.7 330 06:18 12.05.2020
3333 Clear 30 1009 28 10000 6.7 330 05:45 12.05.2020
3334 Clear 29 1009 30 10000 7.2 330 03:53 12.05.2020
3335 Clear 29 1009 25 10000 8.2 320 03:18 12.05.2020
3336 Clouds 29 1009 25 10000 7.2 330 02:26 12.05.2020
3337 Clouds 29 1008 25 10000 6.7 330 01:33 12.05.2020
3338 Clouds 30 1008 29 10000 7.2 330 00:58 12.05.2020
3339 Clouds 30 1009 29 10000 6.7 320 00:23 12.05.2020
3340 Clouds 30 1009 29 10000 5.1 320 23:56 11.05.2020
3341 Clouds 30 1009 29 10000 6.7 320 23:37 11.05.2020
3342 Clouds 30 1009 29 10000 6.7 320 23:19 11.05.2020
3343 Clouds 30 1009 25 10000 6.2 320 22:55 11.05.2020
3344 Clouds 30 1009 25 10000 6.7 330 22:37 11.05.2020
3345 Clouds 30 1009 25 10000 6.7 330 22:19 11.05.2020
3346 Clouds 30 1009 25 10000 6.7 330 21:54 11.05.2020
3347 Clouds 31 1010 25 10000 5.7 330 21:36 11.05.2020
3348 Clouds 30 1010 27 10000 6.7 330 21:18 11.05.2020
3349 Clouds 31 1010 29 10000 5.1 320 20:42 11.05.2020
3350 Clouds 30 1009 31 10000 5.7 320 20:21 11.05.2020
3351 Clouds 30 1009 31 10000 5.7 320 19:59 11.05.2020
3352 Clouds 30 1009 31 10000 5.7 320 19:41 11.05.2020
3353 Clouds 30 1009 31 10000 5.7 320 19:22 11.05.2020
3354 Clouds 31 1009 27 10000 5.7 320 18:57 11.05.2020
3355 Clouds 31 1009 25 10000 5.1 320 18:38 11.05.2020
3356 Clouds 31 1009 25 10000 5.1 320 18:19 11.05.2020
3357 Clouds 32 1009 24 10000 5.7 320 17:57 11.05.2020
3358 Clouds 32 1009 26 10000 6.2 330 17:39 11.05.2020
3359 Clear 33 1009 22 10000 7.7 320 17:20 11.05.2020
3360 Clear 33 1009 22 10000 7.7 320 16:56 11.05.2020
3361 Clear 33 1008 15 10000 9.3 330 16:37 11.05.2020
3362 Clear 34 1008 15 10000 9.3 330 16:18 11.05.2020
3363 Clear 35 1008 18 9000 9.8 330 15:42 11.05.2020
3364 Clear 36 1008 20 8000 8.7 330 15:20 11.05.2020
3365 Clear 36 1008 20 8000 8.7 330 14:58 11.05.2020
3366 Clear 36 1008 25 8000 9.8 340 14:40 11.05.2020
3367 Clear 36 1008 25 8000 9.8 340 14:21 11.05.2020
3368 Clear 36 1008 26 8000 9.8 340 13:54 11.05.2020
3369 Clear 36 1008 25 7000 9.8 340 13:36 11.05.2020
3370 Clear 36 1008 25 7000 9.8 340 13:18 11.05.2020
3371 Clear 37 1008 23 9000 9.8 340 12:54 11.05.2020
3372 Clear 36 1009 26 9000 10.8 340 12:36 11.05.2020
3373 Clear 37 1009 26 9000 10.8 340 12:18 11.05.2020
3374 Clear 36 1009 26 8000 9.8 340 11:41 11.05.2020
3375 Clear 36 1009 26 8000 9.8 340 11:22 11.05.2020
3376 Clear 36 1009 25 8000 10.8 340 10:58 11.05.2020
3377 Clear 36 1009 25 8000 10.8 340 10:58 11.05.2020
3378 Clear 36 1009 26 7000 10.8 340 10:40 11.05.2020
3379 Clear 36 1009 26 7000 10.8 340 10:21 11.05.2020
3380 Clear 36 1009 26 7000 10.3 340 09:58 11.05.2020
3381 Clear 36 1009 26 7000 8.7 340 09:39 11.05.2020
3382 Clear 36 1009 26 7000 8.7 340 09:19 11.05.2020
3383 Clear 35 1010 28 7000 8.2 340 09:19 11.05.2020
3384 Clear 35 1010 28 7000 8.2 340 08:55 11.05.2020
3385 Clear 34 1009 32 7000 8.7 330 08:37 11.05.2020
3386 Clouds 34 1009 32 7000 8.7 330 08:18 11.05.2020
3387 Clouds 33 1009 33 7000 8.7 330 07:42 11.05.2020
3388 Clouds 33 1009 33 7000 8.7 330 07:23 11.05.2020
3389 Dust 32 1009 35 5000 7.2 330 06:40 11.05.2020
3390 Dust 31 1009 43 5000 7.7 330 05:55 11.05.2020
3391 Dust 30 1008 48 5000 7.7 330 05:23 11.05.2020
3392 Clouds 30 1008 48 8000 6.2 330 04:24 11.05.2020
3393 Clouds 30 1007 43 10000 4.1 320 02:47 11.05.2020
3394 Clouds 31 1007 38 10000 5.7 330 02:29 11.05.2020
3395 Clouds 31 1007 38 10000 5.7 330 01:31 11.05.2020
3396 Clouds 31 1007 35 10000 5.7 330 00:44 11.05.2020
3397 Clouds 32 1007 35 10000 5.7 330 00:19 11.05.2020
3398 Clouds 32 1008 38 10000 5.7 330 23:43 10.05.2020
3399 Clouds 32 1008 38 10000 5.7 330 23:20 10.05.2020
3400 Clouds 32 1008 40 10000 5.7 330 22:55 10.05.2020
3401 Clouds 31 1008 40 10000 4.6 320 22:37 10.05.2020
3402 Clouds 32 1008 40 10000 4.6 320 22:18 10.05.2020
3403 Clouds 32 1008 38 10000 6.2 330 21:43 10.05.2020
3404 Clouds 32 1008 38 10000 6.2 330 21:19 10.05.2020
3405 Clouds 32 1008 36 10000 6.2 340 20:54 10.05.2020
3406 Clouds 32 1008 36 10000 6.7 340 20:36 10.05.2020
3407 Clouds 33 1008 36 10000 6.7 340 20:18 10.05.2020
3408 Clouds 33 1007 34 10000 5.7 340 19:40 10.05.2020
3409 Clouds 33 1007 34 10000 5.7 340 19:22 10.05.2020
3410 Clouds 33 1007 49 10000 5.1 360 18:57 10.05.2020
3411 Clouds 33 1007 36 10000 3.1 340 18:37 10.05.2020
3412 Clouds 34 1007 36 10000 3.1 340 18:19 10.05.2020
3413 Clouds 34 1006 36 10000 2.6 340 17:58 10.05.2020
3414 Clouds 34 1006 44 10000 2.6 360 17:40 10.05.2020
3415 Clouds 34 1006 44 10000 2.6 360 17:21 10.05.2020
3416 Clouds 36 1006 36 10000 3.1 360 16:56 10.05.2020
3417 Clouds 36 1006 32 10000 3.1 20 16:38 10.05.2020
3418 Clouds 36 1006 32 10000 4.1 360 16:19 10.05.2020
3419 Clouds 36 1006 39 10000 4.6 360 15:44 10.05.2020
3420 Clouds 36 1006 39 10000 4.6 360 15:24 10.05.2020
3421 Clouds 38 1006 21 10000 4.1 20 14:57 10.05.2020
3422 Clouds 39 1006 18 10000 4.1 40 14:38 10.05.2020
3423 Clouds 39 1006 18 10000 4.1 40 14:38 10.05.2020
3424 Clear 39 1006 17 10000 4.1 40 14:19 10.05.2020
3425 Clear 39 1006 17 10000 4.1 40 13:58 10.05.2020
3426 Clear 39 1006 17 10000 4.1 40 13:58 10.05.2020
3427 Clear 39 1006 14 10000 4.1 30 13:37 10.05.2020
3428 Clear 39 1007 15 10000 4.6 10 13:19 10.05.2020
3429 Clear 39 1007 15 10000 4.6 10 13:19 10.05.2020
3430 Clear 40 1007 15 10000 4.6 10 12:56 10.05.2020
3431 Clear 39 1007 15 10000 4.6 360 12:38 10.05.2020
3432 Clear 39 1007 15 10000 4.6 360 12:20 10.05.2020
3433 Clear 38 1008 24 10000 5.1 360 11:55 10.05.2020
3434 Clear 38 1008 24 10000 5.1 360 11:55 10.05.2020
3435 Clear 38 1008 27 10000 5.7 350 11:36 10.05.2020
3436 Clear 38 1008 27 10000 5.7 350 11:18 10.05.2020
3437 Clear 36 1009 27 10000 5.7 350 10:43 10.05.2020
3438 Clear 36 1009 27 10000 5.7 350 10:25 10.05.2020
3439 Clear 37 1009 30 10000 6.7 340 09:57 10.05.2020
3440 Clear 37 1009 30 10000 7.2 350 09:39 10.05.2020
3441 Clear 35 1009 30 10000 6.7 340 09:20 10.05.2020
3442 Clear 35 1009 30 10000 6.7 340 08:47 10.05.2020
3443 Clouds 34 1009 32 10000 7.7 340 08:23 10.05.2020
3444 Clouds 34 1009 32 10000 7.7 330 07:44 10.05.2020
3445 Clouds 34 1009 21 10000 6.7 330 07:20 10.05.2020
3446 Clouds 34 1009 21 10000 6.7 330 06:56 10.05.2020
3447 Clouds 33 1008 16 10000 4.1 320 06:30 10.05.2020
3448 Clouds 33 1008 18 10000 4.6 330 05:48 10.05.2020
3449 Clouds 30 1008 33 10000 5.1 320 04:50 10.05.2020
3450 Clouds 29 1006 51 10000 1.5 220 04:31 10.05.2020
3451 Clouds 29 1006 51 10000 1.5 210 03:54 10.05.2020
3452 Clouds 29 1006 51 10000 1.5 210 03:35 10.05.2020
3453 Clouds 29 1006 48 10000 1.5 210 02:41 10.05.2020
3454 Clouds 29 1007 45 10000 1.5 230 02:18 10.05.2020
3455 Clouds 29 1007 42 10000 1.5 210 01:40 10.05.2020
3456 Clouds 30 1007 42 10000 1.5 210 01:19 10.05.2020
3457 Clouds 30 1007 45 10000 0.5 0 00:53 10.05.2020
3458 Clouds 30 1007 45 10000 3.1 11 00:23 10.05.2020
3459 Clouds 31 1007 38 10000 1 0 23:58 09.05.2020
3460 Clouds 31 1007 38 10000 1.5 190 23:39 09.05.2020
3461 Clouds 31 1007 35 10000 0.5 0 23:19 09.05.2020
3462 Clouds 31 1007 35 10000 1 0 22:42 09.05.2020
3463 Clouds 31 1007 35 10000 1 0 22:23 09.05.2020
3464 Clouds 31 1008 40 10000 3.68 354 21:58 09.05.2020
3465 Clouds 31 1008 38 10000 1.5 310 21:40 09.05.2020
3466 Clouds 31 1008 38 10000 1.5 310 21:21 09.05.2020
3467 Clouds 31 1007 45 10000 1.5 360 20:57 09.05.2020
3468 Clouds 31 1007 45 10000 1.5 10 20:38 09.05.2020
3469 Clouds 31 1007 45 10000 1.5 10 20:20 09.05.2020
3470 Clouds 31 1007 45 10000 2.1 10 19:55 09.05.2020
3471 Clouds 31 1007 45 10000 2.6 10 19:37 09.05.2020
3472 Clouds 31 1007 45 10000 2.6 10 19:18 09.05.2020
3473 Clouds 32 1007 45 10000 3.6 10 18:42 09.05.2020
3474 Clouds 32 1007 45 10000 3.6 10 18:42 09.05.2020
3475 Clear 32 1007 45 10000 3.6 10 18:23 09.05.2020
3476 Clear 33 1006 38 10000 3.1 20 17:45 09.05.2020
3477 Clear 33 1006 38 10000 3.1 20 17:23 09.05.2020
3478 Clear 34 1006 41 10000 3.6 360 16:56 09.05.2020
3479 Clear 34 1006 38 10000 4.1 360 16:38 09.05.2020
3480 Clouds 35 1006 36 10000 4.1 10 16:18 09.05.2020
3481 Clouds 36 1006 36 10000 4.1 10 15:42 09.05.2020
3482 Clear 35 1006 34 10000 4.6 10 15:22 09.05.2020
3483 Clear 35 1006 34 10000 4.6 10 15:22 09.05.2020
3484 Clear 35 1006 34 10000 4.6 10 14:56 09.05.2020
3485 Clear 36 1007 38 10000 4.6 20 14:37 09.05.2020
3486 Clear 37 1007 28 10000 4.6 360 14:18 09.05.2020
3487 Clear 37 1007 28 10000 4.6 360 13:55 09.05.2020
3488 Clear 37 1007 26 10000 4.6 360 13:37 09.05.2020
3489 Clear 37 1007 26 10000 4.6 360 13:18 09.05.2020
3490 Clear 36 1008 26 10000 4.6 10 12:39 09.05.2020
3491 Clear 36 1008 26 10000 4.6 10 12:21 09.05.2020
3492 Clear 36 1008 28 10000 4.1 10 11:45 09.05.2020
3493 Clear 36 1008 26 10000 4.6 360 11:20 09.05.2020
3494 Clear 36 1008 26 10000 4.6 360 10:55 09.05.2020
3495 Clear 36 1009 25 10000 4.6 360 10:37 09.05.2020
3496 Clear 35 1009 25 10000 4.1 360 10:19 09.05.2020
3497 Clear 36 1009 24 10000 4.1 340 09:44 09.05.2020
3498 Clear 34 1009 23 10000 4.6 320 09:20 09.05.2020
3499 Clear 35 1009 23 10000 4.6 320 08:57 09.05.2020
3500 Clear 34 1009 26 10000 5.1 330 08:38 09.05.2020
3501 Clear 33 1009 26 10000 5.1 330 08:20 09.05.2020
3502 Clear 33 1009 29 10000 3.6 330 07:44 09.05.2020
3503 Clear 32 1009 29 10000 3.6 330 07:25 09.05.2020
3504 Clear 31 1009 33 10000 3.1 310 06:40 09.05.2020
3505 Clear 28 1008 35 10000 2.6 310 06:18 09.05.2020
3506 Clear 29 1008 39 10000 3.1 310 05:39 09.05.2020
3507 Clear 27 1008 39 10000 4.1 310 03:40 09.05.2020
3508 Clear 27 1008 42 10000 4.1 310 02:54 09.05.2020
3509 Clouds 27 1008 45 10000 4.6 300 02:30 09.05.2020
3510 Clouds 27 1008 39 10000 4.6 310 01:51 09.05.2020
3511 Clouds 27 1008 39 10000 4.6 310 01:22 09.05.2020
3512 Clouds 28 1008 35 10000 4.1 310 00:43 09.05.2020
3513 Clouds 28 1008 35 10000 4.1 310 00:20 09.05.2020
3514 Clouds 28 1008 28 10000 3.6 300 23:45 08.05.2020
3515 Clouds 28 1008 28 10000 3.6 300 23:27 08.05.2020
3516 Clouds 29 1009 28 10000 3.6 300 22:56 08.05.2020
3517 Clouds 29 1009 27 10000 3.1 320 22:38 08.05.2020
3518 Clouds 29 1009 27 10000 3.1 320 22:19 08.05.2020
3519 Clouds 29 1009 27 10000 4.1 310 21:55 08.05.2020
3520 Clouds 29 1009 25 10000 3.1 320 21:37 08.05.2020
3521 Clouds 29 1009 25 10000 3.1 320 21:18 08.05.2020
3522 Clouds 29 1009 25 10000 4.1 320 20:56 08.05.2020
3523 Clouds 30 1009 23 10000 3.1 310 20:38 08.05.2020
3524 Clouds 30 1009 23 10000 3.1 310 20:19 08.05.2020
3525 Clouds 30 1009 23 10000 3.1 310 20:19 08.05.2020
3526 Clouds 30 1009 23 10000 4.1 300 19:42 08.05.2020
3527 Clouds 30 1009 23 10000 4.1 300 19:21 08.05.2020
3528 Clouds 30 1009 23 10000 3.6 320 18:50 08.05.2020
3529 Clouds 31 1008 22 10000 3.1 320 18:31 08.05.2020
3530 Clouds 32 1008 21 10000 5.1 320 17:43 08.05.2020
3531 Clouds 32 1008 21 10000 5.1 320 17:20 08.05.2020
3532 Clouds 33 1008 21 10000 6.2 330 16:58 08.05.2020
3533 Clouds 33 1008 20 10000 7.7 340 16:39 08.05.2020
3534 Clouds 33 1008 20 10000 7.7 340 16:21 08.05.2020
3535 Clouds 34 1008 26 10000 8.7 340 15:44 08.05.2020
3536 Clear 34 1008 26 10000 8.7 340 15:22 08.05.2020
3537 Clear 35 1008 23 10000 9.8 340 14:58 08.05.2020
3538 Clear 35 1008 23 10000 9.8 340 14:40 08.05.2020
3539 Clear 35 1008 23 10000 9.8 340 14:20 08.05.2020
3540 Clear 35 1008 23 10000 9.3 340 13:56 08.05.2020
3541 Clear 35 1008 23 10000 9.8 350 13:38 08.05.2020
3542 Clear 35 1008 23 10000 10.3 350 13:18 08.05.2020
3543 Clear 36 1009 22 10000 9.8 350 12:44 08.05.2020
3544 Clear 36 1009 22 10000 9.8 350 12:23 08.05.2020
3545 Clear 36 1009 20 10000 10.8 350 11:55 08.05.2020
3546 Clear 35 1010 23 10000 10.3 340 11:36 08.05.2020
3547 Clear 35 1010 23 10000 10.3 340 11:18 08.05.2020
3548 Clear 35 1010 23 10000 9.3 350 10:43 08.05.2020
3549 Clear 35 1010 23 10000 9.3 350 10:21 08.05.2020
3550 Clear 35 1010 23 10000 9.3 350 10:21 08.05.2020
3551 Clear 34 1010 23 10000 9.3 340 09:59 08.05.2020
3552 Clear 34 1010 24 10000 10.3 340 09:40 08.05.2020
3553 Clear 34 1010 24 10000 10.3 340 09:19 08.05.2020
3554 Clear 33 1010 27 10000 10.3 340 08:45 08.05.2020
3555 Clouds 33 1010 27 10000 10.3 340 08:24 08.05.2020
3556 Clouds 31 1010 27 10000 8.2 340 07:44 08.05.2020
3557 Clouds 31 1010 27 10000 8.2 340 07:25 08.05.2020
3558 Clouds 30 1010 33 10000 7.2 330 06:52 08.05.2020
3559 Clouds 29 1010 33 10000 7.2 330 06:25 08.05.2020
3560 Clouds 28 1010 37 10000 7.2 330 05:59 08.05.2020
3561 Clouds 27 1009 37 10000 7.2 330 04:50 08.05.2020
3562 Clouds 27 1009 37 10000 7.2 330 02:57 08.05.2020
3563 Clouds 27 1009 37 10000 6.7 330 02:22 08.05.2020
3564 Clouds 27 1009 39 10000 6.7 330 01:37 08.05.2020
3565 Clouds 27 1009 39 10000 6.7 330 01:18 08.05.2020
3566 Clouds 27 1009 34 10000 5.1 320 00:45 08.05.2020
3567 Clouds 27 1009 34 10000 5.1 320 00:22 08.05.2020
3568 Clouds 27 1010 32 10000 4.1 320 23:44 07.05.2020
3569 Clouds 27 1010 32 10000 4.1 320 23:23 07.05.2020
3570 Clouds 27 1010 32 10000 4.1 320 22:58 07.05.2020
3571 Clouds 27 1010 34 10000 4.6 330 22:39 07.05.2020
3572 Clouds 28 1010 34 10000 4.6 330 22:20 07.05.2020
3573 Clouds 28 1010 37 10000 3.6 320 21:56 07.05.2020
3574 Clouds 28 1010 35 10000 4.1 320 21:37 07.05.2020
3575 Clouds 28 1010 35 10000 4.1 320 21:19 07.05.2020
3576 Clouds 29 1010 27 10000 5.1 320 20:43 07.05.2020
3577 Clouds 29 1010 27 10000 5.1 320 20:24 07.05.2020
3578 Clouds 30 1010 27 10000 5.7 330 19:59 07.05.2020
3579 Clouds 30 1010 22 10000 5.7 330 19:40 07.05.2020
3580 Clouds 30 1010 22 10000 5.7 330 19:21 07.05.2020
3581 Clouds 30 1009 27 10000 7.2 340 18:46 07.05.2020
3582 Clouds 30 1009 27 10000 7.2 340 18:28 07.05.2020
3583 Clouds 31 1009 25 10000 7.2 340 17:57 07.05.2020
3584 Clouds 32 1009 21 9000 8.7 340 17:37 07.05.2020
3585 Clouds 32 1009 22 9000 10.3 340 17:19 07.05.2020
3586 Clouds 33 1009 24 7000 9.3 340 16:40 07.05.2020
3587 Clouds 33 1009 24 7000 9.3 340 16:19 07.05.2020
3588 Clouds 34 1008 21 7000 10.3 340 15:57 07.05.2020
3589 Clouds 34 1008 23 7000 9.3 350 15:37 07.05.2020
3590 Clouds 34 1008 23 7000 9.3 350 15:37 07.05.2020
3591 Clouds 34 1008 23 7000 9.3 350 15:18 07.05.2020
3592 Clouds 34 1008 23 7000 9.3 350 15:18 07.05.2020
3593 Clouds 35 1008 24 8000 9.8 350 14:45 07.05.2020
3594 Clouds 35 1008 24 8000 9.8 350 14:22 07.05.2020
3595 Clouds 35 1008 24 9000 9.8 350 13:57 07.05.2020
3596 Clouds 35 1008 21 9000 9.8 350 13:39 07.05.2020
3597 Clouds 35 1008 23 9000 10.3 350 13:18 07.05.2020
3598 Clouds 35 1009 24 9000 10.3 350 12:39 07.05.2020
3599 Clouds 35 1009 34 9000 8.7 350 12:19 07.05.2020
3600 Clouds 35 1009 36 9000 8.7 360 11:39 07.05.2020
3601 Clouds 34 1009 36 9000 8.7 360 11:21 07.05.2020
3602 Clouds 34 1009 34 9000 8.7 360 10:55 07.05.2020
3603 Clouds 34 1009 36 7000 7.7 350 10:37 07.05.2020
3604 Clouds 34 1010 34 7000 8.7 340 10:18 07.05.2020
3605 Clouds 34 1010 32 8000 9.8 340 09:39 07.05.2020
3606 Clouds 33 1010 38 8000 8.2 340 09:19 07.05.2020
3607 Clouds 33 1010 40 8000 7.7 340 08:45 07.05.2020
3608 Clouds 33 1010 40 8000 7.7 340 08:23 07.05.2020
3609 Clouds 31 1009 40 8000 8.2 340 07:58 07.05.2020
3610 Clouds 31 1009 43 8000 8.7 340 07:40 07.05.2020
3611 Clouds 32 1009 43 8000 8.7 340 07:20 07.05.2020
3612 Clouds 31 1009 45 9000 8.7 340 06:37 07.05.2020
3613 Clouds 28 1009 51 8000 7.7 340 06:18 07.05.2020
3614 Clouds 28 1008 51 10000 7.2 320 04:28 07.05.2020
3615 Clouds 28 1007 39 10000 5.7 330 03:38 07.05.2020
3616 Clouds 29 1007 39 10000 5.7 330 03:18 07.05.2020
3617 Clouds 29 1007 45 10000 5.7 340 02:35 07.05.2020
3618 Clouds 30 1007 35 10000 6.7 330 01:37 07.05.2020
3619 Clouds 29 1006 58 10000 3.1 330 01:19 07.05.2020
3620 Clouds 29 1006 58 10000 2.1 350 00:42 07.05.2020
3621 Clouds 29 1007 58 10000 1.5 10 00:21 07.05.2020
3622 Clouds 30 1007 62 10000 1 0 23:44 06.05.2020
3623 Clouds 30 1007 62 10000 1 0 23:22 06.05.2020
3624 Clouds 30 1007 58 10000 1.5 340 22:56 06.05.2020
3625 Clouds 30 1007 58 10000 1.5 340 22:37 06.05.2020
3626 Clouds 30 1007 51 10000 1 10 22:19 06.05.2020
3627 Clouds 30 1007 51 10000 1 10 21:55 06.05.2020
3628 Clouds 30 1007 54 10000 0.5 0 21:37 06.05.2020
3629 Clouds 30 1007 54 10000 0.5 0 21:18 06.05.2020
3630 Clouds 30 1007 58 10000 1.5 20 20:42 06.05.2020
3631 Clouds 30 1007 58 10000 1.5 20 20:22 06.05.2020
3632 Clouds 30 1007 62 10000 1.5 20 19:57 06.05.2020
3633 Clouds 30 1007 51 10000 2.6 10 19:38 06.05.2020
3634 Clouds 30 1007 48 10000 2.6 30 19:19 06.05.2020
3635 Clouds 31 1007 48 10000 2.6 30 18:58 06.05.2020
3636 Clouds 31 1007 48 10000 2.6 30 18:38 06.05.2020
3637 Clouds 31 1007 48 10000 2.6 30 18:20 06.05.2020
3638 Clouds 32 1007 38 10000 2.6 60 17:55 06.05.2020
3639 Clouds 32 1007 38 10000 2.1 60 17:37 06.05.2020
3640 Clouds 32 1007 38 10000 2.1 60 17:18 06.05.2020
3641 Clouds 32 1006 35 10000 3.1 60 16:58 06.05.2020
3642 Clouds 32 1007 40 10000 3.1 50 16:40 06.05.2020
3643 Clear 32 1007 40 10000 3.1 50 16:20 06.05.2020
3644 Clear 33 1007 43 10000 3.1 30 15:57 06.05.2020
3645 Clear 33 1007 43 10000 3.6 30 15:38 06.05.2020
3646 Clear 33 1007 43 10000 3.6 30 15:19 06.05.2020
3647 Clear 35 1007 20 10000 2.1 0 14:41 06.05.2020
3648 Clear 35 1007 20 10000 2.6 90 14:19 06.05.2020
3649 Clear 35 1007 20 10000 2.6 90 13:59 06.05.2020
3650 Clear 35 1007 17 10000 4.1 90 13:39 06.05.2020
3651 Clear 35 1007 17 10000 4.1 90 13:19 06.05.2020
3652 Clear 35 1007 17 10000 4.1 90 13:19 06.05.2020
3653 Clear 34 1008 29 10000 3.1 80 12:43 06.05.2020
3654 Clear 34 1008 29 10000 3.1 80 12:25 06.05.2020
3655 Clear 33 1008 33 10000 4.1 130 11:55 06.05.2020
3656 Clear 33 1008 46 10000 4.6 100 11:36 06.05.2020
3657 Clear 33 1009 31 10000 5.1 100 11:18 06.05.2020
3658 Clear 33 1009 31 10000 5.1 100 10:55 06.05.2020
3659 Clear 33 1009 33 10000 5.1 110 10:36 06.05.2020
3660 Clear 33 1009 33 10000 3.6 80 10:18 06.05.2020
3661 Clear 34 1009 29 10000 2.6 80 09:39 06.05.2020
3662 Clear 33 1009 29 10000 3.1 50 09:20 06.05.2020
3663 Clear 32 1009 51 10000 4.6 10 08:44 06.05.2020
3664 Clouds 31 1009 51 10000 4.6 10 08:21 06.05.2020
3665 Clouds 31 1009 55 10000 3.6 10 07:57 06.05.2020
3666 Clouds 31 1009 55 10000 3.6 10 07:38 06.05.2020
3667 Clouds 30 1009 54 10000 5.1 350 07:19 06.05.2020
3668 Clouds 30 1009 54 10000 5.1 350 06:49 06.05.2020
3669 Clouds 29 1008 51 10000 2.6 10 06:21 06.05.2020
3670 Clouds 27 1008 61 10000 1.5 0 05:50 06.05.2020
3671 Clouds 26 1007 69 10000 1.5 160 05:32 06.05.2020
3672 Clouds 26 1007 69 10000 1 160 03:55 06.05.2020
3673 Clouds 25 1007 73 10000 0.5 80 03:34 06.05.2020
3674 Clouds 26 1007 78 10000 0.5 0 02:58 06.05.2020
3675 Clouds 26 1007 78 10000 1 40 02:28 06.05.2020
3676 Clouds 26 1007 74 10000 1 0 01:46 06.05.2020
3677 Clouds 26 1007 74 10000 1 0 01:26 06.05.2020
3678 Clouds 26 1007 74 10000 2.11 113 00:45 06.05.2020
3679 Clouds 27 1007 74 10000 2.11 114 00:23 06.05.2020
3680 Clouds 27 1008 69 10000 0.5 0 23:42 05.05.2020
3681 Clouds 27 1008 69 10000 0.5 0 23:20 05.05.2020
3682 Clouds 27 1008 69 10000 1 80 22:57 05.05.2020
3683 Clouds 27 1008 69 10000 1.5 90 22:38 05.05.2020
3684 Clouds 27 1008 69 10000 1.5 90 22:19 05.05.2020
3685 Clouds 28 1009 74 10000 2.1 100 21:41 05.05.2020
3686 Clouds 28 1009 74 10000 2.1 100 21:22 05.05.2020
3687 Clouds 28 1009 65 10000 2.6 100 20:59 05.05.2020
3688 Clouds 29 1009 61 10000 2.1 100 20:41 05.05.2020
3689 Clouds 28 1009 61 10000 2.1 100 20:20 05.05.2020
3690 Clouds 28 1009 58 10000 1.5 100 19:59 05.05.2020
3691 Clouds 28 1009 58 10000 1.5 80 19:40 05.05.2020
3692 Clouds 28 1009 58 10000 1.5 80 19:40 05.05.2020
3693 Clouds 29 1009 54 10000 2.6 70 19:21 05.05.2020
3694 Clouds 29 1009 54 10000 2.6 70 18:57 05.05.2020
3695 Clouds 29 1009 58 10000 2.6 70 18:39 05.05.2020
3696 Clouds 29 1009 58 10000 2.6 70 18:19 05.05.2020
3697 Clouds 30 1009 62 10000 3.1 90 17:56 05.05.2020
3698 Clouds 30 1009 62 10000 3.1 90 17:38 05.05.2020
3699 Clouds 30 1009 62 10000 3.1 90 17:38 05.05.2020
3700 Clouds 30 1009 62 10000 3.1 90 17:20 05.05.2020
3701 Clouds 32 1009 38 10000 3.1 90 16:39 05.05.2020
3702 Clear 32 1009 38 10000 3.1 90 16:20 05.05.2020
3703 Clear 34 1009 29 10000 3.1 100 15:58 05.05.2020
3704 Clear 35 1009 18 10000 3.1 80 15:39 05.05.2020
3705 Clear 35 1009 22 10000 3.6 90 15:21 05.05.2020
3706 Clear 35 1009 22 10000 3.6 90 14:55 05.05.2020
3707 Clear 35 1009 23 10000 4.1 90 14:37 05.05.2020
3708 Clouds 35 1009 20 10000 4.1 100 14:18 05.05.2020
3709 Clouds 35 1009 20 10000 4.1 100 13:55 05.05.2020
3710 Clouds 36 1010 14 10000 3.6 110 13:36 05.05.2020
3711 Clouds 36 1010 12 10000 3.6 100 13:18 05.05.2020
3712 Clouds 36 1010 12 10000 3.6 100 12:54 05.05.2020
3713 Clouds 36 1010 11 10000 3.1 50 12:36 05.05.2020
3714 Clouds 36 1010 11 10000 3.1 50 12:18 05.05.2020
3715 Clouds 36 1011 10 10000 3.6 80 11:40 05.05.2020
3716 Clouds 36 1011 10 10000 3.6 80 11:19 05.05.2020
3717 Clouds 35 1011 12 10000 3.6 90 10:55 05.05.2020
3718 Clouds 35 1012 14 10000 3.1 80 10:37 05.05.2020
3719 Clouds 34 1012 15 10000 2.1 80 10:18 05.05.2020
3720 Clouds 33 1012 18 10000 1.5 100 09:44 05.05.2020
3721 Clear 33 1012 18 10000 1.5 100 09:26 05.05.2020
3722 Clouds 32 1012 26 10000 2.6 120 08:58 05.05.2020
3723 Clouds 32 1011 22 10000 1.5 120 08:39 05.05.2020
3724 Clear 32 1011 22 10000 1.5 120 08:18 05.05.2020
3725 Clear 30 1011 29 10000 1 0 07:43 05.05.2020
3726 Clear 30 1011 29 10000 1 0 07:21 05.05.2020
3727 Clear 27 1011 35 10000 2.1 160 06:57 05.05.2020
3728 Clear 29 1011 37 10000 2.6 180 06:39 05.05.2020
3729 Clear 25 1011 34 10000 1.5 340 05:53 05.05.2020
3730 Clear 26 1010 41 10000 1 0 04:59 05.05.2020
3731 Clear 25 1010 50 10000 0.5 0 02:39 05.05.2020
3732 Clear 26 1010 54 10000 0.5 0 00:57 05.05.2020
3733 Clear 26 1010 44 10000 1 10 00:33 05.05.2020
3734 Clear 27 1010 42 10000 1.5 340 23:55 04.05.2020
3735 Clear 27 1010 44 10000 3.1 340 23:36 04.05.2020
3736 Clear 27 1010 44 10000 3.1 340 23:18 04.05.2020
3737 Clear 27 1011 65 10000 1 340 22:42 04.05.2020
3738 Clear 27 1011 65 10000 1 340 22:22 04.05.2020
3739 Clear 28 1011 65 10000 1.5 360 21:57 04.05.2020
3740 Clear 28 1011 69 10000 1.5 340 21:37 04.05.2020
3741 Clear 28 1011 65 10000 1 0 21:19 04.05.2020
3742 Clear 28 1011 65 10000 1 0 21:19 04.05.2020
3743 Clear 29 1011 61 10000 3.1 340 20:41 04.05.2020
3744 Clear 29 1011 61 10000 3.1 340 20:41 04.05.2020
3745 Clear 29 1011 61 10000 3.1 340 20:41 04.05.2020
3746 Clear 29 1011 61 10000 3.1 340 20:21 04.05.2020
3747 Clear 29 1011 61 10000 3.1 340 20:21 04.05.2020
3748 Clear 30 1011 58 10000 2.6 350 19:58 04.05.2020
3749 Clear 30 1011 54 10000 1.5 360 19:40 04.05.2020
3750 Clear 30 1011 54 10000 1.5 360 19:40 04.05.2020
3751 Clear 30 1011 54 10000 1.5 360 19:18 04.05.2020
3752 Clear 31 1010 48 10000 3.1 350 18:39 04.05.2020
3753 Clear 31 1010 43 10000 3.1 350 18:20 04.05.2020
3754 Clear 31 1010 48 10000 3.1 350 18:20 04.05.2020
3755 Clear 31 1010 43 10000 3.1 350 17:57 04.05.2020
3756 Clear 32 1010 35 10000 3.6 20 17:38 04.05.2020
3757 Clear 32 1010 35 10000 3.6 20 17:20 04.05.2020
3758 Clear 33 1010 26 10000 5.1 20 16:56 04.05.2020
3759 Clear 34 1009 21 10000 5.7 20 16:37 04.05.2020
3760 Clear 34 1009 21 10000 5.7 20 16:19 04.05.2020
3761 Clear 34 1009 21 10000 5.7 20 16:19 04.05.2020
3762 Clear 34 1010 21 10000 5.1 10 15:40 04.05.2020
3763 Clear 35 1010 21 10000 5.1 10 15:22 04.05.2020
3764 Clear 35 1010 21 10000 5.1 10 14:49 04.05.2020
3765 Clear 35 1010 21 10000 5.1 10 14:23 04.05.2020
3766 Clear 35 1010 21 10000 5.1 10 14:23 04.05.2020
3767 Clear 35 1010 21 10000 5.1 10 14:23 04.05.2020
3768 Clear 35 1010 21 10000 5.1 10 14:22 04.05.2020
3769 Clear 35 1010 21 10000 5.1 10 14:22 04.05.2020
3770 Clear 34 1010 34 10000 5.1 10 13:22 04.05.2020
3771 Clear 35 1010 34 10000 5.1 10 13:22 04.05.2020
3772 Clear 35 1010 34 10000 5.1 10 13:22 04.05.2020
3773 Clear 35 1010 34 10000 5.1 10 13:22 04.05.2020
3774 Clear 34 1010 34 10000 5.1 10 13:22 04.05.2020
3775 Clear 34 1011 32 10000 5.1 10 12:44 04.05.2020
3776 Clear 34 1011 32 10000 5.1 10 12:44 04.05.2020
3777 Clear 34 1011 32 10000 5.1 10 12:44 04.05.2020
3778 Clear 34 1011 32 10000 5.1 10 12:44 04.05.2020
3779 Clear 35 1012 26 10000 6.2 360 11:27 04.05.2020
3780 Clear 35 1012 26 10000 6.2 360 11:27 04.05.2020
3781 Clear 35 1012 26 10000 6.2 360 11:27 04.05.2020
3782 Clear 35 1012 26 10000 6.2 360 11:27 04.05.2020
3783 Clear 35 1012 26 10000 6.2 360 11:27 04.05.2020
3784 Clear 35 1012 19 10000 5.1 330 09:29 04.05.2020
3785 Clear 32 1012 18 10000 4.6 330 07:54 04.05.2020
3786 Clear 33 1012 21 10000 3.1 320 07:34 04.05.2020
3787 Clear 28 1011 39 10000 1.5 270 05:52 04.05.2020
3788 Clear 26 1010 51 10000 1 0 04:52 04.05.2020
3789 Clear 26 1010 44 10000 1.5 320 02:56 04.05.2020
3790 Clear 26 1009 44 10000 2.1 320 01:45 04.05.2020
3791 Clear 26 1009 44 10000 2.1 320 01:45 04.05.2020
3792 Clear 27 1010 51 10000 3.1 310 00:18 04.05.2020
3793 Clear 27 1010 51 10000 2.6 330 23:44 03.05.2020
3794 Clear 27 1010 51 10000 2.6 330 23:23 03.05.2020
3795 Clear 27 1011 54 10000 3.1 340 22:44 03.05.2020
3796 Clear 27 1011 54 10000 3.1 340 22:44 03.05.2020
3797 Clear 28 1011 54 10000 3.1 340 22:25 03.05.2020
3798 Clear 28 1011 65 10000 3.1 340 21:56 03.05.2020
3799 Clear 28 1011 69 10000 3.6 340 21:38 03.05.2020
3800 Clear 28 1011 69 10000 3.6 340 21:20 03.05.2020
3801 Clear 28 1011 69 10000 3.6 340 21:20 03.05.2020
3802 Clear 28 1011 69 10000 3.6 340 21:20 03.05.2020
3803 Clear 28 1011 69 10000 3.6 340 21:20 03.05.2020
3804 Clear 28 1010 69 10000 3.6 340 20:42 03.05.2020
3805 Clear 28 1010 65 10000 4.1 350 20:20 03.05.2020
3806 Clear 28 1010 65 10000 4.1 350 19:49 03.05.2020
3807 Clear 28 1010 65 10000 4.1 350 19:30 03.05.2020
3808 Clear 28 1010 69 10000 3.6 10 18:56 03.05.2020
3809 Clear 28 1010 69 10000 3.6 10 18:56 03.05.2020
3810 Clear 28 1009 69 10000 3.6 10 18:38 03.05.2020
3811 Clear 28 1009 69 10000 3.6 10 18:38 03.05.2020
3812 Clear 28 1009 69 10000 3.6 10 18:38 03.05.2020
3813 Clear 28 1009 69 10000 3.6 10 18:38 03.05.2020
3814 Clear 28 1009 69 10000 3.6 10 18:38 03.05.2020
3815 Clear 28 1009 69 10000 3.6 10 18:19 03.05.2020
3816 Clear 28 1009 69 10000 3.6 10 18:19 03.05.2020
3817 Clear 28 1009 69 10000 3.6 10 18:19 03.05.2020
3818 Clear 28 1009 69 10000 3.6 10 18:19 03.05.2020
3819 Clear 29 1009 62 10000 4.6 10 17:41 03.05.2020
3820 Clear 29 1009 62 10000 4.6 10 17:21 03.05.2020
3821 Clear 31 1008 43 10000 3.6 20 16:45 03.05.2020
3822 Clear 32 1008 43 10000 3.6 20 16:20 03.05.2020
3823 Clear 33 1008 41 10000 3.6 10 15:59 03.05.2020
3824 Clear 33 1008 41 10000 3.6 10 15:59 03.05.2020
3825 Clear 33 1008 38 10000 4.1 360 15:40 03.05.2020
3826 Clear 33 1008 38 10000 4.1 360 15:20 03.05.2020
3827 Clear 33 1008 41 10000 2.6 20 14:58 03.05.2020
3828 Clear 34 1008 46 10000 1.5 70 14:40 03.05.2020
3829 Clear 34 1008 46 10000 1.5 70 14:40 03.05.2020
3830 Clouds 34 1008 52 10000 2.1 80 14:21 03.05.2020
3831 Clouds 33 1008 52 10000 2.1 80 13:53 03.05.2020
3832 Clouds 33 1008 52 10000 2.1 80 13:53 03.05.2020
3833 Clouds 33 1008 52 10000 2.1 80 13:53 03.05.2020
3834 Clouds 33 1009 52 10000 3.1 40 13:19 03.05.2020
3835 Clouds 32 1009 49 10000 3.1 40 12:44 03.05.2020
3836 Clouds 33 1009 49 10000 3.1 40 12:18 03.05.2020
3837 Clouds 33 1009 49 10000 3.6 40 11:56 03.05.2020
3838 Clouds 33 1009 49 10000 3.1 50 11:37 03.05.2020
3839 Clouds 31 1010 55 10000 6.2 360 11:18 03.05.2020
3840 Clouds 30 1010 55 10000 6.2 360 10:46 03.05.2020
3841 Clouds 30 1010 55 10000 6.2 360 10:46 03.05.2020
3842 Clouds 30 1010 55 10000 6.2 360 10:46 03.05.2020
3843 Clouds 30 1010 55 10000 6.2 360 10:46 03.05.2020
3844 Clouds 30 1010 55 10000 6.2 360 10:46 03.05.2020
3845 Clouds 30 1010 58 10000 6.2 360 09:57 03.05.2020
3846 Clouds 30 1010 58 10000 6.7 10 09:34 03.05.2020
3847 Clouds 30 1010 58 10000 6.7 10 09:34 03.05.2020
3848 Clouds 30 1010 58 10000 6.7 10 09:34 03.05.2020
3849 Clouds 30 1010 58 10000 6.7 10 09:34 03.05.2020
3850 Clouds 30 1010 58 10000 6.7 10 09:34 03.05.2020
3851 Clouds 29 1010 58 10000 7.2 20 08:55 03.05.2020
3852 Clouds 29 1010 58 10000 7.2 20 08:55 03.05.2020
3853 Clouds 29 1010 62 10000 9.8 360 08:26 03.05.2020
3854 Clouds 29 1010 62 10000 9.8 360 08:26 03.05.2020
3855 Clouds 29 1010 62 10000 9.8 360 08:26 03.05.2020
3856 Clouds 29 1010 62 10000 9.8 360 08:26 03.05.2020
3857 Clouds 29 1010 62 10000 9.8 360 08:26 03.05.2020
3858 Clouds 32 1010 52 10000 7.2 340 07:39 03.05.2020
3859 Clouds 32 1010 52 10000 7.2 340 07:39 03.05.2020
3860 Clear 29 1008 58 10000 4.6 320 06:20 03.05.2020
3861 Clear 30 1007 55 10000 3.1 310 05:47 03.05.2020
3862 Clear 29 1005 62 10000 5.1 300 04:46 03.05.2020
3863 Clear 29 1005 62 10000 5.1 300 04:23 03.05.2020
3864 Clear 29 1004 62 10000 4.1 150 02:59 03.05.2020
3865 Clear 29 1004 62 10000 4.1 150 02:59 03.05.2020
3866 Clear 29 1004 62 10000 4.1 150 02:58 03.05.2020
3867 Clouds 29 1004 62 10000 3.6 160 02:24 03.05.2020
3868 Clouds 29 1004 66 10000 5.1 140 01:44 03.05.2020
3869 Clouds 29 1004 66 10000 5.1 140 01:24 03.05.2020
3870 Clouds 29 1005 66 10000 2.1 170 00:42 03.05.2020
3871 Clouds 29 1005 66 10000 2.1 170 00:21 03.05.2020
3872 Clouds 30 1005 66 10000 3.6 120 23:59 02.05.2020
3873 Clouds 29 1006 74 10000 4.6 150 23:41 02.05.2020
3874 Clouds 29 1006 74 10000 4.6 150 23:21 02.05.2020
3875 Clouds 29 1006 78 10000 3.1 130 22:43 02.05.2020
3876 Clouds 28 1006 78 10000 3.1 130 22:23 02.05.2020
3877 Clouds 28 1007 83 10000 3.1 130 21:56 02.05.2020
3878 Clear 28 1007 83 10000 3.6 100 21:38 02.05.2020
3879 Clear 28 1007 83 10000 3.6 100 21:18 02.05.2020
3880 Clear 28 1007 83 10000 3.1 80 21:18 02.05.2020
3881 Clear 28 1007 83 10000 3.1 80 20:56 02.05.2020
3882 Clear 28 1007 83 10000 3.1 80 20:37 02.05.2020
3883 Clear 29 1006 78 10000 3.6 40 20:19 02.05.2020
3884 Clear 29 1006 78 10000 3.6 40 19:56 02.05.2020
3885 Clear 29 1006 66 10000 3.6 40 19:38 02.05.2020
3886 Clouds 30 1005 58 10000 1.5 70 19:18 02.05.2020
3887 Clouds 30 1005 58 10000 1.5 70 18:41 02.05.2020
3888 Clouds 30 1005 58 10000 1.5 70 18:22 02.05.2020
3889 Clouds 30 1005 58 10000 2.6 70 17:58 02.05.2020
3890 Clouds 30 1005 66 10000 3.1 80 17:39 02.05.2020
3891 Clouds 30 1005 66 10000 3.1 80 17:20 02.05.2020
3892 Clear 30 1005 58 10000 3.6 60 16:58 02.05.2020
3893 Clear 30 1005 62 10000 4.1 60 16:39 02.05.2020
3894 Clear 30 1005 62 10000 4.1 60 16:21 02.05.2020
3895 Clear 30 1005 58 10000 5.1 50 15:42 02.05.2020
3896 Clear 30 1005 58 10000 5.1 50 15:20 02.05.2020
3897 Clear 31 1006 55 10000 4.6 60 14:57 02.05.2020
3898 Clear 31 1006 52 10000 4.1 60 14:39 02.05.2020
3899 Clouds 31 1006 58 10000 5.1 80 14:20 02.05.2020
3900 Clouds 31 1006 58 10000 5.1 80 14:20 02.05.2020
3901 Clouds 32 1007 58 10000 4.6 90 13:40 02.05.2020
3902 Clouds 31 1007 58 10000 4.6 90 13:22 02.05.2020
3903 Clouds 31 1007 62 10000 4.6 90 12:44 02.05.2020
3904 Clouds 31 1007 62 10000 4.6 90 12:25 02.05.2020
3905 Clouds 31 1008 58 10000 5.1 70 11:59 02.05.2020
3906 Clouds 32 1008 58 10000 4.1 50 11:41 02.05.2020
3907 Clouds 32 1008 58 10000 4.1 50 11:22 02.05.2020
3908 Clouds 32 1008 58 10000 4.1 50 11:22 02.05.2020
3909 Clouds 31 1008 55 10000 4.1 50 10:58 02.05.2020
3910 Clouds 31 1008 55 10000 4.6 50 10:38 02.05.2020
3911 Clear 32 1008 55 10000 4.6 50 10:20 02.05.2020
3912 Clear 31 1008 62 10000 3.1 20 09:57 02.05.2020
3913 Clear 31 1008 66 10000 2.1 360 09:38 02.05.2020
3914 Clear 31 1008 66 10000 2.1 360 09:20 02.05.2020
3915 Clear 31 1009 70 10000 2.6 10 08:46 02.05.2020
3916 Clouds 29 1009 70 10000 2.6 10 08:27 02.05.2020
3917 Clouds 29 1009 74 10000 2.6 20 07:48 02.05.2020
3918 Clouds 28 1008 69 10000 3.1 350 07:29 02.05.2020
3919 Clouds 28 1008 74 10000 3.6 340 06:51 02.05.2020
3920 Clouds 27 1007 83 10000 4.6 340 05:30 02.05.2020
3921 Clouds 26 1007 83 10000 3.6 340 04:59 02.05.2020
3922 Clouds 26 1007 83 10000 1.5 340 04:25 02.05.2020
3923 Clouds 26 1006 83 10000 1.5 320 02:44 02.05.2020
3924 Clouds 26 1006 83 10000 1.5 320 02:26 02.05.2020
3925 Clouds 26 1006 83 10000 0.5 0 01:50 02.05.2020
3926 Clouds 27 1007 78 10000 1.5 60 00:49 02.05.2020
3927 Clouds 27 1007 78 10000 1.5 60 00:30 02.05.2020
3928 Clouds 27 1007 78 10000 2.1 320 23:59 01.05.2020
3929 Clouds 26 1007 88 10000 2.6 320 23:39 01.05.2020
3930 Clear 26 1007 88 10000 2.6 320 23:20 01.05.2020
3931 Clear 26 1007 83 10000 2.1 360 22:55 01.05.2020
3932 Clear 26 1007 83 10000 2.6 10 22:37 01.05.2020
3933 Clear 26 1007 83 10000 2.6 10 22:18 01.05.2020
3934 Clear 26 1007 83 10000 2.6 10 22:18 01.05.2020
3935 Clear 27 1007 78 10000 3.1 10 21:55 01.05.2020
3936 Clear 27 1008 78 10000 3.1 30 21:37 01.05.2020
3937 Clear 27 1008 74 10000 4.1 20 21:18 01.05.2020
3938 Clear 27 1008 74 10000 4.1 20 20:55 01.05.2020
3939 Clear 27 1007 74 10000 4.6 20 20:37 01.05.2020
3940 Clear 27 1007 74 10000 4.6 20 20:37 01.05.2020
3941 Clear 27 1007 78 10000 4.6 10 20:18 01.05.2020
3942 Clear 27 1007 83 10000 5.1 360 19:41 01.05.2020
3943 Clear 27 1007 83 10000 5.1 360 19:22 01.05.2020
3944 Clear 28 1006 74 10000 5.7 10 18:57 01.05.2020
3945 Clear 28 1006 78 10000 4.6 10 18:39 01.05.2020
3946 Clear 28 1006 78 10000 4.6 10 18:19 01.05.2020
3947 Clear 28 1006 78 10000 5.7 10 17:56 01.05.2020
3948 Clear 28 1006 78 10000 5.1 10 17:38 01.05.2020
3949 Clear 28 1006 78 10000 5.1 10 17:20 01.05.2020
3950 Clouds 29 1005 74 10000 5.7 10 16:55 01.05.2020
3951 Clouds 29 1006 70 10000 5.7 360 16:37 01.05.2020
3952 Clear 30 1006 66 10000 4.6 10 16:18 01.05.2020
3953 Clear 30 1006 66 10000 5.1 10 15:42 01.05.2020
3954 Clear 31 1006 62 10000 5.7 10 15:24 01.05.2020
3955 Clear 31 1006 62 10000 5.7 10 14:58 01.05.2020
3956 Clear 31 1006 62 10000 5.7 10 14:39 01.05.2020
3957 Clear 32 1006 62 10000 5.7 10 14:21 01.05.2020
3958 Clear 31 1007 62 10000 5.1 360 13:41 01.05.2020
3959 Clear 31 1007 62 10000 5.1 360 13:22 01.05.2020
3960 Clear 32 1006 62 10000 6.2 10 12:58 01.05.2020
3961 Clear 32 1007 58 10000 6.2 10 12:39 01.05.2020
3962 Clear 32 1007 58 10000 5.1 10 12:19 01.05.2020
3963 Clear 32 1007 58 10000 5.1 10 11:57 01.05.2020
3964 Clear 32 1008 58 10000 5.1 360 11:39 01.05.2020
3965 Clear 31 1008 58 10000 5.1 360 11:19 01.05.2020
3966 Clear 31 1008 62 10000 5.7 360 10:40 01.05.2020
3967 Clear 31 1008 66 10000 6.7 360 10:20 01.05.2020
3968 Clear 31 1008 66 10000 6.7 360 09:54 01.05.2020
3969 Clear 31 1009 66 10000 6.7 360 09:36 01.05.2020
3970 Clear 30 1008 74 10000 7.7 350 09:18 01.05.2020
3971 Clear 30 1009 70 10000 6.7 350 08:42 01.05.2020
3972 Clear 30 1009 70 10000 6.7 350 08:24 01.05.2020
3973 Clear 30 1008 74 10000 6.7 340 07:46 01.05.2020
3974 Clear 29 1008 74 10000 6.7 340 07:23 01.05.2020
3975 Clear 29 1008 78 9000 7.2 350 06:56 01.05.2020
3976 Clear 28 1008 74 9000 4.6 360 05:38 01.05.2020
3977 Clear 28 1007 74 9000 4.6 340 05:19 01.05.2020
3978 Clear 28 1006 69 10000 2.1 320 03:34 01.05.2020
3979 Clear 28 1005 83 10000 2.1 320 02:48 01.05.2020
3980 Clear 28 1005 83 10000 2.1 320 02:29 01.05.2020
3981 Clear 27 1005 83 10000 2.1 320 01:36 01.05.2020
3982 Rain 28 1005 83 10000 3.1 340 01:18 01.05.2020
3983 Rain 28 1005 83 10000 3.1 340 00:38 01.05.2020
3984 Rain 28 1005 83 10000 3.1 340 00:38 01.05.2020
3985 Clear 28 1005 83 10000 3.1 340 00:20 01.05.2020
3986 Clouds 28 1005 78 10000 3.1 10 23:56 30.04.2020
3987 Clouds 28 1005 78 10000 3.1 10 23:38 30.04.2020
3988 Clouds 29 1005 78 10000 3.1 10 23:19 30.04.2020
3989 Clouds 30 1005 70 10000 3.1 20 22:42 30.04.2020
3990 Clouds 30 1005 70 10000 3.1 20 22:21 30.04.2020
3991 Clear 30 1005 70 10000 3.1 10 21:58 30.04.2020
3992 Clear 31 1005 58 10000 1 0 21:39 30.04.2020
3993 Clear 31 1005 58 10000 1 0 21:20 30.04.2020
3994 Clear 31 1005 62 10000 1 0 20:55 30.04.2020
3995 Clear 31 1005 62 10000 1.5 130 20:37 30.04.2020
3996 Rain 31 1005 62 10000 1.5 130 20:18 30.04.2020
3997 Rain 31 1005 62 10000 1.5 130 20:18 30.04.2020
3998 Clouds 31 1004 62 10000 5.1 130 19:44 30.04.2020
3999 Clouds 31 1004 62 10000 5.1 130 19:25 30.04.2020
4000 Clouds 31 1004 62 10000 7.7 140 18:56 30.04.2020
4001 Clouds 30 1004 58 10000 6.7 150 18:38 30.04.2020
4002 Clouds 32 1004 52 10000 4.1 120 18:20 30.04.2020
4003 Clouds 32 1004 52 10000 4.1 120 17:57 30.04.2020
4004 Clouds 33 1002 55 10000 3.6 140 17:39 30.04.2020
4005 Clouds 33 1002 55 10000 3.6 140 17:20 30.04.2020
4006 Thunderstorm 34 1002 49 10000 4.1 170 16:54 30.04.2020
4007 Thunderstorm 34 1003 55 7000 6.2 120 16:36 30.04.2020
4008 Thunderstorm 36 1001 32 7000 4.1 210 16:18 30.04.2020
4009 Thunderstorm 36 1001 41 7000 10.8 150 15:44 30.04.2020
4010 Thunderstorm 35 1001 41 7000 10.8 150 15:23 30.04.2020
4011 Thunderstorm 35 1002 49 7000 3.6 90 14:43 30.04.2020
4012 Thunderstorm 35 1002 49 7000 3.6 90 14:22 30.04.2020
4013 Thunderstorm 35 1002 55 7000 6.2 130 13:59 30.04.2020
4014 Clouds 36 1001 39 8000 7.2 100 13:41 30.04.2020
4015 Clouds 36 1001 39 8000 7.2 100 13:23 30.04.2020
4016 Clouds 36 1002 37 6000 6.7 100 12:59 30.04.2020
4017 Clear 37 1003 33 6000 5.7 100 12:41 30.04.2020
4018 Clear 38 1003 33 6000 5.7 100 12:19 30.04.2020
4019 Clear 38 1004 35 9000 3.6 100 11:38 30.04.2020
4020 Clear 38 1004 35 9000 3.6 100 11:19 30.04.2020
4021 Clear 38 1005 33 10000 4.1 90 10:58 30.04.2020
4022 Clear 38 1005 31 10000 5.7 160 10:39 30.04.2020
4023 Clear 37 1005 25 10000 7.7 190 10:21 30.04.2020
4024 Clear 37 1005 25 10000 7.7 190 09:56 30.04.2020
4025 Clear 38 1005 25 10000 8.7 180 09:37 30.04.2020
4026 Clouds 37 1005 25 10000 8.7 180 09:18 30.04.2020
4027 Clouds 36 1005 30 10000 8.2 160 08:44 30.04.2020
4028 Clouds 36 1005 30 10000 8.2 160 08:24 30.04.2020
4029 Clouds 33 1005 43 10000 6.7 150 07:44 30.04.2020
4030 Clouds 33 1005 43 10000 6.7 150 07:44 30.04.2020
4031 Clouds 33 1005 43 10000 6.7 150 07:25 30.04.2020
4032 Clouds 31 1005 55 10000 4.6 130 06:52 30.04.2020
4033 Clouds 29 1004 66 10000 4.6 130 06:19 30.04.2020
4034 Clouds 30 1004 66 10000 4.1 130 05:45 30.04.2020
4035 Clouds 30 1004 54 10000 4.1 130 04:39 30.04.2020
4036 Clear 30 1004 48 10000 5.1 140 03:58 30.04.2020
4037 Clouds 30 1003 51 10000 7.2 140 02:47 30.04.2020
4038 Clouds 30 1003 51 10000 7.2 140 02:25 30.04.2020
4039 Clouds 30 1004 66 10000 5.7 130 01:36 30.04.2020
4040 Clouds 29 1005 69 10000 5.1 120 00:42 30.04.2020
4041 Clouds 30 1005 69 10000 5.1 120 00:20 30.04.2020
4042 Clouds 30 1005 69 10000 5.1 120 00:20 30.04.2020
4043 Clouds 29 1006 69 10000 6.2 130 23:57 29.04.2020
4044 Thunderstorm 29 1006 74 10000 5.7 140 23:37 29.04.2020
4045 Clouds 29 1006 66 10000 5.1 110 23:19 29.04.2020
4046 Rain 30 1007 66 10000 3.1 0 22:41 29.04.2020
4047 Clouds 29 1006 62 10000 4.6 140 22:22 29.04.2020
4048 Clouds 29 1006 62 10000 4.6 140 21:59 29.04.2020
4049 Clouds 30 1005 48 10000 6.7 110 21:37 29.04.2020
4050 Clear 29 1004 51 10000 5.7 90 21:19 29.04.2020
4051 Clear 29 1004 51 10000 5.7 90 20:56 29.04.2020
4052 Clouds 29 1004 65 10000 7.7 90 20:37 29.04.2020
4053 Clouds 29 1004 65 10000 7.7 90 20:18 29.04.2020
4054 Thunderstorm 29 1007 74 10000 2.6 30 19:43 29.04.2020
4055 Thunderstorm 28 1007 74 10000 2.6 30 19:22 29.04.2020
4056 Clear 28 1005 74 10000 5.1 30 18:57 29.04.2020
4057 Clear 28 1005 74 10000 5.1 30 18:38 29.04.2020
4058 Clear 30 1005 58 10000 3.6 60 18:18 29.04.2020
4059 Clear 30 1005 58 10000 4.1 90 17:42 29.04.2020
4060 Clear 31 1005 55 10000 7.2 130 17:21 29.04.2020
4061 Clear 31 1005 55 10000 7.2 130 16:55 29.04.2020
4062 Clouds 32 1005 49 10000 7.2 100 16:36 29.04.2020
4063 Rain 33 1007 38 10000 2.1 120 16:18 29.04.2020
4064 Rain 33 1007 38 10000 2.1 120 15:54 29.04.2020
4065 Clouds 34 1006 32 10000 3.6 90 15:36 29.04.2020
4066 Clouds 36 1005 30 10000 3.6 110 15:18 29.04.2020
4067 Clear 37 1005 30 10000 3.6 110 14:41 29.04.2020
4068 Clouds 37 1005 30 10000 3.6 110 14:23 29.04.2020
4069 Clouds 37 1005 32 10000 5.1 120 13:56 29.04.2020
4070 Clouds 37 1006 29 10000 5.7 120 13:37 29.04.2020
4071 Clouds 37 1006 29 10000 5.7 120 13:18 29.04.2020
4072 Clouds 38 1007 25 10000 7.2 130 12:41 29.04.2020
4073 Clouds 37 1007 25 10000 7.2 130 12:19 29.04.2020
4074 Clouds 37 1007 25 10000 7.2 130 11:58 29.04.2020
4075 Clouds 37 1007 25 10000 7.2 130 11:58 29.04.2020
4076 Clouds 38 1008 24 10000 9.8 150 11:36 29.04.2020
4077 Clouds 35 1008 30 10000 9.3 150 11:18 29.04.2020
4078 Clouds 34 1008 44 10000 6.7 130 10:38 29.04.2020
4079 Clouds 33 1009 36 10000 6.7 160 10:20 29.04.2020
4080 Clouds 33 1009 36 10000 6.7 160 09:58 29.04.2020
4081 Clouds 32 1009 33 10000 7.7 150 09:40 29.04.2020
4082 Clouds 32 1010 33 10000 6.7 160 09:18 29.04.2020
4083 Clouds 31 1010 40 10000 1 0 08:43 29.04.2020
4084 Clouds 31 1010 40 10000 1 0 08:24 29.04.2020
4085 Clouds 30 1009 45 10000 4.6 140 07:50 29.04.2020
4086 Clouds 30 1009 45 10000 4.6 140 07:27 29.04.2020
4087 Clouds 29 1009 48 10000 4.1 130 06:52 29.04.2020
4088 Clouds 28 1009 58 10000 4.1 140 06:31 29.04.2020
4089 Clouds 27 1008 61 10000 2.1 80 05:38 29.04.2020
4090 Clouds 27 1008 61 10000 2.1 80 05:18 29.04.2020
4091 Clear 26 1008 69 10000 1.5 0 04:19 29.04.2020
4092 Clear 27 1007 47 10000 2.6 30 02:56 29.04.2020
4093 Clear 26 1009 54 10000 5.7 300 01:47 29.04.2020
4094 Clear 26 1009 54 10000 5.7 300 01:27 29.04.2020
4095 Clear 26 1008 65 10000 1.5 340 00:51 29.04.2020
4096 Clear 26 1008 65 10000 2.1 360 00:21 29.04.2020
4097 Clear 26 1009 65 10000 1.5 350 23:56 28.04.2020
4098 Clear 26 1009 65 10000 1.5 170 23:38 28.04.2020
4099 Clear 26 1009 65 10000 1.5 170 23:20 28.04.2020
4100 Clear 27 1009 69 10000 1.5 140 22:38 28.04.2020
4101 Clear 27 1009 69 10000 1.5 140 22:20 28.04.2020
4102 Clear 27 1010 69 10000 2.6 130 21:58 28.04.2020
4103 Clear 28 1010 61 10000 2.1 110 21:40 28.04.2020
4104 Clear 28 1010 61 10000 2.1 110 21:21 28.04.2020
4105 Clear 28 1010 57 10000 1.5 40 20:56 28.04.2020
4106 Clear 28 1009 54 10000 3.1 20 20:38 28.04.2020
4107 Clear 28 1009 54 10000 3.1 20 20:20 28.04.2020
4108 Clear 29 1009 54 10000 2.1 10 19:56 28.04.2020
4109 Clear 29 1009 51 10000 2.6 360 19:37 28.04.2020
4110 Clear 29 1009 51 10000 4.1 20 19:19 28.04.2020
4111 -273 0 0 0 0 0 18:41 28.04.2020
4112 Clear 29 1009 45 10000 4.6 10 18:20 28.04.2020
4113 Clear 30 1009 39 10000 4.6 10 17:59 28.04.2020
4114 Clear 30 1009 35 10000 5.7 360 17:37 28.04.2020
4115 Clear 30 1009 35 10000 5.7 360 17:19 28.04.2020
4116 Clear 31 1008 29 10000 6.2 360 16:56 28.04.2020
4117 Clear 31 1008 29 10000 6.2 360 16:37 28.04.2020
4118 Clear 31 1008 29 10000 6.2 360 16:19 28.04.2020
4119 Clear 33 1008 25 10000 6.2 350 15:54 28.04.2020
4120 Clear 33 1008 25 10000 7.7 350 15:36 28.04.2020
4121 Clear 33 1008 25 10000 7.7 350 15:18 28.04.2020
4122 Clear 34 1008 19 10000 9.3 350 14:43 28.04.2020
4123 Clear 34 1008 19 10000 9.3 350 14:22 28.04.2020
4124 Clear 34 1008 19 10000 9.3 350 14:22 28.04.2020
4125 Clear 33 1009 18 10000 8.7 350 13:59 28.04.2020
4126 Clear 33 1009 19 10000 8.7 350 13:40 28.04.2020
4127 Clear 33 1009 19 10000 8.7 350 13:21 28.04.2020
4128 Clear 33 1009 17 10000 8.7 350 12:58 28.04.2020
4129 Clear 33 1010 18 10000 8.2 350 12:38 28.04.2020
4130 Clear 33 1010 18 10000 8.2 350 12:20 28.04.2020
4131 Clear 32 1011 24 10000 5.7 360 11:42 28.04.2020
4132 Clear 32 1011 24 10000 5.7 360 11:21 28.04.2020
4133 Clear 32 1011 24 10000 4.6 30 10:57 28.04.2020
4134 Clear 32 1012 24 10000 4.6 30 10:38 28.04.2020
4135 Clear 32 1012 24 10000 4.6 30 10:18 28.04.2020
4136 Clear 31 1012 33 10000 4.1 40 09:43 28.04.2020
4137 Clear 30 1012 33 10000 4.1 40 09:24 28.04.2020
4138 Clear 30 1012 39 10000 4.6 40 08:54 28.04.2020
4139 Clear 30 1011 42 10000 5.1 20 08:36 28.04.2020
4140 Clouds 28 1011 48 10000 6.2 10 08:18 28.04.2020
4141 Thunderstorm 27 1010 47 10000 6.7 20 07:41 28.04.2020
4142 Thunderstorm 27 1010 47 10000 6.7 20 07:18 28.04.2020
4143 Clouds 27 1010 45 10000 5.1 10 06:39 28.04.2020
4144 Clouds 27 1011 44 10000 3.1 10 05:48 28.04.2020
4145 Clouds 27 1010 44 10000 6.2 350 05:30 28.04.2020
4146 Clear 26 1009 44 10000 5.7 350 04:33 28.04.2020
4147 Clear 26 1009 44 10000 5.7 350 04:33 28.04.2020
4148 Clear 26 1009 28 10000 7.7 330 02:38 28.04.2020
4149 Clear 26 1009 28 10000 7.2 330 01:37 28.04.2020
4150 Clear 26 1009 28 10000 7.2 330 01:18 28.04.2020
4151 Clear 26 1009 26 10000 5.7 320 00:31 28.04.2020
4152 Clear 27 1009 23 10000 5.7 320 23:56 27.04.2020
4153 Clear 27 1010 23 10000 5.1 320 23:38 27.04.2020
4154 Clear 27 1010 23 10000 5.1 320 23:19 27.04.2020
4155 Clear 26 1010 34 10000 3.6 320 22:42 27.04.2020
4156 Clear 27 1010 34 10000 3.6 320 22:23 27.04.2020
4157 Clear 27 1010 36 10000 5.1 320 21:57 27.04.2020
4158 Clear 27 1010 36 10000 5.7 330 21:38 27.04.2020
4159 Clear 27 1010 36 10000 5.7 330 21:38 27.04.2020
4160 Clear 27 1010 36 10000 5.7 330 21:19 27.04.2020
4161 Clear 27 1010 37 10000 5.7 330 20:56 27.04.2020
4162 Clear 28 1010 37 10000 5.7 330 20:38 27.04.2020
4163 Clear 28 1010 37 10000 5.7 330 20:19 27.04.2020
4164 Clear 28 1009 42 10000 6.7 340 19:40 27.04.2020
4165 Clear 28 1009 42 10000 7.7 330 19:22 27.04.2020
4166 Clear 28 1009 42 10000 7.7 330 18:59 27.04.2020
4167 Clear 28 1008 42 10000 8.2 340 18:40 27.04.2020
4168 Clear 29 1008 45 10000 8.2 340 18:20 27.04.2020
4169 Clear 29 1008 45 10000 8.2 340 17:58 27.04.2020
4170 Clear 30 1008 40 10000 9.3 340 17:40 27.04.2020
4171 Clear 30 1008 40 10000 9.3 340 17:19 27.04.2020
4172 Clear 31 1007 40 10000 9.8 340 16:40 27.04.2020
4173 Clear 31 1007 40 10000 9.8 340 16:40 27.04.2020
4174 Clear 31 1007 40 10000 9.8 340 16:22 27.04.2020
4175 Clear 32 1007 38 10000 9.3 350 15:57 27.04.2020
4176 Clear 33 1007 38 10000 8.7 350 15:38 27.04.2020
4177 Clear 33 1007 38 10000 8.7 350 15:19 27.04.2020
4178 Clear 33 1007 36 10000 9.3 350 14:58 27.04.2020
4179 Clear 33 1007 33 10000 9.8 350 14:39 27.04.2020
4180 Clear 33 1007 38 10000 10.3 350 14:18 27.04.2020
4181 Clear 33 1007 38 10000 10.3 350 13:55 27.04.2020
4182 Clear 33 1007 36 10000 10.8 340 13:36 27.04.2020
4183 Clear 34 1007 36 10000 9.8 340 13:18 27.04.2020
4184 Clear 34 1008 36 10000 10.3 340 12:42 27.04.2020
4185 Clear 34 1008 36 10000 10.3 340 12:20 27.04.2020
4186 Clear 33 1008 38 10000 9.3 340 11:42 27.04.2020
4187 Clear 33 1008 38 10000 9.3 340 11:22 27.04.2020
4188 Clear 32 1008 46 10000 8.7 340 10:58 27.04.2020
4189 Clear 32 1009 46 10000 8.2 340 10:39 27.04.2020
4190 Clear 32 1009 46 10000 8.2 340 10:21 27.04.2020
4191 Clear 32 1009 46 10000 8.7 350 09:54 27.04.2020
4192 Clouds 32 1009 40 10000 7.7 340 09:36 27.04.2020
4193 Clouds 30 1009 45 10000 7.7 340 09:18 27.04.2020
4194 Clouds 30 1009 51 9000 6.2 340 08:43 27.04.2020
4195 Clouds 30 1009 51 9000 6.2 340 08:25 27.04.2020
4196 Clouds 29 1009 54 7000 6.2 330 07:44 27.04.2020
4197 Clouds 29 1009 54 7000 6.2 330 07:22 27.04.2020
4198 Clouds 29 1009 58 6000 5.1 340 06:57 27.04.2020
4199 Clouds 29 1009 54 7000 3.6 330 06:27 27.04.2020
4200 Clouds 29 1007 58 6000 4.1 360 05:50 27.04.2020
4201 Clouds 29 1007 51 6000 4.6 330 04:51 27.04.2020
4202 Clouds 29 1007 51 6000 4.6 330 04:20 27.04.2020
4203 Clouds 29 1006 42 10000 6.7 330 03:43 27.04.2020
4204 Clouds 32 1004 29 10000 3.1 310 01:45 27.04.2020
4205 Clouds 32 1004 33 10000 3.6 290 01:18 27.04.2020
4206 Clouds 32 1004 33 10000 5.7 290 00:20 27.04.2020
4207 Clouds 32 1004 30 10000 4.6 280 23:58 26.04.2020
4208 Clouds 33 1004 24 10000 4.1 280 23:40 26.04.2020
4209 Clouds 33 1004 24 10000 4.1 280 23:21 26.04.2020
4210 Clouds 33 1004 24 10000 5.1 280 22:58 26.04.2020
4211 Clouds 33 1004 24 10000 5.1 270 22:39 26.04.2020
4212 Clouds 32 1004 30 10000 2.1 210 22:21 26.04.2020
4213 Clouds 33 1004 30 10000 2.1 210 21:58 26.04.2020
4214 Clouds 32 1004 58 10000 1.5 160 21:38 26.04.2020
4215 Clouds 32 1004 58 10000 1 0 21:18 26.04.2020
4216 Clouds 32 1004 58 10000 1 0 21:18 26.04.2020
4217 Clouds 32 1004 58 10000 1 0 20:54 26.04.2020
4218 Thunderstorm 32 1004 58 10000 2.6 130 20:36 26.04.2020
4219 Rain 33 1004 52 10000 2.1 110 20:18 26.04.2020
4220 Rain 33 1004 52 10000 2.1 110 19:56 26.04.2020
4221 Rain 33 1004 52 10000 2.1 110 19:56 26.04.2020
4222 Rain 33 1004 41 10000 2.1 120 19:36 26.04.2020
4223 Clouds 34 1004 38 10000 3.6 140 19:18 26.04.2020
4224 Clouds 34 1004 38 10000 3.6 140 19:18 26.04.2020
4225 Clouds 34 1003 32 10000 4.6 140 18:41 26.04.2020
4226 Clouds 34 1003 32 10000 4.6 140 18:23 26.04.2020
4227 Clouds 36 1003 25 10000 5.1 150 17:42 26.04.2020
4228 Clouds 36 1003 25 10000 5.1 150 17:22 26.04.2020
4229 Clouds 34 1004 41 10000 4.6 140 16:56 26.04.2020
4230 Clouds 34 1003 34 10000 3.6 90 16:38 26.04.2020
4231 Clouds 35 1003 36 10000 5.1 120 16:19 26.04.2020
4232 Clouds 35 1003 36 10000 5.1 120 15:56 26.04.2020
4233 Clouds 36 1003 30 10000 4.1 110 15:37 26.04.2020
4234 Clouds 36 1003 30 10000 4.1 110 15:37 26.04.2020
4235 Clouds 36 1003 30 10000 4.1 110 15:18 26.04.2020
4236 Clouds 36 1003 36 10000 7.7 120 14:41 26.04.2020
4237 Clouds 36 1003 36 10000 7.7 120 14:41 26.04.2020
4238 Clouds 37 1004 36 10000 7.2 120 14:19 26.04.2020
4239 Clouds 37 1004 36 10000 7.2 120 13:58 26.04.2020
4240 Clouds 37 1004 30 10000 7.7 130 13:40 26.04.2020
4241 Clouds 37 1004 30 10000 7.7 130 13:21 26.04.2020
4242 Clouds 37 1005 26 10000 6.2 140 12:55 26.04.2020
4243 Clouds 37 1006 25 10000 6.7 140 12:37 26.04.2020
4244 Clear 38 1006 25 9000 7.7 150 12:18 26.04.2020
4245 Clear 38 1006 25 9000 7.7 150 11:54 26.04.2020
4246 Clear 38 1006 27 9000 7.7 160 11:36 26.04.2020
4247 Clear 37 1006 28 10000 8.7 160 11:18 26.04.2020
4248 Clear 37 1007 28 10000 7.7 150 10:42 26.04.2020
4249 Clear 37 1007 28 10000 7.7 150 10:24 26.04.2020
4250 Clear 36 1006 36 10000 7.7 130 09:58 26.04.2020
4251 Clouds 36 1006 43 10000 7.2 130 09:38 26.04.2020
4252 Clouds 36 1006 43 10000 7.2 130 09:19 26.04.2020
4253 Clear 35 1006 41 9000 7.2 130 08:41 26.04.2020
4254 Clear 35 1006 41 9000 7.2 130 08:22 26.04.2020
4255 Clear 33 1006 43 9000 4.1 130 07:49 26.04.2020
4256 Clear 33 1006 43 9000 4.1 130 07:24 26.04.2020
4257 Clear 32 1006 43 9000 3.1 130 06:50 26.04.2020
4258 Clear 31 1006 43 7000 3.6 110 06:25 26.04.2020
4259 Clear 31 1006 38 7000 2.1 110 05:51 26.04.2020
4260 Clear 30 1006 35 7000 1.5 110 05:32 26.04.2020
4261 Clear 30 1006 33 9000 1 230 04:41 26.04.2020
4262 Clear 30 1006 31 10000 3.1 310 03:43 26.04.2020
4263 Clear 32 1005 27 10000 4.1 310 02:38 26.04.2020
4264 Clear 32 1005 27 10000 4.1 310 02:19 26.04.2020
4265 Clear 31 1004 33 10000 4.1 170 01:37 26.04.2020
4266 Clear 30 1004 48 10000 4.6 140 00:41 26.04.2020
4267 Clear 30 1004 48 10000 4.6 140 00:21 26.04.2020
4268 Clear 31 1004 45 10000 5.1 140 23:57 25.04.2020
4269 Clear 31 1004 48 10000 4.6 150 23:37 25.04.2020
4270 Clear 31 1004 48 10000 5.1 140 23:18 25.04.2020
4271 Clear 31 1004 40 10000 6.2 130 22:42 25.04.2020
4272 Clear 31 1004 40 10000 6.2 130 22:21 25.04.2020
4273 Clear 32 1005 43 10000 6.7 130 21:58 25.04.2020
4274 Clear 31 1005 51 10000 6.2 130 21:39 25.04.2020
4275 Clear 31 1005 51 10000 6.2 130 21:19 25.04.2020
4276 Clear 32 1005 48 10000 5.1 130 20:54 25.04.2020
4277 Clear 32 1005 45 10000 5.1 120 20:36 25.04.2020
4278 Clear 32 1005 38 10000 4.6 110 20:18 25.04.2020
4279 Clear 32 1005 38 10000 4.6 110 19:40 25.04.2020
4280 Clear 33 1005 38 10000 4.6 110 19:22 25.04.2020
4281 Clear 33 1005 38 10000 4.6 110 18:56 25.04.2020
4282 Clear 33 1005 38 10000 4.1 110 18:37 25.04.2020
4283 Clear 33 1005 38 10000 4.1 110 18:18 25.04.2020
4284 Clear 34 1004 33 10000 4.1 110 17:55 25.04.2020
4285 Clear 34 1004 30 10000 4.1 100 17:37 25.04.2020
4286 Clear 34 1004 30 10000 4.1 100 17:18 25.04.2020
4287 Clear 35 1004 28 10000 4.6 100 16:46 25.04.2020
4288 Clear 36 1004 28 10000 4.6 100 16:27 25.04.2020
4289 Clear 37 1004 22 10000 5.7 100 15:58 25.04.2020
4290 Clear 37 1004 25 10000 5.7 90 15:38 25.04.2020
4291 Clouds 36 1004 25 10000 5.7 90 15:19 25.04.2020
4292 Clouds 38 1005 20 10000 4.6 100 14:57 25.04.2020
4293 Clear 38 1005 19 10000 4.6 110 14:38 25.04.2020
4294 Clear 37 1005 25 10000 5.1 120 14:18 25.04.2020
4295 Clear 37 1005 19 10000 4.6 110 13:42 25.04.2020
4296 Clear 38 1005 19 10000 4.6 110 13:19 25.04.2020
4297 Clear 39 1006 15 10000 5.7 130 12:57 25.04.2020
4298 Clear 39 1006 12 10000 6.7 130 12:38 25.04.2020
4299 Clear 39 1006 12 10000 6.7 130 12:38 25.04.2020
4300 Clear 39 1006 12 10000 6.7 130 12:19 25.04.2020
4301 Clear 38 1006 16 10000 6.7 130 11:54 25.04.2020
4302 Clear 38 1006 16 10000 6.7 130 11:54 25.04.2020
4303 Clear 38 1007 18 10000 6.2 130 11:36 25.04.2020
4304 Clear 38 1007 16 10000 6.7 140 11:18 25.04.2020
4305 Clear 38 1008 17 10000 7.7 150 10:41 25.04.2020
4306 Clear 37 1008 17 10000 7.7 150 10:22 25.04.2020
4307 Clear 36 1008 20 10000 6.2 160 09:46 25.04.2020
4308 Clear 36 1008 20 10000 6.2 160 09:27 25.04.2020
4309 Clear 33 1008 28 10000 6.2 150 08:57 25.04.2020
4310 Clear 33 1008 43 10000 4.6 140 08:38 25.04.2020
4311 Clear 31 1008 46 10000 3.6 130 08:20 25.04.2020
4312 Clear 32 1008 40 10000 4.6 150 07:46 25.04.2020
4313 Clear 32 1008 40 10000 4.6 150 07:24 25.04.2020
4314 Clear 30 1008 70 10000 3.1 150 06:44 25.04.2020
4315 Clear 28 1007 74 10000 1.5 130 05:56 25.04.2020
4316 Clear 28 1007 74 10000 2.1 140 05:30 25.04.2020
4317 Clear 26 1007 78 10000 3.6 160 04:29 25.04.2020
4318 Clear 26 1006 83 10000 1.5 130 02:44 25.04.2020
4319 Clear 26 1006 83 10000 1.5 130 02:19 25.04.2020
4320 Clear 27 1006 83 10000 1.5 130 01:50 25.04.2020
4321 Clear 27 1006 78 10000 1.5 130 01:27 25.04.2020
4322 Clear 27 1006 78 10000 2.1 110 00:50 25.04.2020
4323 Clear 27 1006 78 10000 2.1 110 00:29 25.04.2020
4324 Clear 27 1007 74 10000 1.5 60 23:43 24.04.2020
4325 Clear 27 1007 74 10000 1.5 60 23:22 24.04.2020
4326 Clear 28 1007 78 10000 1 0 22:54 24.04.2020
4327 Clear 28 1007 78 10000 1 0 22:54 24.04.2020
4328 Clear 28 1007 78 10000 1.5 40 22:36 24.04.2020
4329 Clear 28 1007 74 10000 2.6 70 22:18 24.04.2020
4330 Clear 28 1007 74 10000 2.6 70 21:54 24.04.2020
4331 Clear 28 1007 69 10000 1.5 70 21:36 24.04.2020
4332 Clear 28 1007 69 10000 3.1 80 21:18 24.04.2020
4333 Clear 29 1007 69 10000 2.6 80 20:42 24.04.2020
4334 Clear 29 1007 69 10000 2.1 80 20:19 24.04.2020
4335 Clear 29 1007 69 10000 2.1 80 19:58 24.04.2020
4336 Clear 29 1007 62 10000 2.6 80 19:38 24.04.2020
4337 Clear 29 1007 62 10000 2.6 80 19:20 24.04.2020
4338 Clear 29 1007 66 10000 2.1 80 18:41 24.04.2020
4339 Clear 29 1007 66 10000 2.1 80 18:41 24.04.2020
4340 Clear 29 1007 66 10000 2.1 80 18:23 24.04.2020
4341 Clear 30 1007 66 10000 3.1 50 17:54 24.04.2020
4342 Clear 30 1006 55 10000 2.6 100 17:36 24.04.2020
4343 Clear 32 1006 52 10000 3.6 80 17:18 24.04.2020
4344 Clear 33 1006 52 10000 3.6 80 16:55 24.04.2020
4345 Clear 33 1006 55 10000 4.1 60 16:37 24.04.2020
4346 Clouds 34 1006 49 10000 4.1 90 16:19 24.04.2020
4347 Clouds 34 1006 49 10000 3.1 110 15:40 24.04.2020
4348 Clouds 36 1006 44 10000 3.6 120 15:20 24.04.2020
4349 Clouds 36 1006 44 10000 3.6 120 14:41 24.04.2020
4350 Clouds 36 1006 44 10000 3.6 120 14:22 24.04.2020
4351 Clouds 36 1006 41 10000 4.1 120 13:58 24.04.2020
4352 Clear 37 1007 35 10000 4.1 120 13:40 24.04.2020
4353 Clear 37 1007 35 10000 4.1 120 13:20 24.04.2020
4354 Clear 36 1008 35 10000 5.1 130 12:46 24.04.2020
4355 Clear 36 1008 35 10000 5.1 130 12:26 24.04.2020
4356 Clear 36 1008 34 10000 4.6 130 11:59 24.04.2020
4357 Clear 35 1009 36 10000 5.1 120 11:40 24.04.2020
4358 Clear 35 1009 36 10000 5.1 120 11:21 24.04.2020
4359 Clear 34 1009 36 10000 4.6 130 10:56 24.04.2020
4360 Clear 34 1009 38 10000 6.2 130 10:38 24.04.2020
4361 Clear 34 1009 38 10000 6.2 130 10:19 24.04.2020
4362 Clear 34 1009 38 10000 6.2 130 10:19 24.04.2020
4363 Clear 34 1010 41 10000 4.6 130 09:47 24.04.2020
4364 Clear 34 1010 41 10000 4.6 130 09:24 24.04.2020
4365 Clear 33 1010 36 10000 3.6 150 08:59 24.04.2020
4366 Clear 33 1010 41 10000 2.6 150 08:40 24.04.2020
4367 Clear 31 1010 40 10000 4.1 140 08:19 24.04.2020
4368 Clear 30 1009 45 10000 4.1 160 07:47 24.04.2020
4369 Clear 30 1009 45 10000 4.1 160 07:27 24.04.2020
4370 Clear 29 1009 51 10000 4.1 140 06:59 24.04.2020
4371 Clear 29 1009 58 10000 3.6 150 06:40 24.04.2020
4372 Clear 27 1009 61 10000 3.6 140 05:49 24.04.2020
4373 Clear 25 1008 69 10000 3.1 160 04:46 24.04.2020
4374 Clear 25 1008 69 10000 2.6 150 03:27 24.04.2020
4375 Clear 26 1008 73 10000 3.1 150 02:44 24.04.2020
4376 Clear 26 1008 73 10000 3.1 150 02:20 24.04.2020
4377 Clear 26 1008 69 10000 2.1 130 01:37 24.04.2020
4378 Clear 26 1009 65 10000 1.5 90 00:43 24.04.2020
4379 Clear 26 1009 65 10000 2.1 90 00:18 24.04.2020
4380 Clear 26 1009 65 10000 2.1 100 23:45 23.04.2020
4381 Clear 26 1009 65 10000 2.1 100 23:26 23.04.2020
4382 Clear 27 1009 61 10000 2.1 90 22:57 23.04.2020
4383 Clear 27 1010 69 10000 2.1 90 22:38 23.04.2020
4384 Clear 27 1010 69 10000 1.5 70 22:19 23.04.2020
4385 Clear 27 1010 69 10000 1.5 70 21:56 23.04.2020
4386 Clear 27 1010 69 10000 2.1 60 21:38 23.04.2020
4387 Clear 27 1009 61 10000 2.6 70 21:20 23.04.2020
4388 Clear 27 1009 61 10000 2.6 70 20:54 23.04.2020
4389 Clear 27 1009 61 10000 2.6 70 20:54 23.04.2020
4390 Clear 27 1009 61 10000 2.6 70 20:54 23.04.2020
4391 Clear 27 1009 61 10000 2.6 80 20:36 23.04.2020
4392 Clear 27 1009 61 10000 2.6 80 20:36 23.04.2020
4393 Clear 27 1009 61 10000 3.1 60 20:18 23.04.2020
4394 Clear 27 1009 61 10000 3.1 60 19:42 23.04.2020
4395 Clear 27 1009 61 10000 3.1 60 19:42 23.04.2020
4396 Clear 27 1009 61 10000 3.6 60 19:22 23.04.2020
4397 Clear 27 1009 61 10000 3.6 60 19:00 23.04.2020
4398 -273 0 0 0 0 0 19:00 23.04.2020
4399 Clear 27 1008 61 10000 3.6 60 18:39 23.04.2020
4400 Clear 28 1008 61 10000 3.6 60 18:21 23.04.2020
4401 Clear 28 1008 61 10000 3.6 60 17:57 23.04.2020
4402 Clear 28 1008 58 10000 4.6 60 17:38 23.04.2020
4403 Clear 28 1008 54 10000 4.6 70 17:20 23.04.2020
4404 Clear 29 1008 58 10000 4.6 60 16:44 23.04.2020
4405 Clear 29 1008 58 10000 4.6 60 16:44 23.04.2020
4406 Clear 29 1008 58 10000 4.6 60 16:21 23.04.2020
4407 Clear 30 1007 54 10000 5.1 70 15:59 23.04.2020
4408 Clear 30 1007 54 10000 5.1 70 15:40 23.04.2020
4409 Clear 30 1007 54 10000 5.1 70 15:21 23.04.2020
4410 Clear 30 1008 51 10000 6.2 70 14:41 23.04.2020
4411 Clear 30 1008 51 10000 6.2 70 14:22 23.04.2020
4412 Clear 31 1008 51 10000 6.2 70 13:58 23.04.2020
4413 Clear 31 1008 48 10000 5.1 50 13:40 23.04.2020
4414 Clear 31 1008 48 10000 5.1 50 13:22 23.04.2020
4415 Clear 31 1009 51 10000 5.1 60 12:57 23.04.2020
4416 Clear 30 1009 54 10000 5.7 60 12:38 23.04.2020
4417 Clear 30 1009 54 10000 5.7 60 12:38 23.04.2020
4418 Clear 30 1010 58 10000 5.1 60 12:20 23.04.2020
4419 Clear 30 1010 62 10000 4.6 70 11:46 23.04.2020
4420 Clear 30 1010 62 10000 4.6 70 11:27 23.04.2020
4421 Clear 30 1011 58 10000 4.6 80 10:58 23.04.2020
4422 Clear 30 1011 66 10000 4.6 90 10:39 23.04.2020
4423 Clear 30 1011 66 10000 4.1 110 10:20 23.04.2020
4424 Clear 30 1011 66 10000 3.6 90 09:40 23.04.2020
4425 Clear 30 1011 66 10000 3.6 90 09:18 23.04.2020
4426 Clear 29 1011 62 10000 4.1 120 08:48 23.04.2020
4427 Clear 29 1011 62 10000 4.1 120 08:29 23.04.2020
4428 Clear 28 1011 58 10000 4.6 130 07:56 23.04.2020
4429 Clear 28 1011 58 10000 4.6 130 07:38 23.04.2020
4430 Clear 27 1011 61 10000 3.6 120 07:18 23.04.2020
4431 Clear 27 1011 61 10000 4.1 130 06:43 23.04.2020
4432 Clear 25 1010 78 10000 2.1 140 05:37 23.04.2020
4433 Clear 25 1010 78 10000 1.5 120 05:18 23.04.2020
4434 Clear 25 1009 69 10000 1.5 100 02:48 23.04.2020
4435 Clear 25 1009 69 10000 1.5 100 02:23 23.04.2020
4436 Clear 25 1010 69 10000 1 100 01:38 23.04.2020
4437 Clear 25 1010 73 10000 2.1 130 00:51 23.04.2020
4438 Clear 25 1010 69 10000 1.5 110 00:26 23.04.2020
4439 Clear 26 1010 69 10000 1.5 110 23:55 22.04.2020
4440 Clear 26 1010 73 10000 1.5 110 23:27 22.04.2020
4441 Clear 26 1011 73 10000 2.1 130 22:59 22.04.2020
4442 Clear 26 1011 69 10000 2.1 120 22:39 22.04.2020
4443 Clear 26 1011 69 10000 2.1 120 22:20 22.04.2020
4444 Clear 26 1011 65 10000 1.5 90 21:58 22.04.2020
4445 Clear 26 1011 65 10000 1.5 90 21:58 22.04.2020
4446 Clear 26 1011 65 10000 2.1 100 21:40 22.04.2020
4447 Clear 26 1011 65 10000 2.1 100 21:21 22.04.2020
4448 Clear 26 1011 65 10000 2.1 80 20:56 22.04.2020
4449 Clear 26 1011 65 10000 2.1 90 20:37 22.04.2020
4450 Clear 27 1011 65 10000 2.6 90 20:18 22.04.2020
4451 Clear 27 1011 65 10000 2.6 90 20:18 22.04.2020
4452 Clear 27 1011 65 10000 2.6 90 19:56 22.04.2020
4453 Clear 27 1011 65 10000 2.6 90 19:36 22.04.2020
4454 Clear 27 1011 65 10000 2.6 80 19:18 22.04.2020
4455 Clear 27 1011 65 10000 2.6 80 18:55 22.04.2020
4456 Clear 27 1011 65 10000 2.6 80 18:55 22.04.2020
4457 Clear 27 1010 65 10000 3.1 80 18:37 22.04.2020
4458 Clear 27 1010 69 10000 3.1 100 18:18 22.04.2020
4459 Clear 27 1010 65 10000 3.1 90 17:42 22.04.2020
4460 Clear 28 1010 57 9000 3.1 60 17:23 22.04.2020
4461 Clouds 28 1010 65 9000 3.6 90 16:47 22.04.2020
4462 Clouds 28 1010 65 9000 3.6 90 16:28 22.04.2020
4463 Clouds 28 1010 65 9000 3.6 80 15:59 22.04.2020
4464 Clouds 29 1010 61 9000 4.1 80 15:38 22.04.2020
4465 Clouds 29 1010 61 9000 4.1 80 15:19 22.04.2020
4466 Clouds 29 1010 61 6000 4.6 100 14:56 22.04.2020
4467 Clouds 30 1010 61 6000 4.1 80 14:37 22.04.2020
4468 Clouds 30 1010 54 6000 3.6 90 14:18 22.04.2020
4469 Clear 31 1010 51 6000 3.1 60 13:43 22.04.2020
4470 Clear 30 1011 54 6000 3.6 50 13:20 22.04.2020
4471 Clear 30 1011 51 6000 3.6 60 12:44 22.04.2020
4472 Clear 30 1011 51 6000 3.6 60 12:26 22.04.2020
4473 Clear 30 1011 54 6000 3.6 50 11:58 22.04.2020
4474 Clear 29 1012 54 6000 4.1 50 11:39 22.04.2020
4475 Clear 30 1012 54 6000 4.1 50 11:39 22.04.2020
4476 Clear 29 1012 54 6000 4.1 50 11:20 22.04.2020
4477 Clear 30 1012 45 6000 3.6 10 10:46 22.04.2020
4478 Clear 30 1012 45 6000 3.6 10 10:25 22.04.2020
4479 Clear 29 1013 48 6000 4.1 20 09:56 22.04.2020
4480 Haze 28 1013 54 4000 3.1 10 09:38 22.04.2020
4481 Haze 28 1013 54 4000 3.1 10 09:19 22.04.2020
4482 Haze 27 1013 58 3500 3.6 360 08:54 22.04.2020
4483 Haze 27 1013 57 3500 4.1 360 08:36 22.04.2020
4484 Haze 26 1013 57 4000 4.1 350 08:18 22.04.2020
4485 Haze 26 1013 54 4000 1 0 07:44 22.04.2020
4486 Haze 26 1013 54 4000 1 0 07:21 22.04.2020
4487 Haze 25 1012 57 4000 2.1 70 06:44 22.04.2020
4488 Haze 23 1011 60 4000 1.5 320 05:45 22.04.2020
4489 Haze 23 1011 60 4000 2.1 310 04:59 22.04.2020
4490 Clouds 23 1011 69 7000 4.1 280 03:54 22.04.2020
4491 Clouds 24 1010 50 10000 3.1 310 02:35 22.04.2020
4492 Clouds 24 1010 53 10000 1.5 320 01:41 22.04.2020
4493 Clouds 24 1010 53 10000 1.5 320 01:23 22.04.2020
4494 Clouds 24 1011 53 10000 1.5 320 00:45 22.04.2020
4495 Rain 24 1011 53 10000 1.5 320 00:20 22.04.2020
4496 Rain 24 1011 53 10000 1.5 320 00:20 22.04.2020
4497 Rain 25 1011 73 10000 1.5 340 23:45 21.04.2020
4498 Rain 25 1011 73 10000 1.5 340 23:23 21.04.2020
4499 Rain 25 1011 73 10000 0.5 0 22:58 21.04.2020
4500 Rain 25 1012 73 10000 1 0 22:39 21.04.2020
4501 Rain 25 1012 73 10000 0.5 0 22:20 21.04.2020
4502 Rain 25 1012 73 10000 0.5 0 21:57 21.04.2020
4503 Rain 26 1012 73 10000 5 304 21:39 21.04.2020
4504 Rain 26 1012 73 10000 5 304 21:39 21.04.2020
4505 Clouds 26 1012 69 10000 1.5 360 21:21 21.04.2020
4506 Clouds 26 1012 69 10000 2.1 30 20:41 21.04.2020
4507 Clouds 26 1012 69 10000 2.1 30 20:23 21.04.2020
4508 Clouds 26 1013 65 10000 1.5 10 19:58 21.04.2020
4509 Clouds 26 1013 65 10000 2.1 350 19:38 21.04.2020
4510 Clouds 27 1013 65 10000 2.6 350 19:19 21.04.2020
4511 Clouds 27 1013 65 10000 2.6 350 18:55 21.04.2020
4512 Clouds 27 1013 61 10000 3.1 340 18:37 21.04.2020
4513 Clouds 27 1013 61 10000 3.1 340 18:37 21.04.2020
4514 Rain 27 1013 61 10000 3.6 340 18:18 21.04.2020
4515 Clouds 27 1012 61 10000 3.6 360 17:40 21.04.2020
4516 Clouds 27 1012 61 10000 3.6 360 17:20 21.04.2020
4517 Clouds 27 1012 61 10000 5.1 360 16:57 21.04.2020
4518 Clouds 27 1012 61 10000 4.6 10 16:37 21.04.2020
4519 Clouds 27 1012 61 10000 4.6 10 16:18 21.04.2020
4520 Clouds 27 1012 61 10000 4.1 350 15:55 21.04.2020
4521 Clouds 27 1012 54 10000 5.1 10 15:37 21.04.2020
4522 Clouds 28 1012 54 10000 5.1 40 15:18 21.04.2020
4523 Clouds 28 1012 51 10000 5.1 30 14:45 21.04.2020
4524 Clouds 28 1012 51 10000 5.1 30 14:24 21.04.2020
4525 Clouds 28 1012 54 10000 4.6 40 13:56 21.04.2020
4526 Clouds 28 1012 54 10000 4.6 40 13:56 21.04.2020
4527 Clouds 29 1012 54 10000 4.6 20 13:37 21.04.2020
4528 Rain 28 1012 65 9000 4.1 20 13:18 21.04.2020
4529 Rain 28 1012 65 9000 4.1 20 13:18 21.04.2020
4530 Clouds 29 1012 54 9000 4.1 30 12:38 21.04.2020
4531 Rain 29 1012 54 9000 4.1 30 12:19 21.04.2020
4532 Rain 30 1012 48 10000 4.6 360 11:57 21.04.2020
4533 Rain 30 1012 45 10000 5.7 10 11:38 21.04.2020
4534 Rain 29 1012 45 10000 5.7 10 11:19 21.04.2020
4535 Clouds 29 1012 48 10000 5.7 360 10:59 21.04.2020
4536 Rain 29 1012 45 9000 5.7 350 10:39 21.04.2020
4537 Rain 30 1012 45 10000 3.6 320 10:21 21.04.2020
4538 Rain 29 1012 45 10000 3.6 320 09:57 21.04.2020
4539 Rain 29 1012 45 10000 4.6 330 09:36 21.04.2020
4540 Rain 29 1012 45 10000 4.1 310 09:18 21.04.2020
4541 Rain 29 1013 48 10000 4.6 300 08:43 21.04.2020
4542 Rain 28 1013 48 10000 4.6 300 08:25 21.04.2020
4543 Rain 28 1013 48 10000 4.1 290 07:51 21.04.2020
4544 Rain 27 1013 47 10000 5.1 300 07:27 21.04.2020
4545 Rain 26 1013 51 10000 5.1 300 06:50 21.04.2020
4546 Rain 26 1013 57 7000 5.1 300 06:31 21.04.2020
4547 Clouds 26 1013 69 6000 4.6 280 05:49 21.04.2020
4548 Clouds 26 1012 57 8000 2.1 250 04:55 21.04.2020
4549 Rain 26 1010 61 9000 0.5 0 03:45 21.04.2020
4550 Clouds 26 1010 65 9000 1 0 02:40 21.04.2020
4551 Rain 26 1010 65 9000 1 0 01:30 21.04.2020
4552 Clouds 26 1010 61 9000 2.1 360 00:38 21.04.2020
4553 Clouds 26 1009 57 9000 2.1 340 23:55 20.04.2020
4554 Clouds 26 1009 54 9000 4.1 340 23:37 20.04.2020
4555 Clouds 26 1009 54 9000 4.1 340 23:19 20.04.2020
4556 Clouds 26 1010 61 9000 3.1 340 22:54 20.04.2020
4557 Clouds 26 1010 61 9000 4.1 340 22:36 20.04.2020
4558 Clouds 27 1010 61 9000 2.6 360 22:18 20.04.2020
4559 Clouds 26 1010 61 9000 2.6 360 21:54 20.04.2020
4560 Clouds 26 1010 61 9000 2.6 360 21:54 20.04.2020
4561 Clouds 26 1010 57 10000 4.1 340 21:36 20.04.2020
4562 Clouds 26 1010 54 10000 1.5 60 21:18 20.04.2020
4563 Clouds 26 1011 61 10000 2.1 80 20:40 20.04.2020
4564 Clouds 26 1011 65 10000 4.1 360 20:19 20.04.2020
4565 Clouds 26 1011 65 10000 4.1 360 19:59 20.04.2020
4566 Clouds 26 1011 69 10000 2.1 60 19:40 20.04.2020
4567 Clouds 26 1011 69 10000 2.1 60 19:20 20.04.2020
4568 Clouds 27 1010 69 10000 2.6 90 18:55 20.04.2020
4569 Clouds 27 1011 65 10000 1.5 70 18:36 20.04.2020
4570 Clouds 27 1011 65 10000 2.1 50 18:18 20.04.2020
4571 Clouds 27 1010 69 10000 2.6 20 17:43 20.04.2020
4572 Clouds 27 1010 69 10000 2.6 20 17:22 20.04.2020
4573 Clouds 27 1010 69 10000 3.6 10 16:59 20.04.2020
4574 Clouds 27 1010 61 10000 3.6 20 16:40 20.04.2020
4575 Clouds 27 1010 61 10000 3.6 30 16:19 20.04.2020
4576 Clouds 27 1010 61 10000 3.6 30 15:55 20.04.2020
4577 Clouds 27 1010 65 10000 4.6 40 15:36 20.04.2020
4578 Rain 28 1010 65 10000 5.1 20 15:18 20.04.2020
4579 Rain 28 1010 65 10000 5.1 20 15:18 20.04.2020
4580 Rain 28 1011 69 10000 5.1 10 14:40 20.04.2020
4581 Rain 27 1011 69 10000 5.1 10 14:19 20.04.2020
4582 Rain 27 1011 65 10000 5.7 10 13:56 20.04.2020
4583 Rain 27 1011 65 10000 5.7 10 13:56 20.04.2020
4584 Rain 27 1011 65 10000 5.7 10 13:56 20.04.2020
4585 Rain 28 1011 61 9000 5.7 10 13:37 20.04.2020
4586 Rain 28 1011 61 9000 5.7 10 13:37 20.04.2020
4587 Rain 28 1011 58 10000 4.6 20 13:19 20.04.2020
4588 Rain 28 1011 61 10000 5.1 10 12:43 20.04.2020
4589 Rain 28 1011 61 10000 5.1 10 12:43 20.04.2020
4590 Rain 28 1012 61 10000 5.7 10 12:22 20.04.2020
4591 Rain 29 1012 61 10000 5.7 10 11:54 20.04.2020
4592 Rain 29 1012 65 10000 6.2 10 11:36 20.04.2020
4593 Rain 29 1012 61 10000 5.1 10 11:18 20.04.2020
4594 Rain 29 1012 61 10000 5.1 10 10:54 20.04.2020
4595 Rain 29 1012 61 10000 4.6 350 10:36 20.04.2020
4596 Rain 28 1012 61 10000 4.6 350 10:18 20.04.2020
4597 Rain 29 1012 58 10000 5.7 10 09:40 20.04.2020
4598 Rain 29 1012 58 10000 4.1 360 09:21 20.04.2020
4599 Rain 28 1012 65 10000 5.1 340 08:43 20.04.2020
4600 Rain 28 1012 65 10000 5.1 340 08:23 20.04.2020
4601 Rain 28 1012 61 10000 4.1 350 07:59 20.04.2020
4602 Rain 28 1011 61 10000 4.1 350 07:39 20.04.2020
4603 Rain 27 1011 61 10000 2.6 320 07:19 20.04.2020
4604 Rain 27 1011 61 10000 2.1 300 06:37 20.04.2020
4605 Rain 26 1011 65 10000 1.5 260 05:57 20.04.2020
4606 Rain 25 1009 73 10000 1 0 04:46 20.04.2020
4607 Clouds 25 1008 73 10000 1.5 150 02:48 20.04.2020
4608 Clouds 25 1008 73 10000 1.5 150 02:27 20.04.2020
4609 Clouds 25 1009 73 10000 1 0 01:29 20.04.2020
4610 Rain 25 1009 69 10000 1.5 70 00:45 20.04.2020
4611 Rain 25 1009 69 10000 1.5 70 00:21 20.04.2020
4612 Rain 26 1009 61 10000 1.5 40 23:40 19.04.2020
4613 Rain 26 1009 61 10000 1.5 40 23:21 19.04.2020
4614 Rain 25 1010 69 10000 2.1 50 22:56 19.04.2020
4615 Rain 25 1010 69 10000 4.6 30 22:37 19.04.2020
4616 Rain 25 1010 69 10000 4.6 30 22:19 19.04.2020
4617 Rain 26 1010 69 10000 3.6 20 21:42 19.04.2020
4618 Clouds 26 1010 69 10000 3.6 20 21:23 19.04.2020
4619 Clouds 26 1010 69 10000 4.6 360 20:58 19.04.2020
4620 Clouds 26 1010 65 10000 3.6 20 20:40 19.04.2020
4621 Clouds 26 1010 65 10000 3.6 20 20:20 19.04.2020
4622 Clouds 26 1009 74 10000 4.6 40 19:56 19.04.2020
4623 Clouds 26 1009 74 10000 4.1 40 19:38 19.04.2020
4624 Clouds 26 1009 74 10000 3.6 20 19:20 19.04.2020
4625 Clouds 26 1009 74 10000 3.6 20 18:56 19.04.2020
4626 Clouds 26 1009 78 9000 3.1 10 18:38 19.04.2020
4627 Clouds 26 1009 78 9000 3.1 10 18:18 19.04.2020
4628 Clouds 26 1008 78 8000 2.6 40 17:56 19.04.2020
4629 Clouds 26 1008 78 8000 3.6 60 17:37 19.04.2020
4630 Clouds 27 1008 74 8000 3.6 40 17:19 19.04.2020
4631 Clouds 27 1008 74 8000 3.6 40 16:40 19.04.2020
4632 Clouds 27 1007 74 8000 4.1 50 16:21 19.04.2020
4633 Clouds 27 1007 74 8000 4.1 50 15:58 19.04.2020
4634 Clouds 27 1008 74 7000 3.6 40 15:40 19.04.2020
4635 Clouds 27 1008 74 7000 3.6 40 15:19 19.04.2020
4636 Clouds 28 1008 78 6000 4.1 20 14:39 19.04.2020
4637 Clouds 28 1008 78 6000 4.1 20 14:21 19.04.2020
4638 Clouds 28 1009 83 6000 4.1 10 13:57 19.04.2020
4639 Clouds 28 1009 78 6000 4.1 360 13:37 19.04.2020
4640 Clouds 29 1009 78 6000 4.1 360 13:18 19.04.2020
4641 Clouds 29 1009 69 8000 2.6 30 12:44 19.04.2020
4642 Clouds 28 1009 69 8000 2.6 30 12:24 19.04.2020
4643 Clouds 28 1009 69 8000 3.6 70 11:55 19.04.2020
4644 Clouds 29 1010 65 10000 3.6 100 11:36 19.04.2020
4645 Clouds 29 1010 69 10000 2.6 130 11:18 19.04.2020
4646 Clouds 29 1010 74 10000 5.1 140 10:41 19.04.2020
4647 Thunderstorm 28 1010 69 10000 5.1 150 10:21 19.04.2020
4648 Thunderstorm 28 1010 69 10000 5.1 150 09:59 19.04.2020
4649 Thunderstorm 27 1011 83 8000 4.1 120 09:41 19.04.2020
4650 Thunderstorm 27 1011 83 8000 4.1 120 09:19 19.04.2020
4651 Clouds 27 1010 83 10000 5.1 110 08:40 19.04.2020
4652 Clouds 27 1010 83 10000 5.1 110 08:21 19.04.2020
4653 Clouds 26 1010 78 10000 4.1 90 07:55 19.04.2020
4654 Clouds 26 1009 78 10000 4.1 90 07:37 19.04.2020
4655 Clouds 26 1009 83 10000 4.6 90 07:18 19.04.2020
4656 Clouds 25 1009 83 10000 3.6 90 06:24 19.04.2020
4657 Clouds 25 1008 83 10000 3.6 80 05:35 19.04.2020
4658 Clouds 24 1007 83 10000 2.6 60 03:55 19.04.2020
4659 Clouds 24 1007 78 10000 2.1 60 02:50 19.04.2020
4660 Clouds 24 1007 83 10000 2.1 60 02:18 19.04.2020
4661 Clouds 24 1008 83 10000 2.1 60 01:26 19.04.2020
4662 Clouds 24 1009 78 10000 2.1 50 00:41 19.04.2020
4663 Clouds 24 1009 78 10000 2.1 50 00:41 19.04.2020
4664 Clouds 24 1009 78 10000 2.1 60 00:20 19.04.2020
4665 Clouds 24 1010 78 10000 1.5 100 23:44 18.04.2020
4666 Clouds 24 1010 78 10000 1.5 100 23:20 18.04.2020
4667 Clouds 25 1010 78 10000 2.1 120 22:56 18.04.2020
4668 Clouds 25 1010 73 10000 2.6 110 22:38 18.04.2020
4669 Clouds 25 1010 73 10000 2.6 110 22:19 18.04.2020
4670 Clouds 25 1010 69 10000 3.1 100 21:55 18.04.2020
4671 Clouds 25 1010 69 10000 3.1 120 21:36 18.04.2020
4672 Clouds 25 1010 73 10000 3.6 130 21:18 18.04.2020
4673 Clouds 25 1010 69 10000 3.6 130 20:40 18.04.2020
4674 Clouds 25 1010 73 10000 3.1 110 20:21 18.04.2020
4675 Clouds 25 1010 73 10000 4.1 100 19:44 18.04.2020
4676 Clouds 25 1010 73 10000 4.1 100 19:44 18.04.2020
4677 Clouds 25 1010 73 10000 4.1 100 19:25 18.04.2020
4678 Clouds 25 1009 73 10000 4.1 90 18:59 18.04.2020
4679 Clouds 25 1009 73 10000 5.1 90 18:37 18.04.2020
4680 Clear 25 1009 69 10000 4.6 90 18:19 18.04.2020
4681 Clear 25 1009 69 10000 5.1 90 17:41 18.04.2020
4682 Clear 25 1009 69 10000 5.1 90 17:21 18.04.2020
4683 Clouds 26 1009 65 10000 4.6 80 16:56 18.04.2020
4684 Clouds 26 1009 65 10000 4.6 70 16:37 18.04.2020
4685 Clouds 26 1009 61 10000 4.6 70 16:19 18.04.2020
4686 Clouds 27 1009 57 10000 4.6 70 15:38 18.04.2020
4687 Clouds 27 1009 57 10000 4.6 70 15:20 18.04.2020
4688 Clouds 27 1010 57 10000 4.6 40 14:45 18.04.2020
4689 Clouds 27 1010 57 10000 4.6 40 14:26 18.04.2020
4690 Clouds 27 1010 54 10000 4.6 60 13:56 18.04.2020
4691 Clouds 27 1011 57 10000 5.1 40 13:38 18.04.2020
4692 Clouds 28 1011 51 10000 4.6 60 13:18 18.04.2020
4693 Clouds 27 1012 57 10000 3.6 110 12:41 18.04.2020
4694 Clouds 27 1012 57 10000 3.6 110 12:22 18.04.2020
4695 Clouds 27 1013 61 10000 2.1 80 11:43 18.04.2020
4696 Clouds 27 1013 61 10000 2.1 80 11:24 18.04.2020
4697 Clouds 27 1012 61 10000 3.6 110 10:58 18.04.2020
4698 Clouds 28 1011 57 10000 4.6 120 10:37 18.04.2020
4699 Clouds 28 1011 54 10000 4.6 120 10:18 18.04.2020
4700 Clouds 27 1012 57 10000 5.1 120 09:42 18.04.2020
4701 Clouds 28 1012 57 10000 5.1 120 09:24 18.04.2020
4702 Clouds 27 1011 51 10000 6.2 120 08:56 18.04.2020
4703 Clouds 26 1011 61 10000 6.2 140 08:38 18.04.2020
4704 Clouds 26 1011 61 10000 5.7 120 08:18 18.04.2020
4705 Clouds 25 1011 69 10000 3.6 140 07:37 18.04.2020
4706 Clouds 26 1011 69 10000 3.6 140 07:37 18.04.2020
4707 Clouds 25 1011 65 10000 4.1 130 06:59 18.04.2020
4708 Clouds 25 1011 69 10000 2.6 140 06:29 18.04.2020
4709 Clouds 23 1011 73 10000 1.5 190 05:36 18.04.2020
4710 Clouds 23 1010 73 10000 2.1 150 04:47 18.04.2020
4711 Clouds 23 1010 73 10000 2.1 150 04:25 18.04.2020
4712 Clouds 23 1009 78 10000 1.5 100 02:49 18.04.2020
4713 Clouds 23 1009 78 10000 1.5 120 02:23 18.04.2020
4714 Clouds 23 1010 78 10000 1 140 01:53 18.04.2020
4715 Clouds 23 1010 78 10000 1 130 01:34 18.04.2020
4716 Clouds 23 1010 78 10000 1.5 160 00:44 18.04.2020
4717 Clouds 23 1010 78 10000 1.5 160 00:22 18.04.2020
4718 Clouds 24 1011 69 10000 2.1 150 23:55 17.04.2020
4719 Clouds 24 1011 69 10000 1.5 160 23:37 17.04.2020
4720 Clouds 24 1011 78 10000 2.6 140 23:18 17.04.2020
4721 Clouds 24 1011 78 10000 2.6 140 22:55 17.04.2020
4722 Clouds 24 1011 73 10000 1.5 110 22:36 17.04.2020
4723 Clouds 24 1011 73 10000 1.5 110 22:18 17.04.2020
4724 Clouds 24 1011 69 10000 1.5 130 21:41 17.04.2020
4725 Clear 24 1011 69 10000 1.5 130 21:21 17.04.2020
4726 Clear 24 1011 69 10000 1.5 100 20:56 17.04.2020
4727 Clear 24 1011 69 10000 2.1 90 20:37 17.04.2020
4728 Clear 25 1011 65 10000 2.6 110 20:18 17.04.2020
4729 Clear 25 1011 65 10000 2.6 110 19:56 17.04.2020
4730 Clear 25 1011 65 10000 2.1 110 19:38 17.04.2020
4731 Clear 25 1011 61 10000 2.1 100 19:20 17.04.2020
4732 Clear 25 1011 65 10000 2.6 120 18:42 17.04.2020
4733 Clear 25 1011 65 10000 2.6 120 18:23 17.04.2020
4734 Clear 26 1011 57 10000 2.1 110 17:55 17.04.2020
4735 Clear 26 1010 54 10000 3.1 90 17:36 17.04.2020
4736 Clear 27 1010 50 10000 3.6 120 17:18 17.04.2020
4737 Clear 27 1010 44 10000 4.1 100 16:41 17.04.2020
4738 Clear 28 1010 44 10000 4.1 100 16:22 17.04.2020
4739 Clear 28 1010 44 10000 4.1 100 16:22 17.04.2020
4740 Clear 28 1010 28 10000 4.1 90 15:41 17.04.2020
4741 Clear 29 1010 28 10000 4.1 90 15:22 17.04.2020
4742 Clear 29 1010 34 10000 4.1 90 14:55 17.04.2020
4743 Clear 29 1009 30 10000 5.1 90 14:37 17.04.2020
4744 Clear 29 1010 28 10000 4.6 60 14:19 17.04.2020
4745 Clear 29 1010 35 10000 5.1 90 13:40 17.04.2020
4746 Clear 30 1010 32 10000 3.1 40 13:20 17.04.2020
4747 Clear 30 1010 32 10000 3.1 40 12:57 17.04.2020
4748 Clear 30 1010 39 10000 4.1 80 12:38 17.04.2020
4749 Clear 29 1010 39 10000 4.1 80 12:20 17.04.2020
4750 Clear 28 1011 48 10000 2.6 70 11:40 17.04.2020
4751 Clear 28 1011 37 10000 2.1 0 11:19 17.04.2020
4752 Clear 28 1011 37 10000 2.1 0 11:19 17.04.2020
4753 Clear 28 1012 51 10000 2.6 40 10:43 17.04.2020
4754 Clear 28 1012 51 10000 2.6 40 10:22 17.04.2020
4755 Clear 27 1012 45 10000 2.1 320 09:57 17.04.2020
4756 Clear 26 1012 57 10000 2.1 0 09:38 17.04.2020
4757 Clear 26 1012 57 10000 2.1 0 09:19 17.04.2020
4758 Clear 26 1013 61 10000 2.1 170 08:48 17.04.2020
4759 Clear 25 1013 61 10000 2.1 170 08:27 17.04.2020
4760 Clear 24 1013 65 10000 2.6 220 07:58 17.04.2020
4761 Clear 24 1012 78 10000 2.6 220 07:39 17.04.2020
4762 Clear 24 1012 83 10000 2.1 190 07:19 17.04.2020
4763 Clear 23 1012 78 10000 2.1 210 06:44 17.04.2020
4764 Clear 21 1012 83 10000 1.5 220 05:58 17.04.2020
4765 Clear 21 1010 88 10000 1 220 03:24 17.04.2020
4766 Clear 21 1010 88 10000 1 0 02:52 17.04.2020
4767 Clear 21 1010 83 10000 1 170 01:41 17.04.2020
4768 Clear 21 1010 83 10000 1 170 01:19 17.04.2020
4769 Clear 22 1011 88 10000 1 160 00:21 17.04.2020
4770 Clear 22 1011 88 10000 1 160 23:55 16.04.2020
4771 Clear 22 1011 88 10000 1 150 23:36 16.04.2020
4772 Clear 22 1011 88 10000 1 150 23:18 16.04.2020
4773 Clear 23 1011 83 10000 2.1 150 22:39 16.04.2020
4774 Clear 23 1011 83 10000 2.1 150 22:21 16.04.2020
4775 Clear 23 1011 83 10000 1.5 130 21:57 16.04.2020
4776 Clear 23 1011 78 10000 1 110 21:39 16.04.2020
4777 Clear 23 1011 78 10000 1 110 21:19 16.04.2020
4778 Clear 23 1012 78 10000 1 0 20:42 16.04.2020
4779 Clear 23 1012 78 10000 1 0 20:22 16.04.2020
4780 Clear 24 1012 73 10000 1.5 20 19:59 16.04.2020
4781 Clear 24 1011 73 10000 1.5 20 19:39 16.04.2020
4782 Clear 24 1011 73 10000 2.1 20 19:19 16.04.2020
4783 Clear 24 1011 73 10000 2.1 20 18:55 16.04.2020
4784 Clear 24 1011 69 10000 2.1 10 18:36 16.04.2020
4785 Clear 24 1011 69 10000 3.1 360 18:18 16.04.2020
4786 Clear 25 1010 69 10000 3.1 360 17:42 16.04.2020
4787 Clear 25 1010 69 10000 3.1 360 17:23 16.04.2020
4788 Clouds 25 1010 61 10000 3.1 10 16:55 16.04.2020
4789 Clouds 25 1010 61 10000 3.1 10 16:37 16.04.2020
4790 Clouds 25 1010 61 10000 3.1 10 16:18 16.04.2020
4791 Clouds 26 1010 69 10000 3.6 360 15:41 16.04.2020
4792 Clouds 26 1010 69 10000 3.6 360 15:19 16.04.2020
4793 Clouds 26 1010 73 10000 4.1 10 14:58 16.04.2020
4794 Clouds 26 1010 73 10000 4.1 10 14:38 16.04.2020
4795 Clouds 26 1010 73 10000 4.1 10 14:19 16.04.2020
4796 Clouds 26 1011 69 10000 4.6 10 13:55 16.04.2020
4797 Clouds 26 1011 73 10000 4.1 20 13:36 16.04.2020
4798 Clouds 26 1011 73 10000 4.6 10 13:18 16.04.2020
4799 Clouds 26 1011 73 10000 4.6 10 12:55 16.04.2020
4800 Clouds 26 1012 73 10000 4.6 360 12:36 16.04.2020
4801 Clouds 26 1012 73 10000 4.6 360 12:18 16.04.2020
4802 Clouds 26 1012 73 10000 5.1 10 11:41 16.04.2020
4803 Clouds 26 1012 73 10000 5.1 10 11:21 16.04.2020
4804 Clouds 25 1012 73 10000 4.6 10 10:57 16.04.2020
4805 Clouds 25 1013 73 10000 4.6 10 10:38 16.04.2020
4806 Clouds 25 1013 73 10000 4.6 10 10:19 16.04.2020
4807 Clouds 25 1013 78 10000 5.7 10 09:55 16.04.2020
4808 Clouds 25 1013 78 10000 5.7 10 09:37 16.04.2020
4809 Clouds 25 1013 78 10000 5.7 10 09:18 16.04.2020
4810 Clouds 25 1013 83 10000 6.2 350 08:41 16.04.2020
4811 Clouds 24 1013 83 10000 6.2 350 08:22 16.04.2020
4812 Clouds 24 1012 78 10000 4.6 340 07:46 16.04.2020
4813 Clouds 24 1012 78 10000 4.6 340 07:26 16.04.2020
4814 Clouds 23 1012 83 10000 4.6 330 06:43 16.04.2020
4815 Clouds 22 1012 83 10000 4.6 330 06:25 16.04.2020
4816 Clouds 22 1012 88 10000 3.6 330 05:34 16.04.2020
4817 Rain 22 1011 94 10000 4.1 330 03:53 16.04.2020
4818 Rain 22 1011 94 10000 4.1 320 03:23 16.04.2020
4819 Rain 22 1011 88 10000 3.1 360 02:47 16.04.2020
4820 Clouds 23 1011 88 10000 5.1 350 02:28 16.04.2020
4821 Clouds 23 1011 88 10000 3.1 10 01:18 16.04.2020
4822 Clouds 23 1011 88 10000 2.6 340 00:28 16.04.2020
4823 Clouds 23 1011 88 10000 1 0 23:58 15.04.2020
4824 Clouds 23 1011 88 10000 1.5 30 23:40 15.04.2020
4825 Clouds 23 1011 88 10000 1.5 30 23:21 15.04.2020
4826 Clouds 23 1012 88 10000 1 0 22:40 15.04.2020
4827 Clouds 23 1012 88 10000 1 0 22:22 15.04.2020
4828 Rain 23 1012 88 10000 2.6 360 21:59 15.04.2020
4829 Rain 23 1012 88 10000 2.1 90 21:40 15.04.2020
4830 Clouds 23 1012 88 10000 2.1 90 21:22 15.04.2020
4831 Clouds 23 1012 83 10000 2.6 90 20:57 15.04.2020
4832 Clouds 23 1012 83 10000 3.6 90 20:39 15.04.2020
4833 Clouds 23 1012 83 10000 3.6 90 20:21 15.04.2020
4834 Clouds 23 1011 83 10000 5.7 90 19:45 15.04.2020
4835 Clouds 23 1012 83 10000 6.2 100 19:21 15.04.2020
4836 Clouds 23 1012 83 10000 6.2 100 18:56 15.04.2020
4837 Clouds 23 1012 83 10000 5.7 90 18:56 15.04.2020
4838 Clouds 23 1012 83 10000 5.7 90 18:37 15.04.2020
4839 Clouds 23 1012 83 10000 5.7 80 18:19 15.04.2020
4840 Clouds 23 1012 83 10000 6.2 70 17:40 15.04.2020
4841 Clouds 23 1012 83 10000 6.2 70 17:40 15.04.2020
4842 Clouds 23 1012 83 10000 6.2 70 17:21 15.04.2020
4843 Clouds 23 1012 83 10000 6.2 70 16:58 15.04.2020
4844 Clouds 23 1011 83 10000 6.7 70 16:39 15.04.2020
4845 Clouds 23 1011 83 10000 6.7 70 16:20 15.04.2020
4846 Clouds 23 1011 78 10000 7.2 60 15:59 15.04.2020
4847 Clouds 23 1011 78 10000 7.2 60 15:59 15.04.2020
4848 Clouds 23 1011 78 10000 8.7 50 15:40 15.04.2020
4849 Clouds 23 1011 78 10000 8.7 50 15:40 15.04.2020
4850 Clouds 23 1011 78 10000 8.7 50 15:20 15.04.2020
4851 Clouds 23 1013 78 10000 5.7 40 14:59 15.04.2020
4852 Rain 23 1013 83 10000 5.7 40 14:40 15.04.2020
4853 Rain 23 1013 83 10000 5.7 40 14:22 15.04.2020
4854 Clouds 23 1012 78 10000 6.7 30 13:58 15.04.2020
4855 Clouds 22 1012 83 10000 6.7 30 13:39 15.04.2020
4856 Clouds 22 1012 83 10000 6.7 30 13:21 15.04.2020
4857 Clouds 22 1013 83 10000 7.2 40 12:57 15.04.2020
4858 Clouds 22 1013 83 10000 7.2 30 12:39 15.04.2020
4859 Clouds 22 1013 83 10000 7.2 30 12:21 15.04.2020
4860 Clouds 21 1013 77 10000 7.7 40 11:45 15.04.2020
4861 Clouds 21 1013 77 10000 7.7 40 11:25 15.04.2020
4862 Clouds 21 1014 77 10000 8.2 30 10:59 15.04.2020
4863 Rain 21 1014 83 9000 7.7 20 10:37 15.04.2020
4864 Rain 21 1014 83 9000 7.7 20 10:19 15.04.2020
4865 Rain 20 1015 88 9000 6.7 20 09:56 15.04.2020
4866 Rain 20 1015 82 4000 6.7 20 09:37 15.04.2020
4867 Rain 20 1015 82 4000 6.7 20 09:19 15.04.2020
4868 Rain 19 1016 93 7000 4.6 10 08:42 15.04.2020
4869 Rain 18 1016 93 7000 4.6 10 08:23 15.04.2020
4870 Rain 18 1017 93 4500 1.5 340 07:58 15.04.2020
4871 Thunderstorm 18 1017 93 1800 2.1 320 07:38 15.04.2020
4872 Thunderstorm 18 1016 88 1000 5.1 360 06:59 15.04.2020
4873 Thunderstorm 18 1015 93 1000 5.7 320 06:24 15.04.2020
4874 Rain 21 1011 73 10000 7.2 10 05:23 15.04.2020
4875 Thunderstorm 22 1011 69 7000 5.1 30 04:46 15.04.2020
4876 Thunderstorm 22 1011 73 10000 4.1 40 04:18 15.04.2020
4877 Thunderstorm 22 1009 73 10000 4.6 30 03:22 15.04.2020
4878 Thunderstorm 23 1011 69 10000 2.6 340 02:40 15.04.2020
4879 Thunderstorm 23 1010 64 10000 2.6 20 01:50 15.04.2020
4880 Rain 23 1010 64 10000 2.6 40 01:24 15.04.2020
4881 Rain 23 1010 64 10000 3.6 10 00:46 15.04.2020
4882 Clouds 23 1010 64 10000 3.6 10 00:23 15.04.2020
4883 Clouds 23 1011 64 10000 4.6 350 23:55 14.04.2020
4884 Clouds 23 1011 64 10000 4.6 350 23:37 14.04.2020
4885 Clouds 23 1011 64 10000 4.6 350 23:19 14.04.2020
4886 Clouds 23 1011 64 10000 4.6 350 22:56 14.04.2020
4887 Clouds 23 1012 64 10000 4.6 350 22:38 14.04.2020
4888 Clouds 23 1012 64 10000 4.6 350 22:20 14.04.2020
4889 Clouds 24 1012 64 10000 4.1 350 21:55 14.04.2020
4890 Clouds 24 1012 64 10000 4.1 350 21:37 14.04.2020
4891 Clear 24 1013 60 10000 3.6 350 21:18 14.04.2020
4892 Clear 24 1013 60 10000 4.6 350 20:41 14.04.2020
4893 Clear 24 1013 60 10000 4.6 350 20:23 14.04.2020
4894 Clear 24 1012 60 10000 4.1 350 19:59 14.04.2020
4895 Clear 24 1012 50 10000 4.6 360 19:40 14.04.2020
4896 Clear 24 1012 50 10000 4.6 360 19:21 14.04.2020
4897 Clear 25 1012 50 10000 4.1 360 18:57 14.04.2020
4898 Clear 25 1012 50 10000 4.6 10 18:39 14.04.2020
4899 Clear 25 1012 50 10000 4.6 10 18:19 14.04.2020
4900 Clear 26 1012 50 10000 5.7 10 17:56 14.04.2020
4901 Clear 26 1011 50 10000 5.7 10 17:37 14.04.2020
4902 Clear 26 1011 50 10000 5.7 10 17:37 14.04.2020
4903 Clear 26 1011 50 10000 5.7 10 17:37 14.04.2020
4904 Clear 26 1011 50 10000 5.7 10 17:19 14.04.2020
4905 Clear 27 1011 44 10000 7.2 10 16:43 14.04.2020
4906 Clear 27 1011 44 10000 7.2 10 16:24 14.04.2020
4907 Clear 27 1011 47 10000 8.2 10 15:58 14.04.2020
4908 Clear 27 1011 47 10000 8.2 10 15:58 14.04.2020
4909 Clear 28 1011 44 10000 7.7 10 15:40 14.04.2020
4910 Clear 28 1011 44 10000 7.7 10 15:21 14.04.2020
4911 Clear 28 1011 42 10000 7.2 10 14:58 14.04.2020
4912 Clear 28 1011 42 10000 7.2 10 14:40 14.04.2020
4913 Clear 28 1011 42 10000 7.2 10 14:21 14.04.2020
4914 Clear 28 1011 42 10000 7.2 10 14:21 14.04.2020
4915 Clear 28 1011 47 10000 7.2 10 13:56 14.04.2020
4916 Clear 28 1011 47 10000 7.2 10 13:37 14.04.2020
4917 Clear 28 1011 47 10000 7.2 10 13:19 14.04.2020
4918 Clear 28 1012 42 10000 6.7 10 12:41 14.04.2020
4919 Clear 28 1012 42 10000 6.7 10 12:21 14.04.2020
4920 Clear 28 1012 42 10000 6.7 10 12:21 14.04.2020
4921 Clear 29 1012 42 10000 7.2 10 11:55 14.04.2020
4922 Clear 27 1013 44 10000 6.7 350 11:37 14.04.2020
4923 Clear 27 1013 44 10000 6.7 350 11:18 14.04.2020
4924 Clear 28 1013 51 10000 6.7 360 10:43 14.04.2020
4925 Clear 27 1013 61 10000 6.2 350 10:23 14.04.2020
4926 Clear 27 1014 61 10000 6.7 330 09:43 14.04.2020
4927 Clear 25 1014 50 10000 5.1 350 09:25 14.04.2020
4928 Clear 25 1014 47 0 4.97 19 08:59 14.04.2020
4929 Clear 26 1014 50 10000 5.1 350 08:41 14.04.2020
4930 Clear 26 1014 65 10000 5.1 350 08:22 14.04.2020
4931 Clear 25 1014 64 10000 4.6 350 07:53 14.04.2020
4932 Clear 25 1014 64 10000 4.6 350 07:53 14.04.2020
4933 Clear 24 1013 69 10000 4.6 340 07:30 14.04.2020
4934 Clouds 23 1013 73 10000 6.2 340 06:48 14.04.2020
4935 Clouds 22 1012 88 10000 6.2 340 05:55 14.04.2020
4936 Clouds 21 1012 88 10000 4.1 330 03:52 14.04.2020
4937 Clouds 21 1012 88 10000 4.1 330 02:54 14.04.2020
4938 Clouds 21 1013 77 10000 2.6 320 01:39 14.04.2020
4939 Clouds 21 1013 77 10000 2.6 320 01:18 14.04.2020
4940 Clouds 21 1013 78 10000 1.5 290 00:36 14.04.2020
4941 Clouds 21 1013 83 10000 2.6 290 00:18 14.04.2020
4942 Clouds 21 1013 83 10000 2.6 290 23:40 13.04.2020
4943 Clouds 21 1013 83 10000 2.6 290 23:22 13.04.2020
4944 Clouds 21 1013 83 10000 2.6 320 22:56 13.04.2020
4945 Clouds 21 1013 83 10000 2.1 270 22:38 13.04.2020
4946 Clouds 21 1013 83 10000 2.1 270 22:20 13.04.2020
4947 Clouds 21 1013 83 10000 0.5 0 21:55 13.04.2020
4948 Thunderstorm 21 1013 83 10000 1.5 70 21:36 13.04.2020
4949 Thunderstorm 21 1013 83 10000 1.5 70 21:18 13.04.2020
4950 Thunderstorm 22 1013 78 10000 4.1 70 20:41 13.04.2020
4951 Thunderstorm 22 1013 78 10000 4.1 70 20:20 13.04.2020
4952 Thunderstorm 21 1013 73 10000 4.1 60 19:59 13.04.2020
4953 Thunderstorm 21 1012 77 10000 5.1 50 19:37 13.04.2020
4954 Thunderstorm 21 1012 77 10000 5.1 50 19:37 13.04.2020
4955 Thunderstorm 22 1012 77 10000 5.1 50 19:37 13.04.2020
4956 Thunderstorm 22 1012 77 10000 5.1 50 19:19 13.04.2020
4957 Thunderstorm 22 1013 73 10000 5.1 20 18:58 13.04.2020
4958 Thunderstorm 22 1013 73 10000 6.7 20 18:38 13.04.2020
4959 Thunderstorm 22 1012 68 10000 7.7 360 18:19 13.04.2020
4960 Thunderstorm 22 1012 68 10000 7.7 360 17:58 13.04.2020
4961 Thunderstorm 22 1013 68 10000 8.7 350 17:37 13.04.2020
4962 Thunderstorm 22 1013 68 10000 8.7 350 17:19 13.04.2020
4963 Thunderstorm 21 1012 73 10000 8.2 20 16:58 13.04.2020
4964 Thunderstorm 21 1012 73 10000 8.2 20 16:58 13.04.2020
4965 Thunderstorm 21 1011 77 5000 9.8 20 16:39 13.04.2020
4966 Thunderstorm 21 1011 77 5000 9.8 20 16:20 13.04.2020
4967 Thunderstorm 21 1011 77 5000 9.8 20 16:20 13.04.2020
4968 Thunderstorm 21 1013 88 1500 13.9 350 15:57 13.04.2020
4969 Thunderstorm 23 1013 69 7000 10.3 350 15:38 13.04.2020
4970 Thunderstorm 23 1013 69 7000 10.3 350 15:20 13.04.2020
4971 Thunderstorm 24 1009 69 10000 11.8 10 14:42 13.04.2020
4972 Thunderstorm 24 1009 69 10000 11.8 10 14:24 13.04.2020
4973 Clouds 24 1010 73 10000 10.8 360 13:57 13.04.2020
4974 Clouds 24 1009 69 10000 11.8 20 13:39 13.04.2020
4975 Clouds 24 1009 69 10000 11.8 20 13:21 13.04.2020
4976 Clouds 24 1010 73 10000 11.8 10 12:59 13.04.2020
4977 Clouds 24 1012 78 10000 6.7 20 12:40 13.04.2020
4978 Clouds 24 1012 78 10000 6.7 20 12:20 13.04.2020
4979 Clouds 24 1013 78 10000 10.3 360 11:58 13.04.2020
4980 Rain 23 1013 83 9000 8.2 360 11:40 13.04.2020
4981 Rain 23 1013 83 9000 8.2 360 11:18 13.04.2020
4982 Rain 24 1014 83 9000 7.7 340 10:55 13.04.2020
4983 Rain 24 1014 78 10000 9.8 350 10:37 13.04.2020
4984 Rain 24 1014 78 10000 9.8 350 10:18 13.04.2020
4985 Clouds 26 1013 69 10000 9.3 350 09:44 13.04.2020
4986 Clouds 26 1012 65 10000 7.7 350 09:26 13.04.2020
4987 Clouds 26 1011 65 10000 9.8 360 08:47 13.04.2020
4988 Clouds 27 1011 65 10000 9.8 360 08:28 13.04.2020
4989 Clouds 26 1010 61 10000 9.8 10 07:58 13.04.2020
4990 Clouds 26 1010 61 10000 9.8 10 07:38 13.04.2020
4991 Clouds 25 1010 61 10000 9.8 10 07:19 13.04.2020
4992 Clouds 26 1010 65 10000 9.3 10 06:46 13.04.2020
4993 Clouds 25 1011 69 10000 9.3 350 05:53 13.04.2020
4994 Clouds 25 1011 73 10000 8.7 340 05:27 13.04.2020
4995 Clouds 25 1009 73 10000 8.2 360 04:50 13.04.2020
4996 Clouds 25 1009 73 10000 8.2 360 04:20 13.04.2020
4997 Clouds 25 1008 78 10000 6.7 350 03:44 13.04.2020
4998 Clouds 25 1008 73 10000 7.2 340 02:48 13.04.2020
4999 Clouds 25 1008 73 10000 4.1 320 01:48 13.04.2020
5000 Clouds 25 1008 73 10000 5.1 340 01:30 13.04.2020
5001 Clouds 25 1008 74 10000 4.1 340 00:53 13.04.2020
5002 Rain 26 1008 74 10000 4.1 340 00:30 13.04.2020
5003 Rain 26 1008 74 10000 4.1 340 23:57 12.04.2020
5004 Rain 26 1008 74 10000 3.6 350 23:39 12.04.2020
5005 Rain 26 1008 74 10000 3.6 350 23:20 12.04.2020
5006 Rain 26 1009 74 10000 2.6 10 22:55 12.04.2020
5007 Rain 26 1009 74 10000 3.1 10 22:36 12.04.2020
5008 Rain 26 1009 74 10000 3.1 10 22:18 12.04.2020
5009 Rain 26 1009 74 10000 4.1 10 21:38 12.04.2020
5010 Clouds 26 1009 74 10000 4.1 10 21:20 12.04.2020
5011 Clouds 27 1009 61 10000 5.1 20 20:44 12.04.2020
5012 Clouds 27 1009 65 10000 4.1 20 20:44 12.04.2020
5013 Clouds 27 1009 61 10000 5.1 20 20:24 12.04.2020
5014 Clouds 27 1009 65 10000 3.6 20 19:59 12.04.2020
5015 Clouds 27 1009 65 10000 4.1 80 19:41 12.04.2020
5016 Clouds 27 1009 65 10000 3.1 70 19:19 12.04.2020
5017 Clouds 27 1009 65 10000 3.1 70 18:58 12.04.2020
5018 Clouds 27 1009 65 10000 3.1 70 18:58 12.04.2020
5019 Clouds 27 1009 74 10000 4.1 50 18:39 12.04.2020
5020 Rain 27 1008 69 10000 4.1 30 18:19 12.04.2020
5021 Rain 28 1008 69 10000 4.1 30 17:55 12.04.2020
5022 Rain 27 1008 74 9000 5.1 20 17:37 12.04.2020
5023 Rain 27 1008 74 9000 5.1 20 17:18 12.04.2020
5024 Rain 28 1008 78 8000 7.7 350 16:41 12.04.2020
5025 Rain 28 1008 78 8000 7.7 350 16:22 12.04.2020
5026 Rain 29 1009 74 8000 5.7 10 15:53 12.04.2020
5027 Rain 29 1008 61 8000 4.1 20 15:35 12.04.2020
5028 Clouds 31 1008 55 9000 4.6 50 14:58 12.04.2020
5029 Clouds 31 1008 48 9000 4.1 30 14:39 12.04.2020
5030 Clouds 31 1008 48 9000 4.1 30 14:20 12.04.2020
5031 Clouds 31 1009 51 10000 4.1 20 13:56 12.04.2020
5032 Clouds 31 1009 48 10000 3.6 30 13:36 12.04.2020
5033 Clouds 31 1009 48 10000 3.6 30 13:18 12.04.2020
5034 Clouds 31 1009 45 10000 4.1 10 12:45 12.04.2020
5035 Clouds 31 1009 45 10000 4.1 10 12:21 12.04.2020
5036 Clouds 30 1009 51 10000 4.6 10 11:58 12.04.2020
5037 Clouds 30 1010 58 10000 5.1 360 11:37 12.04.2020
5038 Clouds 30 1010 58 10000 5.1 360 11:37 12.04.2020
5039 Clouds 30 1010 58 10000 5.1 360 11:18 12.04.2020
5040 Clouds 30 1010 58 10000 5.1 360 10:55 12.04.2020
5041 Clouds 28 1010 58 10000 4.1 350 10:37 12.04.2020
5042 Clouds 28 1010 58 10000 4.1 350 10:19 12.04.2020
5043 Clouds 29 1010 58 10000 5.1 350 09:55 12.04.2020
5044 Clouds 29 1010 58 9000 4.1 350 09:37 12.04.2020
5045 Clouds 29 1010 58 9000 4.1 350 09:19 12.04.2020
5046 Clouds 27 1010 61 9000 3.1 50 08:47 12.04.2020
5047 Clouds 27 1011 65 9000 2.1 50 08:28 12.04.2020
5048 Clouds 27 1011 61 9000 3.1 350 07:46 12.04.2020
5049 Clouds 27 1010 65 9000 3.6 360 07:19 12.04.2020
5050 Clouds 27 1010 65 10000 3.6 350 06:37 12.04.2020
5051 Clouds 27 1010 65 10000 3.6 350 06:00 12.04.2020
5052 Clouds 28 1009 61 10000 3.6 30 05:41 12.04.2020
5053 Clouds 28 1008 54 10000 3.6 320 03:48 12.04.2020
5054 Clouds 28 1007 58 10000 2.6 50 03:25 12.04.2020
5055 Clouds 28 1007 54 10000 2.6 40 02:35 12.04.2020
5056 Clouds 28 1007 54 10000 2.6 40 01:53 12.04.2020
5057 Clouds 29 1008 54 10000 4.1 350 01:21 12.04.2020
5058 Clouds 29 1009 54 10000 3.6 340 00:42 12.04.2020
5059 Clouds 29 1009 54 10000 3.6 340 00:20 12.04.2020
5060 Clouds 29 1009 54 10000 3.6 340 23:47 11.04.2020
5061 Clouds 29 1009 54 10000 3.6 340 23:26 11.04.2020
5062 Clouds 29 1009 54 10000 3.6 340 23:26 11.04.2020
5063 Clouds 29 1009 54 10000 1.5 340 22:57 11.04.2020
5064 Clouds 30 1009 51 10000 2.6 70 22:36 11.04.2020
5065 Clouds 30 1009 51 10000 2.6 70 22:18 11.04.2020
5066 Clouds 30 1009 48 10000 5.7 50 21:54 11.04.2020
5067 Clouds 30 1009 51 10000 3.1 360 21:36 11.04.2020
5068 Clouds 30 1009 51 10000 3.1 360 21:18 11.04.2020
5069 Clouds 30 1009 54 8000 2.6 50 20:54 11.04.2020
5070 Clouds 30 1009 54 8000 2.6 50 20:54 11.04.2020
5071 Clouds 30 1009 45 7000 2.6 10 20:36 11.04.2020
5072 Clouds 30 1009 45 7000 2.6 10 20:18 11.04.2020
5073 Clouds 30 1008 54 7000 1.5 360 19:54 11.04.2020
5074 Clouds 30 1008 54 7000 3.1 340 19:36 11.04.2020
5075 Clouds 30 1008 54 7000 3.1 340 19:18 11.04.2020
5076 Clouds 29 1008 61 7000 5.7 320 18:55 11.04.2020
5077 Clouds 30 1007 58 7000 3.1 80 18:36 11.04.2020
5078 Clouds 30 1007 54 6000 2.6 80 18:18 11.04.2020
5079 Clouds 30 1007 54 6000 2.6 80 17:56 11.04.2020
5080 Dust 31 1007 58 5000 3.1 80 17:36 11.04.2020
5081 Dust 31 1007 58 5000 3.1 80 17:18 11.04.2020
5082 Dust 32 1006 55 5000 3.6 80 16:42 11.04.2020
5083 Dust 34 1006 40 4500 3.1 90 16:21 11.04.2020
5084 Dust 35 1006 41 4000 3.1 120 15:41 11.04.2020
5085 Dust 35 1006 38 4000 5.1 130 15:20 11.04.2020
5086 Dust 36 1006 38 4000 5.1 130 14:57 11.04.2020
5087 Dust 36 1006 32 4000 4.6 120 14:39 11.04.2020
5088 Dust 36 1006 32 4000 4.6 120 14:20 11.04.2020
5089 Dust 37 1006 29 5000 6.2 120 13:42 11.04.2020
5090 Dust 37 1006 29 5000 6.2 120 13:24 11.04.2020
5091 Dust 37 1006 29 5000 6.2 120 12:59 11.04.2020
5092 Dust 37 1006 18 5000 9.8 170 12:37 11.04.2020
5093 Dust 37 1006 18 5000 9.8 170 12:18 11.04.2020
5094 Dust 37 1007 20 4000 9.8 170 11:42 11.04.2020
5095 Dust 37 1007 20 4000 9.8 170 11:20 11.04.2020
5096 Dust 37 1008 20 4000 9.8 170 10:56 11.04.2020
5097 Dust 37 1008 20 4000 10.3 170 10:37 11.04.2020
5098 Dust 37 1008 20 4000 10.3 170 10:19 11.04.2020
5099 Clouds 36 1008 20 6000 10.8 170 09:57 11.04.2020
5100 Clouds 35 1008 23 7000 10.3 170 09:37 11.04.2020
5101 Clouds 35 1008 23 7000 10.3 170 09:37 11.04.2020
5102 Clouds 35 1008 23 7000 10.3 170 09:18 11.04.2020
5103 Clouds 34 1008 23 9000 10.8 170 08:42 11.04.2020
5104 Clouds 34 1009 21 10000 7.7 180 08:23 11.04.2020
5105 Clouds 33 1008 24 10000 9.3 170 07:48 11.04.2020
5106 Clouds 32 1008 22 10000 8.7 170 07:27 11.04.2020
5107 Clouds 32 1007 24 10000 8.7 170 06:42 11.04.2020
5108 Clouds 32 1007 25 10000 9.3 170 05:58 11.04.2020
5109 Clouds 32 1006 24 10000 8.7 160 04:31 11.04.2020
5110 Clouds 33 1005 19 10000 7.7 160 03:30 11.04.2020
5111 Clouds 33 1005 17 10000 6.7 170 01:41 11.04.2020
5112 Clouds 33 1005 17 10000 6.7 170 01:18 11.04.2020
5113 Clouds 33 1005 18 10000 5.7 170 00:42 11.04.2020
5114 Clouds 31 1005 35 10000 3.6 140 00:18 11.04.2020
5115 Clouds 31 1005 35 10000 3.6 140 23:54 10.04.2020
5116 Clouds 31 1005 51 10000 2.6 120 23:36 10.04.2020
5117 Clouds 31 1005 51 10000 2.6 120 23:36 10.04.2020
5118 Clouds 31 1005 51 10000 2.6 120 23:18 10.04.2020
5119 Clouds 30 1006 51 9000 3.6 130 22:42 10.04.2020
5120 Clouds 30 1006 51 9000 3.6 130 22:20 10.04.2020
5121 Clouds 30 1006 51 9000 4.6 140 21:58 10.04.2020
5122 Clouds 31 1006 45 9000 5.1 140 21:39 10.04.2020
5123 Clouds 31 1006 45 9000 5.1 140 21:18 10.04.2020
5124 Clouds 30 1006 54 10000 4.6 140 20:41 10.04.2020
5125 Clouds 31 1006 54 10000 4.6 140 20:23 10.04.2020
5126 Clouds 31 1006 58 10000 5.1 130 19:57 10.04.2020
5127 Clouds 31 1006 58 10000 5.1 130 19:57 10.04.2020
5128 Clouds 30 1006 58 10000 4.6 130 19:39 10.04.2020
5129 Clouds 31 1006 58 10000 4.6 130 19:20 10.04.2020
5130 Clouds 31 1005 62 10000 5.1 120 18:57 10.04.2020
5131 Clouds 32 1005 55 10000 4.1 110 18:38 10.04.2020
5132 Clouds 32 1005 55 10000 4.1 110 18:20 10.04.2020
5133 Clouds 34 1005 46 10000 4.1 120 17:58 10.04.2020
5134 Clouds 34 1005 43 8000 4.6 130 17:39 10.04.2020
5135 Clouds 34 1005 43 8000 4.6 130 17:20 10.04.2020
5136 Clouds 35 1005 38 8000 5.7 140 16:55 10.04.2020
5137 Clouds 36 1004 36 8000 6.2 130 16:36 10.04.2020
5138 Clouds 36 1004 36 8000 6.2 130 16:18 10.04.2020
5139 Clouds 36 1004 32 8000 6.7 130 15:54 10.04.2020
5140 Clouds 38 1004 28 8000 7.2 130 15:36 10.04.2020
5141 Clouds 38 1004 28 8000 7.2 130 15:18 10.04.2020
5142 Clouds 38 1004 25 8000 6.7 130 14:54 10.04.2020
5143 Clouds 39 1004 25 7000 7.7 130 14:36 10.04.2020
5144 Clouds 39 1004 25 7000 7.7 130 14:18 10.04.2020
5145 Clouds 39 1004 29 10000 7.7 130 13:42 10.04.2020
5146 Clouds 39 1004 29 10000 7.7 130 13:21 10.04.2020
5147 Clouds 39 1005 32 10000 5.7 120 12:43 10.04.2020
5148 Clouds 39 1005 32 10000 5.7 120 12:23 10.04.2020
5149 Clouds 39 1006 27 9000 5.7 120 11:55 10.04.2020
5150 Clouds 39 1006 15 9000 6.7 160 11:37 10.04.2020
5151 Clouds 39 1006 15 9000 6.7 160 11:18 10.04.2020
5152 Clouds 39 1006 15 9000 7.7 160 10:43 10.04.2020
5153 Clouds 39 1007 11 8000 8.7 180 10:23 10.04.2020
5154 Clouds 38 1007 12 10000 7.2 190 09:56 10.04.2020
5155 Clouds 39 1007 13 10000 6.7 190 09:38 10.04.2020
5156 Clouds 36 1008 18 10000 7.2 200 09:18 10.04.2020
5157 Clouds 36 1008 21 10000 6.7 180 08:42 10.04.2020
5158 Clouds 34 1008 21 10000 6.7 180 08:21 10.04.2020
5159 Clouds 33 1008 31 10000 5.7 170 07:45 10.04.2020
5160 Clouds 33 1008 31 10000 5.7 170 07:24 10.04.2020
5161 Clouds 30 1007 33 10000 5.7 160 06:49 10.04.2020
5162 Clouds 29 1007 42 10000 5.1 150 06:28 10.04.2020
5163 Clouds 29 1007 37 10000 5.7 150 05:40 10.04.2020
5164 Clouds 28 1007 37 10000 6.2 150 04:58 10.04.2020
5165 Clouds 28 1006 37 10000 7.7 160 03:49 10.04.2020
5166 Clouds 28 1006 45 10000 7.2 150 03:30 10.04.2020
5167 Clear 27 1006 51 10000 6.7 150 02:48 10.04.2020
5168 Clear 27 1006 51 10000 7.2 150 02:28 10.04.2020
5169 Clear 28 1006 51 10000 7.2 150 01:30 10.04.2020
5170 Clear 27 1007 58 10000 6.2 150 00:50 10.04.2020
5171 Clear 27 1007 58 10000 6.2 150 00:23 10.04.2020
5172 Clear 27 1007 54 10000 5.7 140 23:55 09.04.2020
5173 Clear 28 1007 54 10000 5.7 130 23:37 09.04.2020
5174 Clear 28 1007 54 10000 5.7 130 23:19 09.04.2020
5175 Clear 28 1007 54 10000 4.6 150 22:41 09.04.2020
5176 Clear 28 1007 54 10000 4.6 150 22:23 09.04.2020
5177 Clear 28 1007 54 10000 4.6 150 21:54 09.04.2020
5178 Clear 28 1007 61 10000 4.1 140 21:36 09.04.2020
5179 Clear 28 1007 61 10000 4.1 140 21:18 09.04.2020
5180 Clear 28 1008 61 10000 4.6 140 20:41 09.04.2020
5181 Clear 28 1008 61 10000 4.6 140 20:20 09.04.2020
5182 Clear 28 1007 65 10000 4.1 130 19:56 09.04.2020
5183 Clear 29 1007 58 10000 4.1 130 19:36 09.04.2020
5184 Clear 29 1007 58 10000 4.1 130 19:18 09.04.2020
5185 Clear 28 1007 54 10000 3.6 110 18:41 09.04.2020
5186 Clear 28 1007 54 10000 3.6 110 18:18 09.04.2020
5187 Clear 28 1007 58 10000 3.6 110 18:18 09.04.2020
5188 Clear 28 1007 58 10000 3.1 90 17:40 09.04.2020
5189 Clear 28 1007 58 10000 3.1 90 17:22 09.04.2020
5190 Clear 29 1007 54 10000 5.7 90 16:56 09.04.2020
5191 Clear 29 1007 54 10000 5.7 90 16:56 09.04.2020
5192 Clear 30 1007 54 10000 5.7 90 16:37 09.04.2020
5193 Clear 30 1007 54 10000 5.7 90 16:37 09.04.2020
5194 Clear 30 1007 54 10000 5.7 90 16:18 09.04.2020
5195 Clear 31 1007 48 10000 7.2 80 15:54 09.04.2020
5196 Clear 31 1007 51 10000 7.2 70 15:36 09.04.2020
5197 Clouds 31 1007 51 10000 7.2 70 15:18 09.04.2020
5198 Clouds 32 1007 45 10000 7.2 70 14:39 09.04.2020
5199 Clouds 32 1007 45 10000 7.2 70 14:20 09.04.2020
5200 Clouds 33 1008 40 10000 6.7 70 13:43 09.04.2020
5201 Clouds 33 1008 40 10000 6.7 70 13:24 09.04.2020
5202 Clouds 33 1008 40 10000 7.2 70 12:59 09.04.2020
5203 Clouds 33 1008 36 10000 5.7 70 12:40 09.04.2020
5204 Clear 34 1008 36 10000 5.7 70 12:21 09.04.2020
5205 Clear 34 1009 38 10000 6.2 70 11:56 09.04.2020
5206 Clear 34 1009 33 10000 5.7 60 11:37 09.04.2020
5207 Clear 34 1009 33 10000 5.7 60 11:19 09.04.2020
5208 Clear 35 1010 24 10000 5.7 40 10:55 09.04.2020
5209 Clear 35 1010 24 10000 5.7 40 10:37 09.04.2020
5210 Clear 35 1010 24 10000 5.7 40 10:37 09.04.2020
5211 Clear 35 1010 24 10000 5.7 40 10:18 09.04.2020
5212 Clouds 35 1010 29 10000 4.6 20 09:40 09.04.2020
5213 Clear 34 1010 29 10000 4.6 20 09:21 09.04.2020
5214 Clear 34 1010 26 10000 3.1 360 08:58 09.04.2020
5215 Clear 35 1010 20 10000 2.1 160 08:40 09.04.2020
5216 Clear 35 1010 20 10000 2.1 160 08:21 09.04.2020
5217 Clear 33 1010 21 10000 2.6 180 07:50 09.04.2020
5218 Clear 29 1010 29 10000 4.1 260 07:22 09.04.2020
5219 Clear 31 1010 29 10000 4.1 260 06:48 09.04.2020
5220 Clear 31 1010 29 10000 4.1 260 06:48 09.04.2020
5221 Clear 28 1008 37 10000 3.6 170 05:49 09.04.2020
5222 Clear 27 1008 39 10000 4.1 160 05:26 09.04.2020
5223 Clear 27 1007 45 10000 5.7 160 02:37 09.04.2020
5224 Clear 27 1007 51 10000 5.7 160 01:57 09.04.2020
5225 Clear 27 1007 51 10000 6.2 150 01:37 09.04.2020
5226 Clear 27 1007 51 10000 6.2 150 01:19 09.04.2020
5227 Clear 27 1008 54 10000 5.7 150 00:38 09.04.2020
5228 Clear 27 1008 54 10000 5.7 150 00:18 09.04.2020
5229 Clear 27 1008 45 10000 5.7 150 23:42 08.04.2020
5230 Clear 27 1008 45 10000 5.7 150 23:23 08.04.2020
5231 Clear 28 1009 45 10000 5.7 140 22:56 08.04.2020
5232 Clear 28 1009 45 10000 5.7 140 22:38 08.04.2020
5233 Clear 27 1009 51 10000 5.7 140 22:19 08.04.2020
5234 Clear 27 1009 51 10000 5.7 140 21:55 08.04.2020
5235 Clear 27 1009 57 10000 5.1 130 21:37 08.04.2020
5236 Clear 27 1009 57 10000 5.1 130 21:37 08.04.2020
5237 Clouds 27 1009 57 10000 5.1 130 21:18 08.04.2020
5238 Clouds 28 1009 54 10000 3.6 120 20:41 08.04.2020
5239 Clouds 28 1008 54 10000 3.6 110 20:21 08.04.2020
5240 Clouds 28 1008 54 10000 3.6 110 19:59 08.04.2020
5241 Clouds 28 1008 54 10000 3.6 110 19:40 08.04.2020
5242 Clouds 28 1008 54 10000 3.6 110 19:21 08.04.2020
5243 Clouds 28 1008 48 10000 4.1 110 18:55 08.04.2020
5244 Clouds 28 1008 48 10000 3.6 110 18:36 08.04.2020
5245 Clouds 28 1008 48 10000 3.6 110 18:18 08.04.2020
5246 Clouds 28 1008 54 10000 3.6 80 17:42 08.04.2020
5247 Clouds 29 1008 54 10000 3.6 80 17:20 08.04.2020
5248 Clouds 29 1008 37 10000 4.1 110 16:56 08.04.2020
5249 Clouds 30 1008 37 10000 4.1 110 16:37 08.04.2020
5250 Clouds 31 1008 37 10000 4.6 100 16:19 08.04.2020
5251 Clouds 30 1008 45 10000 5.1 90 15:39 08.04.2020
5252 Clear 32 1008 45 10000 5.1 90 15:20 08.04.2020
5253 Clear 32 1008 45 10000 5.1 90 14:57 08.04.2020
5254 Clear 33 1007 40 10000 6.7 110 14:39 08.04.2020
5255 Clear 33 1007 40 10000 6.7 110 14:21 08.04.2020
5256 Clear 37 1009 19 10000 6.2 120 13:44 08.04.2020
5257 Clear 36 1009 19 10000 6.2 120 13:21 08.04.2020
5258 Clear 36 1009 19 10000 6.2 120 12:54 08.04.2020
5259 Clear 37 1009 11 10000 4.6 190 12:36 08.04.2020
5260 Clear 37 1009 11 10000 4.6 190 12:18 08.04.2020
5261 Clear 37 1009 11 10000 4.6 190 12:18 08.04.2020
5262 Clear 37 1010 11 10000 5.7 180 11:41 08.04.2020
5263 Clear 37 1010 11 10000 5.7 180 11:41 08.04.2020
5264 Clear 37 1010 11 10000 5.7 180 11:22 08.04.2020
5265 Clear 37 1010 11 10000 5.1 160 10:58 08.04.2020
5266 Clear 37 1011 13 10000 4.6 190 10:39 08.04.2020
5267 Clear 37 1011 13 10000 4.6 190 10:20 08.04.2020
5268 Clear 35 1011 15 10000 4.1 190 09:56 08.04.2020
5269 Clear 35 1011 11 10000 5.7 160 09:38 08.04.2020
5270 Clear 35 1011 11 10000 5.7 160 09:18 08.04.2020
5271 Clear 33 1011 17 10000 5.1 160 08:56 08.04.2020
5272 Clear 33 1011 19 10000 4.1 170 08:38 08.04.2020
5273 Clear 33 1011 19 10000 4.1 170 08:20 08.04.2020
5274 Clear 30 1011 31 10000 2.1 170 07:42 08.04.2020
5275 Clear 31 1011 31 10000 2.1 170 07:20 08.04.2020
5276 Clear 27 1010 39 10000 1.5 200 06:23 08.04.2020
5277 Clear 23 1009 56 10000 4.61 179 04:54 08.04.2020
5278 Clear 24 1008 53 10000 1 0 02:50 08.04.2020
5279 Clear 24 1009 50 10000 0.5 0 02:21 08.04.2020
5280 Clear 25 1009 47 10000 1.5 220 01:56 08.04.2020
5281 Clear 25 1009 44 10000 2.6 210 01:27 08.04.2020
5282 Clear 25 1009 50 10000 1.5 180 00:44 08.04.2020
5283 Clear 25 1009 50 10000 1.5 180 00:23 08.04.2020
5284 Clear 25 1010 47 10000 1.5 180 23:40 07.04.2020
5285 Clear 25 1010 47 10000 1.5 180 23:22 07.04.2020
5286 Clear 25 1010 50 10000 1.5 170 22:58 07.04.2020
5287 Clear 25 1010 53 10000 1.5 140 22:40 07.04.2020
5288 Clear 25 1010 53 10000 1.5 140 22:21 07.04.2020
5289 Clear 26 1010 53 10000 1 130 21:58 07.04.2020
5290 Clouds 26 1010 53 10000 1.5 130 21:40 07.04.2020
5291 Clouds 26 1010 50 10000 2.1 170 21:20 07.04.2020
5292 Clouds 26 1010 50 10000 2.1 170 20:58 07.04.2020
5293 Clouds 26 1010 50 10000 2.1 170 20:39 07.04.2020
5294 Clouds 26 1010 50 10000 2.1 170 20:20 07.04.2020
5295 Clouds 27 1010 44 10000 2.6 170 19:57 07.04.2020
5296 Clouds 27 1010 44 10000 2.6 170 19:37 07.04.2020
5297 Clouds 27 1010 39 10000 2.6 170 19:19 07.04.2020
5298 Clouds 27 1010 39 10000 2.6 170 19:19 07.04.2020
5299 Clouds 27 1010 39 10000 2.6 170 18:57 07.04.2020
5300 Clouds 27 1010 44 10000 2.1 130 18:39 07.04.2020
5301 Clouds 27 1010 44 10000 2.1 130 18:19 07.04.2020
5302 Clouds 27 1010 44 10000 2.1 130 17:45 07.04.2020
5303 Clouds 27 1010 42 10000 2.6 70 17:21 07.04.2020
5304 Clouds 29 1010 32 10000 3.6 50 16:48 07.04.2020
5305 Clouds 29 1009 34 10000 5.1 50 16:29 07.04.2020
5306 Clouds 30 1010 25 10000 4.6 30 15:59 07.04.2020
5307 Clouds 30 1010 25 10000 4.6 30 15:41 07.04.2020
5308 Clouds 30 1009 28 10000 4.6 50 15:23 07.04.2020
5309 Clouds 31 1010 30 10000 5.1 30 14:42 07.04.2020
5310 Clouds 30 1010 30 10000 5.1 30 14:23 07.04.2020
5311 Clouds 32 1010 25 10000 5.7 40 13:57 07.04.2020
5312 Clouds 32 1010 31 10000 5.7 50 13:39 07.04.2020
5313 Clouds 32 1010 31 10000 5.7 50 13:18 07.04.2020
5314 Clouds 33 1010 35 10000 5.7 70 12:55 07.04.2020
5315 Clouds 34 1011 27 10000 4.1 70 12:36 07.04.2020
5316 Clear 35 1011 27 10000 4.1 70 12:18 07.04.2020
5317 Clear 35 1012 17 10000 3.6 360 11:44 07.04.2020
5318 Clear 34 1012 17 10000 3.6 360 11:26 07.04.2020
5319 Clear 34 1012 17 10000 3.6 360 11:26 07.04.2020
5320 Clear 34 1012 14 10000 4.1 340 10:59 07.04.2020
5321 Clear 35 1013 13 10000 2.6 310 10:38 07.04.2020
5322 Clear 34 1013 13 10000 2.6 310 10:19 07.04.2020
5323 Clear 34 1014 14 10000 3.6 300 09:45 07.04.2020
5324 Clear 33 1014 15 10000 2.6 300 09:20 07.04.2020
5325 Clear 32 1014 18 10000 2.6 300 08:57 07.04.2020
5326 Clear 31 1014 18 10000 2.1 290 08:38 07.04.2020
5327 Clear 31 1014 18 10000 2.1 290 08:19 07.04.2020
5328 Clear 30 1014 18 10000 1.5 290 07:44 07.04.2020
5329 Clear 30 1014 18 10000 1.5 290 07:26 07.04.2020
5330 Clear 28 1014 15 10000 1.5 220 06:51 07.04.2020
5331 Clear 26 1013 26 10000 1.5 320 06:25 07.04.2020
5332 Clear 24 1012 25 10000 1 0 05:48 07.04.2020
5333 Clear 23 1012 28 10000 3.49 319 05:23 07.04.2020
5334 Clear 23 1012 28 10000 0.5 350 03:34 07.04.2020
5335 Clear 23 1012 25 10000 1 0 02:59 07.04.2020
5336 Clear 23 1012 23 10000 1 0 02:33 07.04.2020
5337 Clear 24 1012 21 10000 2.6 280 01:33 07.04.2020
5338 Clear 25 1012 19 10000 2.6 260 00:44 07.04.2020
5339 Clear 25 1012 19 10000 2.6 260 00:25 07.04.2020
5340 Clear 26 1013 12 10000 2.6 260 23:39 06.04.2020
5341 Clear 26 1013 12 10000 2.6 260 23:20 06.04.2020
5342 Clear 26 1013 13 10000 2.1 270 22:41 06.04.2020
5343 Clear 26 1013 13 10000 2.1 270 22:23 06.04.2020
5344 Clear 26 1013 15 10000 2.6 280 21:59 06.04.2020
5345 Clear 26 1013 14 10000 2.6 290 21:40 06.04.2020
5346 Clear 26 1013 14 10000 2.6 290 21:19 06.04.2020
5347 Clear 27 1013 26 10000 2.6 280 20:56 06.04.2020
5348 Clear 27 1013 26 10000 2.6 290 20:38 06.04.2020
5349 Clear 27 1013 26 10000 2.6 290 20:19 06.04.2020
5350 Clear 27 1013 16 10000 2.1 280 19:54 06.04.2020
5351 Clear 28 1013 17 10000 2.1 300 19:36 06.04.2020
5352 Clear 28 1013 16 10000 2.1 290 19:18 06.04.2020
5353 Clear 28 1013 15 10000 2.1 270 18:41 06.04.2020
5354 Clouds 28 1013 15 10000 2.1 270 18:23 06.04.2020
5355 Clouds 29 1013 15 10000 2.6 310 17:55 06.04.2020
5356 Clouds 29 1013 14 10000 3.1 310 17:37 06.04.2020
5357 Clouds 30 1013 14 10000 3.1 310 17:18 06.04.2020
5358 Clouds 31 1013 14 10000 3.1 320 16:47 06.04.2020
5359 Clouds 31 1013 20 10000 4.6 350 16:29 06.04.2020
5360 Clouds 32 1013 33 10000 5.7 10 14:46 06.04.2020
5361 Clouds 32 1013 33 10000 5.7 10 14:46 06.04.2020
5362 Clouds 32 1013 33 10000 5.7 10 14:46 06.04.2020
5363 Clouds 32 1013 33 10000 5.7 10 14:46 06.04.2020
5364 Clouds 32 1013 33 10000 5.7 10 14:46 06.04.2020
5365 Clouds 32 1013 19 10000 5.1 360 13:44 06.04.2020
5366 Clouds 32 1013 22 10000 6.2 350 13:21 06.04.2020
5367 Clouds 32 1013 22 10000 6.2 350 13:21 06.04.2020
5368 Clouds 33 1014 17 10000 7.2 360 12:41 06.04.2020
5369 Clouds 33 1014 18 10000 6.7 350 12:41 06.04.2020
5370 Clouds 33 1014 17 10000 7.2 360 12:18 06.04.2020
5371 Clouds 33 1014 17 10000 7.2 360 12:18 06.04.2020
5372 Clouds 33 1014 13 10000 6.7 330 11:40 06.04.2020
5373 Clouds 33 1014 13 10000 6.7 330 11:40 06.04.2020
5374 Clouds 33 1014 13 10000 6.7 330 11:40 06.04.2020
5375 Clouds 33 1015 14 10000 5.1 320 10:53 06.04.2020
5376 Clouds 33 1015 14 10000 5.1 320 10:53 06.04.2020
5377 Clouds 33 1015 14 10000 5.1 320 10:53 06.04.2020
5378 Clouds 32 1015 19 10000 5.1 330 10:23 06.04.2020
5379 Clouds 31 1016 23 10000 4.6 320 10:03 06.04.2020
5380 Clouds 31 1016 23 10000 4.6 320 10:03 06.04.2020
5381 Clouds 31 1016 23 10000 4.6 320 09:37 06.04.2020
5382 Clouds 30 1016 27 10000 5.1 310 09:18 06.04.2020
5383 Clouds 29 1016 30 10000 5.1 310 08:41 06.04.2020
5384 Clouds 29 1016 30 10000 5.1 310 08:41 06.04.2020
5385 Clouds 29 1016 30 10000 5.1 310 08:41 06.04.2020
5386 Clouds 29 1016 30 10000 5.1 310 08:41 06.04.2020
5387 Clouds 28 1016 26 10000 4.6 300 07:56 06.04.2020
5388 Clouds 28 1016 26 10000 4.6 300 07:56 06.04.2020
5389 Clouds 28 1016 26 10000 4.6 300 07:56 06.04.2020
5390 Clouds 28 1016 26 10000 5.1 300 07:20 06.04.2020
5391 Clouds 26 1015 36 10000 3.1 280 06:26 06.04.2020
5392 Clouds 23 1015 44 10000 2.6 270 05:42 06.04.2020
5393 Clouds 23 1014 50 10000 2.6 270 03:32 06.04.2020
5394 Clouds 23 1014 50 10000 2.6 270 02:49 06.04.2020
5395 Clouds 23 1014 50 10000 2.6 270 02:49 06.04.2020
5396 Clouds 23 1014 50 10000 2.6 280 01:53 06.04.2020
5397 Clouds 24 1014 44 10000 3.1 240 00:52 06.04.2020
5398 Clouds 23 1014 44 10000 3.1 240 00:27 06.04.2020
5399 Clear 24 1014 41 10000 2.1 260 23:50 05.04.2020
5400 Clear 24 1014 38 10000 2.1 250 23:32 05.04.2020
5401 Clear 24 1014 38 10000 2.1 250 23:32 05.04.2020
5402 Clear 24 1014 38 10000 2.1 250 23:32 05.04.2020
5403 Clear 24 1015 34 10000 3.1 300 22:57 05.04.2020
5404 Clear 24 1015 34 10000 3.1 300 22:38 05.04.2020
5405 Clear 24 1015 34 10000 2.6 310 22:19 05.04.2020
5406 Clear 25 1015 28 10000 4.1 320 21:58 05.04.2020
5407 Clear 25 1015 28 10000 4.1 320 21:39 05.04.2020
5408 Clear 26 1015 28 10000 4.6 320 21:21 05.04.2020
5409 Clouds 26 1015 31 10000 6.2 330 20:21 05.04.2020
5410 Clouds 26 1015 26 10000 5.7 330 19:41 05.04.2020
5411 Clouds 27 1015 23 10000 6.2 330 19:22 05.04.2020
5412 Clouds 28 1015 20 10000 6.2 330 18:47 05.04.2020
5413 Clear 29 1014 20 10000 6.7 330 17:59 05.04.2020
5414 Clear 29 1014 20 10000 6.7 330 17:40 05.04.2020
5415 Clear 29 1014 20 10000 6.7 330 17:40 05.04.2020
5416 Clear 29 1014 20 10000 6.7 330 17:40 05.04.2020
5417 Clear 29 1014 20 10000 6.7 330 17:40 05.04.2020
5418 Clear 29 1014 20 10000 6.7 330 17:40 05.04.2020
5419 Clear 29 1014 20 10000 8.2 330 17:20 05.04.2020
5420 Clear 29 1014 20 10000 8.2 330 17:20 05.04.2020
5421 Clear 31 1014 20 10000 7.2 330 16:46 05.04.2020
5422 Clear 31 1014 20 10000 7.2 330 16:46 05.04.2020
5423 Clear 31 1014 20 10000 7.2 330 16:46 05.04.2020
5424 Clear 31 1014 20 10000 7.2 330 16:46 05.04.2020
5425 Clear 31 1014 19 10000 8.7 340 16:18 05.04.2020
5426 Clear 32 1014 19 10000 9.8 340 15:45 05.04.2020
5427 Clear 32 1014 21 10000 9.3 350 15:25 05.04.2020
5428 Clear 33 1014 21 10000 9.3 350 14:48 05.04.2020
5429 Clear 33 1014 21 10000 9.3 350 14:48 05.04.2020
5430 Clear 33 1014 21 10000 9.3 350 14:48 05.04.2020
5431 Clear 33 1014 21 10000 9.3 350 14:48 05.04.2020
5432 Clear 33 1014 21 10000 9.3 350 14:48 05.04.2020
5433 Clear 33 1014 18 10000 9.3 350 13:47 05.04.2020
5434 Clear 33 1014 18 10000 9.3 350 13:47 05.04.2020
5435 Clear 33 1014 18 10000 9.3 350 13:47 05.04.2020
5436 Clear 33 1014 18 10000 9.3 350 13:47 05.04.2020
5437 Clear 33 1014 18 10000 9.3 350 13:47 05.04.2020
5438 Clear 33 1015 26 10000 8.2 360 12:57 05.04.2020
5439 Clear 33 1015 26 10000 8.2 360 12:57 05.04.2020
5440 Clear 33 1015 24 10000 6.7 10 11:58 05.04.2020
5441 Clear 33 1015 24 10000 6.7 10 11:38 05.04.2020
5442 Clear 33 1016 22 10000 7.2 360 11:19 05.04.2020
5443 Clear 33 1016 21 10000 6.7 360 10:45 05.04.2020
5444 Clear 33 1016 18 10000 7.2 350 10:21 05.04.2020
5445 Clear 32 1016 18 10000 7.7 350 09:52 05.04.2020
5446 Clear 32 1016 18 10000 7.7 350 09:52 05.04.2020
5447 Clear 32 1016 21 10000 7.7 330 09:25 05.04.2020
5448 Clear 32 1016 21 10000 7.7 330 09:25 05.04.2020
5449 Clear 32 1016 21 10000 7.7 330 09:25 05.04.2020
5450 Clear 32 1016 21 10000 7.7 330 09:25 05.04.2020
5451 Clear 32 1016 21 10000 7.7 330 09:25 05.04.2020
5452 Clouds 28 1016 22 10000 4.6 330 07:58 05.04.2020
5453 Clouds 25 1014 36 10000 4.1 330 04:57 05.04.2020
5454 Clouds 24 1014 36 10000 2.6 330 03:35 05.04.2020
5455 Rain 24 1013 33 10000 3.6 330 02:56 05.04.2020
5456 Clouds 25 1013 34 10000 2.6 320 01:52 05.04.2020
5457 Clouds 25 1013 41 10000 3.6 330 01:33 05.04.2020
5458 Clouds 24 1013 44 10000 3.6 330 00:52 05.04.2020
5459 Clouds 25 1013 47 10000 4.1 330 00:22 05.04.2020
5460 Clouds 25 1014 50 10000 2.6 320 23:58 04.04.2020
5461 Clouds 25 1014 50 10000 2.6 320 23:58 04.04.2020
5462 Clouds 25 1014 50 10000 2.6 320 23:38 04.04.2020
5463 Clouds 25 1014 50 10000 2.6 330 23:20 04.04.2020
5464 Clouds 25 1014 53 10000 3.6 340 22:56 04.04.2020
5465 Clouds 25 1014 53 10000 3.6 340 22:38 04.04.2020
5466 Clouds 25 1014 47 10000 3.1 320 22:19 04.04.2020
5467 Clouds 25 1014 50 10000 2.6 320 21:55 04.04.2020
5468 Clouds 25 1014 50 10000 2.6 320 21:37 04.04.2020
5469 Clouds 26 1014 50 10000 2.1 330 21:18 04.04.2020
5470 Clouds 26 1014 50 10000 3.1 330 20:43 04.04.2020
5471 Clouds 26 1014 57 10000 3.6 330 20:23 04.04.2020
5472 Clouds 26 1013 61 10000 4.1 340 19:59 04.04.2020
5473 Clouds 26 1013 61 10000 4.1 340 19:38 04.04.2020
5474 Clouds 26 1013 57 10000 4.1 350 19:20 04.04.2020
5475 Clouds 27 1013 57 10000 4.6 360 18:58 04.04.2020
5476 Clouds 27 1013 57 10000 4.1 350 18:39 04.04.2020
5477 Clouds 27 1013 57 10000 4.1 350 18:19 04.04.2020
5478 Clouds 27 1013 65 10000 6.2 350 17:56 04.04.2020
5479 Clouds 27 1013 65 10000 6.2 350 17:38 04.04.2020
5480 Clouds 27 1012 69 10000 6.2 350 17:19 04.04.2020
5481 Clouds 28 1012 54 10000 4.1 10 16:42 04.04.2020
5482 Clouds 29 1012 48 10000 4.6 360 16:23 04.04.2020
5483 Clouds 29 1012 45 10000 4.1 10 15:58 04.04.2020
5484 Clouds 31 1012 37 10000 3.6 20 15:38 04.04.2020
5485 Clear 31 1012 37 10000 3.6 20 15:19 04.04.2020
5486 Clear 31 1012 37 10000 3.6 20 15:19 04.04.2020
5487 Clear 31 1012 37 10000 3.6 20 15:19 04.04.2020
5488 Clear 31 1012 37 10000 3.6 20 14:46 04.04.2020
5489 Clear 31 1012 30 10000 4.1 30 14:25 04.04.2020
5490 Clouds 32 1012 27 10000 5.7 40 14:00 04.04.2020
5491 Clouds 32 1012 27 10000 5.7 40 13:41 04.04.2020
5492 Clouds 32 1012 22 10000 5.1 50 13:20 04.04.2020
5493 Clouds 32 1012 21 10000 5.1 40 12:57 04.04.2020
5494 Clouds 32 1013 19 10000 5.1 20 12:39 04.04.2020
5495 Clouds 32 1013 19 10000 5.1 20 12:19 04.04.2020
5496 Clouds 30 1013 25 10000 6.2 10 11:41 04.04.2020
5497 Clouds 30 1013 30 10000 6.7 20 11:23 04.04.2020
5498 Clouds 30 1013 33 10000 7.2 20 10:58 04.04.2020
5499 Clouds 30 1013 33 10000 7.2 20 10:40 04.04.2020
5500 Clouds 31 1014 33 10000 6.7 10 10:22 04.04.2020
5501 Clouds 29 1014 35 10000 6.2 10 09:55 04.04.2020
5502 Clouds 29 1014 35 10000 6.2 10 09:37 04.04.2020
5503 Clear 29 1014 35 10000 6.7 10 09:19 04.04.2020
5504 Clear 28 1014 45 10000 7.2 350 08:42 04.04.2020
5505 Clear 28 1014 48 10000 6.7 350 08:23 04.04.2020
5506 Clear 27 1014 57 10000 6.2 350 07:55 04.04.2020
5507 Clear 26 1014 61 10000 5.1 350 07:37 04.04.2020
5508 Clear 26 1014 61 10000 5.1 350 07:19 04.04.2020
5509 Clear 25 1013 69 10000 3.6 350 06:22 04.04.2020
5510 Clear 23 1013 73 10000 3.6 340 05:51 04.04.2020
5511 Clear 23 1013 73 10000 3.6 340 05:32 04.04.2020
5512 Clear 23 1012 78 10000 2.6 340 04:34 04.04.2020
5513 Clear 23 1011 78 10000 3.1 350 03:55 04.04.2020
5514 Clear 23 1011 78 10000 3.1 350 03:27 04.04.2020
5515 Clear 24 1011 64 10000 2.1 10 02:42 04.04.2020
5516 Clear 24 1011 60 10000 1.5 50 02:24 04.04.2020
5517 Clear 24 1010 64 10000 1 40 01:27 04.04.2020
5518 Clear 24 1010 73 10000 1 20 00:58 04.04.2020
5519 Clear 24 1010 69 10000 2.6 350 00:31 04.04.2020
5520 Clear 25 1011 69 10000 2.6 360 23:57 03.04.2020
5521 Clear 25 1011 69 10000 2.6 360 23:38 03.04.2020
5522 Clear 25 1011 60 10000 2.1 20 23:19 03.04.2020
5523 Clear 26 1011 57 10000 2.1 50 22:40 03.04.2020
5524 Clear 26 1011 57 10000 1.5 60 22:19 03.04.2020
5525 Clear 26 1011 57 10000 1.5 60 22:19 03.04.2020
5526 Clear 26 1011 53 10000 2.1 40 21:57 03.04.2020
5527 Clear 26 1011 53 10000 2.1 40 21:38 03.04.2020
5528 Clouds 26 1011 47 10000 2.1 50 21:20 03.04.2020
5529 Clouds 26 1011 47 10000 3.1 40 20:55 03.04.2020
5530 Clouds 26 1011 50 10000 3.1 60 20:36 03.04.2020
5531 Clouds 26 1011 50 10000 3.1 60 20:18 03.04.2020
5532 Clouds 26 1011 57 10000 3.1 30 19:55 03.04.2020
5533 Clouds 26 1011 57 10000 3.1 30 19:36 03.04.2020
5534 Clouds 26 1010 57 10000 3.1 50 19:18 03.04.2020
5535 Clouds 26 1010 61 10000 4.1 60 18:57 03.04.2020
5536 Clouds 26 1010 61 10000 4.1 50 18:39 03.04.2020
5537 Clouds 26 1010 61 10000 4.1 50 18:39 03.04.2020
5538 Clear 26 1010 61 10000 4.1 50 18:21 03.04.2020
5539 Clear 26 1010 61 10000 2.6 20 17:41 03.04.2020
5540 Clear 26 1010 65 10000 2.6 40 17:19 03.04.2020
5541 Clear 27 1010 65 10000 3.6 50 16:55 03.04.2020
5542 Clear 27 1010 61 10000 3.6 60 16:37 03.04.2020
5543 Clear 27 1010 61 10000 3.6 60 16:19 03.04.2020
5544 Clear 28 1010 65 10000 4.1 50 15:56 03.04.2020
5545 Clear 29 1010 65 10000 5.1 40 15:37 03.04.2020
5546 Clouds 29 1010 65 10000 5.1 30 15:19 03.04.2020
5547 Clouds 30 1010 42 0 3.58 101 14:40 03.04.2020
5548 Clouds 29 1010 65 10000 4.6 10 14:22 03.04.2020
5549 Clouds 30 1010 65 10000 4.6 10 13:54 03.04.2020
5550 Clouds 30 1010 65 10000 4.6 10 13:36 03.04.2020
5551 Clouds 30 1010 65 10000 4.6 10 13:18 03.04.2020
5552 Clouds 30 1011 58 10000 4.1 20 12:42 03.04.2020
5553 Clouds 30 1011 58 10000 4.1 20 12:19 03.04.2020
5554 Clouds 31 1011 45 10000 3.1 40 11:56 03.04.2020
5555 Clouds 31 1012 48 10000 3.1 60 11:37 03.04.2020
5556 Clouds 31 1012 48 10000 3.1 60 11:18 03.04.2020
5557 Clouds 31 1012 54 10000 3.1 50 10:57 03.04.2020
5558 Clouds 31 1012 54 10000 3.1 50 10:38 03.04.2020
5559 Clouds 31 1012 48 10000 3.6 80 10:20 03.04.2020
5560 Clouds 31 1012 48 10000 3.6 80 10:20 03.04.2020
5561 Clouds 31 1012 31 10000 4.6 120 09:57 03.04.2020
5562 Clouds 30 1012 31 10000 4.6 120 09:38 03.04.2020
5563 Clouds 30 1012 33 10000 5.7 140 09:20 03.04.2020
5564 Clouds 28 1012 48 10000 4.6 130 08:45 03.04.2020
5565 Clouds 28 1012 57 10000 4.6 140 08:25 03.04.2020
5566 Clouds 27 1011 65 10000 4.1 130 07:59 03.04.2020
5567 Clouds 27 1011 65 10000 4.1 130 07:40 03.04.2020
5568 Clouds 26 1011 65 10000 5.1 130 07:22 03.04.2020
5569 Clouds 26 1010 73 10000 3.1 120 06:29 03.04.2020
5570 Clouds 23 1010 73 10000 3.1 130 05:43 03.04.2020
5571 Clouds 24 1010 78 10000 3.1 130 05:21 03.04.2020
5572 Clouds 24 1009 78 10000 1.5 110 03:37 03.04.2020
5573 Clouds 24 1009 83 10000 2.1 110 02:47 03.04.2020
5574 Clouds 24 1009 73 10000 1.5 110 01:27 03.04.2020
5575 Clouds 24 1009 73 10000 2.1 120 00:56 03.04.2020
5576 Clouds 24 1009 69 10000 2.6 130 00:33 03.04.2020
5577 Clouds 25 1010 73 10000 2.6 110 23:57 02.04.2020
5578 Clouds 25 1010 73 10000 2.6 110 23:38 02.04.2020
5579 Clouds 25 1010 69 10000 2.6 110 23:19 02.04.2020
5580 Clouds 25 1010 69 10000 3.1 100 22:43 02.04.2020
5581 Clouds 25 1010 69 10000 2.6 110 22:24 02.04.2020
5582 Clouds 25 1010 65 10000 3.1 110 21:59 02.04.2020
5583 Clouds 25 1010 65 10000 3.1 110 21:59 02.04.2020
5584 Clouds 25 1010 65 10000 3.1 110 21:59 02.04.2020
5585 Clouds 25 1010 65 10000 3.1 110 21:37 02.04.2020
5586 Clear 25 1010 65 10000 2.6 120 21:19 02.04.2020
5587 Clear 25 1010 65 10000 3.1 110 20:54 02.04.2020
5588 Clear 26 1010 65 10000 3.1 110 20:36 02.04.2020
5589 Clear 26 1010 65 10000 2.6 110 20:18 02.04.2020
5590 Clear 26 1010 65 10000 2.1 100 19:42 02.04.2020
5591 Clear 26 1010 65 10000 2.1 100 19:20 02.04.2020
5592 Clear 26 1010 61 10000 2.1 110 18:56 02.04.2020
5593 Clear 26 1010 61 10000 2.6 120 18:38 02.04.2020
5594 Clear 26 1010 61 10000 2.6 120 18:19 02.04.2020
5595 Clear 26 1010 61 10000 3.1 120 17:43 02.04.2020
5596 Clear 27 1009 54 10000 3.6 120 17:24 02.04.2020
5597 Clear 28 1009 50 10000 4.1 120 16:59 02.04.2020
5598 Clear 28 1009 50 10000 4.1 120 16:40 02.04.2020
5599 Clear 28 1009 44 10000 4.1 120 16:22 02.04.2020
5600 Clear 29 1009 47 10000 4.1 120 15:57 02.04.2020
5601 Clear 29 1009 47 10000 4.1 120 15:39 02.04.2020
5602 Clear 29 1009 48 10000 4.6 110 15:19 02.04.2020
5603 Clear 30 1009 39 10000 5.7 120 14:57 02.04.2020
5604 Clear 30 1009 39 10000 5.7 120 14:38 02.04.2020
5605 Clear 30 1009 51 10000 5.1 120 14:19 02.04.2020
5606 Clouds 30 1009 45 10000 5.7 120 13:55 02.04.2020
5607 Clouds 30 1010 42 10000 4.6 110 13:37 02.04.2020
5608 Clouds 31 1010 42 10000 4.6 110 13:18 02.04.2020
5609 Clouds 31 1010 39 10000 4.6 120 12:46 02.04.2020
5610 Clear 31 1011 37 10000 3.6 120 12:20 02.04.2020
5611 Clear 30 1011 39 10000 4.1 110 11:58 02.04.2020
5612 Clear 30 1011 39 10000 4.1 110 11:39 02.04.2020
5613 Clear 30 1012 42 10000 4.6 110 11:20 02.04.2020
5614 Clear 29 1012 42 10000 4.6 110 10:57 02.04.2020
5615 Clear 29 1012 48 10000 4.6 120 10:38 02.04.2020
5616 Clear 29 1012 48 10000 4.6 120 10:20 02.04.2020
5617 Clear 28 1012 45 10000 4.6 120 09:59 02.04.2020
5618 Clear 28 1012 45 10000 4.6 120 09:41 02.04.2020
5619 Clear 28 1013 48 10000 3.6 120 09:21 02.04.2020
5620 Clear 28 1013 42 10000 4.1 120 08:48 02.04.2020
5621 Clear 28 1013 47 10000 3.6 130 08:28 02.04.2020
5622 Clear 25 1013 50 10000 2.6 120 07:59 02.04.2020
5623 Clear 25 1013 57 10000 2.1 150 07:40 02.04.2020
5624 Clear 25 1013 57 10000 2.1 150 07:19 02.04.2020
5625 Clear 25 1012 64 10000 1 0 06:25 02.04.2020
5626 Clear 23 1012 64 10000 1 0 05:46 02.04.2020
5627 Clear 22 1011 68 10000 3.1 140 05:18 02.04.2020
5628 Clear 22 1011 60 10000 1.5 200 02:26 02.04.2020
5629 Clear 22 1011 64 10000 0.5 0 01:27 02.04.2020
5630 Clear 22 1011 64 10000 3.95 108 00:41 02.04.2020
5631 Clear 22 1012 64 10000 1 0 00:20 02.04.2020
5632 Clear 23 1012 60 10000 1.5 10 23:40 01.04.2020
5633 Clear 23 1012 60 10000 1.5 340 23:19 01.04.2020
5634 Clear 23 1012 60 10000 2.1 10 22:57 01.04.2020
5635 Clear 23 1012 60 10000 2.1 10 22:57 01.04.2020
5636 Clear 23 1012 60 10000 2.1 10 22:57 01.04.2020
5637 Clear 23 1012 60 10000 2.1 10 22:38 01.04.2020
5638 Clear 23 1012 56 10000 1 360 22:19 01.04.2020
5639 Clear 24 1013 60 10000 0.5 0 21:41 01.04.2020
5640 Clear 24 1013 60 10000 1 0 21:19 01.04.2020
5641 Clear 24 1013 53 10000 1.5 60 20:57 01.04.2020
5642 Clear 25 1013 53 10000 1.5 60 20:38 01.04.2020
5643 Clear 25 1013 53 10000 1.5 40 20:20 01.04.2020
5644 Clear 25 1013 53 10000 2.1 60 19:58 01.04.2020
5645 Clear 25 1013 53 10000 2.1 60 19:39 01.04.2020
5646 Clear 25 1013 47 10000 2.6 50 19:19 01.04.2020
5647 Clear 25 1013 47 10000 3.1 40 18:42 01.04.2020
5648 Clear 25 1013 47 10000 3.1 40 18:42 01.04.2020
5649 Clear 25 1013 50 10000 3.6 50 18:24 01.04.2020
5650 Clear 26 1012 44 10000 3.1 30 17:57 01.04.2020
5651 -273 0 0 0 0 0 17:38 01.04.2020
5652 Clear 27 1012 36 10000 3.1 20 17:19 01.04.2020
5653 Clear 27 1012 36 10000 3.1 20 17:19 01.04.2020
5654 Clear 28 1012 32 10000 3.6 30 16:58 01.04.2020
5655 Clear 28 1012 32 10000 3.6 30 16:39 01.04.2020
5656 Clear 28 1012 28 10000 5.1 20 16:21 01.04.2020
5657 Clear 30 1012 25 10000 4.1 30 15:57 01.04.2020
5658 Clear 30 1012 25 10000 4.1 30 15:37 01.04.2020
5659 Clear 30 1012 25 10000 4.6 40 15:18 01.04.2020
5660 Clear 31 1012 22 10000 5.1 40 14:41 01.04.2020
5661 Clear 32 1012 19 10000 4.6 30 14:23 01.04.2020
5662 Clear 32 1012 22 10000 4.6 50 13:59 01.04.2020
5663 Clear 32 1012 22 10000 4.6 50 13:40 01.04.2020
5664 Clear 32 1012 15 10000 4.6 10 13:20 01.04.2020
5665 Clear 32 1012 15 10000 4.6 10 13:20 01.04.2020
5666 Clear 32 1013 17 10000 4.1 360 12:59 01.04.2020
5667 Clear 32 1013 17 10000 4.1 360 12:41 01.04.2020
5668 Clear 32 1013 17 10000 3.6 10 12:22 01.04.2020
5669 Clear 32 1014 19 10000 3.6 360 11:57 01.04.2020
5670 Clear 32 1014 19 10000 3.6 360 11:38 01.04.2020
5671 Clear 32 1014 19 10000 3.6 20 11:20 01.04.2020
5672 Clear 30 1015 20 10000 3.1 360 10:40 01.04.2020
5673 Clear 30 1015 22 10000 3.6 340 10:21 01.04.2020
5674 Clear 29 1015 22 10000 4.1 350 09:59 01.04.2020
5675 Clear 29 1015 22 10000 4.1 350 09:40 01.04.2020
5676 Clear 29 1016 23 10000 4.1 340 09:20 01.04.2020
5677 Clear 27 1016 26 10000 3.6 350 08:56 01.04.2020
5678 Clear 27 1016 26 10000 3.6 350 08:37 01.04.2020
5679 Clear 27 1016 32 10000 4.1 350 08:18 01.04.2020
5680 Clear 26 1016 30 10000 4.1 350 07:41 01.04.2020
5681 Clear 26 1016 34 10000 2.6 320 07:19 01.04.2020
5682 Clear 25 1016 36 10000 2.1 310 06:43 01.04.2020
5683 Clear 22 1015 43 10000 2.1 310 06:21 01.04.2020
5684 Clear 21 1015 43 10000 2.1 310 05:41 01.04.2020
5685 Clear 21 1014 40 10000 3.6 300 03:57 01.04.2020
5686 Clear 21 1014 38 10000 3.1 310 03:19 01.04.2020
5687 Clear 21 1014 38 10000 2.6 320 02:37 01.04.2020
5688 Clear 21 1013 38 10000 3.6 300 01:53 01.04.2020
5689 Clear 21 1014 38 10000 3.1 300 01:27 01.04.2020
5690 Clear 22 1014 35 10000 3.6 310 00:47 01.04.2020
5691 Clear 22 1014 35 10000 3.6 310 00:23 01.04.2020
5692 Clear 22 1014 33 10000 3.6 310 23:59 31.03.2020
5693 Clear 22 1014 33 10000 3.6 310 23:40 31.03.2020
5694 Clear 22 1014 31 10000 3.6 310 23:21 31.03.2020
5695 Clear 23 1015 31 10000 4.6 310 22:41 31.03.2020
5696 Clear 23 1015 31 10000 4.6 310 22:21 31.03.2020
5697 Clear 23 1015 29 10000 3.6 310 21:58 31.03.2020
5698 Clear 23 1015 27 10000 3.6 310 21:40 31.03.2020
5699 Clear 23 1015 27 10000 3.6 310 21:21 31.03.2020
5700 Clear 23 1015 27 10000 4.1 310 20:57 31.03.2020
5701 Clear 23 1015 27 10000 4.1 310 20:57 31.03.2020
5702 Clear 23 1015 27 10000 4.1 310 20:57 31.03.2020
5703 Clear 23 1015 27 10000 4.1 310 20:57 31.03.2020
5704 Clear 23 1015 27 10000 4.1 310 20:37 31.03.2020
5705 Clear 23 1015 27 10000 4.1 310 20:19 31.03.2020
5706 Clear 24 1015 27 10000 3.6 310 19:56 31.03.2020
5707 Clear 24 1015 24 10000 3.6 320 19:37 31.03.2020
5708 Clear 24 1015 24 10000 3.6 320 19:19 31.03.2020
5709 Clear 25 1015 24 10000 4.6 330 18:43 31.03.2020
5710 Clear 25 1015 24 10000 4.6 330 18:20 31.03.2020
5711 Clear 26 1015 24 10000 5.7 330 17:57 31.03.2020
5712 Clear 26 1014 22 10000 7.2 340 17:39 31.03.2020
5713 Clear 27 1014 22 10000 7.2 340 17:21 31.03.2020
5714 Clear 27 1014 24 10000 6.2 350 16:56 31.03.2020
5715 Clear 27 1014 24 10000 6.2 350 16:36 31.03.2020
5716 Clear 27 1014 36 10000 5.7 350 16:18 31.03.2020
5717 Clear 28 1014 42 10000 5.7 10 15:54 31.03.2020
5718 Clear 28 1014 42 10000 5.7 10 15:36 31.03.2020
5719 Clear 28 1014 42 10000 6.2 20 15:18 31.03.2020
5720 Clear 29 1014 32 10000 6.7 360 14:41 31.03.2020
5721 Clear 29 1014 32 10000 6.7 10 14:22 31.03.2020
5722 Clear 29 1014 32 10000 7.2 360 13:58 31.03.2020
5723 Clear 29 1014 32 10000 7.2 360 13:39 31.03.2020
5724 Clear 30 1014 27 10000 7.2 10 13:19 31.03.2020
5725 Clear 30 1015 25 10000 6.7 350 12:44 31.03.2020
5726 Clear 30 1015 23 10000 7.7 360 12:20 31.03.2020
5727 Clear 30 1015 23 10000 7.7 350 11:56 31.03.2020
5728 Clear 30 1015 23 10000 7.7 350 11:37 31.03.2020
5729 Clear 29 1016 25 10000 8.2 350 11:18 31.03.2020
5730 Clear 29 1016 25 10000 7.7 340 10:55 31.03.2020
5731 Clear 29 1016 25 10000 7.7 340 10:55 31.03.2020
5732 Clear 29 1016 25 10000 6.2 330 10:37 31.03.2020
5733 Clear 29 1016 25 10000 6.2 330 10:18 31.03.2020
5734 Clear 29 1016 25 10000 6.2 330 10:18 31.03.2020
5735 Clear 29 1017 28 10000 5.7 340 09:43 31.03.2020
5736 Clear 27 1017 30 10000 4.6 320 09:25 31.03.2020
5737 Clear 26 1017 34 10000 4.6 320 08:58 31.03.2020
5738 Clear 26 1017 34 10000 4.6 320 08:40 31.03.2020
5739 Clear 25 1017 39 10000 3.6 310 08:20 31.03.2020
5740 Clear 25 1017 39 10000 3.6 310 08:20 31.03.2020
5741 Clear 24 1017 44 10000 2.6 290 07:57 31.03.2020
5742 Clear 25 1017 44 10000 2.6 290 07:38 31.03.2020
5743 Clear 24 1017 50 10000 3.1 300 07:20 31.03.2020
5744 Clear 22 1017 60 10000 3.6 290 06:51 31.03.2020
5745 Clear 22 1016 68 10000 2.6 260 06:30 31.03.2020
5746 Clear 20 1016 64 10000 2.1 270 05:40 31.03.2020
5747 Clear 19 1014 49 10000 2.6 250 03:43 31.03.2020
5748 Clear 20 1013 37 10000 2.1 320 02:25 31.03.2020
5749 Clear 20 1013 35 10000 3.1 320 01:46 31.03.2020
5750 Clear 20 1013 37 10000 3.1 330 00:52 31.03.2020
5751 Clear 21 1013 40 10000 3.6 330 00:25 31.03.2020
5752 Clear 21 1013 43 10000 4.1 330 23:59 30.03.2020
5753 Clear 21 1013 43 10000 4.1 330 23:38 30.03.2020
5754 Clear 21 1013 43 10000 5.1 340 23:18 30.03.2020
5755 Clear 21 1014 40 10000 5.1 330 22:56 30.03.2020
5756 Clear 21 1014 40 10000 5.1 330 22:37 30.03.2020
5757 Clear 21 1014 37 10000 5.1 330 22:18 30.03.2020
5758 Clear 22 1013 35 10000 5.7 330 21:55 30.03.2020
5759 Clear 22 1013 35 10000 5.7 330 21:36 30.03.2020
5760 Clear 22 1014 35 10000 5.7 340 21:18 30.03.2020
5761 Clear 22 1014 35 10000 5.7 340 20:42 30.03.2020
5762 Clear 22 1014 35 10000 5.7 340 20:42 30.03.2020
5763 Clear 22 1014 35 10000 6.2 330 20:24 30.03.2020
5764 Clear 22 1014 35 10000 6.2 330 20:24 30.03.2020
5765 Clear 23 1013 33 10000 6.2 330 19:59 30.03.2020
5766 Clear 23 1013 33 10000 6.2 330 19:40 30.03.2020
5767 Clear 23 1013 31 10000 5.7 330 19:21 30.03.2020
5768 Clear 23 1013 28 10000 6.2 330 18:57 30.03.2020
5769 Clear 23 1013 28 10000 6.2 330 18:38 30.03.2020
5770 Clear 23 1013 27 10000 7.7 330 18:20 30.03.2020
5771 Clear 24 1012 27 10000 6.7 330 17:57 30.03.2020
5772 Clear 24 1012 25 10000 6.2 320 17:38 30.03.2020
5773 Clear 24 1012 25 10000 6.2 320 17:38 30.03.2020
5774 Clear 25 1012 25 10000 6.2 320 17:19 30.03.2020
5775 Clear 25 1012 25 10000 9.3 340 16:55 30.03.2020
5776 Clear 25 1012 25 10000 9.3 340 16:37 30.03.2020
5777 Clear 26 1011 22 10000 10.3 340 16:18 30.03.2020
5778 Clear 27 1011 21 10000 9.8 330 15:54 30.03.2020
5779 Clear 27 1011 21 10000 10.3 330 15:36 30.03.2020
5780 Clear 27 1011 21 10000 10.3 330 15:18 30.03.2020
5781 Clear 28 1011 24 10000 7.7 320 14:39 30.03.2020
5782 Clear 28 1011 25 10000 11.3 340 14:19 30.03.2020
5783 Clear 28 1011 25 10000 9.3 330 13:59 30.03.2020
5784 Clear 28 1011 25 10000 9.3 330 13:40 30.03.2020
5785 Clear 28 1011 26 10000 9.3 340 13:20 30.03.2020
5786 Clear 28 1011 34 10000 9.8 350 12:54 30.03.2020
5787 Clear 28 1011 32 10000 10.8 350 12:36 30.03.2020
5788 Clear 28 1011 32 10000 10.8 350 12:18 30.03.2020
5789 Clear 28 1011 32 10000 10.8 350 12:18 30.03.2020
5790 Clear 29 1011 32 10000 10.8 350 11:43 30.03.2020
5791 Clear 28 1011 30 10000 11.8 350 11:24 30.03.2020
5792 Clear 28 1012 30 10000 11.3 350 10:59 30.03.2020
5793 Clear 28 1012 30 10000 11.3 350 10:39 30.03.2020
5794 Clear 28 1012 30 10000 11.3 340 10:21 30.03.2020
5795 Clear 27 1012 32 10000 11.3 340 09:54 30.03.2020
5796 Clear 27 1012 32 10000 11.3 340 09:36 30.03.2020
5797 Clear 27 1012 34 10000 10.3 340 09:18 30.03.2020
5798 Clear 27 1012 34 10000 9.3 340 08:39 30.03.2020
5799 Clear 26 1011 36 10000 9.8 340 08:20 30.03.2020
5800 Clear 25 1011 36 10000 10.3 340 07:45 30.03.2020
5801 Clear 25 1011 36 10000 9.3 340 07:23 30.03.2020
5802 Clear 24 1010 44 10000 10.3 340 06:47 30.03.2020
5803 Clear 24 1010 47 10000 9.8 340 06:29 30.03.2020
5804 Clear 22 1010 56 10000 8.7 340 05:46 30.03.2020
5805 Clear 22 1009 60 10000 8.2 340 04:40 30.03.2020
5806 Clear 22 1009 60 10000 8.2 330 04:20 30.03.2020
5807 Clear 22 1007 68 10000 7.7 330 02:52 30.03.2020
5808 Clear 22 1007 73 10000 7.2 320 01:58 30.03.2020
5809 Clear 22 1007 73 10000 5.7 320 01:18 30.03.2020
5810 Clear 22 1007 78 10000 7.2 310 00:29 30.03.2020
5811 Clear 22 1007 73 10000 7.2 310 23:57 29.03.2020
5812 Clear 22 1007 73 10000 7.2 310 23:57 29.03.2020
5813 Clear 22 1007 73 10000 7.2 310 23:39 29.03.2020
5814 Clear 22 1007 73 10000 7.2 300 23:20 29.03.2020
5815 Clear 23 1007 73 10000 7.2 310 22:55 29.03.2020
5816 Clear 23 1007 73 10000 7.2 310 22:55 29.03.2020
5817 Clear 23 1007 73 10000 7.2 310 22:37 29.03.2020
5818 Clear 23 1007 73 10000 8.2 300 22:18 29.03.2020
5819 Clear 23 1007 73 10000 9.3 300 21:39 29.03.2020
5820 Clear 23 1007 69 10000 7.7 300 21:20 29.03.2020
5821 Clear 24 1007 69 10000 8.7 300 20:56 29.03.2020
5822 Clear 24 1006 69 9000 8.2 300 20:37 29.03.2020
5823 Clear 24 1006 69 9000 8.2 300 20:19 29.03.2020
5824 Clear 25 1006 65 7000 8.2 310 19:57 29.03.2020
5825 Haze 25 1005 69 4500 4.1 330 19:39 29.03.2020
5826 Haze 25 1005 69 4500 4.1 330 19:21 29.03.2020
5827 Haze 25 1004 73 3500 3.6 330 18:57 29.03.2020
5828 Haze 25 1004 73 3500 3.6 330 18:38 29.03.2020
5829 Haze 26 1004 73 3500 3.6 330 18:19 29.03.2020
5830 Haze 26 1003 73 3500 4.6 340 17:56 29.03.2020
5831 Haze 26 1003 69 3000 3.6 360 17:37 29.03.2020
5832 Haze 27 1003 69 3000 3.6 360 17:18 29.03.2020
5833 Dust 28 1002 61 3000 2.6 50 16:56 29.03.2020
5834 Dust 28 1002 61 3000 2.6 50 16:38 29.03.2020
5835 Dust 28 1002 61 2500 1.5 110 16:18 29.03.2020
5836 Dust 30 1001 58 2000 3.6 110 15:41 29.03.2020
5837 Dust 30 1001 54 1500 4.1 120 15:23 29.03.2020
5838 Dust 30 1001 54 1500 4.1 120 15:23 29.03.2020
5839 Dust 31 1001 58 1500 4.6 120 14:58 29.03.2020
5840 Dust 31 1001 58 1500 4.6 120 14:40 29.03.2020
5841 Dust 31 1001 58 1500 6.2 130 14:20 29.03.2020
5842 Dust 31 1001 51 1500 8.7 120 13:57 29.03.2020
5843 Dust 31 1001 51 1500 8.7 120 13:39 29.03.2020
5844 Dust 31 1001 54 1500 8.2 120 13:20 29.03.2020
5845 Dust 31 1002 48 1500 9.3 140 12:55 29.03.2020
5846 Dust 30 1002 58 1500 7.7 110 12:37 29.03.2020
5847 Dust 30 1002 58 1500 7.7 110 12:19 29.03.2020
5848 Dust 30 1003 58 1500 8.2 120 11:55 29.03.2020
5849 Dust 30 1003 58 2000 7.7 120 11:36 29.03.2020
5850 Dust 30 1003 58 2000 7.7 120 11:18 29.03.2020
5851 Dust 30 1004 54 2500 8.2 110 10:38 29.03.2020
5852 Dust 30 1004 48 3500 7.7 120 10:18 29.03.2020
5853 Dust 30 1004 48 3500 7.7 120 10:18 29.03.2020
5854 Dust 30 1005 42 3500 7.2 130 09:41 29.03.2020
5855 Dust 30 1005 38 3500 6.7 150 09:20 29.03.2020
5856 Dust 29 1006 39 3500 5.1 150 08:54 29.03.2020
5857 Dust 29 1006 39 3500 5.1 150 08:54 29.03.2020
5858 Dust 28 1006 45 3000 5.7 130 08:30 29.03.2020
5859 Dust 27 1005 57 3000 6.2 120 07:59 29.03.2020
5860 Dust 26 1005 61 4000 6.2 120 07:41 29.03.2020
5861 Dust 26 1005 61 4000 6.2 120 07:21 29.03.2020
5862 Clouds 26 1005 57 6000 6.7 100 05:46 29.03.2020
5863 Rain 24 1004 73 10000 4.6 70 04:27 29.03.2020
5864 Clouds 24 1004 69 10000 7.2 90 03:31 29.03.2020
5865 Clouds 25 1003 69 10000 7.7 80 01:51 29.03.2020
5866 Clouds 24 1004 78 10000 6.2 80 01:23 29.03.2020
5867 Clouds 25 1004 65 10000 1.5 350 00:56 29.03.2020
5868 Clouds 25 1004 61 10000 4.1 100 00:33 29.03.2020
5869 Clouds 25 1004 69 9000 2.6 120 23:56 28.03.2020
5870 Rain 25 1006 69 9000 5.1 150 23:38 28.03.2020
5871 Rain 25 1006 69 9000 5.1 150 23:18 28.03.2020
5872 Clouds 25 1004 65 9000 4.6 100 22:39 28.03.2020
5873 Clouds 25 1005 69 9000 5.1 110 22:21 28.03.2020
5874 Clouds 25 1005 73 7000 5.7 110 21:55 28.03.2020
5875 Clouds 25 1005 73 7000 5.7 110 21:37 28.03.2020
5876 Thunderstorm 25 1007 69 7000 8.2 140 21:18 28.03.2020
5877 Thunderstorm 26 1009 69 7000 3.6 190 20:42 28.03.2020
5878 Rain 26 1005 61 7000 9.3 100 20:23 28.03.2020
5879 Rain 26 1005 61 7000 9.3 100 19:57 28.03.2020
5880 Rain 26 1005 61 7000 9.3 100 19:39 28.03.2020
5881 Rain 26 1006 65 7000 8.2 110 19:20 28.03.2020
5882 Rain 26 1006 65 7000 8.2 110 19:20 28.03.2020
5883 Clouds 26 1006 61 7000 8.2 110 18:58 28.03.2020
5884 Clouds 27 1007 51 6000 5.7 160 18:38 28.03.2020
5885 Clouds 27 1007 51 6000 5.7 160 18:19 28.03.2020
5886 Clouds 25 1007 65 6000 8.7 100 17:39 28.03.2020
5887 Clouds 25 1007 65 6000 8.7 100 17:20 28.03.2020
5888 Dust 25 1007 73 4000 3.6 70 16:43 28.03.2020
5889 Dust 25 1007 73 4000 3.6 70 16:20 28.03.2020
5890 Dust 25 1006 69 4000 6.2 60 15:59 28.03.2020
5891 Dust 25 1006 69 4000 6.2 60 15:39 28.03.2020
5892 Dust 25 1006 69 4500 4.1 50 15:19 28.03.2020
5893 Dust 26 1006 69 4500 4.6 50 14:54 28.03.2020
5894 Dust 26 1007 69 4500 6.7 60 14:36 28.03.2020
5895 Dust 26 1007 69 4500 6.7 60 14:18 28.03.2020
5896 Dust 27 1007 61 4500 5.7 60 13:38 28.03.2020
5897 Dust 27 1007 61 4500 4.6 70 13:20 28.03.2020
5898 Dust 28 1007 57 4500 5.1 60 12:40 28.03.2020
5899 Dust 28 1008 54 4500 4.6 70 12:22 28.03.2020
5900 Dust 28 1008 54 5000 4.1 90 11:43 28.03.2020
5901 Clouds 29 1009 54 7000 3.1 110 11:23 28.03.2020
5902 Clouds 29 1009 51 10000 5.1 120 10:56 28.03.2020
5903 Clouds 29 1009 51 10000 5.1 120 10:38 28.03.2020
5904 Clouds 29 1009 45 10000 6.7 130 10:18 28.03.2020
5905 Clouds 29 1010 42 10000 7.2 140 09:42 28.03.2020
5906 Clouds 28 1010 42 10000 6.7 140 09:23 28.03.2020
5907 Clouds 28 1010 39 10000 7.2 140 08:46 28.03.2020
5908 Clouds 28 1011 37 10000 7.7 150 08:28 28.03.2020
5909 Clouds 28 1011 39 10000 6.2 140 07:59 28.03.2020
5910 Clouds 28 1011 39 10000 6.2 140 07:41 28.03.2020
5911 Clouds 27 1011 39 10000 5.1 150 06:56 28.03.2020
5912 Clouds 26 1011 50 10000 4.1 160 06:33 28.03.2020
5913 Clouds 25 1011 69 10000 4.1 140 05:41 28.03.2020
5914 Clouds 25 1011 69 10000 4.1 140 05:21 28.03.2020
5915 Clouds 24 1010 69 10000 5.7 150 04:40 28.03.2020
5916 Clouds 24 1009 73 10000 6.2 120 03:21 28.03.2020
5917 Clouds 24 1009 69 10000 6.2 110 01:49 28.03.2020
5918 Clouds 24 1009 69 10000 5.7 110 01:24 28.03.2020
5919 Clouds 24 1009 69 10000 5.7 110 00:55 28.03.2020
5920 Clouds 24 1009 69 10000 5.7 110 00:33 28.03.2020
5921 Clouds 24 1009 69 10000 7.2 110 23:45 27.03.2020
5922 Clouds 24 1009 64 10000 6.2 110 23:26 27.03.2020
5923 Clouds 24 1010 64 10000 5.7 110 22:58 27.03.2020
5924 Clouds 24 1010 64 10000 5.7 110 22:40 27.03.2020
5925 Clouds 24 1010 64 10000 6.7 110 22:21 27.03.2020
5926 Clouds 24 1010 64 10000 7.2 100 22:00 27.03.2020
5927 Clouds 24 1010 64 10000 7.2 100 21:41 27.03.2020
5928 Clouds 24 1010 64 10000 6.7 100 21:23 27.03.2020
5929 Clouds 24 1010 64 10000 7.7 90 20:58 27.03.2020
5930 Clouds 24 1010 64 10000 7.7 90 20:39 27.03.2020
5931 Clouds 24 1010 60 10000 7.2 90 20:19 27.03.2020
5932 Clouds 24 1010 60 10000 7.2 90 20:19 27.03.2020
5933 Clouds 24 1010 60 10000 7.7 90 19:56 27.03.2020
5934 Clouds 24 1011 60 10000 7.2 90 19:38 27.03.2020
5935 Clouds 24 1011 60 10000 7.2 90 19:19 27.03.2020
5936 Clouds 24 1010 57 10000 7.7 90 18:43 27.03.2020
5937 Clouds 24 1010 60 10000 7.7 90 18:23 27.03.2020
5938 Clouds 24 1010 60 10000 7.7 90 17:55 27.03.2020
5939 Clouds 24 1010 64 10000 7.2 90 17:37 27.03.2020
5940 Clouds 24 1010 64 10000 7.2 90 17:19 27.03.2020
5941 Clouds 24 1010 64 10000 6.2 80 16:44 27.03.2020
5942 Clouds 24 1010 64 10000 6.2 80 16:25 27.03.2020
5943 Clouds 24 1010 64 10000 6.2 80 16:25 27.03.2020
5944 Clouds 25 1010 64 10000 7.7 80 15:45 27.03.2020
5945 Clouds 25 1010 61 10000 7.7 80 15:26 27.03.2020
5946 Clouds 25 1010 65 10000 7.7 80 14:57 27.03.2020
5947 Clouds 25 1010 65 10000 7.7 80 14:39 27.03.2020
5948 Clouds 26 1010 57 10000 6.7 80 14:21 27.03.2020
5949 Clouds 26 1010 54 10000 8.2 80 13:43 27.03.2020
5950 Clouds 26 1011 54 10000 8.2 90 13:22 27.03.2020
5951 Clouds 26 1011 57 10000 8.2 80 12:59 27.03.2020
5952 Clouds 27 1011 57 10000 8.2 80 12:41 27.03.2020
5953 Clouds 27 1012 57 10000 7.2 100 12:19 27.03.2020
5954 Clouds 27 1013 57 10000 7.2 110 11:43 27.03.2020
5955 Clouds 27 1013 57 10000 7.2 110 11:25 27.03.2020
5956 Clouds 27 1013 57 10000 7.2 120 10:57 27.03.2020
5957 Clouds 27 1013 61 10000 7.2 120 10:39 27.03.2020
5958 Clouds 27 1013 61 10000 7.2 120 10:20 27.03.2020
5959 Clouds 27 1014 61 10000 8.2 110 09:58 27.03.2020
5960 Clouds 27 1014 61 10000 8.2 110 09:58 27.03.2020
5961 Clouds 27 1014 61 10000 8.2 110 09:39 27.03.2020
5962 Clouds 27 1014 61 10000 8.2 100 09:21 27.03.2020
5963 Clouds 27 1014 61 10000 7.7 100 08:58 27.03.2020
5964 Clouds 26 1014 61 10000 7.7 100 08:39 27.03.2020
5965 Clouds 26 1014 65 10000 7.7 90 08:21 27.03.2020
5966 Clouds 25 1014 65 10000 7.2 100 07:53 27.03.2020
5967 Clouds 25 1014 65 10000 7.2 110 07:28 27.03.2020
5968 Clouds 25 1014 69 10000 7.2 110 06:57 27.03.2020
5969 Clouds 25 1014 69 10000 6.7 100 06:37 27.03.2020
5970 Clouds 24 1013 73 10000 6.2 110 05:38 27.03.2020
5971 Clouds 23 1011 64 10000 5.1 110 02:51 27.03.2020
5972 Clear 23 1011 64 10000 5.1 100 01:50 27.03.2020
5973 Clear 22 1011 68 10000 4.1 110 00:55 27.03.2020
5974 Clear 22 1011 73 10000 4.1 110 00:32 27.03.2020
5975 Clear 22 1011 73 10000 4.1 100 23:45 26.03.2020
5976 Clear 22 1011 73 10000 4.1 110 23:25 26.03.2020
5977 Clear 22 1012 73 10000 3.6 110 22:59 26.03.2020
5978 Clear 22 1012 73 10000 3.6 110 22:39 26.03.2020
5979 Clear 22 1012 73 10000 4.1 100 22:20 26.03.2020
5980 Clear 22 1012 73 10000 3.1 100 21:59 26.03.2020
5981 Clear 22 1012 73 10000 3.1 100 21:39 26.03.2020
5982 Clear 22 1012 73 10000 3.1 110 21:21 26.03.2020
5983 Clear 22 1012 73 10000 3.1 120 20:58 26.03.2020
5984 Clear 22 1012 73 10000 3.1 120 20:38 26.03.2020
5985 Clouds 22 1012 73 10000 3.1 120 20:20 26.03.2020
5986 Clouds 22 1013 73 10000 3.1 100 19:56 26.03.2020
5987 Clouds 22 1013 73 10000 3.1 100 19:38 26.03.2020
5988 Clouds 22 1013 73 10000 3.6 130 19:20 26.03.2020
5989 Clouds 22 1013 73 10000 3.1 100 18:56 26.03.2020
5990 Clouds 22 1012 68 10000 3.1 100 18:37 26.03.2020
5991 Clouds 22 1012 68 10000 3.1 100 18:19 26.03.2020
5992 Clouds 22 1012 64 10000 3.1 100 17:42 26.03.2020
5993 Clouds 22 1012 64 10000 3.1 100 17:19 26.03.2020
5994 Clouds 22 1012 64 10000 3.1 100 17:19 26.03.2020
5995 Clouds 22 1012 64 10000 3.1 100 17:19 26.03.2020
5996 Clouds 22 1012 68 10000 3.6 110 16:45 26.03.2020
5997 Clouds 23 1012 64 10000 3.1 100 16:27 26.03.2020
5998 Clouds 23 1012 64 10000 3.1 120 15:59 26.03.2020
5999 Clouds 23 1012 60 10000 3.6 110 15:41 26.03.2020
6000 Clouds 24 1012 60 10000 3.6 110 15:22 26.03.2020
6001 Clouds 24 1011 57 10000 4.6 120 14:58 26.03.2020
6002 Clouds 24 1011 57 10000 4.6 120 14:39 26.03.2020
6003 Clouds 24 1011 57 10000 5.1 120 14:19 26.03.2020
6004 Clouds 25 1011 47 10000 4.1 120 13:44 26.03.2020
6005 Clouds 25 1011 53 10000 5.1 120 13:23 26.03.2020
6006 Clouds 25 1010 50 10000 6.2 90 12:57 26.03.2020
6007 Clouds 25 1010 50 10000 6.2 90 12:38 26.03.2020
6008 Clouds 25 1011 50 10000 5.1 90 12:19 26.03.2020
6009 Clouds 24 1011 57 10000 6.2 100 11:45 26.03.2020
6010 Clouds 24 1012 53 10000 5.7 110 11:22 26.03.2020
6011 Clouds 25 1012 57 10000 5.7 100 10:56 26.03.2020
6012 Clouds 24 1013 57 10000 5.1 110 10:37 26.03.2020
6013 Clouds 24 1013 57 10000 5.1 110 10:37 26.03.2020
6014 Clouds 25 1013 57 10000 5.1 110 10:19 26.03.2020
6015 Clouds 24 1013 57 10000 5.1 110 09:43 26.03.2020
6016 Clouds 25 1013 57 10000 4.6 120 09:20 26.03.2020
6017 Clouds 24 1014 53 10000 4.1 110 08:55 26.03.2020
6018 Clouds 24 1014 53 10000 4.1 110 08:37 26.03.2020
6019 Clouds 24 1014 53 10000 4.1 110 08:18 26.03.2020
6020 Clouds 24 1014 53 10000 4.1 100 07:41 26.03.2020
6021 Clouds 23 1014 53 10000 3.6 120 07:21 26.03.2020
6022 Clouds 24 1013 53 10000 4.1 110 06:48 26.03.2020
6023 Clouds 23 1012 60 10000 1.5 100 05:57 26.03.2020
6024 Clouds 21 1011 68 10000 1 160 04:25 26.03.2020
6025 Clouds 20 1011 68 10000 1 190 03:41 26.03.2020
6026 Clouds 20 1010 68 10000 1 120 02:54 26.03.2020
6027 Clear 21 1010 68 10000 1 160 01:50 26.03.2020
6028 Clear 21 1010 68 10000 2.1 130 00:48 26.03.2020
6029 Clear 21 1011 64 10000 3.1 100 23:56 25.03.2020
6030 Clear 21 1011 64 10000 3.1 100 23:36 25.03.2020
6031 Clear 21 1011 64 10000 3.1 100 23:18 25.03.2020
6032 Clear 21 1011 64 10000 3.6 100 22:39 25.03.2020
6033 Clear 21 1011 68 10000 3.6 100 22:20 25.03.2020
6034 Clear 21 1011 68 10000 3.6 100 21:55 25.03.2020
6035 Clear 21 1011 68 10000 3.6 100 21:37 25.03.2020
6036 Clear 21 1011 68 10000 3.1 100 21:19 25.03.2020
6037 Clear 21 1011 68 10000 3.1 100 21:19 25.03.2020
6038 Clear 21 1011 68 10000 4.1 100 20:54 25.03.2020
6039 Clear 21 1011 68 10000 4.1 100 20:36 25.03.2020
6040 Clouds 21 1012 68 10000 3.6 100 20:18 25.03.2020
6041 Clouds 21 1012 68 10000 3.1 90 19:42 25.03.2020
6042 Clouds 21 1012 68 10000 3.6 100 19:22 25.03.2020
6043 Clouds 21 1012 68 10000 3.6 90 18:56 25.03.2020
6044 Clouds 21 1012 68 10000 3.6 90 18:37 25.03.2020
6045 Clouds 21 1012 68 10000 3.6 90 18:19 25.03.2020
6046 Clouds 22 1012 64 10000 3.1 90 17:54 25.03.2020
6047 Clouds 22 1012 64 10000 3.1 80 17:36 25.03.2020
6048 Clouds 22 1012 64 10000 3.6 70 17:18 25.03.2020
6049 Clouds 22 1011 64 10000 3.6 70 16:41 25.03.2020
6050 Clouds 22 1011 64 10000 3.6 70 16:22 25.03.2020
6051 Clouds 23 1011 53 10000 4.6 60 15:57 25.03.2020
6052 Clouds 23 1011 53 10000 4.6 60 15:37 25.03.2020
6053 Clouds 23 1011 53 10000 4.6 60 15:19 25.03.2020
6054 Clouds 23 1011 53 10000 4.6 60 15:19 25.03.2020
6055 Clouds 24 1011 50 10000 4.6 60 14:41 25.03.2020
6056 Clouds 24 1011 41 10000 4.6 50 14:21 25.03.2020
6057 Clouds 26 1011 31 10000 4.1 80 13:46 25.03.2020
6058 Clouds 26 1011 36 10000 4.1 100 13:26 25.03.2020
6059 Clouds 27 1011 34 10000 4.1 80 12:57 25.03.2020
6060 Clouds 26 1011 36 10000 4.1 90 12:37 25.03.2020
6061 Clouds 26 1011 36 10000 4.1 90 12:19 25.03.2020
6062 Clouds 25 1011 36 10000 4.6 100 11:43 25.03.2020
6063 Clouds 25 1012 38 10000 5.7 100 11:22 25.03.2020
6064 Clouds 26 1012 34 10000 3.6 100 10:59 25.03.2020
6065 Clouds 26 1012 34 10000 3.6 100 10:41 25.03.2020
6066 Clouds 27 1012 26 10000 1.5 0 10:19 25.03.2020
6067 Clouds 26 1013 28 10000 1.5 0 09:59 25.03.2020
6068 Clouds 26 1013 28 10000 1.5 0 09:40 25.03.2020
6069 Clouds 26 1013 31 10000 2.6 0 09:22 25.03.2020
6070 Clouds 25 1013 29 10000 1.5 0 08:55 25.03.2020
6071 Clouds 25 1013 29 10000 1.5 0 08:37 25.03.2020
6072 Clouds 25 1014 33 10000 2.1 0 08:18 25.03.2020
6073 Clouds 25 1014 38 10000 2.1 230 07:39 25.03.2020
6074 Clouds 23 1014 43 10000 3.1 200 07:20 25.03.2020
6075 Clouds 23 1014 43 10000 3.1 210 06:46 25.03.2020
6076 Clouds 22 1013 46 10000 2.6 230 06:25 25.03.2020
6077 Clouds 22 1013 43 10000 2.1 230 05:50 25.03.2020
6078 Clouds 18 1012 52 10000 1.5 230 04:59 25.03.2020
6079 Clouds 18 1012 55 10000 1.5 220 04:39 25.03.2020
6080 Clouds 18 1012 55 10000 1 200 03:35 25.03.2020
6081 Clouds 18 1011 52 10000 1.5 230 01:57 25.03.2020
6082 Clouds 18 1011 52 10000 1 220 01:20 25.03.2020
6083 Clouds 18 1011 52 10000 1 0 00:47 25.03.2020
6084 Clouds 18 1011 52 10000 0.5 350 00:19 25.03.2020
6085 Clouds 18 1011 55 10000 0.5 110 23:44 24.03.2020
6086 Clouds 19 1012 52 10000 0.51 133 23:25 24.03.2020
6087 Clouds 20 1012 49 10000 1.44 94 22:55 24.03.2020
6088 Clouds 20 1012 49 10000 1.44 94 22:37 24.03.2020
6089 Clouds 20 1012 49 10000 1.44 94 22:19 24.03.2020
6090 Clouds 20 1012 49 10000 0.5 0 21:55 24.03.2020
6091 Clouds 21 1012 49 10000 0.5 0 21:36 24.03.2020
6092 Clouds 21 1012 49 10000 2.1 20 21:18 24.03.2020
6093 Clouds 21 1013 49 10000 2.6 20 20:42 24.03.2020
6094 Clouds 21 1013 49 10000 2.6 20 20:23 24.03.2020
6095 Clouds 21 1013 49 10000 3.6 10 19:56 24.03.2020
6096 Clouds 21 1013 49 10000 3.6 10 19:56 24.03.2020
6097 Clouds 21 1013 49 10000 3.6 10 19:38 24.03.2020
6098 Clouds 21 1013 49 10000 3.6 10 19:18 24.03.2020
6099 Clouds 21 1013 49 10000 4.1 10 18:55 24.03.2020
6100 Clouds 21 1013 46 10000 3.6 10 18:36 24.03.2020
6101 Clouds 22 1013 46 10000 4.1 10 18:18 24.03.2020
6102 Clouds 22 1012 46 10000 4.1 10 17:41 24.03.2020
6103 Clouds 22 1012 46 10000 4.1 10 17:22 24.03.2020
6104 Clouds 22 1012 46 10000 4.1 10 17:22 24.03.2020
6105 Clouds 22 1012 46 10000 4.6 10 16:57 24.03.2020
6106 Clouds 22 1012 46 10000 4.6 10 16:39 24.03.2020
6107 Clouds 23 1012 49 10000 5.7 10 16:20 24.03.2020
6108 Clouds 23 1012 49 10000 5.7 10 16:20 24.03.2020
6109 Clouds 24 1012 27 10000 3.6 330 15:55 24.03.2020
6110 Clouds 24 1012 27 10000 3.6 330 15:37 24.03.2020
6111 Clouds 24 1012 23 10000 4.6 330 15:19 24.03.2020
6112 Clouds 25 1012 23 10000 4.6 330 14:42 24.03.2020
6113 Clouds 25 1012 23 10000 5.7 330 14:18 24.03.2020
6114 Clouds 25 1012 23 10000 4.6 320 13:42 24.03.2020
6115 Clouds 26 1012 24 10000 4.6 310 13:23 24.03.2020
6116 Clouds 26 1012 22 10000 6.2 320 12:54 24.03.2020
6117 Clouds 26 1012 24 10000 5.7 330 12:36 24.03.2020
6118 Clouds 26 1012 24 10000 5.7 330 12:18 24.03.2020
6119 Clouds 26 1013 22 10000 5.1 320 11:39 24.03.2020
6120 Clouds 26 1013 22 10000 5.1 320 11:19 24.03.2020
6121 Clouds 26 1013 26 10000 6.2 310 10:43 24.03.2020
6122 Clouds 26 1013 26 10000 6.2 310 10:43 24.03.2020
6123 Clouds 25 1013 29 10000 4.6 300 10:20 24.03.2020
6124 Clouds 25 1014 29 10000 4.6 310 09:58 24.03.2020
6125 Clouds 25 1014 29 10000 4.6 310 09:39 24.03.2020
6126 Clouds 25 1015 31 10000 3.6 280 09:21 24.03.2020
6127 Clear 25 1015 36 10000 3.1 270 08:38 24.03.2020
6128 Clear 23 1015 40 10000 3.1 250 08:20 24.03.2020
6129 Clear 22 1015 46 10000 3.1 240 07:47 24.03.2020
6130 Clear 22 1016 43 10000 2.6 260 07:24 24.03.2020
6131 Clear 21 1015 46 10000 2.6 260 06:53 24.03.2020
6132 Clear 21 1015 46 10000 2.1 0 06:27 24.03.2020
6133 Clear 16 1014 55 10000 1 0 04:57 24.03.2020
6134 Clear 16 1014 52 10000 1.5 320 03:48 24.03.2020
6135 Clear 16 1013 55 10000 2.1 280 03:18 24.03.2020
6136 Clear 17 1014 52 10000 1.5 250 01:47 24.03.2020
6137 Clear 17 1014 52 10000 1 0 00:48 24.03.2020
6138 Clear 17 1014 45 10000 2.1 320 00:25 24.03.2020
6139 Clear 18 1014 45 10000 3.1 330 23:45 23.03.2020
6140 Clear 18 1014 45 10000 3.1 320 23:26 23.03.2020
6141 Clear 18 1014 48 10000 3.1 330 22:56 23.03.2020
6142 Clear 18 1014 48 10000 3.1 330 22:37 23.03.2020
6143 Clear 18 1014 48 10000 4.6 330 22:19 23.03.2020
6144 Clear 18 1014 52 10000 3.6 320 21:44 23.03.2020
6145 Clear 18 1014 52 10000 4.1 320 21:21 23.03.2020
6146 Clear 19 1015 52 10000 5.7 330 20:58 23.03.2020
6147 Clear 19 1015 52 10000 5.7 330 20:40 23.03.2020
6148 Clear 19 1015 48 10000 5.7 330 20:22 23.03.2020
6149 Clear 19 1015 48 10000 4.6 330 19:46 23.03.2020
6150 Clear 19 1015 48 10000 6.7 330 19:28 23.03.2020
6151 Clear 19 1015 48 10000 5.1 330 18:59 23.03.2020
6152 Clear 19 1015 42 10000 5.7 330 18:41 23.03.2020
6153 Clear 20 1015 42 10000 5.7 330 18:22 23.03.2020
6154 Clear 20 1014 45 10000 6.2 330 17:56 23.03.2020
6155 Clear 20 1014 45 10000 6.7 330 17:37 23.03.2020
6156 Clear 21 1014 40 10000 5.7 330 17:18 23.03.2020
6157 Clear 21 1014 40 10000 5.7 330 16:43 23.03.2020
6158 Clear 22 1014 35 10000 3.6 310 16:24 23.03.2020
6159 Clear 23 1013 33 10000 4.6 320 15:42 23.03.2020
6160 Clear 23 1013 29 10000 4.6 290 15:21 23.03.2020
6161 Clear 24 1013 29 10000 4.1 280 14:57 23.03.2020
6162 Clear 24 1013 29 10000 4.1 280 14:37 23.03.2020
6163 Clear 24 1013 27 10000 5.1 290 14:18 23.03.2020
6164 Clear 25 1013 25 10000 4.6 280 13:41 23.03.2020
6165 Clear 25 1013 25 10000 4.6 280 13:41 23.03.2020
6166 Clear 25 1013 23 10000 5.7 300 13:22 23.03.2020
6167 Clear 25 1013 23 10000 5.1 300 12:58 23.03.2020
6168 Clear 25 1013 23 10000 5.1 300 12:58 23.03.2020
6169 Clear 25 1013 23 10000 5.7 300 12:40 23.03.2020
6170 Clear 25 1013 23 10000 5.7 300 12:21 23.03.2020
6171 Clear 25 1014 23 10000 6.7 290 11:42 23.03.2020
6172 Clear 25 1014 23 10000 6.7 290 11:21 23.03.2020
6173 Clear 25 1014 23 10000 7.2 310 10:58 23.03.2020
6174 Clear 25 1014 22 10000 7.2 300 10:39 23.03.2020
6175 Clear 25 1014 22 10000 7.2 300 10:21 23.03.2020
6176 Clear 25 1015 23 9000 6.7 300 09:57 23.03.2020
6177 Clear 24 1015 23 9000 6.7 300 09:39 23.03.2020
6178 Clear 24 1015 23 7000 6.2 290 09:18 23.03.2020
6179 Dust 23 1015 22 5000 5.1 280 08:38 23.03.2020
6180 Dust 23 1015 23 4000 4.6 280 08:19 23.03.2020
6181 Dust 23 1016 22 4000 4.1 280 07:50 23.03.2020
6182 Dust 23 1016 27 4000 5.1 290 07:32 23.03.2020
6183 Clear 21 1015 30 5000 4.6 280 06:54 23.03.2020
6184 Clear 21 1015 33 6000 4.1 290 06:32 23.03.2020
6185 Clear 21 1015 30 6000 3.1 290 05:42 23.03.2020
6186 Clear 19 1013 32 6000 4.1 300 03:45 23.03.2020
6187 Clear 19 1012 34 7000 4.6 310 02:43 23.03.2020
6188 Clear 19 1011 52 9000 4.1 310 01:39 23.03.2020
6189 Clear 19 1011 52 10000 4.6 320 00:45 23.03.2020
6190 Clear 20 1011 52 10000 5.1 330 23:58 22.03.2020
6191 Clear 20 1012 52 10000 5.7 330 23:40 22.03.2020
6192 Clear 20 1012 52 10000 5.7 330 23:22 22.03.2020
6193 Clear 20 1012 52 10000 5.7 330 22:40 22.03.2020
6194 Clear 20 1012 52 10000 5.7 330 22:20 22.03.2020
6195 Clear 20 1012 49 10000 6.2 330 21:40 22.03.2020
6196 Clear 20 1012 52 10000 5.1 330 21:21 22.03.2020
6197 Clear 20 1012 52 10000 5.1 330 20:58 22.03.2020
6198 Clear 20 1012 52 10000 5.1 330 20:40 22.03.2020
6199 Clouds 20 1013 52 10000 5.1 350 20:21 22.03.2020
6200 Clear 20 1012 52 10000 6.2 340 19:56 22.03.2020
6201 Clear 20 1012 52 10000 6.2 340 19:37 22.03.2020
6202 Clear 20 1012 49 10000 6.7 330 19:19 22.03.2020
6203 Clear 20 1012 43 10000 6.7 330 18:57 22.03.2020
6204 Clear 20 1012 43 10000 6.7 330 18:39 22.03.2020
6205 Clear 20 1011 46 10000 7.2 330 18:18 22.03.2020
6206 Clear 21 1011 49 10000 7.7 330 17:56 22.03.2020
6207 Clear 21 1011 46 10000 9.3 340 17:37 22.03.2020
6208 Clear 21 1011 46 10000 9.3 340 17:19 22.03.2020
6209 Clear 21 1010 46 10000 8.7 330 16:55 22.03.2020
6210 Clear 21 1010 46 10000 8.7 330 16:37 22.03.2020
6211 Clear 21 1010 46 10000 8.7 320 16:19 22.03.2020
6212 Clear 22 1010 43 10000 8.7 320 15:39 22.03.2020
6213 Clear 22 1009 46 10000 8.7 320 15:19 22.03.2020
6214 Clear 23 1008 49 10000 9.3 330 14:46 22.03.2020
6215 Clouds 24 1008 53 8000 7.7 320 14:18 22.03.2020
6216 Clouds 25 1007 61 6000 8.7 310 13:41 22.03.2020
6217 Clouds 25 1007 61 6000 8.7 310 13:20 22.03.2020
6218 Dust 27 1006 54 2500 10.8 300 12:47 22.03.2020
6219 Dust 29 1006 22 3000 11.3 280 12:23 22.03.2020
6220 Dust 31 1006 14 3500 11.3 270 11:59 22.03.2020
6221 Dust 31 1006 14 3500 11.3 270 11:41 22.03.2020
6222 Dust 31 1006 22 3000 10.3 280 11:23 22.03.2020
6223 Dust 31 1006 35 4500 9.8 280 10:56 22.03.2020
6224 Clouds 30 1006 54 10000 8.7 270 10:38 22.03.2020
6225 Clouds 30 1006 54 10000 8.7 270 10:20 22.03.2020
6226 Clouds 30 1007 58 10000 8.2 270 09:42 22.03.2020
6227 Clouds 30 1007 58 10000 7.2 260 09:22 22.03.2020
6228 Clouds 28 1007 58 10000 6.2 210 08:44 22.03.2020
6229 Clouds 28 1008 62 10000 5.1 220 08:24 22.03.2020
6230 Clear 27 1007 69 10000 6.2 140 07:52 22.03.2020
6231 Clear 26 1007 74 10000 6.7 120 07:26 22.03.2020
6232 Clear 25 1007 78 10000 6.2 120 06:40 22.03.2020
6233 Clear 24 1006 88 10000 4.6 110 05:35 22.03.2020
6234 Clear 23 1005 83 10000 5.1 100 03:46 22.03.2020
6235 Clear 23 1005 88 10000 4.1 80 01:28 22.03.2020
6236 Clear 23 1005 83 10000 4.1 80 00:48 22.03.2020
6237 Clear 23 1005 83 10000 5.1 90 00:29 22.03.2020
6238 Clear 23 1006 83 10000 5.1 90 23:44 21.03.2020
6239 Rain 23 1006 83 10000 5.7 90 23:19 21.03.2020
6240 Rain 23 1006 83 10000 5.1 90 22:58 21.03.2020
6241 Rain 23 1006 83 10000 5.1 90 22:37 21.03.2020
6242 Rain 23 1006 83 10000 4.6 70 22:18 21.03.2020
6243 Rain 23 1007 83 10000 3.6 70 21:56 21.03.2020
6244 Rain 23 1007 83 10000 3.6 70 21:37 21.03.2020
6245 Rain 23 1007 83 10000 3.6 50 21:18 21.03.2020
6246 Rain 24 1007 78 10000 4.1 80 20:41 21.03.2020
6247 Rain 23 1007 78 10000 5.1 90 20:20 21.03.2020
6248 Rain 24 1007 78 10000 4.1 90 19:44 21.03.2020
6249 Rain 23 1007 83 10000 5.1 90 19:25 21.03.2020
6250 Rain 23 1007 83 10000 4.6 90 18:59 21.03.2020
6251 Clouds 23 1007 78 10000 5.7 80 18:39 21.03.2020
6252 Clouds 23 1007 78 10000 5.7 80 18:20 21.03.2020
6253 Clouds 24 1007 78 10000 5.7 80 17:57 21.03.2020
6254 Clouds 24 1006 78 10000 7.7 80 17:39 21.03.2020
6255 Clouds 24 1006 78 10000 7.7 80 17:20 21.03.2020
6256 Clouds 24 1006 78 10000 6.2 70 16:41 21.03.2020
6257 Clouds 24 1006 78 10000 6.2 70 16:22 21.03.2020
6258 Clouds 24 1006 78 10000 6.7 70 15:57 21.03.2020
6259 Clouds 24 1006 78 10000 6.7 70 15:39 21.03.2020
6260 Clouds 24 1006 78 10000 5.7 60 15:20 21.03.2020
6261 Clouds 25 1006 73 10000 7.2 80 14:54 21.03.2020
6262 Clouds 25 1005 73 10000 8.2 90 14:36 21.03.2020
6263 Clouds 25 1005 73 10000 8.2 90 14:18 21.03.2020
6264 Clouds 25 1006 69 10000 6.7 100 13:57 21.03.2020
6265 Clouds 25 1006 69 10000 6.7 100 13:38 21.03.2020
6266 Clouds 25 1006 69 10000 8.2 90 13:19 21.03.2020
6267 Clouds 26 1006 69 10000 8.2 90 12:40 21.03.2020
6268 Clouds 26 1006 69 10000 8.2 90 12:20 21.03.2020
6269 Clouds 26 1006 69 10000 6.2 80 11:59 21.03.2020
6270 Clouds 27 1007 69 10000 6.7 70 11:39 21.03.2020
6271 Clouds 27 1007 69 10000 6.7 70 11:39 21.03.2020
6272 Clouds 26 1007 69 10000 6.7 70 11:20 21.03.2020
6273 Clouds 26 1007 69 10000 6.2 60 10:58 21.03.2020
6274 Clouds 26 1007 69 10000 6.2 60 10:39 21.03.2020
6275 Clouds 27 1008 65 10000 5.1 70 10:21 21.03.2020
6276 Clouds 27 1008 65 10000 5.1 60 09:58 21.03.2020
6277 Clouds 27 1008 65 10000 5.1 60 09:39 21.03.2020
6278 Clouds 27 1008 61 10000 4.1 70 09:20 21.03.2020
6279 Rain 26 1009 65 10000 3.1 50 08:55 21.03.2020
6280 Rain 26 1009 65 10000 3.1 50 08:37 21.03.2020
6281 Rain 26 1009 65 10000 3.6 40 08:18 21.03.2020
6282 Rain 25 1009 65 10000 2.6 40 07:37 21.03.2020
6283 Rain 25 1009 69 10000 2.6 330 07:18 21.03.2020
6284 Rain 24 1009 73 10000 1 0 06:42 21.03.2020
6285 Rain 24 1008 78 10000 2.6 150 06:23 21.03.2020
6286 Rain 23 1007 78 10000 8.2 140 05:39 21.03.2020
6287 Clouds 24 1007 69 10000 6.2 140 03:39 21.03.2020
6288 Clouds 23 1007 78 10000 4.1 150 02:36 21.03.2020
6289 Thunderstorm 23 1006 73 10000 4.1 110 01:43 21.03.2020
6290 Thunderstorm 23 1006 73 10000 2.6 120 01:22 21.03.2020
6291 Thunderstorm 23 1007 73 10000 3.1 130 00:39 21.03.2020
6292 Clouds 23 1007 73 10000 3.1 130 00:20 21.03.2020
6293 Rain 23 1007 69 10000 4.1 130 23:41 20.03.2020
6294 Rain 23 1008 69 10000 4.1 130 23:20 20.03.2020
6295 Rain 24 1008 57 10000 4.6 100 22:44 20.03.2020
6296 Rain 24 1008 57 10000 3.1 80 22:24 20.03.2020
6297 Rain 24 1009 60 10000 3.6 100 21:58 20.03.2020
6298 Rain 24 1009 60 10000 3.6 100 21:39 20.03.2020
6299 Rain 23 1009 69 10000 2.6 80 21:20 20.03.2020
6300 Rain 24 1009 69 10000 3.1 100 20:57 20.03.2020
6301 Rain 24 1009 69 10000 3.1 100 20:39 20.03.2020
6302 Rain 24 1009 64 10000 2.6 90 20:19 20.03.2020
6303 Rain 24 1009 64 10000 2.6 50 19:46 20.03.2020
6304 Rain 24 1010 53 10000 1.5 50 19:20 20.03.2020
6305 Clouds 24 1010 47 10000 2.1 80 18:57 20.03.2020
6306 Thunderstorm 24 1009 41 10000 4.6 110 18:38 20.03.2020
6307 Thunderstorm 24 1009 41 10000 4.6 110 18:19 20.03.2020
6308 Thunderstorm 25 1010 41 10000 1.5 0 17:56 20.03.2020
6309 Thunderstorm 25 1009 41 10000 3.6 40 17:37 20.03.2020
6310 Thunderstorm 25 1009 41 10000 3.6 40 17:18 20.03.2020
6311 Clouds 25 1008 53 10000 5.1 50 16:41 20.03.2020
6312 Clouds 25 1008 53 10000 5.1 50 16:41 20.03.2020
6313 Clouds 25 1008 53 10000 4.6 40 16:20 20.03.2020
6314 Clouds 25 1007 53 10000 5.1 60 15:44 20.03.2020
6315 Clouds 26 1008 34 10000 6.2 50 15:23 20.03.2020
6316 Clouds 26 1008 54 10000 4.6 20 14:58 20.03.2020
6317 Clouds 26 1008 54 10000 4.6 20 14:40 20.03.2020
6318 Clouds 26 1008 50 10000 4.1 30 14:20 20.03.2020
6319 Clouds 27 1008 47 10000 4.6 40 13:48 20.03.2020
6320 Clouds 27 1008 47 10000 5.1 20 13:22 20.03.2020
6321 Clouds 28 1009 44 10000 5.1 30 12:58 20.03.2020
6322 Clouds 28 1009 42 10000 5.7 30 12:38 20.03.2020
6323 Clouds 28 1009 42 10000 5.7 30 12:19 20.03.2020
6324 Clouds 29 1010 39 10000 5.7 20 11:39 20.03.2020
6325 Clouds 28 1010 39 10000 5.7 20 11:20 20.03.2020
6326 Clouds 28 1010 39 10000 5.7 30 10:55 20.03.2020
6327 Clouds 28 1010 39 10000 5.7 30 10:37 20.03.2020
6328 Clouds 28 1011 42 10000 5.1 30 10:18 20.03.2020
6329 Clouds 28 1011 47 10000 5.1 360 09:44 20.03.2020
6330 Clouds 27 1012 57 10000 5.1 10 09:20 20.03.2020
6331 Clouds 26 1012 57 10000 4.6 10 08:44 20.03.2020
6332 Clouds 26 1012 57 10000 5.1 10 08:23 20.03.2020
6333 Clear 25 1012 61 10000 6.2 350 07:59 20.03.2020
6334 Clear 25 1012 61 10000 6.2 350 07:39 20.03.2020
6335 Clear 25 1012 61 10000 5.7 360 07:21 20.03.2020
6336 Clear 24 1012 73 10000 4.1 350 06:42 20.03.2020
6337 Clear 24 1012 73 10000 4.1 350 06:18 20.03.2020
6338 Clear 21 1011 78 10000 4.1 350 04:38 20.03.2020
6339 Clear 21 1010 83 10000 4.6 340 02:50 20.03.2020
6340 Clear 21 1010 83 10000 4.6 340 01:50 20.03.2020
6341 Clear 22 1010 83 10000 6.2 340 00:41 20.03.2020
6342 Clear 22 1011 78 10000 5.1 340 23:59 19.03.2020
6343 Clear 22 1011 78 10000 5.1 330 23:40 19.03.2020
6344 Clear 22 1011 78 10000 5.1 330 23:22 19.03.2020
6345 Clear 22 1011 78 10000 4.6 330 22:41 19.03.2020
6346 Clear 22 1011 73 10000 4.6 330 22:22 19.03.2020
6347 Clear 23 1011 69 10000 4.6 330 21:58 19.03.2020
6348 Clear 23 1011 69 10000 4.6 330 21:38 19.03.2020
6349 Clear 23 1011 64 10000 4.1 330 21:19 19.03.2020
6350 Clear 24 1011 64 10000 5.7 340 20:44 19.03.2020
6351 Clear 24 1012 69 10000 5.1 340 20:25 19.03.2020
6352 Clear 24 1011 73 10000 5.1 340 19:59 19.03.2020
6353 Clear 24 1011 73 10000 5.1 340 19:39 19.03.2020
6354 Clear 24 1011 73 10000 5.7 350 19:20 19.03.2020
6355 Clear 25 1011 65 10000 5.7 350 18:58 19.03.2020
6356 Clear 25 1011 65 10000 5.7 350 18:40 19.03.2020
6357 Clear 25 1011 65 10000 5.7 350 18:21 19.03.2020
6358 Clear 25 1011 65 10000 5.7 350 18:21 19.03.2020
6359 Clear 26 1010 73 10000 5.7 350 17:44 19.03.2020
6360 Clear 26 1010 69 10000 5.1 10 17:20 19.03.2020
6361 Clear 26 1010 69 10000 5.1 10 16:58 19.03.2020
6362 Clear 26 1009 61 10000 4.1 10 16:39 19.03.2020
6363 Clear 26 1009 61 10000 4.1 10 16:21 19.03.2020
6364 Clear 27 1009 54 10000 3.6 20 15:42 19.03.2020
6365 Clear 28 1009 57 10000 3.6 40 15:23 19.03.2020
6366 Clear 28 1009 57 10000 3.6 40 15:23 19.03.2020
6367 Clear 28 1009 61 10000 4.1 40 14:43 19.03.2020
6368 Clear 29 1009 58 10000 4.1 40 14:23 19.03.2020
6369 Clear 29 1008 58 10000 4.6 40 13:57 19.03.2020
6370 Clear 29 1008 58 10000 4.1 60 13:37 19.03.2020
6371 Clouds 29 1008 58 10000 4.1 60 13:18 19.03.2020
6372 Clouds 31 1008 54 10000 4.6 30 12:41 19.03.2020
6373 Clouds 30 1008 54 10000 4.6 30 12:22 19.03.2020
6374 Clouds 32 1009 51 10000 3.6 30 11:57 19.03.2020
6375 Clouds 32 1009 51 10000 4.1 360 11:38 19.03.2020
6376 Rain 32 1009 38 10000 3.1 0 11:20 19.03.2020
6377 Rain 32 1009 38 10000 3.1 0 10:41 19.03.2020
6378 Rain 31 1010 51 10000 3.1 340 10:20 19.03.2020
6379 Rain 31 1011 51 10000 2.6 360 09:57 19.03.2020
6380 Rain 30 1011 51 10000 2.6 360 09:37 19.03.2020
6381 Rain 30 1011 58 10000 2.6 360 09:18 19.03.2020
6382 Rain 28 1011 61 10000 2.6 20 08:42 19.03.2020
6383 Rain 28 1011 61 10000 3.1 280 08:21 19.03.2020
6384 Rain 27 1012 65 10000 2.1 110 07:46 19.03.2020
6385 Rain 28 1012 65 10000 1.5 120 07:28 19.03.2020
6386 Rain 26 1011 73 10000 2.1 120 06:48 19.03.2020
6387 Rain 25 1010 78 10000 2.6 100 05:49 19.03.2020
6388 Clouds 23 1010 83 10000 2.6 110 04:59 19.03.2020
6389 Clouds 23 1010 83 10000 2.6 110 04:40 19.03.2020
6390 Clouds 24 1010 73 10000 1.5 70 02:50 19.03.2020
6391 Clouds 24 1009 64 10000 5.1 130 01:25 19.03.2020
6392 Thunderstorm 24 1011 73 10000 5.7 140 00:35 19.03.2020
6393 Clouds 24 1010 78 10000 3.6 120 23:57 18.03.2020
6394 Clouds 24 1009 73 10000 4.1 120 23:31 18.03.2020
6395 Clouds 25 1009 73 10000 5.1 120 22:58 18.03.2020
6396 Clouds 25 1009 73 10000 5.1 120 22:40 18.03.2020
6397 Clouds 25 1010 69 10000 4.6 110 22:21 18.03.2020
6398 Clouds 24 1010 69 10000 5.7 110 21:54 18.03.2020
6399 Clouds 24 1010 69 10000 5.7 110 21:36 18.03.2020
6400 Clouds 25 1010 65 10000 5.7 90 21:18 18.03.2020
6401 Clouds 24 1010 65 10000 4.1 100 20:41 18.03.2020
6402 Clouds 24 1010 69 10000 3.6 90 20:21 18.03.2020
6403 Clouds 24 1010 73 10000 5.7 80 19:58 18.03.2020
6404 Clouds 24 1010 73 10000 5.7 80 19:40 18.03.2020
6405 Clouds 24 1010 65 10000 5.7 70 19:21 18.03.2020
6406 Clouds 24 1010 65 10000 5.7 70 19:21 18.03.2020
6407 Clouds 24 1010 65 10000 5.7 70 19:21 18.03.2020
6408 Clouds 24 1010 69 10000 6.2 90 18:54 18.03.2020
6409 Thunderstorm 24 1011 78 10000 4.1 70 18:36 18.03.2020
6410 Thunderstorm 24 1011 78 10000 4.1 70 18:18 18.03.2020
6411 Clouds 24 1009 78 10000 6.7 80 17:41 18.03.2020
6412 Clouds 24 1009 78 10000 6.7 80 17:22 18.03.2020
6413 Thunderstorm 24 1010 78 10000 6.7 60 16:59 18.03.2020
6414 Thunderstorm 24 1010 78 10000 6.7 60 16:40 18.03.2020
6415 Rain 25 1011 65 10000 5.1 70 16:20 18.03.2020
6416 Thunderstorm 26 1010 69 9000 3.6 30 15:46 18.03.2020
6417 Thunderstorm 27 1010 65 9000 6.2 80 15:27 18.03.2020
6418 Clouds 27 1009 54 10000 6.7 70 14:58 18.03.2020
6419 Clouds 28 1009 54 10000 6.7 70 14:40 18.03.2020
6420 Clouds 28 1009 57 10000 6.2 90 14:20 18.03.2020
6421 Clouds 29 1009 61 10000 6.2 80 13:40 18.03.2020
6422 Clouds 29 1010 54 10000 5.7 90 13:19 18.03.2020
6423 Clouds 30 1010 54 10000 5.7 110 12:42 18.03.2020
6424 Clouds 30 1010 54 10000 5.7 110 12:21 18.03.2020
6425 Clouds 30 1010 48 10000 6.7 100 11:58 18.03.2020
6426 Clouds 30 1011 54 10000 6.2 110 11:37 18.03.2020
6427 Clouds 30 1011 54 10000 6.2 110 11:18 18.03.2020
6428 Clouds 29 1011 54 10000 6.7 120 10:55 18.03.2020
6429 Clouds 29 1012 58 10000 9.3 130 10:36 18.03.2020
6430 Clouds 29 1012 58 10000 9.3 130 10:18 18.03.2020
6431 Clouds 28 1012 65 10000 7.7 110 09:41 18.03.2020
6432 Clouds 28 1013 69 10000 7.2 120 09:22 18.03.2020
6433 Clouds 27 1013 69 10000 6.7 110 08:54 18.03.2020
6434 Clouds 27 1013 69 10000 6.7 110 08:36 18.03.2020
6435 Clouds 26 1013 73 10000 7.2 110 08:18 18.03.2020
6436 Clouds 26 1013 69 10000 6.2 120 07:39 18.03.2020
6437 Clouds 26 1013 69 10000 6.2 120 07:21 18.03.2020
6438 Clouds 25 1013 69 10000 5.1 110 06:42 18.03.2020
6439 Clouds 23 1013 83 10000 3.1 100 05:43 18.03.2020
6440 Clear 23 1012 83 10000 3.6 100 04:58 18.03.2020
6441 Mist 22 1012 77 9000 4.6 90 03:21 18.03.2020
6442 Clear 22 1011 83 10000 5.1 100 02:37 18.03.2020
6443 Clear 22 1011 83 10000 5.1 100 02:37 18.03.2020
6444 Clear 22 1011 83 10000 5.1 100 02:37 18.03.2020
6445 Clear 22 1011 69 10000 3.6 80 01:45 18.03.2020
6446 Clear 23 1011 73 10000 3.6 80 01:19 18.03.2020
6447 Clear 23 1011 73 10000 2.6 70 00:22 18.03.2020
6448 Clear 23 1012 73 10000 4.1 80 23:43 17.03.2020
6449 Clear 23 1012 73 10000 5.1 80 23:22 17.03.2020
6450 Clear 23 1012 73 10000 5.1 80 22:47 17.03.2020
6451 Clear 23 1012 73 10000 5.1 80 22:28 17.03.2020
6452 Clear 23 1013 78 10000 4.6 80 21:57 17.03.2020
6453 Clear 23 1013 78 10000 4.6 80 21:36 17.03.2020
6454 Clear 23 1013 78 10000 4.1 80 21:18 17.03.2020
6455 Clear 23 1013 78 10000 4.6 80 20:38 17.03.2020
6456 Clear 23 1013 88 10000 4.1 80 20:19 17.03.2020
6457 Clear 22 1013 88 10000 4.6 80 19:42 17.03.2020
6458 Clear 22 1013 94 10000 4.6 80 19:22 17.03.2020
6459 Clear 23 1014 88 10000 4.6 80 18:59 17.03.2020
6460 Clear 23 1014 88 10000 4.1 70 18:40 17.03.2020
6461 Clear 23 1014 88 10000 4.1 70 18:22 17.03.2020
6462 Clear 23 1014 88 10000 4.1 70 17:59 17.03.2020
6463 Clear 23 1013 88 10000 4.1 70 17:39 17.03.2020
6464 Clear 23 1013 88 10000 4.1 70 17:19 17.03.2020
6465 Clear 24 1013 88 10000 4.6 70 16:43 17.03.2020
6466 Clear 24 1013 83 10000 5.1 60 16:19 17.03.2020
6467 Clear 25 1013 78 10000 5.1 50 15:48 17.03.2020
6468 Clear 25 1013 78 10000 5.1 40 15:23 17.03.2020
6469 Clear 26 1013 69 10000 4.1 20 14:49 17.03.2020
6470 Clear 26 1013 69 10000 4.6 20 14:31 17.03.2020
6471 Clear 27 1013 65 10000 3.6 40 13:59 17.03.2020
6472 Clear 27 1013 65 10000 3.6 40 13:41 17.03.2020
6473 Clear 26 1013 69 10000 3.6 40 13:22 17.03.2020
6474 Clear 27 1013 65 10000 3.1 70 12:47 17.03.2020
6475 Clear 27 1014 65 10000 4.1 60 12:25 17.03.2020
6476 Clear 27 1014 61 10000 4.1 60 11:59 17.03.2020
6477 Clear 27 1014 61 10000 4.6 60 11:39 17.03.2020
6478 Clear 27 1014 61 10000 4.6 60 11:21 17.03.2020
6479 Clear 27 1015 57 10000 4.6 60 10:54 17.03.2020
6480 Clear 27 1015 57 10000 4.6 60 10:36 17.03.2020
6481 Clear 27 1015 54 10000 4.1 50 10:18 17.03.2020
6482 Clear 27 1016 54 10000 3.6 60 09:45 17.03.2020
6483 Clear 27 1016 54 10000 3.6 60 09:45 17.03.2020
6484 Clear 27 1016 54 10000 4.1 50 09:20 17.03.2020
6485 Clear 27 1016 54 10000 3.6 60 08:57 17.03.2020
6486 Clear 27 1016 54 10000 4.1 60 08:39 17.03.2020
6487 Clear 26 1016 54 10000 4.1 60 08:18 17.03.2020
6488 Clear 27 1016 47 10000 3.6 70 07:47 17.03.2020
6489 Clear 26 1016 47 10000 3.6 70 07:20 17.03.2020
6490 Clear 25 1016 47 10000 3.1 70 06:45 17.03.2020
6491 Clear 25 1016 53 10000 2.6 60 06:25 17.03.2020
6492 Clear 23 1016 73 10000 1 40 05:18 17.03.2020
6493 Clear 21 1015 83 10000 2.1 340 03:27 17.03.2020
6494 Clear 22 1014 83 10000 1 350 01:50 17.03.2020
6495 Clear 22 1014 77 10000 1.5 10 01:30 17.03.2020
6496 Clouds 22 1014 73 10000 1 350 00:51 17.03.2020
6497 Clouds 22 1014 68 10000 2.1 350 23:52 16.03.2020
6498 Clouds 22 1014 73 10000 3.1 330 23:34 16.03.2020
6499 Clear 22 1014 69 10000 2.1 350 22:55 16.03.2020
6500 Clear 22 1014 69 10000 2.1 350 22:36 16.03.2020
6501 Clear 22 1014 69 10000 2.1 330 22:18 16.03.2020
6502 Clear 23 1014 69 10000 2.6 330 21:41 16.03.2020
6503 Clear 23 1014 64 10000 1.5 340 21:23 16.03.2020
6504 Clear 24 1014 57 10000 1 0 20:58 16.03.2020
6505 Clear 24 1014 57 10000 1 0 20:38 16.03.2020
6506 Clear 24 1014 60 10000 1 200 20:20 16.03.2020
6507 Clear 24 1014 60 10000 1.5 180 19:43 16.03.2020
6508 Clear 24 1014 64 10000 2.1 70 19:23 16.03.2020
6509 Clear 24 1014 60 10000 1.5 50 18:57 16.03.2020
6510 Clear 24 1013 60 10000 2.1 300 18:37 16.03.2020
6511 Clear 24 1013 60 10000 2.1 300 18:18 16.03.2020
6512 Clear 24 1013 60 10000 4.1 80 17:43 16.03.2020
6513 Clear 24 1013 64 10000 2.6 80 17:24 16.03.2020
6514 Clear 24 1013 64 10000 3.1 110 16:47 16.03.2020
6515 Clear 24 1012 64 10000 2.6 90 16:29 16.03.2020
6516 Clear 26 1012 61 10000 4.6 100 15:57 16.03.2020
6517 Clear 26 1012 61 10000 4.6 100 15:39 16.03.2020
6518 Clear 26 1012 57 10000 5.7 90 15:19 16.03.2020
6519 Clear 27 1012 57 10000 5.7 90 14:43 16.03.2020
6520 Clear 27 1012 50 10000 5.7 100 14:19 16.03.2020
6521 Clear 28 1012 51 10000 5.1 100 13:42 16.03.2020
6522 Clear 28 1012 47 10000 5.1 100 13:24 16.03.2020
6523 Clear 29 1012 51 10000 6.2 100 12:46 16.03.2020
6524 Clear 28 1012 57 10000 5.7 110 12:27 16.03.2020
6525 Clear 28 1012 57 10000 5.7 110 11:59 16.03.2020
6526 Clear 28 1013 57 10000 5.7 110 11:41 16.03.2020
6527 Clear 28 1013 57 10000 5.7 110 11:18 16.03.2020
6528 Clear 27 1013 61 10000 5.7 110 10:42 16.03.2020
6529 Clear 27 1013 57 10000 6.2 100 10:24 16.03.2020
6530 Clear 27 1013 57 10000 5.7 110 09:45 16.03.2020
6531 Clear 27 1014 54 10000 6.2 100 09:27 16.03.2020
6532 Clear 27 1014 51 10000 4.6 110 08:56 16.03.2020
6533 Clear 27 1014 51 10000 5.1 120 08:26 16.03.2020
6534 Clear 26 1015 54 10000 5.1 130 07:50 16.03.2020
6535 Clear 26 1014 57 10000 3.6 120 07:28 16.03.2020
6536 Clear 25 1014 61 10000 3.6 100 06:54 16.03.2020
6537 Clear 25 1014 61 10000 3.6 100 06:54 16.03.2020
6538 Clear 25 1014 61 10000 3.1 110 06:26 16.03.2020
6539 Clear 23 1014 64 10000 1 0 05:54 16.03.2020
6540 Clouds 22 1011 68 10000 1 0 02:46 16.03.2020
6541 Clouds 23 1010 69 10000 5.1 120 01:20 16.03.2020
6542 Clouds 24 1010 69 10000 4.6 120 00:42 16.03.2020
6543 Clouds 24 1010 69 10000 4.6 120 23:49 15.03.2020
6544 Clouds 24 1010 69 10000 4.1 120 23:21 15.03.2020
6545 Clear 24 1010 69 10000 5.1 120 22:56 15.03.2020
6546 Clear 24 1010 69 10000 5.1 120 22:37 15.03.2020
6547 Clear 24 1010 64 10000 4.6 120 22:19 15.03.2020
6548 Clear 24 1010 60 10000 5.7 100 21:39 15.03.2020
6549 Clear 24 1010 57 10000 5.7 110 21:19 15.03.2020
6550 Clear 24 1011 53 10000 3.1 90 20:43 15.03.2020
6551 Clear 24 1011 53 10000 4.1 90 20:22 15.03.2020
6552 Clear 24 1011 53 10000 3.6 70 19:58 15.03.2020
6553 Clear 24 1011 53 10000 3.6 70 19:40 15.03.2020
6554 Clear 24 1011 41 10000 5.1 90 19:22 15.03.2020
6555 Clear 24 1011 50 10000 4.1 80 18:56 15.03.2020
6556 Clear 24 1011 50 10000 4.6 80 18:38 15.03.2020
6557 Clear 24 1011 50 10000 4.6 80 18:20 15.03.2020
6558 Clear 25 1010 41 10000 6.2 90 17:41 15.03.2020
6559 Clear 25 1010 41 10000 5.7 90 17:22 15.03.2020
6560 Clear 25 1010 41 10000 6.2 80 16:59 15.03.2020
6561 Clear 25 1010 41 10000 6.2 80 16:40 15.03.2020
6562 Clear 25 1010 44 10000 6.2 80 16:21 15.03.2020
6563 Clear 25 1010 47 10000 5.7 80 15:54 15.03.2020
6564 Clear 25 1010 47 10000 6.2 80 15:36 15.03.2020
6565 Clear 25 1010 47 10000 6.2 80 15:18 15.03.2020
6566 Clear 26 1010 41 10000 5.7 90 14:39 15.03.2020
6567 Clear 27 1010 41 10000 5.7 80 14:21 15.03.2020
6568 Clear 28 1009 39 10000 5.7 90 13:56 15.03.2020
6569 Clear 28 1009 39 10000 5.7 90 13:37 15.03.2020
6570 Clear 29 1009 34 10000 5.7 100 13:18 15.03.2020
6571 Clear 28 1010 39 10000 5.1 110 12:40 15.03.2020
6572 Clear 28 1010 39 10000 5.1 110 12:22 15.03.2020
6573 Clear 28 1010 47 10000 6.2 110 11:44 15.03.2020
6574 Clear 29 1010 39 10000 6.7 120 11:25 15.03.2020
6575 Clear 29 1011 28 10000 7.7 130 10:59 15.03.2020
6576 Clear 29 1011 28 10000 7.7 130 10:40 15.03.2020
6577 Clear 29 1011 28 10000 9.3 140 10:21 15.03.2020
6578 Clear 28 1011 32 10000 8.7 140 09:59 15.03.2020
6579 Clear 28 1011 32 10000 8.7 140 09:38 15.03.2020
6580 Clear 28 1012 42 10000 6.7 130 09:19 15.03.2020
6581 Clouds 28 1012 45 10000 7.2 130 08:41 15.03.2020
6582 Clouds 28 1012 39 10000 7.2 140 08:19 15.03.2020
6583 Clouds 26 1012 54 10000 7.2 120 07:45 15.03.2020
6584 Clouds 27 1012 61 10000 7.7 120 07:22 15.03.2020
6585 Clouds 24 1012 61 10000 6.7 120 06:43 15.03.2020
6586 Clouds 24 1012 60 10000 6.2 110 05:48 15.03.2020
6587 Clouds 23 1011 69 10000 5.7 110 04:56 15.03.2020
6588 Clouds 23 1010 69 10000 5.7 100 04:37 15.03.2020
6589 Clouds 22 1010 69 10000 5.7 100 04:18 15.03.2020
6590 Clouds 22 1010 78 10000 5.1 100 03:19 15.03.2020
6591 Clouds 22 1010 78 10000 4.1 100 02:22 15.03.2020
6592 Clouds 22 1010 73 10000 4.6 90 00:58 15.03.2020
6593 Clouds 22 1010 73 10000 4.6 90 00:40 15.03.2020
6594 Clouds 22 1010 73 10000 4.6 90 00:19 15.03.2020
6595 Clouds 22 1011 73 10000 5.1 80 23:39 14.03.2020
6596 Clouds 22 1011 78 10000 5.1 80 23:20 14.03.2020
6597 Clouds 22 1011 78 10000 5.7 70 22:56 14.03.2020
6598 Clouds 22 1011 78 10000 5.7 70 22:37 14.03.2020
6599 Clouds 22 1011 78 10000 5.7 70 22:37 14.03.2020
6600 Clouds 22 1011 78 10000 5.1 70 22:19 14.03.2020
6601 Clouds 23 1011 78 10000 5.1 80 21:55 14.03.2020
6602 Clouds 23 1011 78 10000 5.1 80 21:36 14.03.2020
6603 Clouds 23 1012 73 10000 3.6 70 21:18 14.03.2020
6604 Clouds 23 1012 64 10000 4.1 40 20:56 14.03.2020
6605 Clouds 23 1012 64 10000 4.1 40 20:56 14.03.2020
6606 Clouds 23 1012 64 10000 4.1 40 20:38 14.03.2020
6607 Clouds 23 1012 64 10000 4.6 360 20:18 14.03.2020
6608 Clouds 24 1012 47 10000 1.5 50 19:41 14.03.2020
6609 Clouds 24 1012 47 10000 1 0 19:20 14.03.2020
6610 Clouds 24 1013 50 10000 1 0 18:40 14.03.2020
6611 Clouds 24 1013 50 10000 1 0 18:20 14.03.2020
6612 Clouds 24 1012 47 10000 1 0 17:42 14.03.2020
6613 Clouds 24 1012 47 10000 1 0 17:23 14.03.2020
6614 Rain 25 1011 47 10000 3.1 70 16:59 14.03.2020
6615 Rain 25 1011 47 10000 3.1 70 16:38 14.03.2020
6616 Clouds 25 1012 50 10000 2.6 130 16:19 14.03.2020
6617 Clouds 25 1012 50 10000 1.5 100 15:46 14.03.2020
6618 Clouds 25 1011 53 10000 1.5 90 15:22 14.03.2020
6619 Clouds 25 1010 53 10000 4.6 120 14:43 14.03.2020
6620 Clouds 25 1010 38 10000 5.7 140 14:21 14.03.2020
6621 Clouds 26 1011 38 10000 5.7 140 13:57 14.03.2020
6622 Clouds 26 1011 38 10000 6.2 130 13:38 14.03.2020
6623 Clouds 26 1011 38 10000 6.2 130 13:20 14.03.2020
6624 Clouds 27 1012 32 10000 4.1 170 12:44 14.03.2020
6625 Clouds 27 1012 32 10000 4.1 170 12:26 14.03.2020
6626 Clouds 27 1012 34 10000 6.2 160 11:46 14.03.2020
6627 Clouds 27 1012 34 10000 6.2 160 11:46 14.03.2020
6628 Clouds 27 1012 34 10000 6.2 160 11:26 14.03.2020
6629 Clouds 27 1013 39 10000 7.2 150 10:57 14.03.2020
6630 Clouds 26 1013 44 10000 6.7 130 10:39 14.03.2020
6631 Clouds 26 1013 44 10000 6.7 130 10:20 14.03.2020
6632 Clouds 26 1014 41 10000 7.7 150 09:41 14.03.2020
6633 Clouds 26 1015 47 10000 7.7 140 09:22 14.03.2020
6634 Clouds 25 1015 57 10000 6.2 140 08:47 14.03.2020
6635 Clouds 25 1015 57 10000 6.2 140 08:47 14.03.2020
6636 Clouds 25 1016 57 10000 6.7 120 08:27 14.03.2020
6637 Clouds 25 1016 69 10000 5.7 120 07:49 14.03.2020
6638 Clouds 25 1016 69 10000 6.2 120 07:23 14.03.2020
6639 Clouds 24 1016 60 10000 6.2 130 06:59 14.03.2020
6640 Clouds 24 1016 60 10000 6.7 130 06:39 14.03.2020
6641 Clouds 23 1015 64 10000 4.1 130 05:19 14.03.2020
6642 Clouds 23 1014 64 10000 4.1 110 03:42 14.03.2020
6643 Clouds 23 1014 64 10000 4.1 110 03:23 14.03.2020
6644 Clouds 22 1013 68 10000 4.6 100 02:20 14.03.2020
6645 Clouds 22 1014 73 10000 2.6 100 00:42 14.03.2020
6646 Clouds 22 1014 68 10000 1.5 80 23:45 13.03.2020
6647 Clouds 22 1015 68 10000 1 80 23:26 13.03.2020
6648 Clouds 22 1015 68 10000 1.5 80 22:47 13.03.2020
6649 Clouds 22 1015 64 10000 1 80 22:25 13.03.2020
6650 Clouds 22 1016 68 10000 1 90 21:43 13.03.2020
6651 Clouds 22 1016 64 10000 1.5 80 21:21 13.03.2020
6652 Clouds 22 1016 64 10000 1 0 20:57 13.03.2020
6653 Clouds 22 1016 64 10000 1 0 20:38 13.03.2020
6654 Clouds 22 1016 68 10000 1.5 60 20:19 13.03.2020
6655 Clouds 21 1016 68 10000 1.5 50 19:45 13.03.2020
6656 Clouds 21 1016 73 10000 1.5 30 19:27 13.03.2020
6657 Clouds 21 1016 73 10000 2.1 50 18:47 13.03.2020
6658 Clouds 21 1015 73 10000 2.6 70 18:28 13.03.2020
6659 Clouds 22 1015 73 10000 3.1 80 17:57 13.03.2020
6660 Clouds 22 1014 64 10000 3.1 80 17:37 13.03.2020
6661 Clouds 22 1014 64 10000 3.1 80 17:18 13.03.2020
6662 Clouds 22 1014 68 10000 3.1 90 16:41 13.03.2020
6663 Clouds 23 1014 68 10000 3.6 100 16:23 13.03.2020
6664 Clouds 23 1015 73 10000 4.6 100 15:55 13.03.2020
6665 Clouds 23 1015 73 10000 4.6 100 15:37 13.03.2020
6666 Clouds 24 1015 64 10000 4.6 110 15:18 13.03.2020
6667 Clouds 24 1015 56 10000 5.1 120 14:41 13.03.2020
6668 Clouds 25 1015 53 10000 5.1 110 14:22 13.03.2020
6669 Clouds 26 1015 47 10000 5.1 110 13:56 13.03.2020
6670 Clouds 26 1015 44 10000 4.6 100 13:38 13.03.2020
6671 Clouds 26 1015 44 10000 4.6 100 13:19 13.03.2020
6672 Clouds 27 1015 39 10000 5.1 100 12:40 13.03.2020
6673 Clouds 26 1015 39 10000 5.1 100 12:22 13.03.2020
6674 Clouds 27 1016 39 10000 4.6 100 11:57 13.03.2020
6675 Clouds 27 1016 41 10000 4.6 120 11:39 13.03.2020
6676 Clouds 27 1016 41 10000 4.6 120 11:21 13.03.2020
6677 Clouds 26 1016 36 10000 4.6 110 10:47 13.03.2020
6678 Clouds 26 1017 39 10000 4.6 110 10:27 13.03.2020
6679 Clouds 26 1017 41 10000 5.1 110 09:57 13.03.2020
6680 Clouds 26 1017 41 10000 5.1 110 09:57 13.03.2020
6681 Clouds 26 1017 41 10000 5.1 110 09:39 13.03.2020
6682 Clouds 26 1018 53 10000 4.6 110 09:20 13.03.2020
6683 Clouds 25 1018 60 10000 5.1 120 08:45 13.03.2020
6684 Clouds 25 1018 53 10000 4.1 110 08:22 13.03.2020
6685 Clouds 24 1018 60 10000 4.1 90 07:49 13.03.2020
6686 Clouds 24 1018 64 10000 4.1 110 07:28 13.03.2020
6687 Clouds 22 1018 68 10000 3.6 110 06:47 13.03.2020
6688 Clouds 22 1017 68 10000 3.1 100 06:28 13.03.2020
6689 Clouds 21 1017 77 10000 1.5 80 05:54 13.03.2020
6690 Clouds 18 1016 88 10000 2.1 100 05:22 13.03.2020
6691 Clouds 19 1016 88 10000 2.1 100 04:37 13.03.2020
6692 Clouds 18 1016 82 10000 0.5 0 03:37 13.03.2020
6693 Clouds 19 1015 72 10000 0.5 0